<?xml version="1.0" encoding="UTF-8" standalone="no" ?>
<gpx xmlns="http://www.topografix.com/GPX/1/1" xmlns:xsi="http://www.w3.org/2001/XMLSchema-instance" xsi:schemaLocation="http://www.topografix.com/GPX/1/1 http://www.topografix.com/GPX/1/1/gpx.xsd" version="1.1" creator="VisuGPX - https://www.visugpx.com">
  <metadata>
    <name>26 - Claveyson (2022-01-29)</name>
  </metadata>
  <trk>
    <name><![CDATA[26 - Claveyson (2022-01-29)_1]]></name>
    <trkseg>
      <trkpt lat="45.08092" lon="5.08544">
        <ele>-12.6</ele>
        <time>2022-01-29T09:12:01Z</time>
      </trkpt>
      <trkpt lat="45.08082" lon="5.08545">
        <ele>-12.6</ele>
        <time>2022-01-29T09:12:05Z</time>
      </trkpt>
      <trkpt lat="45.08078" lon="5.08535">
        <ele>-13</ele>
        <time>2022-01-29T09:12:09Z</time>
      </trkpt>
      <trkpt lat="45.08074" lon="5.08523">
        <ele>-12.4</ele>
        <time>2022-01-29T09:12:13Z</time>
      </trkpt>
      <trkpt lat="45.08068" lon="5.08519">
        <ele>-12.6</ele>
        <time>2022-01-29T09:12:17Z</time>
      </trkpt>
      <trkpt lat="45.08076" lon="5.08509">
        <ele>-12</ele>
        <time>2022-01-29T09:12:21Z</time>
      </trkpt>
      <trkpt lat="45.08086" lon="5.08502">
        <ele>-11.8</ele>
        <time>2022-01-29T09:12:25Z</time>
      </trkpt>
      <trkpt lat="45.08098" lon="5.08495">
        <ele>-12.2</ele>
        <time>2022-01-29T09:12:29Z</time>
      </trkpt>
      <trkpt lat="45.08108" lon="5.08488">
        <ele>-12</ele>
        <time>2022-01-29T09:12:33Z</time>
      </trkpt>
      <trkpt lat="45.08117" lon="5.08478">
        <ele>-11.8</ele>
        <time>2022-01-29T09:12:37Z</time>
      </trkpt>
      <trkpt lat="45.08128" lon="5.08471">
        <ele>-12</ele>
        <time>2022-01-29T09:12:41Z</time>
      </trkpt>
      <trkpt lat="45.08139" lon="5.08466">
        <ele>-11.6</ele>
        <time>2022-01-29T09:12:45Z</time>
      </trkpt>
      <trkpt lat="45.08148" lon="5.0846">
        <ele>-11.2</ele>
        <time>2022-01-29T09:12:49Z</time>
      </trkpt>
      <trkpt lat="45.08163" lon="5.08449">
        <ele>-10</ele>
        <time>2022-01-29T09:13:02Z</time>
      </trkpt>
      <trkpt lat="45.08175" lon="5.08445">
        <ele>-9.6</ele>
        <time>2022-01-29T09:13:06Z</time>
      </trkpt>
      <trkpt lat="45.08186" lon="5.0844">
        <ele>-9.2</ele>
        <time>2022-01-29T09:13:10Z</time>
      </trkpt>
      <trkpt lat="45.08198" lon="5.08437">
        <ele>-8.8</ele>
        <time>2022-01-29T09:13:14Z</time>
      </trkpt>
      <trkpt lat="45.08211" lon="5.08435">
        <ele>-8.6</ele>
        <time>2022-01-29T09:13:18Z</time>
      </trkpt>
      <trkpt lat="45.08223" lon="5.08436">
        <ele>-7.8</ele>
        <time>2022-01-29T09:13:22Z</time>
      </trkpt>
      <trkpt lat="45.08234" lon="5.08435">
        <ele>-7.8</ele>
        <time>2022-01-29T09:13:26Z</time>
      </trkpt>
      <trkpt lat="45.08244" lon="5.08432">
        <ele>-7.8</ele>
        <time>2022-01-29T09:13:30Z</time>
      </trkpt>
      <trkpt lat="45.08254" lon="5.08432">
        <ele>-7.6</ele>
        <time>2022-01-29T09:13:34Z</time>
      </trkpt>
      <trkpt lat="45.08263" lon="5.0843">
        <ele>-7.4</ele>
        <time>2022-01-29T09:13:38Z</time>
      </trkpt>
      <trkpt lat="45.08273" lon="5.08431">
        <ele>-7.2</ele>
        <time>2022-01-29T09:13:42Z</time>
      </trkpt>
      <trkpt lat="45.08284" lon="5.08428">
        <ele>-6.8</ele>
        <time>2022-01-29T09:13:46Z</time>
      </trkpt>
      <trkpt lat="45.08294" lon="5.08423">
        <ele>-6.8</ele>
        <time>2022-01-29T09:13:50Z</time>
      </trkpt>
      <trkpt lat="45.08304" lon="5.08416">
        <ele>-6.8</ele>
        <time>2022-01-29T09:13:54Z</time>
      </trkpt>
      <trkpt lat="45.08312" lon="5.08409">
        <ele>-6.4</ele>
        <time>2022-01-29T09:13:58Z</time>
      </trkpt>
      <trkpt lat="45.08321" lon="5.08403">
        <ele>-6</ele>
        <time>2022-01-29T09:14:02Z</time>
      </trkpt>
      <trkpt lat="45.0833" lon="5.08397">
        <ele>-5.4</ele>
        <time>2022-01-29T09:14:06Z</time>
      </trkpt>
      <trkpt lat="45.08341" lon="5.08396">
        <ele>-5.8</ele>
        <time>2022-01-29T09:14:10Z</time>
      </trkpt>
      <trkpt lat="45.08352" lon="5.08396">
        <ele>-5</ele>
        <time>2022-01-29T09:14:14Z</time>
      </trkpt>
      <trkpt lat="45.08362" lon="5.08398">
        <ele>-3.6</ele>
        <time>2022-01-29T09:14:18Z</time>
      </trkpt>
      <trkpt lat="45.08371" lon="5.08398">
        <ele>-3.8</ele>
        <time>2022-01-29T09:14:22Z</time>
      </trkpt>
      <trkpt lat="45.0838" lon="5.08398">
        <ele>-3.8</ele>
        <time>2022-01-29T09:14:26Z</time>
      </trkpt>
      <trkpt lat="45.08386" lon="5.08398">
        <ele>-3.2</ele>
        <time>2022-01-29T09:14:30Z</time>
      </trkpt>
      <trkpt lat="45.08394" lon="5.08397">
        <ele>-3</ele>
        <time>2022-01-29T09:14:34Z</time>
      </trkpt>
      <trkpt lat="45.084" lon="5.08398">
        <ele>-2.4</ele>
        <time>2022-01-29T09:14:38Z</time>
      </trkpt>
      <trkpt lat="45.08406" lon="5.08406">
        <ele>-2.6</ele>
        <time>2022-01-29T09:14:42Z</time>
      </trkpt>
      <trkpt lat="45.08408" lon="5.08407">
        <ele>-2.6</ele>
        <time>2022-01-29T09:16:08Z</time>
      </trkpt>
      <trkpt lat="45.08416" lon="5.08397">
        <ele>-1.2</ele>
        <time>2022-01-29T09:16:12Z</time>
      </trkpt>
      <trkpt lat="45.08427" lon="5.08395">
        <ele>-0.39999999999998</ele>
        <time>2022-01-29T09:16:16Z</time>
      </trkpt>
      <trkpt lat="45.08437" lon="5.08397">
        <ele>-0.39999999999998</ele>
        <time>2022-01-29T09:16:20Z</time>
      </trkpt>
      <trkpt lat="45.08448" lon="5.08397">
        <ele>-0.39999999999998</ele>
        <time>2022-01-29T09:16:24Z</time>
      </trkpt>
      <trkpt lat="45.08459" lon="5.084">
        <ele>0.39999999999998</ele>
        <time>2022-01-29T09:16:28Z</time>
      </trkpt>
      <trkpt lat="45.08464" lon="5.08408">
        <ele>0.39999999999998</ele>
        <time>2022-01-29T09:16:32Z</time>
      </trkpt>
      <trkpt lat="45.08467" lon="5.08408">
        <ele>0.19999999999999</ele>
        <time>2022-01-29T09:16:36Z</time>
      </trkpt>
      <trkpt lat="45.08463" lon="5.08398">
        <ele>0.19999999999999</ele>
        <time>2022-01-29T09:16:47Z</time>
      </trkpt>
      <trkpt lat="45.08452" lon="5.08395">
        <ele>-0.19999999999999</ele>
        <time>2022-01-29T09:16:51Z</time>
      </trkpt>
      <trkpt lat="45.0844" lon="5.08392">
        <ele>-0.19999999999999</ele>
        <time>2022-01-29T09:16:55Z</time>
      </trkpt>
      <trkpt lat="45.08427" lon="5.08391">
        <ele>-1.4</ele>
        <time>2022-01-29T09:16:59Z</time>
      </trkpt>
      <trkpt lat="45.08407" lon="5.08393">
        <ele>-1.6</ele>
        <time>2022-01-29T09:17:03Z</time>
      </trkpt>
      <trkpt lat="45.08385" lon="5.08392">
        <ele>-2.4</ele>
        <time>2022-01-29T09:17:07Z</time>
      </trkpt>
      <trkpt lat="45.08361" lon="5.08393">
        <ele>-4</ele>
        <time>2022-01-29T09:17:11Z</time>
      </trkpt>
      <trkpt lat="45.08344" lon="5.08392">
        <ele>-4.6</ele>
        <time>2022-01-29T09:17:15Z</time>
      </trkpt>
      <trkpt lat="45.0833" lon="5.0839">
        <ele>-5</ele>
        <time>2022-01-29T09:17:19Z</time>
      </trkpt>
      <trkpt lat="45.08316" lon="5.08402">
        <ele>-5.8</ele>
        <time>2022-01-29T09:17:23Z</time>
      </trkpt>
      <trkpt lat="45.083" lon="5.08413">
        <ele>-5.8</ele>
        <time>2022-01-29T09:17:27Z</time>
      </trkpt>
      <trkpt lat="45.08284" lon="5.08422">
        <ele>-6.2</ele>
        <time>2022-01-29T09:17:31Z</time>
      </trkpt>
      <trkpt lat="45.08265" lon="5.08425">
        <ele>-7</ele>
        <time>2022-01-29T09:17:35Z</time>
      </trkpt>
      <trkpt lat="45.08244" lon="5.08427">
        <ele>-8</ele>
        <time>2022-01-29T09:17:39Z</time>
      </trkpt>
      <trkpt lat="45.08222" lon="5.08429">
        <ele>-8</ele>
        <time>2022-01-29T09:17:43Z</time>
      </trkpt>
      <trkpt lat="45.082" lon="5.08432">
        <ele>-8.4</ele>
        <time>2022-01-29T09:17:47Z</time>
      </trkpt>
      <trkpt lat="45.0818" lon="5.08436">
        <ele>-8</ele>
        <time>2022-01-29T09:17:51Z</time>
      </trkpt>
      <trkpt lat="45.08165" lon="5.0844">
        <ele>-9.2</ele>
        <time>2022-01-29T09:17:55Z</time>
      </trkpt>
      <trkpt lat="45.08156" lon="5.08429">
        <ele>-9.2</ele>
        <time>2022-01-29T09:18:04Z</time>
      </trkpt>
      <trkpt lat="45.08153" lon="5.08413">
        <ele>-9.4</ele>
        <time>2022-01-29T09:18:08Z</time>
      </trkpt>
      <trkpt lat="45.08152" lon="5.08395">
        <ele>-9.2</ele>
        <time>2022-01-29T09:18:12Z</time>
      </trkpt>
      <trkpt lat="45.0815" lon="5.08376">
        <ele>-9.6</ele>
        <time>2022-01-29T09:18:16Z</time>
      </trkpt>
      <trkpt lat="45.08148" lon="5.08355">
        <ele>-9.4</ele>
        <time>2022-01-29T09:18:20Z</time>
      </trkpt>
      <trkpt lat="45.08144" lon="5.08335">
        <ele>-9.4</ele>
        <time>2022-01-29T09:18:24Z</time>
      </trkpt>
      <trkpt lat="45.08139" lon="5.08313">
        <ele>-9.4</ele>
        <time>2022-01-29T09:18:28Z</time>
      </trkpt>
      <trkpt lat="45.08134" lon="5.08293">
        <ele>-9</ele>
        <time>2022-01-29T09:18:32Z</time>
      </trkpt>
      <trkpt lat="45.08127" lon="5.08273">
        <ele>-8.6</ele>
        <time>2022-01-29T09:18:36Z</time>
      </trkpt>
      <trkpt lat="45.08122" lon="5.08251">
        <ele>-8.6</ele>
        <time>2022-01-29T09:18:40Z</time>
      </trkpt>
      <trkpt lat="45.08115" lon="5.08231">
        <ele>-8.4</ele>
        <time>2022-01-29T09:18:44Z</time>
      </trkpt>
      <trkpt lat="45.08106" lon="5.08214">
        <ele>-8.2</ele>
        <time>2022-01-29T09:18:48Z</time>
      </trkpt>
      <trkpt lat="45.08096" lon="5.08196">
        <ele>-8.2</ele>
        <time>2022-01-29T09:18:52Z</time>
      </trkpt>
      <trkpt lat="45.08087" lon="5.0818">
        <ele>-8</ele>
        <time>2022-01-29T09:18:56Z</time>
      </trkpt>
      <trkpt lat="45.08076" lon="5.08164">
        <ele>-7.2</ele>
        <time>2022-01-29T09:19:00Z</time>
      </trkpt>
      <trkpt lat="45.08064" lon="5.08149">
        <ele>-7.6</ele>
        <time>2022-01-29T09:19:04Z</time>
      </trkpt>
      <trkpt lat="45.08049" lon="5.08135">
        <ele>-7.8</ele>
        <time>2022-01-29T09:19:08Z</time>
      </trkpt>
      <trkpt lat="45.08034" lon="5.08119">
        <ele>-7.8</ele>
        <time>2022-01-29T09:19:12Z</time>
      </trkpt>
      <trkpt lat="45.08017" lon="5.08102">
        <ele>-8</ele>
        <time>2022-01-29T09:19:16Z</time>
      </trkpt>
      <trkpt lat="45.08001" lon="5.08085">
        <ele>-9</ele>
        <time>2022-01-29T09:19:20Z</time>
      </trkpt>
      <trkpt lat="45.07985" lon="5.08066">
        <ele>-9</ele>
        <time>2022-01-29T09:19:24Z</time>
      </trkpt>
      <trkpt lat="45.07969" lon="5.08047">
        <ele>-9.8</ele>
        <time>2022-01-29T09:19:28Z</time>
      </trkpt>
      <trkpt lat="45.07953" lon="5.08026">
        <ele>-10.2</ele>
        <time>2022-01-29T09:19:32Z</time>
      </trkpt>
      <trkpt lat="45.07939" lon="5.08007">
        <ele>-10.6</ele>
        <time>2022-01-29T09:19:36Z</time>
      </trkpt>
      <trkpt lat="45.07925" lon="5.07988">
        <ele>-10.6</ele>
        <time>2022-01-29T09:19:40Z</time>
      </trkpt>
      <trkpt lat="45.0791" lon="5.07967">
        <ele>-10.8</ele>
        <time>2022-01-29T09:19:44Z</time>
      </trkpt>
      <trkpt lat="45.07896" lon="5.07945">
        <ele>-10.8</ele>
        <time>2022-01-29T09:19:48Z</time>
      </trkpt>
      <trkpt lat="45.07882" lon="5.07923">
        <ele>-11.2</ele>
        <time>2022-01-29T09:19:52Z</time>
      </trkpt>
      <trkpt lat="45.07867" lon="5.07901">
        <ele>-11.6</ele>
        <time>2022-01-29T09:19:56Z</time>
      </trkpt>
      <trkpt lat="45.07853" lon="5.0788">
        <ele>-12</ele>
        <time>2022-01-29T09:20:00Z</time>
      </trkpt>
      <trkpt lat="45.0784" lon="5.07859">
        <ele>-11.8</ele>
        <time>2022-01-29T09:20:04Z</time>
      </trkpt>
      <trkpt lat="45.07826" lon="5.07839">
        <ele>-11.6</ele>
        <time>2022-01-29T09:20:08Z</time>
      </trkpt>
      <trkpt lat="45.07812" lon="5.07819">
        <ele>-11.6</ele>
        <time>2022-01-29T09:20:12Z</time>
      </trkpt>
      <trkpt lat="45.07799" lon="5.07799">
        <ele>-11.6</ele>
        <time>2022-01-29T09:20:16Z</time>
      </trkpt>
      <trkpt lat="45.07786" lon="5.07779">
        <ele>-11.6</ele>
        <time>2022-01-29T09:20:20Z</time>
      </trkpt>
      <trkpt lat="45.07774" lon="5.07759">
        <ele>-11.4</ele>
        <time>2022-01-29T09:20:24Z</time>
      </trkpt>
      <trkpt lat="45.07763" lon="5.07739">
        <ele>-11.4</ele>
        <time>2022-01-29T09:20:28Z</time>
      </trkpt>
      <trkpt lat="45.07753" lon="5.07719">
        <ele>-11</ele>
        <time>2022-01-29T09:20:32Z</time>
      </trkpt>
      <trkpt lat="45.07746" lon="5.07696">
        <ele>-11.2</ele>
        <time>2022-01-29T09:20:36Z</time>
      </trkpt>
      <trkpt lat="45.07738" lon="5.0767">
        <ele>-12.2</ele>
        <time>2022-01-29T09:20:40Z</time>
      </trkpt>
      <trkpt lat="45.07731" lon="5.07642">
        <ele>-12.6</ele>
        <time>2022-01-29T09:20:44Z</time>
      </trkpt>
      <trkpt lat="45.07723" lon="5.07614">
        <ele>-12.8</ele>
        <time>2022-01-29T09:20:48Z</time>
      </trkpt>
      <trkpt lat="45.07716" lon="5.07589">
        <ele>-12.6</ele>
        <time>2022-01-29T09:20:52Z</time>
      </trkpt>
      <trkpt lat="45.07709" lon="5.07564">
        <ele>-12.8</ele>
        <time>2022-01-29T09:20:56Z</time>
      </trkpt>
      <trkpt lat="45.07701" lon="5.07539">
        <ele>-12.6</ele>
        <time>2022-01-29T09:21:00Z</time>
      </trkpt>
      <trkpt lat="45.0769" lon="5.07514">
        <ele>-12.6</ele>
        <time>2022-01-29T09:21:04Z</time>
      </trkpt>
      <trkpt lat="45.07679" lon="5.0749">
        <ele>-12.2</ele>
        <time>2022-01-29T09:21:08Z</time>
      </trkpt>
      <trkpt lat="45.07667" lon="5.07466">
        <ele>-12.6</ele>
        <time>2022-01-29T09:21:12Z</time>
      </trkpt>
      <trkpt lat="45.07655" lon="5.07445">
        <ele>-12.4</ele>
        <time>2022-01-29T09:21:16Z</time>
      </trkpt>
      <trkpt lat="45.07645" lon="5.07424">
        <ele>-11.8</ele>
        <time>2022-01-29T09:21:20Z</time>
      </trkpt>
      <trkpt lat="45.07635" lon="5.07406">
        <ele>-11.6</ele>
        <time>2022-01-29T09:21:24Z</time>
      </trkpt>
      <trkpt lat="45.07626" lon="5.07388">
        <ele>-11.4</ele>
        <time>2022-01-29T09:21:28Z</time>
      </trkpt>
      <trkpt lat="45.07615" lon="5.07365">
        <ele>-12.6</ele>
        <time>2022-01-29T09:21:32Z</time>
      </trkpt>
      <trkpt lat="45.07603" lon="5.07339">
        <ele>-13.2</ele>
        <time>2022-01-29T09:21:36Z</time>
      </trkpt>
      <trkpt lat="45.07591" lon="5.07312">
        <ele>-13</ele>
        <time>2022-01-29T09:21:40Z</time>
      </trkpt>
      <trkpt lat="45.0758" lon="5.07287">
        <ele>-13</ele>
        <time>2022-01-29T09:21:44Z</time>
      </trkpt>
      <trkpt lat="45.0757" lon="5.07265">
        <ele>-13.2</ele>
        <time>2022-01-29T09:21:48Z</time>
      </trkpt>
      <trkpt lat="45.0756" lon="5.07241">
        <ele>-12.6</ele>
        <time>2022-01-29T09:21:52Z</time>
      </trkpt>
      <trkpt lat="45.07552" lon="5.07216">
        <ele>-12.8</ele>
        <time>2022-01-29T09:21:56Z</time>
      </trkpt>
      <trkpt lat="45.07545" lon="5.07188">
        <ele>-13.2</ele>
        <time>2022-01-29T09:22:00Z</time>
      </trkpt>
      <trkpt lat="45.07538" lon="5.07162">
        <ele>-13.6</ele>
        <time>2022-01-29T09:22:04Z</time>
      </trkpt>
      <trkpt lat="45.07531" lon="5.07136">
        <ele>-13.2</ele>
        <time>2022-01-29T09:22:08Z</time>
      </trkpt>
      <trkpt lat="45.07524" lon="5.07111">
        <ele>-13.2</ele>
        <time>2022-01-29T09:22:12Z</time>
      </trkpt>
      <trkpt lat="45.07518" lon="5.07087">
        <ele>-13.2</ele>
        <time>2022-01-29T09:22:16Z</time>
      </trkpt>
      <trkpt lat="45.07511" lon="5.07063">
        <ele>-13</ele>
        <time>2022-01-29T09:22:20Z</time>
      </trkpt>
      <trkpt lat="45.07505" lon="5.0704">
        <ele>-12.8</ele>
        <time>2022-01-29T09:22:24Z</time>
      </trkpt>
      <trkpt lat="45.07498" lon="5.07016">
        <ele>-13.6</ele>
        <time>2022-01-29T09:22:28Z</time>
      </trkpt>
      <trkpt lat="45.07492" lon="5.06991">
        <ele>-13.2</ele>
        <time>2022-01-29T09:22:32Z</time>
      </trkpt>
      <trkpt lat="45.07484" lon="5.06967">
        <ele>-12.6</ele>
        <time>2022-01-29T09:22:36Z</time>
      </trkpt>
      <trkpt lat="45.07478" lon="5.06944">
        <ele>-12.4</ele>
        <time>2022-01-29T09:22:40Z</time>
      </trkpt>
      <trkpt lat="45.07473" lon="5.06921">
        <ele>-12.2</ele>
        <time>2022-01-29T09:22:44Z</time>
      </trkpt>
      <trkpt lat="45.07469" lon="5.06898">
        <ele>-11</ele>
        <time>2022-01-29T09:22:48Z</time>
      </trkpt>
      <trkpt lat="45.07465" lon="5.06876">
        <ele>-11.2</ele>
        <time>2022-01-29T09:22:52Z</time>
      </trkpt>
      <trkpt lat="45.07461" lon="5.06852">
        <ele>-10.2</ele>
        <time>2022-01-29T09:22:56Z</time>
      </trkpt>
      <trkpt lat="45.07457" lon="5.06828">
        <ele>-10.2</ele>
        <time>2022-01-29T09:23:00Z</time>
      </trkpt>
      <trkpt lat="45.07452" lon="5.06805">
        <ele>-10.2</ele>
        <time>2022-01-29T09:23:04Z</time>
      </trkpt>
      <trkpt lat="45.07448" lon="5.06782">
        <ele>-10.4</ele>
        <time>2022-01-29T09:23:08Z</time>
      </trkpt>
      <trkpt lat="45.07442" lon="5.06758">
        <ele>-9.8</ele>
        <time>2022-01-29T09:23:12Z</time>
      </trkpt>
      <trkpt lat="45.07435" lon="5.06731">
        <ele>-10.8</ele>
        <time>2022-01-29T09:23:16Z</time>
      </trkpt>
      <trkpt lat="45.07429" lon="5.067">
        <ele>-12</ele>
        <time>2022-01-29T09:23:20Z</time>
      </trkpt>
      <trkpt lat="45.07421" lon="5.06668">
        <ele>-12.4</ele>
        <time>2022-01-29T09:23:24Z</time>
      </trkpt>
      <trkpt lat="45.07414" lon="5.06636">
        <ele>-13.2</ele>
        <time>2022-01-29T09:23:28Z</time>
      </trkpt>
      <trkpt lat="45.07407" lon="5.06606">
        <ele>-13.6</ele>
        <time>2022-01-29T09:23:32Z</time>
      </trkpt>
      <trkpt lat="45.07401" lon="5.06578">
        <ele>-14</ele>
        <time>2022-01-29T09:23:36Z</time>
      </trkpt>
      <trkpt lat="45.07396" lon="5.0655">
        <ele>-14</ele>
        <time>2022-01-29T09:23:40Z</time>
      </trkpt>
      <trkpt lat="45.07391" lon="5.06523">
        <ele>-14.4</ele>
        <time>2022-01-29T09:23:44Z</time>
      </trkpt>
      <trkpt lat="45.07385" lon="5.06497">
        <ele>-14.4</ele>
        <time>2022-01-29T09:23:48Z</time>
      </trkpt>
      <trkpt lat="45.07379" lon="5.06471">
        <ele>-13</ele>
        <time>2022-01-29T09:23:52Z</time>
      </trkpt>
      <trkpt lat="45.07373" lon="5.06445">
        <ele>-13.4</ele>
        <time>2022-01-29T09:23:56Z</time>
      </trkpt>
      <trkpt lat="45.07367" lon="5.0642">
        <ele>-13.4</ele>
        <time>2022-01-29T09:24:00Z</time>
      </trkpt>
      <trkpt lat="45.07361" lon="5.06396">
        <ele>-13</ele>
        <time>2022-01-29T09:24:04Z</time>
      </trkpt>
      <trkpt lat="45.07355" lon="5.06373">
        <ele>-13</ele>
        <time>2022-01-29T09:24:08Z</time>
      </trkpt>
      <trkpt lat="45.07349" lon="5.06352">
        <ele>-12.2</ele>
        <time>2022-01-29T09:24:12Z</time>
      </trkpt>
      <trkpt lat="45.07344" lon="5.06331">
        <ele>-12</ele>
        <time>2022-01-29T09:24:16Z</time>
      </trkpt>
      <trkpt lat="45.07338" lon="5.06307">
        <ele>-12.2</ele>
        <time>2022-01-29T09:24:20Z</time>
      </trkpt>
      <trkpt lat="45.0733" lon="5.06279">
        <ele>-12.8</ele>
        <time>2022-01-29T09:24:24Z</time>
      </trkpt>
      <trkpt lat="45.07323" lon="5.06251">
        <ele>-13</ele>
        <time>2022-01-29T09:24:28Z</time>
      </trkpt>
      <trkpt lat="45.07316" lon="5.06223">
        <ele>-12.8</ele>
        <time>2022-01-29T09:24:32Z</time>
      </trkpt>
      <trkpt lat="45.07308" lon="5.06196">
        <ele>-12.4</ele>
        <time>2022-01-29T09:24:36Z</time>
      </trkpt>
      <trkpt lat="45.07301" lon="5.0617">
        <ele>-12.6</ele>
        <time>2022-01-29T09:24:40Z</time>
      </trkpt>
      <trkpt lat="45.07294" lon="5.06145">
        <ele>-12.6</ele>
        <time>2022-01-29T09:24:44Z</time>
      </trkpt>
      <trkpt lat="45.07286" lon="5.0612">
        <ele>-12.6</ele>
        <time>2022-01-29T09:24:48Z</time>
      </trkpt>
      <trkpt lat="45.07278" lon="5.06097">
        <ele>-12.4</ele>
        <time>2022-01-29T09:24:52Z</time>
      </trkpt>
      <trkpt lat="45.07271" lon="5.06074">
        <ele>-12.2</ele>
        <time>2022-01-29T09:24:56Z</time>
      </trkpt>
      <trkpt lat="45.07265" lon="5.06052">
        <ele>-11.8</ele>
        <time>2022-01-29T09:25:00Z</time>
      </trkpt>
      <trkpt lat="45.07258" lon="5.0603">
        <ele>-11.8</ele>
        <time>2022-01-29T09:25:04Z</time>
      </trkpt>
      <trkpt lat="45.07252" lon="5.06008">
        <ele>-11.4</ele>
        <time>2022-01-29T09:25:08Z</time>
      </trkpt>
      <trkpt lat="45.07246" lon="5.05986">
        <ele>-11.2</ele>
        <time>2022-01-29T09:25:12Z</time>
      </trkpt>
      <trkpt lat="45.07239" lon="5.05963">
        <ele>-10.8</ele>
        <time>2022-01-29T09:25:16Z</time>
      </trkpt>
      <trkpt lat="45.07234" lon="5.05939">
        <ele>-10.2</ele>
        <time>2022-01-29T09:25:20Z</time>
      </trkpt>
      <trkpt lat="45.07227" lon="5.05915">
        <ele>-11</ele>
        <time>2022-01-29T09:25:24Z</time>
      </trkpt>
      <trkpt lat="45.07223" lon="5.05892">
        <ele>-10.8</ele>
        <time>2022-01-29T09:25:28Z</time>
      </trkpt>
      <trkpt lat="45.0722" lon="5.05865">
        <ele>-11.2</ele>
        <time>2022-01-29T09:25:32Z</time>
      </trkpt>
      <trkpt lat="45.07216" lon="5.05836">
        <ele>-11.6</ele>
        <time>2022-01-29T09:25:36Z</time>
      </trkpt>
      <trkpt lat="45.07212" lon="5.05809">
        <ele>-11.6</ele>
        <time>2022-01-29T09:25:40Z</time>
      </trkpt>
      <trkpt lat="45.07209" lon="5.0578">
        <ele>-11.2</ele>
        <time>2022-01-29T09:25:44Z</time>
      </trkpt>
      <trkpt lat="45.07207" lon="5.05751">
        <ele>-11.6</ele>
        <time>2022-01-29T09:25:48Z</time>
      </trkpt>
      <trkpt lat="45.07205" lon="5.05722">
        <ele>-12</ele>
        <time>2022-01-29T09:25:52Z</time>
      </trkpt>
      <trkpt lat="45.07202" lon="5.05693">
        <ele>-12.2</ele>
        <time>2022-01-29T09:25:56Z</time>
      </trkpt>
      <trkpt lat="45.07196" lon="5.05667">
        <ele>-12.6</ele>
        <time>2022-01-29T09:26:00Z</time>
      </trkpt>
      <trkpt lat="45.07188" lon="5.05643">
        <ele>-12.6</ele>
        <time>2022-01-29T09:26:04Z</time>
      </trkpt>
      <trkpt lat="45.0718" lon="5.05617">
        <ele>-13</ele>
        <time>2022-01-29T09:26:08Z</time>
      </trkpt>
      <trkpt lat="45.07174" lon="5.05589">
        <ele>-12.6</ele>
        <time>2022-01-29T09:26:12Z</time>
      </trkpt>
      <trkpt lat="45.07161" lon="5.05562">
        <ele>-13.2</ele>
        <time>2022-01-29T09:26:16Z</time>
      </trkpt>
      <trkpt lat="45.07145" lon="5.05539">
        <ele>-13.8</ele>
        <time>2022-01-29T09:26:20Z</time>
      </trkpt>
      <trkpt lat="45.07134" lon="5.05518">
        <ele>-14.4</ele>
        <time>2022-01-29T09:26:24Z</time>
      </trkpt>
      <trkpt lat="45.07123" lon="5.05497">
        <ele>-15.6</ele>
        <time>2022-01-29T09:26:28Z</time>
      </trkpt>
      <trkpt lat="45.07109" lon="5.05469">
        <ele>-16.4</ele>
        <time>2022-01-29T09:26:32Z</time>
      </trkpt>
      <trkpt lat="45.07096" lon="5.0544">
        <ele>-17.6</ele>
        <time>2022-01-29T09:26:36Z</time>
      </trkpt>
      <trkpt lat="45.07095" lon="5.05409">
        <ele>-17.8</ele>
        <time>2022-01-29T09:26:40Z</time>
      </trkpt>
      <trkpt lat="45.07096" lon="5.05381">
        <ele>-17.6</ele>
        <time>2022-01-29T09:26:44Z</time>
      </trkpt>
      <trkpt lat="45.07097" lon="5.05357">
        <ele>-17</ele>
        <time>2022-01-29T09:26:48Z</time>
      </trkpt>
      <trkpt lat="45.07096" lon="5.05332">
        <ele>-16.4</ele>
        <time>2022-01-29T09:26:52Z</time>
      </trkpt>
      <trkpt lat="45.07098" lon="5.0531">
        <ele>-15.6</ele>
        <time>2022-01-29T09:26:56Z</time>
      </trkpt>
      <trkpt lat="45.07095" lon="5.05289">
        <ele>-15.4</ele>
        <time>2022-01-29T09:27:00Z</time>
      </trkpt>
      <trkpt lat="45.07087" lon="5.0527">
        <ele>-15</ele>
        <time>2022-01-29T09:27:04Z</time>
      </trkpt>
      <trkpt lat="45.07078" lon="5.05249">
        <ele>-15.8</ele>
        <time>2022-01-29T09:27:08Z</time>
      </trkpt>
      <trkpt lat="45.0707" lon="5.05226">
        <ele>-16.2</ele>
        <time>2022-01-29T09:27:12Z</time>
      </trkpt>
      <trkpt lat="45.07063" lon="5.05201">
        <ele>-17.2</ele>
        <time>2022-01-29T09:27:16Z</time>
      </trkpt>
      <trkpt lat="45.07055" lon="5.05176">
        <ele>-17.4</ele>
        <time>2022-01-29T09:27:20Z</time>
      </trkpt>
      <trkpt lat="45.07045" lon="5.05153">
        <ele>-18.2</ele>
        <time>2022-01-29T09:27:24Z</time>
      </trkpt>
      <trkpt lat="45.07039" lon="5.05132">
        <ele>-18</ele>
        <time>2022-01-29T09:27:28Z</time>
      </trkpt>
      <trkpt lat="45.07041" lon="5.05108">
        <ele>-18</ele>
        <time>2022-01-29T09:27:32Z</time>
      </trkpt>
      <trkpt lat="45.07032" lon="5.05084">
        <ele>-18.4</ele>
        <time>2022-01-29T09:27:36Z</time>
      </trkpt>
      <trkpt lat="45.07024" lon="5.05052">
        <ele>-19</ele>
        <time>2022-01-29T09:27:40Z</time>
      </trkpt>
      <trkpt lat="45.07016" lon="5.0502">
        <ele>-19.2</ele>
        <time>2022-01-29T09:27:44Z</time>
      </trkpt>
      <trkpt lat="45.07007" lon="5.0499">
        <ele>-20.2</ele>
        <time>2022-01-29T09:27:48Z</time>
      </trkpt>
      <trkpt lat="45.06999" lon="5.04962">
        <ele>-20.4</ele>
        <time>2022-01-29T09:27:52Z</time>
      </trkpt>
      <trkpt lat="45.06992" lon="5.04936">
        <ele>-21.8</ele>
        <time>2022-01-29T09:27:56Z</time>
      </trkpt>
      <trkpt lat="45.06987" lon="5.0491">
        <ele>-21.4</ele>
        <time>2022-01-29T09:28:00Z</time>
      </trkpt>
      <trkpt lat="45.06983" lon="5.04882">
        <ele>-20.6</ele>
        <time>2022-01-29T09:28:04Z</time>
      </trkpt>
      <trkpt lat="45.06978" lon="5.04853">
        <ele>-21.6</ele>
        <time>2022-01-29T09:28:08Z</time>
      </trkpt>
      <trkpt lat="45.06972" lon="5.04825">
        <ele>-20.8</ele>
        <time>2022-01-29T09:28:12Z</time>
      </trkpt>
      <trkpt lat="45.06968" lon="5.04798">
        <ele>-20.8</ele>
        <time>2022-01-29T09:28:16Z</time>
      </trkpt>
      <trkpt lat="45.06964" lon="5.04773">
        <ele>-20.4</ele>
        <time>2022-01-29T09:28:20Z</time>
      </trkpt>
      <trkpt lat="45.06961" lon="5.04747">
        <ele>-21</ele>
        <time>2022-01-29T09:28:24Z</time>
      </trkpt>
      <trkpt lat="45.06958" lon="5.04722">
        <ele>-20.6</ele>
        <time>2022-01-29T09:28:28Z</time>
      </trkpt>
      <trkpt lat="45.06954" lon="5.04698">
        <ele>-21.2</ele>
        <time>2022-01-29T09:28:32Z</time>
      </trkpt>
      <trkpt lat="45.06952" lon="5.04672">
        <ele>-21</ele>
        <time>2022-01-29T09:28:36Z</time>
      </trkpt>
      <trkpt lat="45.06949" lon="5.04646">
        <ele>-20.4</ele>
        <time>2022-01-29T09:28:40Z</time>
      </trkpt>
      <trkpt lat="45.06944" lon="5.04622">
        <ele>-20.8</ele>
        <time>2022-01-29T09:28:44Z</time>
      </trkpt>
      <trkpt lat="45.06938" lon="5.04599">
        <ele>-20</ele>
        <time>2022-01-29T09:28:48Z</time>
      </trkpt>
      <trkpt lat="45.0693" lon="5.04577">
        <ele>-19.6</ele>
        <time>2022-01-29T09:28:52Z</time>
      </trkpt>
      <trkpt lat="45.06922" lon="5.04553">
        <ele>-19.4</ele>
        <time>2022-01-29T09:28:56Z</time>
      </trkpt>
      <trkpt lat="45.06914" lon="5.0453">
        <ele>-19.4</ele>
        <time>2022-01-29T09:29:00Z</time>
      </trkpt>
      <trkpt lat="45.06907" lon="5.04508">
        <ele>-19</ele>
        <time>2022-01-29T09:29:04Z</time>
      </trkpt>
      <trkpt lat="45.06901" lon="5.04485">
        <ele>-19</ele>
        <time>2022-01-29T09:29:08Z</time>
      </trkpt>
      <trkpt lat="45.06897" lon="5.04462">
        <ele>-19</ele>
        <time>2022-01-29T09:29:12Z</time>
      </trkpt>
      <trkpt lat="45.06893" lon="5.04437">
        <ele>-19</ele>
        <time>2022-01-29T09:29:16Z</time>
      </trkpt>
      <trkpt lat="45.0689" lon="5.04409">
        <ele>-19.4</ele>
        <time>2022-01-29T09:29:20Z</time>
      </trkpt>
      <trkpt lat="45.06889" lon="5.04381">
        <ele>-19.6</ele>
        <time>2022-01-29T09:29:24Z</time>
      </trkpt>
      <trkpt lat="45.0689" lon="5.04353">
        <ele>-19.8</ele>
        <time>2022-01-29T09:29:28Z</time>
      </trkpt>
      <trkpt lat="45.06891" lon="5.04325">
        <ele>-19.8</ele>
        <time>2022-01-29T09:29:32Z</time>
      </trkpt>
      <trkpt lat="45.06893" lon="5.04297">
        <ele>-20.2</ele>
        <time>2022-01-29T09:29:36Z</time>
      </trkpt>
      <trkpt lat="45.06894" lon="5.04269">
        <ele>-20.8</ele>
        <time>2022-01-29T09:29:40Z</time>
      </trkpt>
      <trkpt lat="45.06892" lon="5.04242">
        <ele>-20.8</ele>
        <time>2022-01-29T09:29:44Z</time>
      </trkpt>
      <trkpt lat="45.06889" lon="5.04215">
        <ele>-20.6</ele>
        <time>2022-01-29T09:29:48Z</time>
      </trkpt>
      <trkpt lat="45.06886" lon="5.0419">
        <ele>-19.8</ele>
        <time>2022-01-29T09:29:52Z</time>
      </trkpt>
      <trkpt lat="45.06883" lon="5.04165">
        <ele>-19.2</ele>
        <time>2022-01-29T09:29:56Z</time>
      </trkpt>
      <trkpt lat="45.06881" lon="5.04141">
        <ele>-19.2</ele>
        <time>2022-01-29T09:30:00Z</time>
      </trkpt>
      <trkpt lat="45.06878" lon="5.04117">
        <ele>-18.6</ele>
        <time>2022-01-29T09:30:04Z</time>
      </trkpt>
      <trkpt lat="45.06876" lon="5.04096">
        <ele>-18</ele>
        <time>2022-01-29T09:30:08Z</time>
      </trkpt>
      <trkpt lat="45.06874" lon="5.04073">
        <ele>-17.6</ele>
        <time>2022-01-29T09:30:12Z</time>
      </trkpt>
      <trkpt lat="45.06873" lon="5.04048">
        <ele>-17.8</ele>
        <time>2022-01-29T09:30:16Z</time>
      </trkpt>
      <trkpt lat="45.06868" lon="5.04024">
        <ele>-18.4</ele>
        <time>2022-01-29T09:30:20Z</time>
      </trkpt>
      <trkpt lat="45.06861" lon="5.04001">
        <ele>-18</ele>
        <time>2022-01-29T09:30:24Z</time>
      </trkpt>
      <trkpt lat="45.06853" lon="5.0398">
        <ele>-17.6</ele>
        <time>2022-01-29T09:30:28Z</time>
      </trkpt>
      <trkpt lat="45.06848" lon="5.03962">
        <ele>-16.8</ele>
        <time>2022-01-29T09:30:32Z</time>
      </trkpt>
      <trkpt lat="45.06848" lon="5.03962">
        <ele>-16</ele>
        <time>2022-01-29T09:30:36Z</time>
      </trkpt>
      <trkpt lat="45.06853" lon="5.03945">
        <ele>-15.8</ele>
        <time>2022-01-29T09:30:45Z</time>
      </trkpt>
      <trkpt lat="45.06858" lon="5.03929">
        <ele>-15.8</ele>
        <time>2022-01-29T09:30:49Z</time>
      </trkpt>
      <trkpt lat="45.06861" lon="5.03917">
        <ele>-14.8</ele>
        <time>2022-01-29T09:30:53Z</time>
      </trkpt>
      <trkpt lat="45.06857" lon="5.03903">
        <ele>-16</ele>
        <time>2022-01-29T09:30:57Z</time>
      </trkpt>
      <trkpt lat="45.06845" lon="5.03886">
        <ele>-17</ele>
        <time>2022-01-29T09:31:01Z</time>
      </trkpt>
      <trkpt lat="45.06832" lon="5.03859">
        <ele>-18.4</ele>
        <time>2022-01-29T09:31:05Z</time>
      </trkpt>
      <trkpt lat="45.06819" lon="5.03829">
        <ele>-20.4</ele>
        <time>2022-01-29T09:31:09Z</time>
      </trkpt>
      <trkpt lat="45.06806" lon="5.03797">
        <ele>-20.4</ele>
        <time>2022-01-29T09:31:13Z</time>
      </trkpt>
      <trkpt lat="45.06793" lon="5.03766">
        <ele>-21</ele>
        <time>2022-01-29T09:31:17Z</time>
      </trkpt>
      <trkpt lat="45.06784" lon="5.03736">
        <ele>-21.6</ele>
        <time>2022-01-29T09:31:21Z</time>
      </trkpt>
      <trkpt lat="45.06774" lon="5.03707">
        <ele>-21.8</ele>
        <time>2022-01-29T09:31:25Z</time>
      </trkpt>
      <trkpt lat="45.06767" lon="5.03681">
        <ele>-21.8</ele>
        <time>2022-01-29T09:31:29Z</time>
      </trkpt>
      <trkpt lat="45.06759" lon="5.03656">
        <ele>-21.8</ele>
        <time>2022-01-29T09:31:33Z</time>
      </trkpt>
      <trkpt lat="45.06749" lon="5.03632">
        <ele>-22</ele>
        <time>2022-01-29T09:31:37Z</time>
      </trkpt>
      <trkpt lat="45.0674" lon="5.03609">
        <ele>-22.2</ele>
        <time>2022-01-29T09:31:41Z</time>
      </trkpt>
      <trkpt lat="45.06732" lon="5.03587">
        <ele>-22.6</ele>
        <time>2022-01-29T09:31:45Z</time>
      </trkpt>
      <trkpt lat="45.06723" lon="5.03565">
        <ele>-22.2</ele>
        <time>2022-01-29T09:31:49Z</time>
      </trkpt>
      <trkpt lat="45.06715" lon="5.03543">
        <ele>-22.2</ele>
        <time>2022-01-29T09:31:53Z</time>
      </trkpt>
      <trkpt lat="45.06707" lon="5.0352">
        <ele>-22.8</ele>
        <time>2022-01-29T09:31:57Z</time>
      </trkpt>
      <trkpt lat="45.06699" lon="5.03498">
        <ele>-22</ele>
        <time>2022-01-29T09:32:01Z</time>
      </trkpt>
      <trkpt lat="45.0669" lon="5.03477">
        <ele>-21.8</ele>
        <time>2022-01-29T09:32:05Z</time>
      </trkpt>
      <trkpt lat="45.06681" lon="5.03456">
        <ele>-21.4</ele>
        <time>2022-01-29T09:32:09Z</time>
      </trkpt>
      <trkpt lat="45.06672" lon="5.03436">
        <ele>-21.2</ele>
        <time>2022-01-29T09:32:13Z</time>
      </trkpt>
      <trkpt lat="45.06667" lon="5.03415">
        <ele>-22</ele>
        <time>2022-01-29T09:32:17Z</time>
      </trkpt>
      <trkpt lat="45.06661" lon="5.0339">
        <ele>-22.4</ele>
        <time>2022-01-29T09:32:21Z</time>
      </trkpt>
      <trkpt lat="45.06654" lon="5.03361">
        <ele>-22.6</ele>
        <time>2022-01-29T09:32:25Z</time>
      </trkpt>
      <trkpt lat="45.06646" lon="5.03332">
        <ele>-22.6</ele>
        <time>2022-01-29T09:32:29Z</time>
      </trkpt>
      <trkpt lat="45.06638" lon="5.03304">
        <ele>-22.4</ele>
        <time>2022-01-29T09:32:33Z</time>
      </trkpt>
      <trkpt lat="45.06631" lon="5.03278">
        <ele>-22.2</ele>
        <time>2022-01-29T09:32:37Z</time>
      </trkpt>
      <trkpt lat="45.06624" lon="5.03254">
        <ele>-21.2</ele>
        <time>2022-01-29T09:32:41Z</time>
      </trkpt>
      <trkpt lat="45.06617" lon="5.03229">
        <ele>-21.6</ele>
        <time>2022-01-29T09:32:45Z</time>
      </trkpt>
      <trkpt lat="45.0661" lon="5.03206">
        <ele>-22.2</ele>
        <time>2022-01-29T09:32:49Z</time>
      </trkpt>
      <trkpt lat="45.06604" lon="5.03181">
        <ele>-22.8</ele>
        <time>2022-01-29T09:32:53Z</time>
      </trkpt>
      <trkpt lat="45.06597" lon="5.03155">
        <ele>-23.2</ele>
        <time>2022-01-29T09:32:57Z</time>
      </trkpt>
      <trkpt lat="45.06592" lon="5.03128">
        <ele>-22.6</ele>
        <time>2022-01-29T09:33:01Z</time>
      </trkpt>
      <trkpt lat="45.06588" lon="5.031">
        <ele>-22.6</ele>
        <time>2022-01-29T09:33:05Z</time>
      </trkpt>
      <trkpt lat="45.06584" lon="5.03072">
        <ele>-22.6</ele>
        <time>2022-01-29T09:33:09Z</time>
      </trkpt>
      <trkpt lat="45.06582" lon="5.03045">
        <ele>-23.2</ele>
        <time>2022-01-29T09:33:13Z</time>
      </trkpt>
      <trkpt lat="45.06578" lon="5.03018">
        <ele>-23.2</ele>
        <time>2022-01-29T09:33:17Z</time>
      </trkpt>
      <trkpt lat="45.06577" lon="5.02984">
        <ele>-25.2</ele>
        <time>2022-01-29T09:33:21Z</time>
      </trkpt>
      <trkpt lat="45.06575" lon="5.02955">
        <ele>-25.4</ele>
        <time>2022-01-29T09:33:25Z</time>
      </trkpt>
      <trkpt lat="45.06572" lon="5.02934">
        <ele>-23.8</ele>
        <time>2022-01-29T09:33:29Z</time>
      </trkpt>
      <trkpt lat="45.0657" lon="5.02913">
        <ele>-23.4</ele>
        <time>2022-01-29T09:33:33Z</time>
      </trkpt>
      <trkpt lat="45.06568" lon="5.0289">
        <ele>-24.2</ele>
        <time>2022-01-29T09:33:37Z</time>
      </trkpt>
      <trkpt lat="45.06566" lon="5.02865">
        <ele>-24.2</ele>
        <time>2022-01-29T09:33:41Z</time>
      </trkpt>
      <trkpt lat="45.06562" lon="5.02838">
        <ele>-24.4</ele>
        <time>2022-01-29T09:33:45Z</time>
      </trkpt>
      <trkpt lat="45.06557" lon="5.02812">
        <ele>-23.8</ele>
        <time>2022-01-29T09:33:49Z</time>
      </trkpt>
      <trkpt lat="45.06553" lon="5.02786">
        <ele>-24.2</ele>
        <time>2022-01-29T09:33:53Z</time>
      </trkpt>
      <trkpt lat="45.06549" lon="5.02761">
        <ele>-24.2</ele>
        <time>2022-01-29T09:33:57Z</time>
      </trkpt>
      <trkpt lat="45.06545" lon="5.02735">
        <ele>-24.2</ele>
        <time>2022-01-29T09:34:01Z</time>
      </trkpt>
      <trkpt lat="45.06541" lon="5.02709">
        <ele>-24.2</ele>
        <time>2022-01-29T09:34:05Z</time>
      </trkpt>
      <trkpt lat="45.06536" lon="5.02684">
        <ele>-23.8</ele>
        <time>2022-01-29T09:34:09Z</time>
      </trkpt>
      <trkpt lat="45.06532" lon="5.02659">
        <ele>-23.6</ele>
        <time>2022-01-29T09:34:13Z</time>
      </trkpt>
      <trkpt lat="45.06529" lon="5.02636">
        <ele>-23.2</ele>
        <time>2022-01-29T09:34:17Z</time>
      </trkpt>
      <trkpt lat="45.06525" lon="5.02614">
        <ele>-22.2</ele>
        <time>2022-01-29T09:34:21Z</time>
      </trkpt>
      <trkpt lat="45.06522" lon="5.02591">
        <ele>-22.2</ele>
        <time>2022-01-29T09:34:25Z</time>
      </trkpt>
      <trkpt lat="45.06518" lon="5.02569">
        <ele>-21.4</ele>
        <time>2022-01-29T09:34:29Z</time>
      </trkpt>
      <trkpt lat="45.06515" lon="5.02548">
        <ele>-21.2</ele>
        <time>2022-01-29T09:34:33Z</time>
      </trkpt>
      <trkpt lat="45.06511" lon="5.02528">
        <ele>-20.8</ele>
        <time>2022-01-29T09:34:37Z</time>
      </trkpt>
      <trkpt lat="45.06508" lon="5.02508">
        <ele>-20.2</ele>
        <time>2022-01-29T09:34:41Z</time>
      </trkpt>
      <trkpt lat="45.06501" lon="5.0249">
        <ele>-19.2</ele>
        <time>2022-01-29T09:34:45Z</time>
      </trkpt>
      <trkpt lat="45.06493" lon="5.02473">
        <ele>-18</ele>
        <time>2022-01-29T09:34:49Z</time>
      </trkpt>
      <trkpt lat="45.06482" lon="5.02457">
        <ele>-18.4</ele>
        <time>2022-01-29T09:34:53Z</time>
      </trkpt>
      <trkpt lat="45.06471" lon="5.02443">
        <ele>-17.6</ele>
        <time>2022-01-29T09:34:57Z</time>
      </trkpt>
      <trkpt lat="45.0646" lon="5.02428">
        <ele>-16.6</ele>
        <time>2022-01-29T09:35:01Z</time>
      </trkpt>
      <trkpt lat="45.06449" lon="5.02415">
        <ele>-16.4</ele>
        <time>2022-01-29T09:35:05Z</time>
      </trkpt>
      <trkpt lat="45.0644" lon="5.024">
        <ele>-16</ele>
        <time>2022-01-29T09:35:09Z</time>
      </trkpt>
      <trkpt lat="45.06433" lon="5.02384">
        <ele>-15.4</ele>
        <time>2022-01-29T09:35:13Z</time>
      </trkpt>
      <trkpt lat="45.06427" lon="5.02364">
        <ele>-15</ele>
        <time>2022-01-29T09:35:17Z</time>
      </trkpt>
      <trkpt lat="45.06422" lon="5.02343">
        <ele>-14.6</ele>
        <time>2022-01-29T09:35:21Z</time>
      </trkpt>
      <trkpt lat="45.06414" lon="5.02319">
        <ele>-14.8</ele>
        <time>2022-01-29T09:35:25Z</time>
      </trkpt>
      <trkpt lat="45.06402" lon="5.02294">
        <ele>-15.6</ele>
        <time>2022-01-29T09:35:29Z</time>
      </trkpt>
      <trkpt lat="45.06388" lon="5.02267">
        <ele>-16.2</ele>
        <time>2022-01-29T09:35:33Z</time>
      </trkpt>
      <trkpt lat="45.06376" lon="5.02239">
        <ele>-16.8</ele>
        <time>2022-01-29T09:35:37Z</time>
      </trkpt>
      <trkpt lat="45.06367" lon="5.02214">
        <ele>-16.6</ele>
        <time>2022-01-29T09:35:41Z</time>
      </trkpt>
      <trkpt lat="45.0636" lon="5.02193">
        <ele>-15.8</ele>
        <time>2022-01-29T09:35:45Z</time>
      </trkpt>
      <trkpt lat="45.06351" lon="5.02176">
        <ele>-14.4</ele>
        <time>2022-01-29T09:35:49Z</time>
      </trkpt>
      <trkpt lat="45.06341" lon="5.0216">
        <ele>-14.4</ele>
        <time>2022-01-29T09:35:53Z</time>
      </trkpt>
      <trkpt lat="45.06329" lon="5.02138">
        <ele>-15</ele>
        <time>2022-01-29T09:35:57Z</time>
      </trkpt>
      <trkpt lat="45.0632" lon="5.02111">
        <ele>-15.2</ele>
        <time>2022-01-29T09:36:01Z</time>
      </trkpt>
      <trkpt lat="45.0631" lon="5.02082">
        <ele>-15.8</ele>
        <time>2022-01-29T09:36:05Z</time>
      </trkpt>
      <trkpt lat="45.063" lon="5.02052">
        <ele>-17.4</ele>
        <time>2022-01-29T09:36:09Z</time>
      </trkpt>
      <trkpt lat="45.06289" lon="5.02022">
        <ele>-17.2</ele>
        <time>2022-01-29T09:36:13Z</time>
      </trkpt>
      <trkpt lat="45.06277" lon="5.01994">
        <ele>-17.6</ele>
        <time>2022-01-29T09:36:17Z</time>
      </trkpt>
      <trkpt lat="45.06265" lon="5.01968">
        <ele>-18</ele>
        <time>2022-01-29T09:36:21Z</time>
      </trkpt>
      <trkpt lat="45.06257" lon="5.01945">
        <ele>-18</ele>
        <time>2022-01-29T09:36:25Z</time>
      </trkpt>
      <trkpt lat="45.06247" lon="5.01924">
        <ele>-17.6</ele>
        <time>2022-01-29T09:36:29Z</time>
      </trkpt>
      <trkpt lat="45.06239" lon="5.01902">
        <ele>-18.4</ele>
        <time>2022-01-29T09:36:33Z</time>
      </trkpt>
      <trkpt lat="45.06232" lon="5.01879">
        <ele>-18.2</ele>
        <time>2022-01-29T09:36:37Z</time>
      </trkpt>
      <trkpt lat="45.06224" lon="5.01855">
        <ele>-19</ele>
        <time>2022-01-29T09:36:41Z</time>
      </trkpt>
      <trkpt lat="45.06218" lon="5.01829">
        <ele>-18.4</ele>
        <time>2022-01-29T09:36:45Z</time>
      </trkpt>
      <trkpt lat="45.06211" lon="5.01804">
        <ele>-19.6</ele>
        <time>2022-01-29T09:36:49Z</time>
      </trkpt>
      <trkpt lat="45.06203" lon="5.01777">
        <ele>-19.6</ele>
        <time>2022-01-29T09:36:53Z</time>
      </trkpt>
      <trkpt lat="45.06196" lon="5.01751">
        <ele>-19</ele>
        <time>2022-01-29T09:36:57Z</time>
      </trkpt>
      <trkpt lat="45.0619" lon="5.01726">
        <ele>-19.2</ele>
        <time>2022-01-29T09:37:01Z</time>
      </trkpt>
      <trkpt lat="45.06184" lon="5.01699">
        <ele>-19.4</ele>
        <time>2022-01-29T09:37:05Z</time>
      </trkpt>
      <trkpt lat="45.06178" lon="5.01672">
        <ele>-19</ele>
        <time>2022-01-29T09:37:09Z</time>
      </trkpt>
      <trkpt lat="45.06174" lon="5.01644">
        <ele>-19</ele>
        <time>2022-01-29T09:37:13Z</time>
      </trkpt>
      <trkpt lat="45.0617" lon="5.01619">
        <ele>-18.4</ele>
        <time>2022-01-29T09:37:17Z</time>
      </trkpt>
      <trkpt lat="45.06166" lon="5.01596">
        <ele>-19</ele>
        <time>2022-01-29T09:37:21Z</time>
      </trkpt>
      <trkpt lat="45.0616" lon="5.01572">
        <ele>-19.6</ele>
        <time>2022-01-29T09:37:25Z</time>
      </trkpt>
      <trkpt lat="45.06152" lon="5.01544">
        <ele>-20.4</ele>
        <time>2022-01-29T09:37:29Z</time>
      </trkpt>
      <trkpt lat="45.06146" lon="5.01516">
        <ele>-20.4</ele>
        <time>2022-01-29T09:37:33Z</time>
      </trkpt>
      <trkpt lat="45.06139" lon="5.01489">
        <ele>-19.6</ele>
        <time>2022-01-29T09:37:37Z</time>
      </trkpt>
      <trkpt lat="45.06134" lon="5.01463">
        <ele>-19.8</ele>
        <time>2022-01-29T09:37:41Z</time>
      </trkpt>
      <trkpt lat="45.06129" lon="5.01439">
        <ele>-19.6</ele>
        <time>2022-01-29T09:37:45Z</time>
      </trkpt>
      <trkpt lat="45.06125" lon="5.01415">
        <ele>-19</ele>
        <time>2022-01-29T09:37:49Z</time>
      </trkpt>
      <trkpt lat="45.0612" lon="5.01389">
        <ele>-19.2</ele>
        <time>2022-01-29T09:37:53Z</time>
      </trkpt>
      <trkpt lat="45.06115" lon="5.01362">
        <ele>-19.4</ele>
        <time>2022-01-29T09:37:57Z</time>
      </trkpt>
      <trkpt lat="45.06111" lon="5.01335">
        <ele>-18.8</ele>
        <time>2022-01-29T09:38:01Z</time>
      </trkpt>
      <trkpt lat="45.06107" lon="5.01308">
        <ele>-19.8</ele>
        <time>2022-01-29T09:38:05Z</time>
      </trkpt>
      <trkpt lat="45.06105" lon="5.01281">
        <ele>-20.2</ele>
        <time>2022-01-29T09:38:09Z</time>
      </trkpt>
      <trkpt lat="45.06104" lon="5.01253">
        <ele>-20</ele>
        <time>2022-01-29T09:38:13Z</time>
      </trkpt>
      <trkpt lat="45.06104" lon="5.01227">
        <ele>-20</ele>
        <time>2022-01-29T09:38:17Z</time>
      </trkpt>
      <trkpt lat="45.06103" lon="5.01199">
        <ele>-21.2</ele>
        <time>2022-01-29T09:38:21Z</time>
      </trkpt>
      <trkpt lat="45.06103" lon="5.01171">
        <ele>-22.2</ele>
        <time>2022-01-29T09:38:25Z</time>
      </trkpt>
      <trkpt lat="45.06102" lon="5.01147">
        <ele>-22.6</ele>
        <time>2022-01-29T09:38:29Z</time>
      </trkpt>
      <trkpt lat="45.06102" lon="5.01123">
        <ele>-22.8</ele>
        <time>2022-01-29T09:38:33Z</time>
      </trkpt>
      <trkpt lat="45.06101" lon="5.01093">
        <ele>-24.2</ele>
        <time>2022-01-29T09:38:37Z</time>
      </trkpt>
      <trkpt lat="45.061" lon="5.01062">
        <ele>-25.4</ele>
        <time>2022-01-29T09:38:41Z</time>
      </trkpt>
      <trkpt lat="45.06099" lon="5.0103">
        <ele>-25.6</ele>
        <time>2022-01-29T09:38:45Z</time>
      </trkpt>
      <trkpt lat="45.061" lon="5.01001">
        <ele>-25.6</ele>
        <time>2022-01-29T09:38:49Z</time>
      </trkpt>
      <trkpt lat="45.06102" lon="5.00974">
        <ele>-25.2</ele>
        <time>2022-01-29T09:38:53Z</time>
      </trkpt>
      <trkpt lat="45.06102" lon="5.0095">
        <ele>-25.4</ele>
        <time>2022-01-29T09:38:57Z</time>
      </trkpt>
      <trkpt lat="45.06103" lon="5.00925">
        <ele>-25.2</ele>
        <time>2022-01-29T09:39:01Z</time>
      </trkpt>
      <trkpt lat="45.06101" lon="5.00899">
        <ele>-24.8</ele>
        <time>2022-01-29T09:39:05Z</time>
      </trkpt>
      <trkpt lat="45.06099" lon="5.0087">
        <ele>-25.4</ele>
        <time>2022-01-29T09:39:09Z</time>
      </trkpt>
      <trkpt lat="45.06096" lon="5.00842">
        <ele>-25.2</ele>
        <time>2022-01-29T09:39:13Z</time>
      </trkpt>
      <trkpt lat="45.06093" lon="5.00814">
        <ele>-25.4</ele>
        <time>2022-01-29T09:39:17Z</time>
      </trkpt>
      <trkpt lat="45.0609" lon="5.00788">
        <ele>-25.6</ele>
        <time>2022-01-29T09:39:21Z</time>
      </trkpt>
      <trkpt lat="45.06088" lon="5.00764">
        <ele>-25</ele>
        <time>2022-01-29T09:39:25Z</time>
      </trkpt>
      <trkpt lat="45.06085" lon="5.00741">
        <ele>-24.4</ele>
        <time>2022-01-29T09:39:29Z</time>
      </trkpt>
      <trkpt lat="45.06082" lon="5.00714">
        <ele>-24.2</ele>
        <time>2022-01-29T09:39:33Z</time>
      </trkpt>
      <trkpt lat="45.0608" lon="5.0068">
        <ele>-25.4</ele>
        <time>2022-01-29T09:39:37Z</time>
      </trkpt>
      <trkpt lat="45.06078" lon="5.00645">
        <ele>-26.8</ele>
        <time>2022-01-29T09:39:41Z</time>
      </trkpt>
      <trkpt lat="45.06078" lon="5.00611">
        <ele>-27.2</ele>
        <time>2022-01-29T09:39:45Z</time>
      </trkpt>
      <trkpt lat="45.06079" lon="5.00581">
        <ele>-27</ele>
        <time>2022-01-29T09:39:49Z</time>
      </trkpt>
      <trkpt lat="45.06078" lon="5.00552">
        <ele>-26.6</ele>
        <time>2022-01-29T09:39:53Z</time>
      </trkpt>
      <trkpt lat="45.06078" lon="5.00524">
        <ele>-26.6</ele>
        <time>2022-01-29T09:39:57Z</time>
      </trkpt>
      <trkpt lat="45.06077" lon="5.00498">
        <ele>-27</ele>
        <time>2022-01-29T09:40:01Z</time>
      </trkpt>
      <trkpt lat="45.06076" lon="5.00474">
        <ele>-26.2</ele>
        <time>2022-01-29T09:40:05Z</time>
      </trkpt>
      <trkpt lat="45.06073" lon="5.00451">
        <ele>-26</ele>
        <time>2022-01-29T09:40:09Z</time>
      </trkpt>
      <trkpt lat="45.06071" lon="5.00427">
        <ele>-26.2</ele>
        <time>2022-01-29T09:40:13Z</time>
      </trkpt>
      <trkpt lat="45.06069" lon="5.00399">
        <ele>-26.8</ele>
        <time>2022-01-29T09:40:17Z</time>
      </trkpt>
      <trkpt lat="45.06067" lon="5.00369">
        <ele>-27</ele>
        <time>2022-01-29T09:40:21Z</time>
      </trkpt>
      <trkpt lat="45.06065" lon="5.00338">
        <ele>-27.2</ele>
        <time>2022-01-29T09:40:25Z</time>
      </trkpt>
      <trkpt lat="45.06064" lon="5.0031">
        <ele>-28</ele>
        <time>2022-01-29T09:40:29Z</time>
      </trkpt>
      <trkpt lat="45.06064" lon="5.00282">
        <ele>-28.2</ele>
        <time>2022-01-29T09:40:33Z</time>
      </trkpt>
      <trkpt lat="45.06063" lon="5.00255">
        <ele>-28</ele>
        <time>2022-01-29T09:40:37Z</time>
      </trkpt>
      <trkpt lat="45.06062" lon="5.00228">
        <ele>-28</ele>
        <time>2022-01-29T09:40:41Z</time>
      </trkpt>
      <trkpt lat="45.06063" lon="5.00203">
        <ele>-27.6</ele>
        <time>2022-01-29T09:40:45Z</time>
      </trkpt>
      <trkpt lat="45.06064" lon="5.00176">
        <ele>-27.6</ele>
        <time>2022-01-29T09:40:49Z</time>
      </trkpt>
      <trkpt lat="45.06067" lon="5.00148">
        <ele>-28.8</ele>
        <time>2022-01-29T09:40:53Z</time>
      </trkpt>
      <trkpt lat="45.0607" lon="5.00119">
        <ele>-29</ele>
        <time>2022-01-29T09:40:57Z</time>
      </trkpt>
      <trkpt lat="45.06073" lon="5.00092">
        <ele>-29.6</ele>
        <time>2022-01-29T09:41:01Z</time>
      </trkpt>
      <trkpt lat="45.06076" lon="5.00065">
        <ele>-29.6</ele>
        <time>2022-01-29T09:41:05Z</time>
      </trkpt>
      <trkpt lat="45.06079" lon="5.00038">
        <ele>-29.4</ele>
        <time>2022-01-29T09:41:09Z</time>
      </trkpt>
      <trkpt lat="45.06081" lon="5.00012">
        <ele>-29.8</ele>
        <time>2022-01-29T09:41:13Z</time>
      </trkpt>
      <trkpt lat="45.06084" lon="4.99988">
        <ele>-29.8</ele>
        <time>2022-01-29T09:41:17Z</time>
      </trkpt>
      <trkpt lat="45.06085" lon="4.99962">
        <ele>-30</ele>
        <time>2022-01-29T09:41:21Z</time>
      </trkpt>
      <trkpt lat="45.06083" lon="4.99934">
        <ele>-30</ele>
        <time>2022-01-29T09:41:25Z</time>
      </trkpt>
      <trkpt lat="45.06079" lon="4.99905">
        <ele>-31.4</ele>
        <time>2022-01-29T09:41:29Z</time>
      </trkpt>
      <trkpt lat="45.06073" lon="4.99875">
        <ele>-32.8</ele>
        <time>2022-01-29T09:41:33Z</time>
      </trkpt>
      <trkpt lat="45.06067" lon="4.99846">
        <ele>-33.8</ele>
        <time>2022-01-29T09:41:37Z</time>
      </trkpt>
      <trkpt lat="45.06061" lon="4.99817">
        <ele>-34</ele>
        <time>2022-01-29T09:41:41Z</time>
      </trkpt>
      <trkpt lat="45.06056" lon="4.9979">
        <ele>-33.8</ele>
        <time>2022-01-29T09:41:45Z</time>
      </trkpt>
      <trkpt lat="45.06051" lon="4.99766">
        <ele>-33.8</ele>
        <time>2022-01-29T09:41:49Z</time>
      </trkpt>
      <trkpt lat="45.06044" lon="4.99745">
        <ele>-34</ele>
        <time>2022-01-29T09:41:53Z</time>
      </trkpt>
      <trkpt lat="45.0603" lon="4.99729">
        <ele>-34.6</ele>
        <time>2022-01-29T09:41:57Z</time>
      </trkpt>
      <trkpt lat="45.06014" lon="4.99722">
        <ele>-34.4</ele>
        <time>2022-01-29T09:42:01Z</time>
      </trkpt>
      <trkpt lat="45.05998" lon="4.99716">
        <ele>-34.4</ele>
        <time>2022-01-29T09:42:05Z</time>
      </trkpt>
      <trkpt lat="45.0599" lon="4.99702">
        <ele>-35.2</ele>
        <time>2022-01-29T09:42:09Z</time>
      </trkpt>
      <trkpt lat="45.05992" lon="4.99685">
        <ele>-34</ele>
        <time>2022-01-29T09:42:13Z</time>
      </trkpt>
      <trkpt lat="45.05997" lon="4.99667">
        <ele>-33.6</ele>
        <time>2022-01-29T09:42:17Z</time>
      </trkpt>
      <trkpt lat="45.06002" lon="4.99649">
        <ele>-33.4</ele>
        <time>2022-01-29T09:42:21Z</time>
      </trkpt>
      <trkpt lat="45.06006" lon="4.99632">
        <ele>-32.4</ele>
        <time>2022-01-29T09:42:25Z</time>
      </trkpt>
      <trkpt lat="45.06011" lon="4.99614">
        <ele>-32.4</ele>
        <time>2022-01-29T09:42:29Z</time>
      </trkpt>
      <trkpt lat="45.06015" lon="4.99596">
        <ele>-32.4</ele>
        <time>2022-01-29T09:42:33Z</time>
      </trkpt>
      <trkpt lat="45.06018" lon="4.99577">
        <ele>-32</ele>
        <time>2022-01-29T09:42:37Z</time>
      </trkpt>
      <trkpt lat="45.06022" lon="4.99557">
        <ele>-31</ele>
        <time>2022-01-29T09:42:41Z</time>
      </trkpt>
      <trkpt lat="45.06027" lon="4.99535">
        <ele>-30.6</ele>
        <time>2022-01-29T09:42:45Z</time>
      </trkpt>
      <trkpt lat="45.06031" lon="4.99512">
        <ele>-32</ele>
        <time>2022-01-29T09:42:49Z</time>
      </trkpt>
      <trkpt lat="45.06036" lon="4.99487">
        <ele>-31.2</ele>
        <time>2022-01-29T09:42:53Z</time>
      </trkpt>
      <trkpt lat="45.0604" lon="4.99462">
        <ele>-32.8</ele>
        <time>2022-01-29T09:42:57Z</time>
      </trkpt>
      <trkpt lat="45.06045" lon="4.99436">
        <ele>-33.4</ele>
        <time>2022-01-29T09:43:01Z</time>
      </trkpt>
      <trkpt lat="45.0605" lon="4.99409">
        <ele>-33.2</ele>
        <time>2022-01-29T09:43:05Z</time>
      </trkpt>
      <trkpt lat="45.06055" lon="4.99382">
        <ele>-32.8</ele>
        <time>2022-01-29T09:43:09Z</time>
      </trkpt>
      <trkpt lat="45.0606" lon="4.99354">
        <ele>-32.8</ele>
        <time>2022-01-29T09:43:13Z</time>
      </trkpt>
      <trkpt lat="45.06066" lon="4.99325">
        <ele>-33.4</ele>
        <time>2022-01-29T09:43:17Z</time>
      </trkpt>
      <trkpt lat="45.06071" lon="4.99296">
        <ele>-33.2</ele>
        <time>2022-01-29T09:43:21Z</time>
      </trkpt>
      <trkpt lat="45.06076" lon="4.99269">
        <ele>-33.6</ele>
        <time>2022-01-29T09:43:25Z</time>
      </trkpt>
      <trkpt lat="45.06081" lon="4.99242">
        <ele>-33.4</ele>
        <time>2022-01-29T09:43:29Z</time>
      </trkpt>
      <trkpt lat="45.06086" lon="4.99216">
        <ele>-32.8</ele>
        <time>2022-01-29T09:43:33Z</time>
      </trkpt>
      <trkpt lat="45.0609" lon="4.99192">
        <ele>-32.8</ele>
        <time>2022-01-29T09:43:37Z</time>
      </trkpt>
      <trkpt lat="45.06095" lon="4.99168">
        <ele>-33.4</ele>
        <time>2022-01-29T09:43:41Z</time>
      </trkpt>
      <trkpt lat="45.06099" lon="4.99144">
        <ele>-33</ele>
        <time>2022-01-29T09:43:45Z</time>
      </trkpt>
      <trkpt lat="45.06102" lon="4.9912">
        <ele>-31.2</ele>
        <time>2022-01-29T09:43:49Z</time>
      </trkpt>
      <trkpt lat="45.06105" lon="4.99096">
        <ele>-30.8</ele>
        <time>2022-01-29T09:43:53Z</time>
      </trkpt>
      <trkpt lat="45.06107" lon="4.99072">
        <ele>-30.8</ele>
        <time>2022-01-29T09:43:57Z</time>
      </trkpt>
      <trkpt lat="45.06107" lon="4.99048">
        <ele>-30.2</ele>
        <time>2022-01-29T09:44:01Z</time>
      </trkpt>
      <trkpt lat="45.06107" lon="4.99024">
        <ele>-30.4</ele>
        <time>2022-01-29T09:44:05Z</time>
      </trkpt>
      <trkpt lat="45.06107" lon="4.98999">
        <ele>-29.8</ele>
        <time>2022-01-29T09:44:09Z</time>
      </trkpt>
      <trkpt lat="45.06105" lon="4.98976">
        <ele>-29</ele>
        <time>2022-01-29T09:44:13Z</time>
      </trkpt>
      <trkpt lat="45.06103" lon="4.98952">
        <ele>-29.6</ele>
        <time>2022-01-29T09:44:17Z</time>
      </trkpt>
      <trkpt lat="45.06101" lon="4.98928">
        <ele>-29</ele>
        <time>2022-01-29T09:44:21Z</time>
      </trkpt>
      <trkpt lat="45.06099" lon="4.98905">
        <ele>-29.2</ele>
        <time>2022-01-29T09:44:25Z</time>
      </trkpt>
      <trkpt lat="45.06097" lon="4.98881">
        <ele>-29.4</ele>
        <time>2022-01-29T09:44:29Z</time>
      </trkpt>
      <trkpt lat="45.06095" lon="4.98857">
        <ele>-28.6</ele>
        <time>2022-01-29T09:44:33Z</time>
      </trkpt>
      <trkpt lat="45.06094" lon="4.98834">
        <ele>-28.6</ele>
        <time>2022-01-29T09:44:37Z</time>
      </trkpt>
      <trkpt lat="45.06093" lon="4.98806">
        <ele>-28.4</ele>
        <time>2022-01-29T09:44:41Z</time>
      </trkpt>
      <trkpt lat="45.06093" lon="4.98773">
        <ele>-29.4</ele>
        <time>2022-01-29T09:44:45Z</time>
      </trkpt>
      <trkpt lat="45.06092" lon="4.98739">
        <ele>-29.8</ele>
        <time>2022-01-29T09:44:49Z</time>
      </trkpt>
      <trkpt lat="45.06092" lon="4.98705">
        <ele>-29.8</ele>
        <time>2022-01-29T09:44:53Z</time>
      </trkpt>
      <trkpt lat="45.06092" lon="4.98673">
        <ele>-30.2</ele>
        <time>2022-01-29T09:44:57Z</time>
      </trkpt>
      <trkpt lat="45.06092" lon="4.98643">
        <ele>-31</ele>
        <time>2022-01-29T09:45:01Z</time>
      </trkpt>
      <trkpt lat="45.06091" lon="4.98614">
        <ele>-31</ele>
        <time>2022-01-29T09:45:05Z</time>
      </trkpt>
      <trkpt lat="45.06091" lon="4.98585">
        <ele>-31.2</ele>
        <time>2022-01-29T09:45:09Z</time>
      </trkpt>
      <trkpt lat="45.06089" lon="4.98556">
        <ele>-32.6</ele>
        <time>2022-01-29T09:45:13Z</time>
      </trkpt>
      <trkpt lat="45.06088" lon="4.98527">
        <ele>-32.4</ele>
        <time>2022-01-29T09:45:17Z</time>
      </trkpt>
      <trkpt lat="45.0609" lon="4.98501">
        <ele>-32.6</ele>
        <time>2022-01-29T09:45:21Z</time>
      </trkpt>
      <trkpt lat="45.06086" lon="4.98478">
        <ele>-33.4</ele>
        <time>2022-01-29T09:45:25Z</time>
      </trkpt>
      <trkpt lat="45.06082" lon="4.98452">
        <ele>-32.6</ele>
        <time>2022-01-29T09:45:29Z</time>
      </trkpt>
      <trkpt lat="45.06077" lon="4.98427">
        <ele>-33.6</ele>
        <time>2022-01-29T09:45:33Z</time>
      </trkpt>
      <trkpt lat="45.06073" lon="4.98403">
        <ele>-33.6</ele>
        <time>2022-01-29T09:45:37Z</time>
      </trkpt>
      <trkpt lat="45.06069" lon="4.98379">
        <ele>-34</ele>
        <time>2022-01-29T09:45:41Z</time>
      </trkpt>
      <trkpt lat="45.06065" lon="4.98352">
        <ele>-34.2</ele>
        <time>2022-01-29T09:45:45Z</time>
      </trkpt>
      <trkpt lat="45.06061" lon="4.98324">
        <ele>-34.6</ele>
        <time>2022-01-29T09:45:49Z</time>
      </trkpt>
      <trkpt lat="45.06056" lon="4.98297">
        <ele>-34.4</ele>
        <time>2022-01-29T09:45:53Z</time>
      </trkpt>
      <trkpt lat="45.06052" lon="4.9827">
        <ele>-35.8</ele>
        <time>2022-01-29T09:45:57Z</time>
      </trkpt>
      <trkpt lat="45.06048" lon="4.98245">
        <ele>-35.4</ele>
        <time>2022-01-29T09:46:01Z</time>
      </trkpt>
      <trkpt lat="45.06044" lon="4.9822">
        <ele>-35.6</ele>
        <time>2022-01-29T09:46:05Z</time>
      </trkpt>
      <trkpt lat="45.0604" lon="4.98195">
        <ele>-35.4</ele>
        <time>2022-01-29T09:46:09Z</time>
      </trkpt>
      <trkpt lat="45.06036" lon="4.9817">
        <ele>-35.6</ele>
        <time>2022-01-29T09:46:13Z</time>
      </trkpt>
      <trkpt lat="45.06032" lon="4.98145">
        <ele>-35.6</ele>
        <time>2022-01-29T09:46:17Z</time>
      </trkpt>
      <trkpt lat="45.06028" lon="4.98121">
        <ele>-35.8</ele>
        <time>2022-01-29T09:46:21Z</time>
      </trkpt>
      <trkpt lat="45.06024" lon="4.98098">
        <ele>-36</ele>
        <time>2022-01-29T09:46:25Z</time>
      </trkpt>
      <trkpt lat="45.0602" lon="4.98074">
        <ele>-35.8</ele>
        <time>2022-01-29T09:46:29Z</time>
      </trkpt>
      <trkpt lat="45.06016" lon="4.98047">
        <ele>-36.8</ele>
        <time>2022-01-29T09:46:33Z</time>
      </trkpt>
      <trkpt lat="45.06012" lon="4.98018">
        <ele>-36.4</ele>
        <time>2022-01-29T09:46:37Z</time>
      </trkpt>
      <trkpt lat="45.06009" lon="4.97989">
        <ele>-36.8</ele>
        <time>2022-01-29T09:46:41Z</time>
      </trkpt>
      <trkpt lat="45.06007" lon="4.97957">
        <ele>-37.4</ele>
        <time>2022-01-29T09:46:45Z</time>
      </trkpt>
      <trkpt lat="45.06006" lon="4.97926">
        <ele>-40.2</ele>
        <time>2022-01-29T09:46:49Z</time>
      </trkpt>
      <trkpt lat="45.06004" lon="4.97902">
        <ele>-39.6</ele>
        <time>2022-01-29T09:46:53Z</time>
      </trkpt>
      <trkpt lat="45.06003" lon="4.97878">
        <ele>-39.8</ele>
        <time>2022-01-29T09:46:57Z</time>
      </trkpt>
      <trkpt lat="45.06002" lon="4.97853">
        <ele>-39</ele>
        <time>2022-01-29T09:47:01Z</time>
      </trkpt>
      <trkpt lat="45.06002" lon="4.97828">
        <ele>-39</ele>
        <time>2022-01-29T09:47:05Z</time>
      </trkpt>
      <trkpt lat="45.06003" lon="4.97803">
        <ele>-39.2</ele>
        <time>2022-01-29T09:47:09Z</time>
      </trkpt>
      <trkpt lat="45.06003" lon="4.97778">
        <ele>-39</ele>
        <time>2022-01-29T09:47:13Z</time>
      </trkpt>
      <trkpt lat="45.06004" lon="4.97755">
        <ele>-38.4</ele>
        <time>2022-01-29T09:47:17Z</time>
      </trkpt>
      <trkpt lat="45.06005" lon="4.97731">
        <ele>-37.6</ele>
        <time>2022-01-29T09:47:21Z</time>
      </trkpt>
      <trkpt lat="45.06007" lon="4.97709">
        <ele>-37</ele>
        <time>2022-01-29T09:47:25Z</time>
      </trkpt>
      <trkpt lat="45.06007" lon="4.97687">
        <ele>-36.4</ele>
        <time>2022-01-29T09:47:29Z</time>
      </trkpt>
      <trkpt lat="45.06008" lon="4.97666">
        <ele>-36.6</ele>
        <time>2022-01-29T09:47:33Z</time>
      </trkpt>
      <trkpt lat="45.06008" lon="4.97646">
        <ele>-35.6</ele>
        <time>2022-01-29T09:47:37Z</time>
      </trkpt>
      <trkpt lat="45.06007" lon="4.97625">
        <ele>-34.6</ele>
        <time>2022-01-29T09:47:41Z</time>
      </trkpt>
      <trkpt lat="45.06004" lon="4.97603">
        <ele>-34.4</ele>
        <time>2022-01-29T09:47:45Z</time>
      </trkpt>
      <trkpt lat="45.06" lon="4.97582">
        <ele>-33</ele>
        <time>2022-01-29T09:47:49Z</time>
      </trkpt>
      <trkpt lat="45.05995" lon="4.97561">
        <ele>-33.4</ele>
        <time>2022-01-29T09:47:53Z</time>
      </trkpt>
      <trkpt lat="45.0599" lon="4.97538">
        <ele>-33.4</ele>
        <time>2022-01-29T09:47:57Z</time>
      </trkpt>
      <trkpt lat="45.05984" lon="4.97514">
        <ele>-33.4</ele>
        <time>2022-01-29T09:48:01Z</time>
      </trkpt>
      <trkpt lat="45.05981" lon="4.97488">
        <ele>-33.4</ele>
        <time>2022-01-29T09:48:05Z</time>
      </trkpt>
      <trkpt lat="45.05975" lon="4.97463">
        <ele>-33.2</ele>
        <time>2022-01-29T09:48:09Z</time>
      </trkpt>
      <trkpt lat="45.0597" lon="4.9744">
        <ele>-33</ele>
        <time>2022-01-29T09:48:13Z</time>
      </trkpt>
      <trkpt lat="45.05965" lon="4.97417">
        <ele>-33.2</ele>
        <time>2022-01-29T09:48:17Z</time>
      </trkpt>
      <trkpt lat="45.0596" lon="4.97394">
        <ele>-33.6</ele>
        <time>2022-01-29T09:48:21Z</time>
      </trkpt>
      <trkpt lat="45.05955" lon="4.97372">
        <ele>-33.4</ele>
        <time>2022-01-29T09:48:25Z</time>
      </trkpt>
      <trkpt lat="45.0595" lon="4.9735">
        <ele>-32.4</ele>
        <time>2022-01-29T09:48:29Z</time>
      </trkpt>
      <trkpt lat="45.05943" lon="4.97327">
        <ele>-33.8</ele>
        <time>2022-01-29T09:48:33Z</time>
      </trkpt>
      <trkpt lat="45.05934" lon="4.97304">
        <ele>-34.4</ele>
        <time>2022-01-29T09:48:37Z</time>
      </trkpt>
      <trkpt lat="45.05923" lon="4.97279">
        <ele>-35</ele>
        <time>2022-01-29T09:48:41Z</time>
      </trkpt>
      <trkpt lat="45.0591" lon="4.97253">
        <ele>-35</ele>
        <time>2022-01-29T09:48:45Z</time>
      </trkpt>
      <trkpt lat="45.05898" lon="4.97226">
        <ele>-35.2</ele>
        <time>2022-01-29T09:48:49Z</time>
      </trkpt>
      <trkpt lat="45.05885" lon="4.972">
        <ele>-35.6</ele>
        <time>2022-01-29T09:48:53Z</time>
      </trkpt>
      <trkpt lat="45.0587" lon="4.97175">
        <ele>-36</ele>
        <time>2022-01-29T09:48:57Z</time>
      </trkpt>
      <trkpt lat="45.05857" lon="4.97147">
        <ele>-36.8</ele>
        <time>2022-01-29T09:49:01Z</time>
      </trkpt>
      <trkpt lat="45.05844" lon="4.9712">
        <ele>-37.6</ele>
        <time>2022-01-29T09:49:05Z</time>
      </trkpt>
      <trkpt lat="45.05832" lon="4.97095">
        <ele>-36.2</ele>
        <time>2022-01-29T09:49:09Z</time>
      </trkpt>
      <trkpt lat="45.05821" lon="4.9707">
        <ele>-36.2</ele>
        <time>2022-01-29T09:49:13Z</time>
      </trkpt>
      <trkpt lat="45.0581" lon="4.97045">
        <ele>-36.4</ele>
        <time>2022-01-29T09:49:17Z</time>
      </trkpt>
      <trkpt lat="45.05801" lon="4.97022">
        <ele>-36</ele>
        <time>2022-01-29T09:49:21Z</time>
      </trkpt>
      <trkpt lat="45.05792" lon="4.97">
        <ele>-35.4</ele>
        <time>2022-01-29T09:49:25Z</time>
      </trkpt>
      <trkpt lat="45.05784" lon="4.96978">
        <ele>-35.6</ele>
        <time>2022-01-29T09:49:29Z</time>
      </trkpt>
      <trkpt lat="45.05777" lon="4.96956">
        <ele>-35.2</ele>
        <time>2022-01-29T09:49:33Z</time>
      </trkpt>
      <trkpt lat="45.05771" lon="4.9693">
        <ele>-36.4</ele>
        <time>2022-01-29T09:49:37Z</time>
      </trkpt>
      <trkpt lat="45.05765" lon="4.96904">
        <ele>-37</ele>
        <time>2022-01-29T09:49:41Z</time>
      </trkpt>
      <trkpt lat="45.0576" lon="4.96879">
        <ele>-37.2</ele>
        <time>2022-01-29T09:49:45Z</time>
      </trkpt>
      <trkpt lat="45.05756" lon="4.96855">
        <ele>-37.2</ele>
        <time>2022-01-29T09:49:49Z</time>
      </trkpt>
      <trkpt lat="45.05751" lon="4.96829">
        <ele>-37.8</ele>
        <time>2022-01-29T09:49:53Z</time>
      </trkpt>
      <trkpt lat="45.05746" lon="4.96804">
        <ele>-36.6</ele>
        <time>2022-01-29T09:49:57Z</time>
      </trkpt>
      <trkpt lat="45.05741" lon="4.96779">
        <ele>-37.6</ele>
        <time>2022-01-29T09:50:01Z</time>
      </trkpt>
      <trkpt lat="45.05737" lon="4.96753">
        <ele>-37.6</ele>
        <time>2022-01-29T09:50:05Z</time>
      </trkpt>
      <trkpt lat="45.05732" lon="4.9673">
        <ele>-40</ele>
        <time>2022-01-29T09:50:09Z</time>
      </trkpt>
      <trkpt lat="45.05728" lon="4.96705">
        <ele>-38.8</ele>
        <time>2022-01-29T09:50:13Z</time>
      </trkpt>
      <trkpt lat="45.05723" lon="4.96681">
        <ele>-38.2</ele>
        <time>2022-01-29T09:50:17Z</time>
      </trkpt>
      <trkpt lat="45.05719" lon="4.96656">
        <ele>-39</ele>
        <time>2022-01-29T09:50:21Z</time>
      </trkpt>
      <trkpt lat="45.05715" lon="4.96631">
        <ele>-38.6</ele>
        <time>2022-01-29T09:50:25Z</time>
      </trkpt>
      <trkpt lat="45.05712" lon="4.96607">
        <ele>-37.6</ele>
        <time>2022-01-29T09:50:29Z</time>
      </trkpt>
      <trkpt lat="45.05709" lon="4.96582">
        <ele>-37.2</ele>
        <time>2022-01-29T09:50:33Z</time>
      </trkpt>
      <trkpt lat="45.05706" lon="4.96555">
        <ele>-37.2</ele>
        <time>2022-01-29T09:50:37Z</time>
      </trkpt>
      <trkpt lat="45.05701" lon="4.96529">
        <ele>-37.8</ele>
        <time>2022-01-29T09:50:41Z</time>
      </trkpt>
      <trkpt lat="45.05694" lon="4.965">
        <ele>-39</ele>
        <time>2022-01-29T09:50:45Z</time>
      </trkpt>
      <trkpt lat="45.05687" lon="4.96471">
        <ele>-41</ele>
        <time>2022-01-29T09:50:49Z</time>
      </trkpt>
      <trkpt lat="45.0568" lon="4.96441">
        <ele>-41.4</ele>
        <time>2022-01-29T09:50:53Z</time>
      </trkpt>
      <trkpt lat="45.05673" lon="4.96413">
        <ele>-41.4</ele>
        <time>2022-01-29T09:50:57Z</time>
      </trkpt>
      <trkpt lat="45.0567" lon="4.96388">
        <ele>-41.8</ele>
        <time>2022-01-29T09:51:01Z</time>
      </trkpt>
      <trkpt lat="45.0567" lon="4.96368">
        <ele>-40.8</ele>
        <time>2022-01-29T09:51:05Z</time>
      </trkpt>
      <trkpt lat="45.05665" lon="4.9635">
        <ele>-40.8</ele>
        <time>2022-01-29T09:51:09Z</time>
      </trkpt>
      <trkpt lat="45.05657" lon="4.96328">
        <ele>-41.2</ele>
        <time>2022-01-29T09:51:13Z</time>
      </trkpt>
      <trkpt lat="45.05647" lon="4.963">
        <ele>-43</ele>
        <time>2022-01-29T09:51:17Z</time>
      </trkpt>
      <trkpt lat="45.05638" lon="4.96268">
        <ele>-44.2</ele>
        <time>2022-01-29T09:51:21Z</time>
      </trkpt>
      <trkpt lat="45.05629" lon="4.96237">
        <ele>-44.6</ele>
        <time>2022-01-29T09:51:25Z</time>
      </trkpt>
      <trkpt lat="45.05621" lon="4.96207">
        <ele>-45</ele>
        <time>2022-01-29T09:51:29Z</time>
      </trkpt>
      <trkpt lat="45.05614" lon="4.96178">
        <ele>-45.6</ele>
        <time>2022-01-29T09:51:33Z</time>
      </trkpt>
      <trkpt lat="45.05609" lon="4.9615">
        <ele>-45</ele>
        <time>2022-01-29T09:51:37Z</time>
      </trkpt>
      <trkpt lat="45.05605" lon="4.96126">
        <ele>-44.8</ele>
        <time>2022-01-29T09:51:41Z</time>
      </trkpt>
      <trkpt lat="45.05602" lon="4.96101">
        <ele>-46</ele>
        <time>2022-01-29T09:51:45Z</time>
      </trkpt>
      <trkpt lat="45.05599" lon="4.96075">
        <ele>-45</ele>
        <time>2022-01-29T09:51:49Z</time>
      </trkpt>
      <trkpt lat="45.05596" lon="4.96049">
        <ele>-45</ele>
        <time>2022-01-29T09:51:53Z</time>
      </trkpt>
      <trkpt lat="45.05594" lon="4.96023">
        <ele>-44.8</ele>
        <time>2022-01-29T09:51:57Z</time>
      </trkpt>
      <trkpt lat="45.05591" lon="4.95997">
        <ele>-45.8</ele>
        <time>2022-01-29T09:52:01Z</time>
      </trkpt>
      <trkpt lat="45.05588" lon="4.95971">
        <ele>-46</ele>
        <time>2022-01-29T09:52:05Z</time>
      </trkpt>
      <trkpt lat="45.05584" lon="4.95945">
        <ele>-45.8</ele>
        <time>2022-01-29T09:52:09Z</time>
      </trkpt>
      <trkpt lat="45.0558" lon="4.95919">
        <ele>-45.8</ele>
        <time>2022-01-29T09:52:13Z</time>
      </trkpt>
      <trkpt lat="45.05575" lon="4.95893">
        <ele>-46.2</ele>
        <time>2022-01-29T09:52:17Z</time>
      </trkpt>
      <trkpt lat="45.0557" lon="4.95868">
        <ele>-46.4</ele>
        <time>2022-01-29T09:52:21Z</time>
      </trkpt>
      <trkpt lat="45.05566" lon="4.95843">
        <ele>-46.2</ele>
        <time>2022-01-29T09:52:25Z</time>
      </trkpt>
      <trkpt lat="45.05562" lon="4.95819">
        <ele>-46</ele>
        <time>2022-01-29T09:52:29Z</time>
      </trkpt>
      <trkpt lat="45.05557" lon="4.95795">
        <ele>-46.2</ele>
        <time>2022-01-29T09:52:33Z</time>
      </trkpt>
      <trkpt lat="45.05553" lon="4.95769">
        <ele>-46.2</ele>
        <time>2022-01-29T09:52:37Z</time>
      </trkpt>
      <trkpt lat="45.05548" lon="4.95743">
        <ele>-46.4</ele>
        <time>2022-01-29T09:52:41Z</time>
      </trkpt>
      <trkpt lat="45.05543" lon="4.95717">
        <ele>-46.4</ele>
        <time>2022-01-29T09:52:45Z</time>
      </trkpt>
      <trkpt lat="45.05538" lon="4.95691">
        <ele>-46.8</ele>
        <time>2022-01-29T09:52:49Z</time>
      </trkpt>
      <trkpt lat="45.05534" lon="4.95666">
        <ele>-46.8</ele>
        <time>2022-01-29T09:52:53Z</time>
      </trkpt>
      <trkpt lat="45.0553" lon="4.95639">
        <ele>-47</ele>
        <time>2022-01-29T09:52:57Z</time>
      </trkpt>
      <trkpt lat="45.05526" lon="4.95613">
        <ele>-46.4</ele>
        <time>2022-01-29T09:53:01Z</time>
      </trkpt>
      <trkpt lat="45.05521" lon="4.9559">
        <ele>-44.8</ele>
        <time>2022-01-29T09:53:05Z</time>
      </trkpt>
      <trkpt lat="45.05518" lon="4.95569">
        <ele>-44</ele>
        <time>2022-01-29T09:53:09Z</time>
      </trkpt>
      <trkpt lat="45.05514" lon="4.95548">
        <ele>-43.4</ele>
        <time>2022-01-29T09:53:13Z</time>
      </trkpt>
      <trkpt lat="45.0551" lon="4.95526">
        <ele>-43</ele>
        <time>2022-01-29T09:53:17Z</time>
      </trkpt>
      <trkpt lat="45.05506" lon="4.95502">
        <ele>-42.4</ele>
        <time>2022-01-29T09:53:21Z</time>
      </trkpt>
      <trkpt lat="45.05501" lon="4.95471">
        <ele>-44</ele>
        <time>2022-01-29T09:53:25Z</time>
      </trkpt>
      <trkpt lat="45.05495" lon="4.95436">
        <ele>-46.4</ele>
        <time>2022-01-29T09:53:29Z</time>
      </trkpt>
      <trkpt lat="45.05489" lon="4.95401">
        <ele>-47.2</ele>
        <time>2022-01-29T09:53:33Z</time>
      </trkpt>
      <trkpt lat="45.05483" lon="4.95369">
        <ele>-47.2</ele>
        <time>2022-01-29T09:53:37Z</time>
      </trkpt>
      <trkpt lat="45.05478" lon="4.9534">
        <ele>-47</ele>
        <time>2022-01-29T09:53:41Z</time>
      </trkpt>
      <trkpt lat="45.05473" lon="4.9531">
        <ele>-47.2</ele>
        <time>2022-01-29T09:53:45Z</time>
      </trkpt>
      <trkpt lat="45.05468" lon="4.9528">
        <ele>-48.2</ele>
        <time>2022-01-29T09:53:49Z</time>
      </trkpt>
      <trkpt lat="45.0546" lon="4.95248">
        <ele>-47.8</ele>
        <time>2022-01-29T09:53:53Z</time>
      </trkpt>
      <trkpt lat="45.05449" lon="4.95218">
        <ele>-47.8</ele>
        <time>2022-01-29T09:53:57Z</time>
      </trkpt>
      <trkpt lat="45.05435" lon="4.95188">
        <ele>-49</ele>
        <time>2022-01-29T09:54:01Z</time>
      </trkpt>
      <trkpt lat="45.05417" lon="4.95157">
        <ele>-49.8</ele>
        <time>2022-01-29T09:54:05Z</time>
      </trkpt>
      <trkpt lat="45.05397" lon="4.95131">
        <ele>-50.4</ele>
        <time>2022-01-29T09:54:09Z</time>
      </trkpt>
      <trkpt lat="45.05389" lon="4.95105">
        <ele>-50.8</ele>
        <time>2022-01-29T09:54:13Z</time>
      </trkpt>
      <trkpt lat="45.05391" lon="4.95082">
        <ele>-50.2</ele>
        <time>2022-01-29T09:54:17Z</time>
      </trkpt>
      <trkpt lat="45.05392" lon="4.95056">
        <ele>-49</ele>
        <time>2022-01-29T09:54:21Z</time>
      </trkpt>
      <trkpt lat="45.05387" lon="4.95032">
        <ele>-49</ele>
        <time>2022-01-29T09:54:25Z</time>
      </trkpt>
      <trkpt lat="45.0538" lon="4.95011">
        <ele>-49</ele>
        <time>2022-01-29T09:54:29Z</time>
      </trkpt>
      <trkpt lat="45.05375" lon="4.94992">
        <ele>-49.2</ele>
        <time>2022-01-29T09:54:33Z</time>
      </trkpt>
      <trkpt lat="45.05371" lon="4.94977">
        <ele>-49.6</ele>
        <time>2022-01-29T09:54:37Z</time>
      </trkpt>
      <trkpt lat="45.05371" lon="4.94965">
        <ele>-49.4</ele>
        <time>2022-01-29T09:54:41Z</time>
      </trkpt>
      <trkpt lat="45.05376" lon="4.94967">
        <ele>-48.2</ele>
        <time>2022-01-29T09:55:32Z</time>
      </trkpt>
      <trkpt lat="45.05386" lon="4.94975">
        <ele>-47.6</ele>
        <time>2022-01-29T09:55:36Z</time>
      </trkpt>
      <trkpt lat="45.05399" lon="4.94986">
        <ele>-48.4</ele>
        <time>2022-01-29T09:55:40Z</time>
      </trkpt>
      <trkpt lat="45.05411" lon="4.94989">
        <ele>-47</ele>
        <time>2022-01-29T09:55:44Z</time>
      </trkpt>
      <trkpt lat="45.0542" lon="4.94991">
        <ele>-46.2</ele>
        <time>2022-01-29T09:55:48Z</time>
      </trkpt>
      <trkpt lat="45.05433" lon="4.94992">
        <ele>-45.8</ele>
        <time>2022-01-29T09:55:52Z</time>
      </trkpt>
      <trkpt lat="45.05445" lon="4.94993">
        <ele>-45</ele>
        <time>2022-01-29T09:55:56Z</time>
      </trkpt>
      <trkpt lat="45.05455" lon="4.94995">
        <ele>-45.8</ele>
        <time>2022-01-29T09:56:00Z</time>
      </trkpt>
      <trkpt lat="45.05467" lon="4.94999">
        <ele>-45.8</ele>
        <time>2022-01-29T09:56:04Z</time>
      </trkpt>
      <trkpt lat="45.05484" lon="4.95004">
        <ele>-46.6</ele>
        <time>2022-01-29T09:56:08Z</time>
      </trkpt>
      <trkpt lat="45.05499" lon="4.95009">
        <ele>-48.6</ele>
        <time>2022-01-29T09:56:12Z</time>
      </trkpt>
      <trkpt lat="45.05517" lon="4.9502">
        <ele>-49.6</ele>
        <time>2022-01-29T09:56:16Z</time>
      </trkpt>
      <trkpt lat="45.05534" lon="4.95034">
        <ele>-50.4</ele>
        <time>2022-01-29T09:56:20Z</time>
      </trkpt>
      <trkpt lat="45.05555" lon="4.95047">
        <ele>-51.6</ele>
        <time>2022-01-29T09:56:24Z</time>
      </trkpt>
      <trkpt lat="45.05575" lon="4.95058">
        <ele>-50.4</ele>
        <time>2022-01-29T09:56:28Z</time>
      </trkpt>
      <trkpt lat="45.05593" lon="4.95069">
        <ele>-48.8</ele>
        <time>2022-01-29T09:56:32Z</time>
      </trkpt>
      <trkpt lat="45.05605" lon="4.95075">
        <ele>-48.4</ele>
        <time>2022-01-29T09:56:36Z</time>
      </trkpt>
      <trkpt lat="45.05614" lon="4.95081">
        <ele>-47.4</ele>
        <time>2022-01-29T09:56:40Z</time>
      </trkpt>
      <trkpt lat="45.05628" lon="4.95087">
        <ele>-46.6</ele>
        <time>2022-01-29T09:56:44Z</time>
      </trkpt>
      <trkpt lat="45.05644" lon="4.95093">
        <ele>-45</ele>
        <time>2022-01-29T09:56:48Z</time>
      </trkpt>
      <trkpt lat="45.05654" lon="4.95099">
        <ele>-44.8</ele>
        <time>2022-01-29T09:56:52Z</time>
      </trkpt>
      <trkpt lat="45.05664" lon="4.95104">
        <ele>-44.4</ele>
        <time>2022-01-29T09:56:56Z</time>
      </trkpt>
      <trkpt lat="45.05673" lon="4.95109">
        <ele>-42.8</ele>
        <time>2022-01-29T09:57:00Z</time>
      </trkpt>
      <trkpt lat="45.05682" lon="4.9511">
        <ele>-42.4</ele>
        <time>2022-01-29T09:57:04Z</time>
      </trkpt>
      <trkpt lat="45.05693" lon="4.95114">
        <ele>-42</ele>
        <time>2022-01-29T09:57:08Z</time>
      </trkpt>
      <trkpt lat="45.05706" lon="4.95118">
        <ele>-42</ele>
        <time>2022-01-29T09:57:12Z</time>
      </trkpt>
      <trkpt lat="45.05718" lon="4.95121">
        <ele>-41.6</ele>
        <time>2022-01-29T09:57:16Z</time>
      </trkpt>
      <trkpt lat="45.05733" lon="4.95122">
        <ele>-41.4</ele>
        <time>2022-01-29T09:57:20Z</time>
      </trkpt>
      <trkpt lat="45.05745" lon="4.95126">
        <ele>-42.2</ele>
        <time>2022-01-29T09:57:24Z</time>
      </trkpt>
      <trkpt lat="45.05758" lon="4.95137">
        <ele>-42.2</ele>
        <time>2022-01-29T09:57:28Z</time>
      </trkpt>
      <trkpt lat="45.05772" lon="4.95156">
        <ele>-42.6</ele>
        <time>2022-01-29T09:57:32Z</time>
      </trkpt>
      <trkpt lat="45.05787" lon="4.95174">
        <ele>-44.4</ele>
        <time>2022-01-29T09:57:36Z</time>
      </trkpt>
      <trkpt lat="45.05798" lon="4.95191">
        <ele>-45</ele>
        <time>2022-01-29T09:57:40Z</time>
      </trkpt>
      <trkpt lat="45.0581" lon="4.95211">
        <ele>-45.8</ele>
        <time>2022-01-29T09:57:44Z</time>
      </trkpt>
      <trkpt lat="45.05825" lon="4.9523">
        <ele>-46</ele>
        <time>2022-01-29T09:57:48Z</time>
      </trkpt>
      <trkpt lat="45.0584" lon="4.95243">
        <ele>-45.8</ele>
        <time>2022-01-29T09:57:52Z</time>
      </trkpt>
      <trkpt lat="45.05853" lon="4.95251">
        <ele>-45.2</ele>
        <time>2022-01-29T09:57:56Z</time>
      </trkpt>
      <trkpt lat="45.05863" lon="4.95259">
        <ele>-44.4</ele>
        <time>2022-01-29T09:58:00Z</time>
      </trkpt>
      <trkpt lat="45.05873" lon="4.95265">
        <ele>-43.8</ele>
        <time>2022-01-29T09:58:04Z</time>
      </trkpt>
      <trkpt lat="45.05883" lon="4.9527">
        <ele>-42.8</ele>
        <time>2022-01-29T09:58:08Z</time>
      </trkpt>
      <trkpt lat="45.05893" lon="4.95276">
        <ele>-42.8</ele>
        <time>2022-01-29T09:58:12Z</time>
      </trkpt>
      <trkpt lat="45.05905" lon="4.95283">
        <ele>-41.6</ele>
        <time>2022-01-29T09:58:16Z</time>
      </trkpt>
      <trkpt lat="45.05915" lon="4.95289">
        <ele>-42</ele>
        <time>2022-01-29T09:58:20Z</time>
      </trkpt>
      <trkpt lat="45.05927" lon="4.95295">
        <ele>-41.4</ele>
        <time>2022-01-29T09:58:24Z</time>
      </trkpt>
      <trkpt lat="45.05939" lon="4.95303">
        <ele>-41.2</ele>
        <time>2022-01-29T09:58:28Z</time>
      </trkpt>
      <trkpt lat="45.05954" lon="4.95311">
        <ele>-41.4</ele>
        <time>2022-01-29T09:58:32Z</time>
      </trkpt>
      <trkpt lat="45.0597" lon="4.95321">
        <ele>-41.4</ele>
        <time>2022-01-29T09:58:36Z</time>
      </trkpt>
      <trkpt lat="45.05985" lon="4.95331">
        <ele>-41.4</ele>
        <time>2022-01-29T09:58:40Z</time>
      </trkpt>
      <trkpt lat="45.06" lon="4.95342">
        <ele>-40.6</ele>
        <time>2022-01-29T09:58:44Z</time>
      </trkpt>
      <trkpt lat="45.06014" lon="4.95351">
        <ele>-39.8</ele>
        <time>2022-01-29T09:58:48Z</time>
      </trkpt>
      <trkpt lat="45.06024" lon="4.95359">
        <ele>-40.4</ele>
        <time>2022-01-29T09:58:52Z</time>
      </trkpt>
      <trkpt lat="45.06035" lon="4.95365">
        <ele>-41.2</ele>
        <time>2022-01-29T09:58:56Z</time>
      </trkpt>
      <trkpt lat="45.06052" lon="4.95367">
        <ele>-42.2</ele>
        <time>2022-01-29T09:59:00Z</time>
      </trkpt>
      <trkpt lat="45.06067" lon="4.95362">
        <ele>-41.8</ele>
        <time>2022-01-29T09:59:04Z</time>
      </trkpt>
      <trkpt lat="45.06082" lon="4.9536">
        <ele>-42</ele>
        <time>2022-01-29T09:59:08Z</time>
      </trkpt>
      <trkpt lat="45.06098" lon="4.95357">
        <ele>-43.2</ele>
        <time>2022-01-29T09:59:12Z</time>
      </trkpt>
      <trkpt lat="45.06114" lon="4.95356">
        <ele>-42.2</ele>
        <time>2022-01-29T09:59:16Z</time>
      </trkpt>
      <trkpt lat="45.06127" lon="4.95353">
        <ele>-42.2</ele>
        <time>2022-01-29T09:59:20Z</time>
      </trkpt>
      <trkpt lat="45.06142" lon="4.95354">
        <ele>-40.8</ele>
        <time>2022-01-29T09:59:24Z</time>
      </trkpt>
      <trkpt lat="45.06157" lon="4.95353">
        <ele>-41.2</ele>
        <time>2022-01-29T09:59:28Z</time>
      </trkpt>
      <trkpt lat="45.06171" lon="4.95356">
        <ele>-40.8</ele>
        <time>2022-01-29T09:59:32Z</time>
      </trkpt>
      <trkpt lat="45.06189" lon="4.95368">
        <ele>-42.4</ele>
        <time>2022-01-29T09:59:36Z</time>
      </trkpt>
      <trkpt lat="45.06206" lon="4.95393">
        <ele>-41.6</ele>
        <time>2022-01-29T09:59:40Z</time>
      </trkpt>
      <trkpt lat="45.06225" lon="4.95402">
        <ele>-43</ele>
        <time>2022-01-29T09:59:44Z</time>
      </trkpt>
      <trkpt lat="45.06241" lon="4.95397">
        <ele>-43.2</ele>
        <time>2022-01-29T09:59:48Z</time>
      </trkpt>
      <trkpt lat="45.06257" lon="4.95393">
        <ele>-43.2</ele>
        <time>2022-01-29T09:59:52Z</time>
      </trkpt>
      <trkpt lat="45.06273" lon="4.95389">
        <ele>-43.6</ele>
        <time>2022-01-29T09:59:56Z</time>
      </trkpt>
      <trkpt lat="45.06289" lon="4.95385">
        <ele>-43</ele>
        <time>2022-01-29T10:00:00Z</time>
      </trkpt>
      <trkpt lat="45.06305" lon="4.9538">
        <ele>-42.8</ele>
        <time>2022-01-29T10:00:04Z</time>
      </trkpt>
      <trkpt lat="45.0632" lon="4.95376">
        <ele>-43.8</ele>
        <time>2022-01-29T10:00:08Z</time>
      </trkpt>
      <trkpt lat="45.06336" lon="4.95372">
        <ele>-43.2</ele>
        <time>2022-01-29T10:00:12Z</time>
      </trkpt>
      <trkpt lat="45.06352" lon="4.95368">
        <ele>-43</ele>
        <time>2022-01-29T10:00:16Z</time>
      </trkpt>
      <trkpt lat="45.06365" lon="4.9536">
        <ele>-43.6</ele>
        <time>2022-01-29T10:00:20Z</time>
      </trkpt>
      <trkpt lat="45.0637" lon="4.95343">
        <ele>-42.6</ele>
        <time>2022-01-29T10:00:24Z</time>
      </trkpt>
      <trkpt lat="45.0637" lon="4.95328">
        <ele>-41.2</ele>
        <time>2022-01-29T10:00:28Z</time>
      </trkpt>
      <trkpt lat="45.06372" lon="4.95316">
        <ele>-40.8</ele>
        <time>2022-01-29T10:00:32Z</time>
      </trkpt>
      <trkpt lat="45.06379" lon="4.95305">
        <ele>-40.2</ele>
        <time>2022-01-29T10:00:36Z</time>
      </trkpt>
      <trkpt lat="45.06385" lon="4.95297">
        <ele>-39.6</ele>
        <time>2022-01-29T10:00:40Z</time>
      </trkpt>
      <trkpt lat="45.06393" lon="4.95289">
        <ele>-38.8</ele>
        <time>2022-01-29T10:00:44Z</time>
      </trkpt>
      <trkpt lat="45.06401" lon="4.95282">
        <ele>-37.6</ele>
        <time>2022-01-29T10:00:48Z</time>
      </trkpt>
      <trkpt lat="45.06408" lon="4.95274">
        <ele>-37.4</ele>
        <time>2022-01-29T10:00:52Z</time>
      </trkpt>
      <trkpt lat="45.06415" lon="4.95265">
        <ele>-36.6</ele>
        <time>2022-01-29T10:00:56Z</time>
      </trkpt>
      <trkpt lat="45.06422" lon="4.95256">
        <ele>-36.4</ele>
        <time>2022-01-29T10:01:00Z</time>
      </trkpt>
      <trkpt lat="45.0643" lon="4.9525">
        <ele>-36.2</ele>
        <time>2022-01-29T10:01:04Z</time>
      </trkpt>
      <trkpt lat="45.06441" lon="4.95245">
        <ele>-36.2</ele>
        <time>2022-01-29T10:01:08Z</time>
      </trkpt>
      <trkpt lat="45.0645" lon="4.95238">
        <ele>-36.4</ele>
        <time>2022-01-29T10:01:12Z</time>
      </trkpt>
      <trkpt lat="45.06462" lon="4.95233">
        <ele>-36.6</ele>
        <time>2022-01-29T10:01:16Z</time>
      </trkpt>
      <trkpt lat="45.06479" lon="4.95227">
        <ele>-37.8</ele>
        <time>2022-01-29T10:01:20Z</time>
      </trkpt>
      <trkpt lat="45.06495" lon="4.95219">
        <ele>-38.4</ele>
        <time>2022-01-29T10:01:24Z</time>
      </trkpt>
      <trkpt lat="45.06517" lon="4.95214">
        <ele>-38.4</ele>
        <time>2022-01-29T10:01:28Z</time>
      </trkpt>
      <trkpt lat="45.06532" lon="4.95209">
        <ele>-39</ele>
        <time>2022-01-29T10:01:32Z</time>
      </trkpt>
      <trkpt lat="45.06549" lon="4.95203">
        <ele>-39.6</ele>
        <time>2022-01-29T10:01:36Z</time>
      </trkpt>
      <trkpt lat="45.06572" lon="4.95198">
        <ele>-39.8</ele>
        <time>2022-01-29T10:01:40Z</time>
      </trkpt>
      <trkpt lat="45.06591" lon="4.95193">
        <ele>-39.6</ele>
        <time>2022-01-29T10:01:44Z</time>
      </trkpt>
      <trkpt lat="45.06611" lon="4.95189">
        <ele>-40.4</ele>
        <time>2022-01-29T10:01:48Z</time>
      </trkpt>
      <trkpt lat="45.06628" lon="4.95185">
        <ele>-40.2</ele>
        <time>2022-01-29T10:01:52Z</time>
      </trkpt>
      <trkpt lat="45.06645" lon="4.9518">
        <ele>-40.6</ele>
        <time>2022-01-29T10:01:56Z</time>
      </trkpt>
      <trkpt lat="45.0666" lon="4.95177">
        <ele>-40</ele>
        <time>2022-01-29T10:02:00Z</time>
      </trkpt>
      <trkpt lat="45.06675" lon="4.95173">
        <ele>-40</ele>
        <time>2022-01-29T10:02:04Z</time>
      </trkpt>
      <trkpt lat="45.0669" lon="4.9517">
        <ele>-40</ele>
        <time>2022-01-29T10:02:08Z</time>
      </trkpt>
      <trkpt lat="45.06705" lon="4.95167">
        <ele>-40</ele>
        <time>2022-01-29T10:02:12Z</time>
      </trkpt>
      <trkpt lat="45.06721" lon="4.95166">
        <ele>-40.4</ele>
        <time>2022-01-29T10:02:16Z</time>
      </trkpt>
      <trkpt lat="45.06737" lon="4.95163">
        <ele>-41</ele>
        <time>2022-01-29T10:02:20Z</time>
      </trkpt>
      <trkpt lat="45.06751" lon="4.95161">
        <ele>-39.8</ele>
        <time>2022-01-29T10:02:24Z</time>
      </trkpt>
      <trkpt lat="45.06767" lon="4.9516">
        <ele>-40</ele>
        <time>2022-01-29T10:02:28Z</time>
      </trkpt>
      <trkpt lat="45.06781" lon="4.95158">
        <ele>-39.2</ele>
        <time>2022-01-29T10:02:32Z</time>
      </trkpt>
      <trkpt lat="45.06794" lon="4.95156">
        <ele>-38.8</ele>
        <time>2022-01-29T10:02:36Z</time>
      </trkpt>
      <trkpt lat="45.06808" lon="4.95153">
        <ele>-38.6</ele>
        <time>2022-01-29T10:02:40Z</time>
      </trkpt>
      <trkpt lat="45.06822" lon="4.95151">
        <ele>-38.8</ele>
        <time>2022-01-29T10:02:44Z</time>
      </trkpt>
      <trkpt lat="45.06834" lon="4.95149">
        <ele>-38.2</ele>
        <time>2022-01-29T10:02:48Z</time>
      </trkpt>
      <trkpt lat="45.06847" lon="4.95147">
        <ele>-38.2</ele>
        <time>2022-01-29T10:02:52Z</time>
      </trkpt>
      <trkpt lat="45.06858" lon="4.95146">
        <ele>-37.6</ele>
        <time>2022-01-29T10:02:56Z</time>
      </trkpt>
      <trkpt lat="45.0687" lon="4.95146">
        <ele>-37.2</ele>
        <time>2022-01-29T10:03:00Z</time>
      </trkpt>
      <trkpt lat="45.06884" lon="4.95146">
        <ele>-37.6</ele>
        <time>2022-01-29T10:03:04Z</time>
      </trkpt>
      <trkpt lat="45.06898" lon="4.95145">
        <ele>-37.6</ele>
        <time>2022-01-29T10:03:08Z</time>
      </trkpt>
      <trkpt lat="45.06911" lon="4.95145">
        <ele>-36.6</ele>
        <time>2022-01-29T10:03:12Z</time>
      </trkpt>
      <trkpt lat="45.06924" lon="4.95142">
        <ele>-37.2</ele>
        <time>2022-01-29T10:03:16Z</time>
      </trkpt>
      <trkpt lat="45.06935" lon="4.95137">
        <ele>-37.6</ele>
        <time>2022-01-29T10:03:20Z</time>
      </trkpt>
      <trkpt lat="45.06949" lon="4.95133">
        <ele>-36.8</ele>
        <time>2022-01-29T10:03:24Z</time>
      </trkpt>
      <trkpt lat="45.06963" lon="4.95128">
        <ele>-37.6</ele>
        <time>2022-01-29T10:03:28Z</time>
      </trkpt>
      <trkpt lat="45.06976" lon="4.95122">
        <ele>-37.6</ele>
        <time>2022-01-29T10:03:32Z</time>
      </trkpt>
      <trkpt lat="45.06992" lon="4.95117">
        <ele>-38.4</ele>
        <time>2022-01-29T10:03:36Z</time>
      </trkpt>
      <trkpt lat="45.07008" lon="4.95111">
        <ele>-38.4</ele>
        <time>2022-01-29T10:03:40Z</time>
      </trkpt>
      <trkpt lat="45.07024" lon="4.95106">
        <ele>-39.2</ele>
        <time>2022-01-29T10:03:44Z</time>
      </trkpt>
      <trkpt lat="45.0704" lon="4.95099">
        <ele>-38.8</ele>
        <time>2022-01-29T10:03:48Z</time>
      </trkpt>
      <trkpt lat="45.07055" lon="4.95093">
        <ele>-38.2</ele>
        <time>2022-01-29T10:03:52Z</time>
      </trkpt>
      <trkpt lat="45.07068" lon="4.95087">
        <ele>-38.8</ele>
        <time>2022-01-29T10:03:56Z</time>
      </trkpt>
      <trkpt lat="45.07081" lon="4.95079">
        <ele>-37.6</ele>
        <time>2022-01-29T10:04:00Z</time>
      </trkpt>
      <trkpt lat="45.07093" lon="4.95072">
        <ele>-36.2</ele>
        <time>2022-01-29T10:04:04Z</time>
      </trkpt>
      <trkpt lat="45.07103" lon="4.95064">
        <ele>-37</ele>
        <time>2022-01-29T10:04:08Z</time>
      </trkpt>
      <trkpt lat="45.07113" lon="4.95056">
        <ele>-37</ele>
        <time>2022-01-29T10:04:12Z</time>
      </trkpt>
      <trkpt lat="45.07122" lon="4.95046">
        <ele>-36.8</ele>
        <time>2022-01-29T10:04:16Z</time>
      </trkpt>
      <trkpt lat="45.07132" lon="4.95035">
        <ele>-36.6</ele>
        <time>2022-01-29T10:04:20Z</time>
      </trkpt>
      <trkpt lat="45.07141" lon="4.95022">
        <ele>-36.8</ele>
        <time>2022-01-29T10:04:24Z</time>
      </trkpt>
      <trkpt lat="45.0715" lon="4.95009">
        <ele>-36.2</ele>
        <time>2022-01-29T10:04:28Z</time>
      </trkpt>
      <trkpt lat="45.07158" lon="4.94996">
        <ele>-36.6</ele>
        <time>2022-01-29T10:04:32Z</time>
      </trkpt>
      <trkpt lat="45.07165" lon="4.94983">
        <ele>-36.6</ele>
        <time>2022-01-29T10:04:36Z</time>
      </trkpt>
      <trkpt lat="45.07173" lon="4.94969">
        <ele>-35.6</ele>
        <time>2022-01-29T10:04:40Z</time>
      </trkpt>
      <trkpt lat="45.07181" lon="4.94956">
        <ele>-35.4</ele>
        <time>2022-01-29T10:04:44Z</time>
      </trkpt>
      <trkpt lat="45.07189" lon="4.94944">
        <ele>-35.2</ele>
        <time>2022-01-29T10:04:48Z</time>
      </trkpt>
      <trkpt lat="45.07197" lon="4.94931">
        <ele>-34.6</ele>
        <time>2022-01-29T10:04:52Z</time>
      </trkpt>
      <trkpt lat="45.07205" lon="4.94919">
        <ele>-34.4</ele>
        <time>2022-01-29T10:04:56Z</time>
      </trkpt>
      <trkpt lat="45.07214" lon="4.94907">
        <ele>-34.2</ele>
        <time>2022-01-29T10:05:00Z</time>
      </trkpt>
      <trkpt lat="45.07222" lon="4.94896">
        <ele>-33.8</ele>
        <time>2022-01-29T10:05:04Z</time>
      </trkpt>
      <trkpt lat="45.07232" lon="4.94885">
        <ele>-33.2</ele>
        <time>2022-01-29T10:05:08Z</time>
      </trkpt>
      <trkpt lat="45.07243" lon="4.94875">
        <ele>-33.2</ele>
        <time>2022-01-29T10:05:12Z</time>
      </trkpt>
      <trkpt lat="45.07254" lon="4.94865">
        <ele>-33.4</ele>
        <time>2022-01-29T10:05:16Z</time>
      </trkpt>
      <trkpt lat="45.07265" lon="4.94855">
        <ele>-33.6</ele>
        <time>2022-01-29T10:05:20Z</time>
      </trkpt>
      <trkpt lat="45.07276" lon="4.94844">
        <ele>-32.6</ele>
        <time>2022-01-29T10:05:24Z</time>
      </trkpt>
      <trkpt lat="45.07288" lon="4.94834">
        <ele>-32.2</ele>
        <time>2022-01-29T10:05:28Z</time>
      </trkpt>
      <trkpt lat="45.07299" lon="4.94825">
        <ele>-31.8</ele>
        <time>2022-01-29T10:05:32Z</time>
      </trkpt>
      <trkpt lat="45.07308" lon="4.94815">
        <ele>-31.4</ele>
        <time>2022-01-29T10:05:36Z</time>
      </trkpt>
      <trkpt lat="45.07316" lon="4.94802">
        <ele>-31.2</ele>
        <time>2022-01-29T10:05:40Z</time>
      </trkpt>
      <trkpt lat="45.07322" lon="4.94787">
        <ele>-31</ele>
        <time>2022-01-29T10:05:44Z</time>
      </trkpt>
      <trkpt lat="45.07328" lon="4.94772">
        <ele>-29.6</ele>
        <time>2022-01-29T10:05:48Z</time>
      </trkpt>
      <trkpt lat="45.07333" lon="4.94758">
        <ele>-30</ele>
        <time>2022-01-29T10:05:52Z</time>
      </trkpt>
      <trkpt lat="45.07337" lon="4.94744">
        <ele>-29.4</ele>
        <time>2022-01-29T10:05:56Z</time>
      </trkpt>
      <trkpt lat="45.07342" lon="4.9473">
        <ele>-29.2</ele>
        <time>2022-01-29T10:06:00Z</time>
      </trkpt>
      <trkpt lat="45.07347" lon="4.94713">
        <ele>-30</ele>
        <time>2022-01-29T10:06:04Z</time>
      </trkpt>
      <trkpt lat="45.07357" lon="4.9469">
        <ele>-31.2</ele>
        <time>2022-01-29T10:06:08Z</time>
      </trkpt>
      <trkpt lat="45.07369" lon="4.94668">
        <ele>-30.8</ele>
        <time>2022-01-29T10:06:12Z</time>
      </trkpt>
      <trkpt lat="45.07384" lon="4.94656">
        <ele>-30</ele>
        <time>2022-01-29T10:06:16Z</time>
      </trkpt>
      <trkpt lat="45.07399" lon="4.9465">
        <ele>-30</ele>
        <time>2022-01-29T10:06:20Z</time>
      </trkpt>
      <trkpt lat="45.07412" lon="4.94644">
        <ele>-29</ele>
        <time>2022-01-29T10:06:24Z</time>
      </trkpt>
      <trkpt lat="45.07424" lon="4.94639">
        <ele>-28.8</ele>
        <time>2022-01-29T10:06:28Z</time>
      </trkpt>
      <trkpt lat="45.07434" lon="4.94635">
        <ele>-27.6</ele>
        <time>2022-01-29T10:06:32Z</time>
      </trkpt>
      <trkpt lat="45.07443" lon="4.94633">
        <ele>-26.8</ele>
        <time>2022-01-29T10:06:36Z</time>
      </trkpt>
      <trkpt lat="45.07453" lon="4.94632">
        <ele>-26.2</ele>
        <time>2022-01-29T10:06:40Z</time>
      </trkpt>
      <trkpt lat="45.07455" lon="4.94623">
        <ele>-25.6</ele>
        <time>2022-01-29T10:06:44Z</time>
      </trkpt>
      <trkpt lat="45.07452" lon="4.94609">
        <ele>-25.2</ele>
        <time>2022-01-29T10:06:48Z</time>
      </trkpt>
      <trkpt lat="45.07448" lon="4.94597">
        <ele>-24</ele>
        <time>2022-01-29T10:06:52Z</time>
      </trkpt>
      <trkpt lat="45.07444" lon="4.94584">
        <ele>-23.2</ele>
        <time>2022-01-29T10:06:56Z</time>
      </trkpt>
      <trkpt lat="45.0744" lon="4.94572">
        <ele>-22.8</ele>
        <time>2022-01-29T10:07:00Z</time>
      </trkpt>
      <trkpt lat="45.07436" lon="4.9456">
        <ele>-22.2</ele>
        <time>2022-01-29T10:07:04Z</time>
      </trkpt>
      <trkpt lat="45.07432" lon="4.94549">
        <ele>-22</ele>
        <time>2022-01-29T10:07:08Z</time>
      </trkpt>
      <trkpt lat="45.07429" lon="4.94538">
        <ele>-21.2</ele>
        <time>2022-01-29T10:07:12Z</time>
      </trkpt>
      <trkpt lat="45.07425" lon="4.94526">
        <ele>-20.4</ele>
        <time>2022-01-29T10:07:16Z</time>
      </trkpt>
      <trkpt lat="45.07421" lon="4.94515">
        <ele>-19.4</ele>
        <time>2022-01-29T10:07:20Z</time>
      </trkpt>
      <trkpt lat="45.07418" lon="4.94504">
        <ele>-19.4</ele>
        <time>2022-01-29T10:07:24Z</time>
      </trkpt>
      <trkpt lat="45.07415" lon="4.94493">
        <ele>-18.6</ele>
        <time>2022-01-29T10:07:28Z</time>
      </trkpt>
      <trkpt lat="45.07411" lon="4.94483">
        <ele>-18.2</ele>
        <time>2022-01-29T10:07:32Z</time>
      </trkpt>
      <trkpt lat="45.07408" lon="4.94471">
        <ele>-17.8</ele>
        <time>2022-01-29T10:07:36Z</time>
      </trkpt>
      <trkpt lat="45.07403" lon="4.9446">
        <ele>-16.6</ele>
        <time>2022-01-29T10:07:40Z</time>
      </trkpt>
      <trkpt lat="45.074" lon="4.94449">
        <ele>-16.2</ele>
        <time>2022-01-29T10:07:44Z</time>
      </trkpt>
      <trkpt lat="45.07395" lon="4.94439">
        <ele>-15.2</ele>
        <time>2022-01-29T10:07:48Z</time>
      </trkpt>
      <trkpt lat="45.07392" lon="4.94429">
        <ele>-14.6</ele>
        <time>2022-01-29T10:07:52Z</time>
      </trkpt>
      <trkpt lat="45.07387" lon="4.94419">
        <ele>-14.6</ele>
        <time>2022-01-29T10:07:56Z</time>
      </trkpt>
      <trkpt lat="45.07382" lon="4.94408">
        <ele>-13.8</ele>
        <time>2022-01-29T10:08:00Z</time>
      </trkpt>
      <trkpt lat="45.07378" lon="4.94398">
        <ele>-13</ele>
        <time>2022-01-29T10:08:04Z</time>
      </trkpt>
      <trkpt lat="45.07373" lon="4.94387">
        <ele>-12.4</ele>
        <time>2022-01-29T10:08:08Z</time>
      </trkpt>
      <trkpt lat="45.07368" lon="4.94375">
        <ele>-12.2</ele>
        <time>2022-01-29T10:08:12Z</time>
      </trkpt>
      <trkpt lat="45.07365" lon="4.94361">
        <ele>-11.2</ele>
        <time>2022-01-29T10:08:16Z</time>
      </trkpt>
      <trkpt lat="45.07363" lon="4.94348">
        <ele>-10.4</ele>
        <time>2022-01-29T10:08:20Z</time>
      </trkpt>
      <trkpt lat="45.07363" lon="4.94336">
        <ele>-9.6</ele>
        <time>2022-01-29T10:08:24Z</time>
      </trkpt>
      <trkpt lat="45.07366" lon="4.94326">
        <ele>-10</ele>
        <time>2022-01-29T10:08:28Z</time>
      </trkpt>
      <trkpt lat="45.07382" lon="4.94299">
        <ele>-10.2</ele>
        <time>2022-01-29T10:11:54Z</time>
      </trkpt>
      <trkpt lat="45.07384" lon="4.94293">
        <ele>-10.6</ele>
        <time>2022-01-29T10:11:58Z</time>
      </trkpt>
      <trkpt lat="45.07388" lon="4.94289">
        <ele>-10.2</ele>
        <time>2022-01-29T10:12:02Z</time>
      </trkpt>
      <trkpt lat="45.07391" lon="4.94283">
        <ele>-11.4</ele>
        <time>2022-01-29T10:12:06Z</time>
      </trkpt>
      <trkpt lat="45.07393" lon="4.94278">
        <ele>-11.4</ele>
        <time>2022-01-29T10:12:10Z</time>
      </trkpt>
      <trkpt lat="45.07398" lon="4.94273">
        <ele>-10.2</ele>
        <time>2022-01-29T10:12:14Z</time>
      </trkpt>
      <trkpt lat="45.07402" lon="4.94265">
        <ele>-10.2</ele>
        <time>2022-01-29T10:12:18Z</time>
      </trkpt>
      <trkpt lat="45.07408" lon="4.94256">
        <ele>-10.8</ele>
        <time>2022-01-29T10:12:22Z</time>
      </trkpt>
      <trkpt lat="45.07412" lon="4.94246">
        <ele>-10</ele>
        <time>2022-01-29T10:12:26Z</time>
      </trkpt>
      <trkpt lat="45.07416" lon="4.94235">
        <ele>-9.2</ele>
        <time>2022-01-29T10:12:30Z</time>
      </trkpt>
      <trkpt lat="45.07418" lon="4.94225">
        <ele>-8.4</ele>
        <time>2022-01-29T10:12:34Z</time>
      </trkpt>
      <trkpt lat="45.0742" lon="4.94215">
        <ele>-8.8</ele>
        <time>2022-01-29T10:12:38Z</time>
      </trkpt>
      <trkpt lat="45.07422" lon="4.94205">
        <ele>-7.8</ele>
        <time>2022-01-29T10:12:42Z</time>
      </trkpt>
      <trkpt lat="45.07425" lon="4.94195">
        <ele>-7.8</ele>
        <time>2022-01-29T10:12:46Z</time>
      </trkpt>
      <trkpt lat="45.07427" lon="4.94186">
        <ele>-7.8</ele>
        <time>2022-01-29T10:12:50Z</time>
      </trkpt>
      <trkpt lat="45.0743" lon="4.94179">
        <ele>-7.8</ele>
        <time>2022-01-29T10:12:54Z</time>
      </trkpt>
      <trkpt lat="45.07434" lon="4.94174">
        <ele>-7.8</ele>
        <time>2022-01-29T10:12:58Z</time>
      </trkpt>
      <trkpt lat="45.07436" lon="4.94168">
        <ele>-7.8</ele>
        <time>2022-01-29T10:13:02Z</time>
      </trkpt>
      <trkpt lat="45.07433" lon="4.94164">
        <ele>-7.2</ele>
        <time>2022-01-29T10:13:06Z</time>
      </trkpt>
      <trkpt lat="45.07429" lon="4.94165">
        <ele>-7.2</ele>
        <time>2022-01-29T10:13:10Z</time>
      </trkpt>
      <trkpt lat="45.07429" lon="4.94171">
        <ele>-7.2</ele>
        <time>2022-01-29T10:13:14Z</time>
      </trkpt>
      <trkpt lat="45.07434" lon="4.94173">
        <ele>-8</ele>
        <time>2022-01-29T10:13:18Z</time>
      </trkpt>
      <trkpt lat="45.07434" lon="4.94164">
        <ele>-8.2</ele>
        <time>2022-01-29T10:13:22Z</time>
      </trkpt>
      <trkpt lat="45.07432" lon="4.94167">
        <ele>-7.6</ele>
        <time>2022-01-29T10:13:26Z</time>
      </trkpt>
      <trkpt lat="45.0744" lon="4.94171">
        <ele>-7.2</ele>
        <time>2022-01-29T10:13:30Z</time>
      </trkpt>
      <trkpt lat="45.07454" lon="4.9417">
        <ele>-7.8</ele>
        <time>2022-01-29T10:13:34Z</time>
      </trkpt>
      <trkpt lat="45.07467" lon="4.94169">
        <ele>-7.4</ele>
        <time>2022-01-29T10:13:38Z</time>
      </trkpt>
      <trkpt lat="45.0748" lon="4.94167">
        <ele>-7.8</ele>
        <time>2022-01-29T10:13:42Z</time>
      </trkpt>
      <trkpt lat="45.07493" lon="4.94165">
        <ele>-7</ele>
        <time>2022-01-29T10:13:46Z</time>
      </trkpt>
      <trkpt lat="45.07505" lon="4.94163">
        <ele>-6.8</ele>
        <time>2022-01-29T10:13:50Z</time>
      </trkpt>
      <trkpt lat="45.07517" lon="4.94161">
        <ele>-6.6</ele>
        <time>2022-01-29T10:13:54Z</time>
      </trkpt>
      <trkpt lat="45.07528" lon="4.94159">
        <ele>-5.4</ele>
        <time>2022-01-29T10:13:58Z</time>
      </trkpt>
      <trkpt lat="45.07539" lon="4.94157">
        <ele>-4.6</ele>
        <time>2022-01-29T10:14:02Z</time>
      </trkpt>
      <trkpt lat="45.07549" lon="4.94156">
        <ele>-4</ele>
        <time>2022-01-29T10:14:06Z</time>
      </trkpt>
      <trkpt lat="45.07559" lon="4.94155">
        <ele>-3.2</ele>
        <time>2022-01-29T10:14:10Z</time>
      </trkpt>
      <trkpt lat="45.07569" lon="4.94154">
        <ele>-2.4</ele>
        <time>2022-01-29T10:14:14Z</time>
      </trkpt>
      <trkpt lat="45.07579" lon="4.94154">
        <ele>-1.4</ele>
        <time>2022-01-29T10:14:18Z</time>
      </trkpt>
      <trkpt lat="45.0759" lon="4.94155">
        <ele>-0.39999999999998</ele>
        <time>2022-01-29T10:14:22Z</time>
      </trkpt>
      <trkpt lat="45.07602" lon="4.94157">
        <ele>-1</ele>
        <time>2022-01-29T10:14:26Z</time>
      </trkpt>
      <trkpt lat="45.07615" lon="4.94158">
        <ele>-0.19999999999999</ele>
        <time>2022-01-29T10:14:30Z</time>
      </trkpt>
      <trkpt lat="45.07627" lon="4.94159">
        <ele>-1</ele>
        <time>2022-01-29T10:14:34Z</time>
      </trkpt>
      <trkpt lat="45.07639" lon="4.9416">
        <ele>-0.19999999999999</ele>
        <time>2022-01-29T10:14:38Z</time>
      </trkpt>
      <trkpt lat="45.07649" lon="4.94162">
        <ele>0.80000000000001</ele>
        <time>2022-01-29T10:14:42Z</time>
      </trkpt>
      <trkpt lat="45.07661" lon="4.94163">
        <ele>1</ele>
        <time>2022-01-29T10:14:46Z</time>
      </trkpt>
      <trkpt lat="45.07674" lon="4.94164">
        <ele>0.39999999999998</ele>
        <time>2022-01-29T10:14:50Z</time>
      </trkpt>
      <trkpt lat="45.07687" lon="4.94164">
        <ele>1</ele>
        <time>2022-01-29T10:14:54Z</time>
      </trkpt>
      <trkpt lat="45.07697" lon="4.94164">
        <ele>0.60000000000002</ele>
        <time>2022-01-29T10:14:58Z</time>
      </trkpt>
      <trkpt lat="45.07709" lon="4.94163">
        <ele>0.80000000000001</ele>
        <time>2022-01-29T10:15:02Z</time>
      </trkpt>
      <trkpt lat="45.07721" lon="4.94163">
        <ele>0.80000000000001</ele>
        <time>2022-01-29T10:15:06Z</time>
      </trkpt>
      <trkpt lat="45.07732" lon="4.94164">
        <ele>1.2</ele>
        <time>2022-01-29T10:15:10Z</time>
      </trkpt>
      <trkpt lat="45.07743" lon="4.94165">
        <ele>-0.19999999999999</ele>
        <time>2022-01-29T10:15:14Z</time>
      </trkpt>
      <trkpt lat="45.07752" lon="4.94168">
        <ele>1</ele>
        <time>2022-01-29T10:15:18Z</time>
      </trkpt>
      <trkpt lat="45.07762" lon="4.94175">
        <ele>0.60000000000002</ele>
        <time>2022-01-29T10:15:22Z</time>
      </trkpt>
      <trkpt lat="45.0777" lon="4.94185">
        <ele>0.80000000000001</ele>
        <time>2022-01-29T10:15:26Z</time>
      </trkpt>
      <trkpt lat="45.07777" lon="4.94194">
        <ele>1.8</ele>
        <time>2022-01-29T10:15:30Z</time>
      </trkpt>
      <trkpt lat="45.07784" lon="4.94202">
        <ele>1.8</ele>
        <time>2022-01-29T10:15:34Z</time>
      </trkpt>
      <trkpt lat="45.07792" lon="4.94208">
        <ele>2</ele>
        <time>2022-01-29T10:15:38Z</time>
      </trkpt>
      <trkpt lat="45.07799" lon="4.9421">
        <ele>2.8</ele>
        <time>2022-01-29T10:15:42Z</time>
      </trkpt>
      <trkpt lat="45.07808" lon="4.94211">
        <ele>2.4</ele>
        <time>2022-01-29T10:15:46Z</time>
      </trkpt>
      <trkpt lat="45.07817" lon="4.94212">
        <ele>3</ele>
        <time>2022-01-29T10:15:50Z</time>
      </trkpt>
      <trkpt lat="45.07826" lon="4.94213">
        <ele>3</ele>
        <time>2022-01-29T10:15:54Z</time>
      </trkpt>
      <trkpt lat="45.07835" lon="4.94213">
        <ele>3.8</ele>
        <time>2022-01-29T10:15:58Z</time>
      </trkpt>
      <trkpt lat="45.07845" lon="4.94214">
        <ele>3.4</ele>
        <time>2022-01-29T10:16:02Z</time>
      </trkpt>
      <trkpt lat="45.07854" lon="4.94214">
        <ele>4</ele>
        <time>2022-01-29T10:16:06Z</time>
      </trkpt>
      <trkpt lat="45.07863" lon="4.94214">
        <ele>3.8</ele>
        <time>2022-01-29T10:16:10Z</time>
      </trkpt>
      <trkpt lat="45.07873" lon="4.94214">
        <ele>4.2</ele>
        <time>2022-01-29T10:16:14Z</time>
      </trkpt>
      <trkpt lat="45.07884" lon="4.94213">
        <ele>3.8</ele>
        <time>2022-01-29T10:16:18Z</time>
      </trkpt>
      <trkpt lat="45.07895" lon="4.94211">
        <ele>3.4</ele>
        <time>2022-01-29T10:16:22Z</time>
      </trkpt>
      <trkpt lat="45.07906" lon="4.94211">
        <ele>3.6</ele>
        <time>2022-01-29T10:16:26Z</time>
      </trkpt>
      <trkpt lat="45.07919" lon="4.9421">
        <ele>4</ele>
        <time>2022-01-29T10:16:30Z</time>
      </trkpt>
      <trkpt lat="45.07931" lon="4.94211">
        <ele>3.8</ele>
        <time>2022-01-29T10:16:34Z</time>
      </trkpt>
      <trkpt lat="45.07944" lon="4.9421">
        <ele>3.4</ele>
        <time>2022-01-29T10:16:38Z</time>
      </trkpt>
      <trkpt lat="45.07957" lon="4.94211">
        <ele>3</ele>
        <time>2022-01-29T10:16:42Z</time>
      </trkpt>
      <trkpt lat="45.0797" lon="4.94211">
        <ele>3.6</ele>
        <time>2022-01-29T10:16:46Z</time>
      </trkpt>
      <trkpt lat="45.07982" lon="4.94213">
        <ele>2.4</ele>
        <time>2022-01-29T10:16:50Z</time>
      </trkpt>
      <trkpt lat="45.07994" lon="4.94216">
        <ele>3.2</ele>
        <time>2022-01-29T10:16:54Z</time>
      </trkpt>
      <trkpt lat="45.08006" lon="4.94219">
        <ele>3</ele>
        <time>2022-01-29T10:16:58Z</time>
      </trkpt>
      <trkpt lat="45.08018" lon="4.94223">
        <ele>3.2</ele>
        <time>2022-01-29T10:17:02Z</time>
      </trkpt>
      <trkpt lat="45.0803" lon="4.94228">
        <ele>3.6</ele>
        <time>2022-01-29T10:17:06Z</time>
      </trkpt>
      <trkpt lat="45.08042" lon="4.94232">
        <ele>3.4</ele>
        <time>2022-01-29T10:17:10Z</time>
      </trkpt>
      <trkpt lat="45.08053" lon="4.94234">
        <ele>4.4</ele>
        <time>2022-01-29T10:17:14Z</time>
      </trkpt>
      <trkpt lat="45.08065" lon="4.94235">
        <ele>4</ele>
        <time>2022-01-29T10:17:18Z</time>
      </trkpt>
      <trkpt lat="45.08077" lon="4.94236">
        <ele>3</ele>
        <time>2022-01-29T10:17:22Z</time>
      </trkpt>
      <trkpt lat="45.0809" lon="4.94236">
        <ele>2.6</ele>
        <time>2022-01-29T10:17:26Z</time>
      </trkpt>
      <trkpt lat="45.08102" lon="4.94236">
        <ele>2.2</ele>
        <time>2022-01-29T10:17:30Z</time>
      </trkpt>
      <trkpt lat="45.08116" lon="4.94235">
        <ele>1.4</ele>
        <time>2022-01-29T10:17:34Z</time>
      </trkpt>
      <trkpt lat="45.08129" lon="4.94234">
        <ele>1.4</ele>
        <time>2022-01-29T10:17:38Z</time>
      </trkpt>
      <trkpt lat="45.08142" lon="4.94232">
        <ele>0.80000000000001</ele>
        <time>2022-01-29T10:17:42Z</time>
      </trkpt>
      <trkpt lat="45.08155" lon="4.94229">
        <ele>0.39999999999998</ele>
        <time>2022-01-29T10:17:46Z</time>
      </trkpt>
      <trkpt lat="45.08168" lon="4.94225">
        <ele>1</ele>
        <time>2022-01-29T10:17:50Z</time>
      </trkpt>
      <trkpt lat="45.08181" lon="4.94221">
        <ele>1</ele>
        <time>2022-01-29T10:17:54Z</time>
      </trkpt>
      <trkpt lat="45.08193" lon="4.94218">
        <ele>0.19999999999999</ele>
        <time>2022-01-29T10:17:58Z</time>
      </trkpt>
      <trkpt lat="45.08205" lon="4.94212">
        <ele>-0.19999999999999</ele>
        <time>2022-01-29T10:18:02Z</time>
      </trkpt>
      <trkpt lat="45.08218" lon="4.94208">
        <ele>-0.39999999999998</ele>
        <time>2022-01-29T10:18:06Z</time>
      </trkpt>
      <trkpt lat="45.0823" lon="4.94203">
        <ele>-0.19999999999999</ele>
        <time>2022-01-29T10:18:10Z</time>
      </trkpt>
      <trkpt lat="45.08242" lon="4.94199">
        <ele>-0.19999999999999</ele>
        <time>2022-01-29T10:18:14Z</time>
      </trkpt>
      <trkpt lat="45.08253" lon="4.94193">
        <ele>0.19999999999999</ele>
        <time>2022-01-29T10:18:18Z</time>
      </trkpt>
      <trkpt lat="45.08265" lon="4.94187">
        <ele>-0.19999999999999</ele>
        <time>2022-01-29T10:18:22Z</time>
      </trkpt>
      <trkpt lat="45.08275" lon="4.94182">
        <ele>-0.19999999999999</ele>
        <time>2022-01-29T10:18:26Z</time>
      </trkpt>
      <trkpt lat="45.08286" lon="4.94175">
        <ele>-0.80000000000001</ele>
        <time>2022-01-29T10:18:30Z</time>
      </trkpt>
      <trkpt lat="45.08298" lon="4.9417">
        <ele>-1.4</ele>
        <time>2022-01-29T10:18:34Z</time>
      </trkpt>
      <trkpt lat="45.0831" lon="4.94164">
        <ele>-2.2</ele>
        <time>2022-01-29T10:18:38Z</time>
      </trkpt>
      <trkpt lat="45.08322" lon="4.94157">
        <ele>-3.4</ele>
        <time>2022-01-29T10:18:42Z</time>
      </trkpt>
      <trkpt lat="45.08332" lon="4.94139">
        <ele>-3.6</ele>
        <time>2022-01-29T10:18:46Z</time>
      </trkpt>
      <trkpt lat="45.08346" lon="4.94129">
        <ele>-4.4</ele>
        <time>2022-01-29T10:18:50Z</time>
      </trkpt>
      <trkpt lat="45.08359" lon="4.94118">
        <ele>-4.2</ele>
        <time>2022-01-29T10:18:54Z</time>
      </trkpt>
      <trkpt lat="45.08372" lon="4.94107">
        <ele>-5.4</ele>
        <time>2022-01-29T10:18:58Z</time>
      </trkpt>
      <trkpt lat="45.08383" lon="4.9409">
        <ele>-4.8</ele>
        <time>2022-01-29T10:19:02Z</time>
      </trkpt>
      <trkpt lat="45.08391" lon="4.9407">
        <ele>-4.8</ele>
        <time>2022-01-29T10:19:06Z</time>
      </trkpt>
      <trkpt lat="45.08398" lon="4.94052">
        <ele>-4</ele>
        <time>2022-01-29T10:19:10Z</time>
      </trkpt>
      <trkpt lat="45.08406" lon="4.94037">
        <ele>-3.6</ele>
        <time>2022-01-29T10:19:14Z</time>
      </trkpt>
      <trkpt lat="45.08414" lon="4.94021">
        <ele>-3.8</ele>
        <time>2022-01-29T10:19:18Z</time>
      </trkpt>
      <trkpt lat="45.08422" lon="4.94001">
        <ele>-3.4</ele>
        <time>2022-01-29T10:19:22Z</time>
      </trkpt>
      <trkpt lat="45.08429" lon="4.93985">
        <ele>-3.6</ele>
        <time>2022-01-29T10:19:26Z</time>
      </trkpt>
      <trkpt lat="45.08435" lon="4.9397">
        <ele>-3.6</ele>
        <time>2022-01-29T10:19:30Z</time>
      </trkpt>
      <trkpt lat="45.08441" lon="4.93955">
        <ele>-4</ele>
        <time>2022-01-29T10:19:34Z</time>
      </trkpt>
      <trkpt lat="45.0845" lon="4.93934">
        <ele>-6.4</ele>
        <time>2022-01-29T10:19:38Z</time>
      </trkpt>
      <trkpt lat="45.08458" lon="4.93911">
        <ele>-6.6</ele>
        <time>2022-01-29T10:19:42Z</time>
      </trkpt>
      <trkpt lat="45.08469" lon="4.9389">
        <ele>-6.4</ele>
        <time>2022-01-29T10:19:46Z</time>
      </trkpt>
      <trkpt lat="45.08481" lon="4.93869">
        <ele>-8.2</ele>
        <time>2022-01-29T10:19:50Z</time>
      </trkpt>
      <trkpt lat="45.08494" lon="4.9385">
        <ele>-9.4</ele>
        <time>2022-01-29T10:19:54Z</time>
      </trkpt>
      <trkpt lat="45.0851" lon="4.93833">
        <ele>-7.8</ele>
        <time>2022-01-29T10:19:58Z</time>
      </trkpt>
      <trkpt lat="45.08527" lon="4.93818">
        <ele>-10</ele>
        <time>2022-01-29T10:20:02Z</time>
      </trkpt>
      <trkpt lat="45.08546" lon="4.93803">
        <ele>-10.8</ele>
        <time>2022-01-29T10:20:06Z</time>
      </trkpt>
      <trkpt lat="45.08568" lon="4.93791">
        <ele>-12.8</ele>
        <time>2022-01-29T10:20:10Z</time>
      </trkpt>
      <trkpt lat="45.08588" lon="4.93773">
        <ele>-13.4</ele>
        <time>2022-01-29T10:20:14Z</time>
      </trkpt>
      <trkpt lat="45.086" lon="4.93744">
        <ele>-16.6</ele>
        <time>2022-01-29T10:20:18Z</time>
      </trkpt>
      <trkpt lat="45.08607" lon="4.93716">
        <ele>-18.4</ele>
        <time>2022-01-29T10:20:22Z</time>
      </trkpt>
      <trkpt lat="45.08618" lon="4.93694">
        <ele>-17</ele>
        <time>2022-01-29T10:20:26Z</time>
      </trkpt>
      <trkpt lat="45.08631" lon="4.93682">
        <ele>-17.4</ele>
        <time>2022-01-29T10:20:30Z</time>
      </trkpt>
      <trkpt lat="45.08641" lon="4.9367">
        <ele>-17.4</ele>
        <time>2022-01-29T10:20:34Z</time>
      </trkpt>
      <trkpt lat="45.08645" lon="4.93655">
        <ele>-17.4</ele>
        <time>2022-01-29T10:20:38Z</time>
      </trkpt>
      <trkpt lat="45.08647" lon="4.93641">
        <ele>-16.8</ele>
        <time>2022-01-29T10:20:42Z</time>
      </trkpt>
      <trkpt lat="45.08648" lon="4.93633">
        <ele>-16</ele>
        <time>2022-01-29T10:20:46Z</time>
      </trkpt>
      <trkpt lat="45.08647" lon="4.93621">
        <ele>-16.4</ele>
        <time>2022-01-29T10:20:50Z</time>
      </trkpt>
      <trkpt lat="45.08645" lon="4.93603">
        <ele>-16.4</ele>
        <time>2022-01-29T10:20:54Z</time>
      </trkpt>
      <trkpt lat="45.08648" lon="4.93585">
        <ele>-15.6</ele>
        <time>2022-01-29T10:20:58Z</time>
      </trkpt>
      <trkpt lat="45.08659" lon="4.93571">
        <ele>-14.8</ele>
        <time>2022-01-29T10:21:02Z</time>
      </trkpt>
      <trkpt lat="45.08671" lon="4.9356">
        <ele>-14.8</ele>
        <time>2022-01-29T10:21:06Z</time>
      </trkpt>
      <trkpt lat="45.08685" lon="4.93549">
        <ele>-17</ele>
        <time>2022-01-29T10:21:10Z</time>
      </trkpt>
      <trkpt lat="45.08698" lon="4.93536">
        <ele>-16</ele>
        <time>2022-01-29T10:21:14Z</time>
      </trkpt>
      <trkpt lat="45.08713" lon="4.93521">
        <ele>-17.6</ele>
        <time>2022-01-29T10:21:18Z</time>
      </trkpt>
      <trkpt lat="45.08728" lon="4.93505">
        <ele>-17</ele>
        <time>2022-01-29T10:21:22Z</time>
      </trkpt>
      <trkpt lat="45.08743" lon="4.9349">
        <ele>-16.6</ele>
        <time>2022-01-29T10:21:26Z</time>
      </trkpt>
      <trkpt lat="45.08757" lon="4.93476">
        <ele>-17.8</ele>
        <time>2022-01-29T10:21:30Z</time>
      </trkpt>
      <trkpt lat="45.08771" lon="4.93463">
        <ele>-17.8</ele>
        <time>2022-01-29T10:21:34Z</time>
      </trkpt>
      <trkpt lat="45.08785" lon="4.9345">
        <ele>-19.2</ele>
        <time>2022-01-29T10:21:38Z</time>
      </trkpt>
      <trkpt lat="45.08799" lon="4.93435">
        <ele>-20.8</ele>
        <time>2022-01-29T10:21:42Z</time>
      </trkpt>
      <trkpt lat="45.08808" lon="4.93413">
        <ele>-21.8</ele>
        <time>2022-01-29T10:21:46Z</time>
      </trkpt>
      <trkpt lat="45.0881" lon="4.93388">
        <ele>-21.2</ele>
        <time>2022-01-29T10:21:50Z</time>
      </trkpt>
      <trkpt lat="45.08807" lon="4.93362">
        <ele>-22</ele>
        <time>2022-01-29T10:21:54Z</time>
      </trkpt>
      <trkpt lat="45.08801" lon="4.93338">
        <ele>-22.2</ele>
        <time>2022-01-29T10:21:58Z</time>
      </trkpt>
      <trkpt lat="45.08795" lon="4.93314">
        <ele>-22</ele>
        <time>2022-01-29T10:22:02Z</time>
      </trkpt>
      <trkpt lat="45.08788" lon="4.93292">
        <ele>-21.4</ele>
        <time>2022-01-29T10:22:06Z</time>
      </trkpt>
      <trkpt lat="45.0878" lon="4.9327">
        <ele>-21.6</ele>
        <time>2022-01-29T10:22:10Z</time>
      </trkpt>
      <trkpt lat="45.08773" lon="4.93249">
        <ele>-21.4</ele>
        <time>2022-01-29T10:22:14Z</time>
      </trkpt>
      <trkpt lat="45.08766" lon="4.93229">
        <ele>-20.8</ele>
        <time>2022-01-29T10:22:18Z</time>
      </trkpt>
      <trkpt lat="45.08764" lon="4.93205">
        <ele>-22.2</ele>
        <time>2022-01-29T10:22:22Z</time>
      </trkpt>
      <trkpt lat="45.08765" lon="4.93182">
        <ele>-22.8</ele>
        <time>2022-01-29T10:22:26Z</time>
      </trkpt>
      <trkpt lat="45.08767" lon="4.93159">
        <ele>-21.8</ele>
        <time>2022-01-29T10:22:30Z</time>
      </trkpt>
      <trkpt lat="45.08769" lon="4.93137">
        <ele>-21.8</ele>
        <time>2022-01-29T10:22:34Z</time>
      </trkpt>
      <trkpt lat="45.0877" lon="4.93116">
        <ele>-22.2</ele>
        <time>2022-01-29T10:22:38Z</time>
      </trkpt>
      <trkpt lat="45.08771" lon="4.93098">
        <ele>-22.2</ele>
        <time>2022-01-29T10:22:42Z</time>
      </trkpt>
      <trkpt lat="45.08772" lon="4.93079">
        <ele>-20</ele>
        <time>2022-01-29T10:22:46Z</time>
      </trkpt>
      <trkpt lat="45.08773" lon="4.93055">
        <ele>-21</ele>
        <time>2022-01-29T10:22:50Z</time>
      </trkpt>
      <trkpt lat="45.08775" lon="4.93033">
        <ele>-23</ele>
        <time>2022-01-29T10:22:54Z</time>
      </trkpt>
      <trkpt lat="45.08775" lon="4.93012">
        <ele>-21.6</ele>
        <time>2022-01-29T10:22:58Z</time>
      </trkpt>
      <trkpt lat="45.08777" lon="4.92991">
        <ele>-21.4</ele>
        <time>2022-01-29T10:23:02Z</time>
      </trkpt>
      <trkpt lat="45.08778" lon="4.92971">
        <ele>-20.8</ele>
        <time>2022-01-29T10:23:06Z</time>
      </trkpt>
      <trkpt lat="45.08779" lon="4.92951">
        <ele>-20.4</ele>
        <time>2022-01-29T10:23:10Z</time>
      </trkpt>
      <trkpt lat="45.0878" lon="4.92931">
        <ele>-19.8</ele>
        <time>2022-01-29T10:23:14Z</time>
      </trkpt>
      <trkpt lat="45.08781" lon="4.92912">
        <ele>-19.2</ele>
        <time>2022-01-29T10:23:18Z</time>
      </trkpt>
      <trkpt lat="45.08782" lon="4.92892">
        <ele>-18.4</ele>
        <time>2022-01-29T10:23:22Z</time>
      </trkpt>
      <trkpt lat="45.08783" lon="4.92873">
        <ele>-19.4</ele>
        <time>2022-01-29T10:23:26Z</time>
      </trkpt>
      <trkpt lat="45.08784" lon="4.92854">
        <ele>-19</ele>
        <time>2022-01-29T10:23:30Z</time>
      </trkpt>
      <trkpt lat="45.08785" lon="4.92836">
        <ele>-19</ele>
        <time>2022-01-29T10:23:34Z</time>
      </trkpt>
      <trkpt lat="45.08785" lon="4.92817">
        <ele>-18.2</ele>
        <time>2022-01-29T10:23:38Z</time>
      </trkpt>
      <trkpt lat="45.08786" lon="4.92799">
        <ele>-18.4</ele>
        <time>2022-01-29T10:23:42Z</time>
      </trkpt>
      <trkpt lat="45.08787" lon="4.92781">
        <ele>-18</ele>
        <time>2022-01-29T10:23:46Z</time>
      </trkpt>
      <trkpt lat="45.08789" lon="4.92764">
        <ele>-17</ele>
        <time>2022-01-29T10:23:50Z</time>
      </trkpt>
      <trkpt lat="45.08791" lon="4.92747">
        <ele>-17</ele>
        <time>2022-01-29T10:23:54Z</time>
      </trkpt>
      <trkpt lat="45.08792" lon="4.9273">
        <ele>-17.6</ele>
        <time>2022-01-29T10:23:58Z</time>
      </trkpt>
      <trkpt lat="45.08794" lon="4.92714">
        <ele>-17.4</ele>
        <time>2022-01-29T10:24:02Z</time>
      </trkpt>
      <trkpt lat="45.08795" lon="4.92699">
        <ele>-15.4</ele>
        <time>2022-01-29T10:24:06Z</time>
      </trkpt>
      <trkpt lat="45.08798" lon="4.92683">
        <ele>-14.2</ele>
        <time>2022-01-29T10:24:10Z</time>
      </trkpt>
      <trkpt lat="45.08801" lon="4.92668">
        <ele>-14</ele>
        <time>2022-01-29T10:24:14Z</time>
      </trkpt>
      <trkpt lat="45.08805" lon="4.92653">
        <ele>-13</ele>
        <time>2022-01-29T10:24:18Z</time>
      </trkpt>
      <trkpt lat="45.0881" lon="4.92637">
        <ele>-12.4</ele>
        <time>2022-01-29T10:24:22Z</time>
      </trkpt>
      <trkpt lat="45.08815" lon="4.92622">
        <ele>-11.8</ele>
        <time>2022-01-29T10:24:26Z</time>
      </trkpt>
      <trkpt lat="45.0882" lon="4.92607">
        <ele>-11.8</ele>
        <time>2022-01-29T10:24:30Z</time>
      </trkpt>
      <trkpt lat="45.08824" lon="4.92593">
        <ele>-10.4</ele>
        <time>2022-01-29T10:24:34Z</time>
      </trkpt>
      <trkpt lat="45.08829" lon="4.9258">
        <ele>-10.2</ele>
        <time>2022-01-29T10:24:38Z</time>
      </trkpt>
      <trkpt lat="45.08835" lon="4.92567">
        <ele>-9.6</ele>
        <time>2022-01-29T10:24:42Z</time>
      </trkpt>
      <trkpt lat="45.0884" lon="4.92554">
        <ele>-8.8</ele>
        <time>2022-01-29T10:24:46Z</time>
      </trkpt>
      <trkpt lat="45.08846" lon="4.92542">
        <ele>-8.8</ele>
        <time>2022-01-29T10:24:50Z</time>
      </trkpt>
      <trkpt lat="45.08852" lon="4.9253">
        <ele>-8.6</ele>
        <time>2022-01-29T10:24:54Z</time>
      </trkpt>
      <trkpt lat="45.08858" lon="4.92517">
        <ele>-7.6</ele>
        <time>2022-01-29T10:24:58Z</time>
      </trkpt>
      <trkpt lat="45.08864" lon="4.92505">
        <ele>-7.4</ele>
        <time>2022-01-29T10:25:02Z</time>
      </trkpt>
      <trkpt lat="45.0887" lon="4.92492">
        <ele>-6.8</ele>
        <time>2022-01-29T10:25:06Z</time>
      </trkpt>
      <trkpt lat="45.08876" lon="4.92479">
        <ele>-6.8</ele>
        <time>2022-01-29T10:25:10Z</time>
      </trkpt>
      <trkpt lat="45.08882" lon="4.92466">
        <ele>-6.4</ele>
        <time>2022-01-29T10:25:14Z</time>
      </trkpt>
      <trkpt lat="45.08888" lon="4.92453">
        <ele>-6.2</ele>
        <time>2022-01-29T10:25:18Z</time>
      </trkpt>
      <trkpt lat="45.08894" lon="4.92441">
        <ele>-5.8</ele>
        <time>2022-01-29T10:25:22Z</time>
      </trkpt>
      <trkpt lat="45.089" lon="4.92429">
        <ele>-5.2</ele>
        <time>2022-01-29T10:25:26Z</time>
      </trkpt>
      <trkpt lat="45.08906" lon="4.92417">
        <ele>-4.6</ele>
        <time>2022-01-29T10:25:30Z</time>
      </trkpt>
      <trkpt lat="45.08912" lon="4.92406">
        <ele>-3.4</ele>
        <time>2022-01-29T10:25:34Z</time>
      </trkpt>
      <trkpt lat="45.08919" lon="4.92394">
        <ele>-3.4</ele>
        <time>2022-01-29T10:25:38Z</time>
      </trkpt>
      <trkpt lat="45.08926" lon="4.92384">
        <ele>-2.6</ele>
        <time>2022-01-29T10:25:42Z</time>
      </trkpt>
      <trkpt lat="45.08934" lon="4.92374">
        <ele>-1.8</ele>
        <time>2022-01-29T10:25:46Z</time>
      </trkpt>
      <trkpt lat="45.08944" lon="4.92364">
        <ele>-1.4</ele>
        <time>2022-01-29T10:25:50Z</time>
      </trkpt>
      <trkpt lat="45.08954" lon="4.92356">
        <ele>-0.60000000000002</ele>
        <time>2022-01-29T10:25:54Z</time>
      </trkpt>
      <trkpt lat="45.08963" lon="4.92347">
        <ele>-0.60000000000002</ele>
        <time>2022-01-29T10:25:58Z</time>
      </trkpt>
      <trkpt lat="45.08973" lon="4.92338">
        <ele>-1</ele>
        <time>2022-01-29T10:26:02Z</time>
      </trkpt>
      <trkpt lat="45.08983" lon="4.9233">
        <ele>-0.19999999999999</ele>
        <time>2022-01-29T10:26:06Z</time>
      </trkpt>
      <trkpt lat="45.08992" lon="4.92321">
        <ele>-0.19999999999999</ele>
        <time>2022-01-29T10:26:10Z</time>
      </trkpt>
      <trkpt lat="45.09002" lon="4.92313">
        <ele>-0.19999999999999</ele>
        <time>2022-01-29T10:26:14Z</time>
      </trkpt>
      <trkpt lat="45.09011" lon="4.92304">
        <ele>1.6</ele>
        <time>2022-01-29T10:26:18Z</time>
      </trkpt>
      <trkpt lat="45.09021" lon="4.92294">
        <ele>1.4</ele>
        <time>2022-01-29T10:26:22Z</time>
      </trkpt>
      <trkpt lat="45.09031" lon="4.92285">
        <ele>1.2</ele>
        <time>2022-01-29T10:26:26Z</time>
      </trkpt>
      <trkpt lat="45.09041" lon="4.92277">
        <ele>2</ele>
        <time>2022-01-29T10:26:30Z</time>
      </trkpt>
      <trkpt lat="45.09051" lon="4.92267">
        <ele>2</ele>
        <time>2022-01-29T10:26:34Z</time>
      </trkpt>
      <trkpt lat="45.09061" lon="4.92258">
        <ele>2.2</ele>
        <time>2022-01-29T10:26:38Z</time>
      </trkpt>
      <trkpt lat="45.09071" lon="4.92248">
        <ele>2.8</ele>
        <time>2022-01-29T10:26:42Z</time>
      </trkpt>
      <trkpt lat="45.0908" lon="4.92238">
        <ele>3.6</ele>
        <time>2022-01-29T10:26:46Z</time>
      </trkpt>
      <trkpt lat="45.0909" lon="4.92227">
        <ele>3.6</ele>
        <time>2022-01-29T10:26:50Z</time>
      </trkpt>
      <trkpt lat="45.091" lon="4.92217">
        <ele>3.6</ele>
        <time>2022-01-29T10:26:54Z</time>
      </trkpt>
      <trkpt lat="45.0911" lon="4.92206">
        <ele>3.4</ele>
        <time>2022-01-29T10:26:58Z</time>
      </trkpt>
      <trkpt lat="45.09122" lon="4.92195">
        <ele>4.2</ele>
        <time>2022-01-29T10:27:02Z</time>
      </trkpt>
      <trkpt lat="45.09133" lon="4.92184">
        <ele>3.8</ele>
        <time>2022-01-29T10:27:06Z</time>
      </trkpt>
      <trkpt lat="45.09144" lon="4.92172">
        <ele>3.4</ele>
        <time>2022-01-29T10:27:10Z</time>
      </trkpt>
      <trkpt lat="45.09156" lon="4.92161">
        <ele>3.2</ele>
        <time>2022-01-29T10:27:14Z</time>
      </trkpt>
      <trkpt lat="45.09167" lon="4.92149">
        <ele>3.6</ele>
        <time>2022-01-29T10:27:18Z</time>
      </trkpt>
      <trkpt lat="45.09177" lon="4.92138">
        <ele>4</ele>
        <time>2022-01-29T10:27:22Z</time>
      </trkpt>
      <trkpt lat="45.09188" lon="4.92126">
        <ele>4</ele>
        <time>2022-01-29T10:27:26Z</time>
      </trkpt>
      <trkpt lat="45.09198" lon="4.92114">
        <ele>4.6</ele>
        <time>2022-01-29T10:27:30Z</time>
      </trkpt>
      <trkpt lat="45.09208" lon="4.92104">
        <ele>3.8</ele>
        <time>2022-01-29T10:27:34Z</time>
      </trkpt>
      <trkpt lat="45.0922" lon="4.92094">
        <ele>4.4</ele>
        <time>2022-01-29T10:27:38Z</time>
      </trkpt>
      <trkpt lat="45.09231" lon="4.92084">
        <ele>3.8</ele>
        <time>2022-01-29T10:27:42Z</time>
      </trkpt>
      <trkpt lat="45.09242" lon="4.92073">
        <ele>3.6</ele>
        <time>2022-01-29T10:27:46Z</time>
      </trkpt>
      <trkpt lat="45.09252" lon="4.92061">
        <ele>4.4</ele>
        <time>2022-01-29T10:27:50Z</time>
      </trkpt>
      <trkpt lat="45.09262" lon="4.92046">
        <ele>5</ele>
        <time>2022-01-29T10:27:54Z</time>
      </trkpt>
      <trkpt lat="45.09271" lon="4.92031">
        <ele>5.2</ele>
        <time>2022-01-29T10:27:58Z</time>
      </trkpt>
      <trkpt lat="45.0928" lon="4.92014">
        <ele>4</ele>
        <time>2022-01-29T10:28:02Z</time>
      </trkpt>
      <trkpt lat="45.09288" lon="4.91999">
        <ele>5.2</ele>
        <time>2022-01-29T10:28:06Z</time>
      </trkpt>
      <trkpt lat="45.09298" lon="4.91986">
        <ele>5.2</ele>
        <time>2022-01-29T10:28:10Z</time>
      </trkpt>
      <trkpt lat="45.09309" lon="4.91975">
        <ele>4.8</ele>
        <time>2022-01-29T10:28:14Z</time>
      </trkpt>
      <trkpt lat="45.09321" lon="4.91966">
        <ele>5.6</ele>
        <time>2022-01-29T10:28:18Z</time>
      </trkpt>
      <trkpt lat="45.09334" lon="4.91958">
        <ele>6.8</ele>
        <time>2022-01-29T10:28:22Z</time>
      </trkpt>
      <trkpt lat="45.09347" lon="4.91953">
        <ele>7.2</ele>
        <time>2022-01-29T10:28:26Z</time>
      </trkpt>
      <trkpt lat="45.09361" lon="4.91946">
        <ele>5.4</ele>
        <time>2022-01-29T10:28:30Z</time>
      </trkpt>
      <trkpt lat="45.09375" lon="4.91938">
        <ele>5.2</ele>
        <time>2022-01-29T10:28:34Z</time>
      </trkpt>
      <trkpt lat="45.09391" lon="4.9193">
        <ele>5.4</ele>
        <time>2022-01-29T10:28:38Z</time>
      </trkpt>
      <trkpt lat="45.09406" lon="4.91922">
        <ele>4.4</ele>
        <time>2022-01-29T10:28:42Z</time>
      </trkpt>
      <trkpt lat="45.09422" lon="4.91915">
        <ele>4.6</ele>
        <time>2022-01-29T10:28:46Z</time>
      </trkpt>
      <trkpt lat="45.09436" lon="4.91907">
        <ele>5.2</ele>
        <time>2022-01-29T10:28:50Z</time>
      </trkpt>
      <trkpt lat="45.09451" lon="4.91899">
        <ele>4.8</ele>
        <time>2022-01-29T10:28:54Z</time>
      </trkpt>
      <trkpt lat="45.09464" lon="4.91889">
        <ele>4.6</ele>
        <time>2022-01-29T10:28:58Z</time>
      </trkpt>
      <trkpt lat="45.0947" lon="4.91872">
        <ele>4.4</ele>
        <time>2022-01-29T10:29:02Z</time>
      </trkpt>
      <trkpt lat="45.0947" lon="4.91852">
        <ele>4.4</ele>
        <time>2022-01-29T10:29:06Z</time>
      </trkpt>
      <trkpt lat="45.09472" lon="4.91833">
        <ele>4.6</ele>
        <time>2022-01-29T10:29:10Z</time>
      </trkpt>
      <trkpt lat="45.09477" lon="4.91816">
        <ele>3.6</ele>
        <time>2022-01-29T10:29:14Z</time>
      </trkpt>
      <trkpt lat="45.09482" lon="4.91802">
        <ele>6.4</ele>
        <time>2022-01-29T10:29:18Z</time>
      </trkpt>
      <trkpt lat="45.09488" lon="4.9179">
        <ele>6.4</ele>
        <time>2022-01-29T10:29:22Z</time>
      </trkpt>
      <trkpt lat="45.09494" lon="4.91778">
        <ele>7.6</ele>
        <time>2022-01-29T10:29:26Z</time>
      </trkpt>
      <trkpt lat="45.09499" lon="4.91766">
        <ele>8.8</ele>
        <time>2022-01-29T10:29:30Z</time>
      </trkpt>
      <trkpt lat="45.09505" lon="4.91755">
        <ele>9.4</ele>
        <time>2022-01-29T10:29:34Z</time>
      </trkpt>
      <trkpt lat="45.0951" lon="4.91744">
        <ele>10.4</ele>
        <time>2022-01-29T10:29:38Z</time>
      </trkpt>
      <trkpt lat="45.09516" lon="4.91734">
        <ele>11</ele>
        <time>2022-01-29T10:29:42Z</time>
      </trkpt>
      <trkpt lat="45.09521" lon="4.91723">
        <ele>11</ele>
        <time>2022-01-29T10:29:46Z</time>
      </trkpt>
      <trkpt lat="45.09526" lon="4.91709">
        <ele>11.8</ele>
        <time>2022-01-29T10:29:50Z</time>
      </trkpt>
      <trkpt lat="45.09531" lon="4.91694">
        <ele>12</ele>
        <time>2022-01-29T10:29:54Z</time>
      </trkpt>
      <trkpt lat="45.09536" lon="4.91678">
        <ele>12.4</ele>
        <time>2022-01-29T10:29:58Z</time>
      </trkpt>
      <trkpt lat="45.09542" lon="4.91664">
        <ele>12.4</ele>
        <time>2022-01-29T10:30:02Z</time>
      </trkpt>
      <trkpt lat="45.09547" lon="4.91649">
        <ele>12.2</ele>
        <time>2022-01-29T10:30:06Z</time>
      </trkpt>
      <trkpt lat="45.09552" lon="4.91633">
        <ele>12.2</ele>
        <time>2022-01-29T10:30:10Z</time>
      </trkpt>
      <trkpt lat="45.09558" lon="4.91617">
        <ele>12.8</ele>
        <time>2022-01-29T10:30:14Z</time>
      </trkpt>
      <trkpt lat="45.09563" lon="4.91602">
        <ele>13.8</ele>
        <time>2022-01-29T10:30:18Z</time>
      </trkpt>
      <trkpt lat="45.09569" lon="4.91587">
        <ele>14.6</ele>
        <time>2022-01-29T10:30:22Z</time>
      </trkpt>
      <trkpt lat="45.09575" lon="4.91574">
        <ele>14.6</ele>
        <time>2022-01-29T10:30:26Z</time>
      </trkpt>
      <trkpt lat="45.09579" lon="4.91559">
        <ele>14.8</ele>
        <time>2022-01-29T10:30:30Z</time>
      </trkpt>
      <trkpt lat="45.09582" lon="4.91544">
        <ele>14.8</ele>
        <time>2022-01-29T10:30:34Z</time>
      </trkpt>
      <trkpt lat="45.09585" lon="4.91529">
        <ele>17</ele>
        <time>2022-01-29T10:30:38Z</time>
      </trkpt>
      <trkpt lat="45.09589" lon="4.91515">
        <ele>17.2</ele>
        <time>2022-01-29T10:30:42Z</time>
      </trkpt>
      <trkpt lat="45.09592" lon="4.91501">
        <ele>17.4</ele>
        <time>2022-01-29T10:30:46Z</time>
      </trkpt>
      <trkpt lat="45.09594" lon="4.91487">
        <ele>18.8</ele>
        <time>2022-01-29T10:30:50Z</time>
      </trkpt>
      <trkpt lat="45.09597" lon="4.91472">
        <ele>19.2</ele>
        <time>2022-01-29T10:30:54Z</time>
      </trkpt>
      <trkpt lat="45.09601" lon="4.91458">
        <ele>19.8</ele>
        <time>2022-01-29T10:30:58Z</time>
      </trkpt>
      <trkpt lat="45.09605" lon="4.91445">
        <ele>19.8</ele>
        <time>2022-01-29T10:31:02Z</time>
      </trkpt>
      <trkpt lat="45.0961" lon="4.91431">
        <ele>20.8</ele>
        <time>2022-01-29T10:31:06Z</time>
      </trkpt>
      <trkpt lat="45.09615" lon="4.91417">
        <ele>21.6</ele>
        <time>2022-01-29T10:31:10Z</time>
      </trkpt>
      <trkpt lat="45.09619" lon="4.91403">
        <ele>21.8</ele>
        <time>2022-01-29T10:31:14Z</time>
      </trkpt>
      <trkpt lat="45.09626" lon="4.91388">
        <ele>22.4</ele>
        <time>2022-01-29T10:31:18Z</time>
      </trkpt>
      <trkpt lat="45.09633" lon="4.91376">
        <ele>22.4</ele>
        <time>2022-01-29T10:31:22Z</time>
      </trkpt>
      <trkpt lat="45.09642" lon="4.91364">
        <ele>21.8</ele>
        <time>2022-01-29T10:31:26Z</time>
      </trkpt>
      <trkpt lat="45.0965" lon="4.9135">
        <ele>21.8</ele>
        <time>2022-01-29T10:31:30Z</time>
      </trkpt>
      <trkpt lat="45.09658" lon="4.91337">
        <ele>22</ele>
        <time>2022-01-29T10:31:34Z</time>
      </trkpt>
      <trkpt lat="45.09666" lon="4.91322">
        <ele>22.6</ele>
        <time>2022-01-29T10:31:38Z</time>
      </trkpt>
      <trkpt lat="45.09673" lon="4.91308">
        <ele>23</ele>
        <time>2022-01-29T10:31:42Z</time>
      </trkpt>
      <trkpt lat="45.0968" lon="4.91293">
        <ele>23.6</ele>
        <time>2022-01-29T10:31:46Z</time>
      </trkpt>
      <trkpt lat="45.09687" lon="4.91279">
        <ele>23.6</ele>
        <time>2022-01-29T10:31:50Z</time>
      </trkpt>
      <trkpt lat="45.09694" lon="4.91267">
        <ele>24</ele>
        <time>2022-01-29T10:31:54Z</time>
      </trkpt>
      <trkpt lat="45.09701" lon="4.91253">
        <ele>24.2</ele>
        <time>2022-01-29T10:31:58Z</time>
      </trkpt>
      <trkpt lat="45.0971" lon="4.91238">
        <ele>24.6</ele>
        <time>2022-01-29T10:32:02Z</time>
      </trkpt>
      <trkpt lat="45.0972" lon="4.91224">
        <ele>24.6</ele>
        <time>2022-01-29T10:32:06Z</time>
      </trkpt>
      <trkpt lat="45.09728" lon="4.9121">
        <ele>24.2</ele>
        <time>2022-01-29T10:32:10Z</time>
      </trkpt>
      <trkpt lat="45.09736" lon="4.91194">
        <ele>24</ele>
        <time>2022-01-29T10:32:14Z</time>
      </trkpt>
      <trkpt lat="45.09741" lon="4.91177">
        <ele>24.6</ele>
        <time>2022-01-29T10:32:18Z</time>
      </trkpt>
      <trkpt lat="45.09745" lon="4.91157">
        <ele>26</ele>
        <time>2022-01-29T10:32:22Z</time>
      </trkpt>
      <trkpt lat="45.09749" lon="4.91139">
        <ele>25.2</ele>
        <time>2022-01-29T10:32:26Z</time>
      </trkpt>
      <trkpt lat="45.09756" lon="4.91121">
        <ele>25.8</ele>
        <time>2022-01-29T10:32:30Z</time>
      </trkpt>
      <trkpt lat="45.09772" lon="4.91105">
        <ele>24.4</ele>
        <time>2022-01-29T10:32:34Z</time>
      </trkpt>
      <trkpt lat="45.09787" lon="4.91088">
        <ele>24.2</ele>
        <time>2022-01-29T10:32:38Z</time>
      </trkpt>
      <trkpt lat="45.09804" lon="4.91071">
        <ele>22.4</ele>
        <time>2022-01-29T10:32:42Z</time>
      </trkpt>
      <trkpt lat="45.09825" lon="4.91053">
        <ele>20.8</ele>
        <time>2022-01-29T10:32:46Z</time>
      </trkpt>
      <trkpt lat="45.09847" lon="4.91038">
        <ele>19.8</ele>
        <time>2022-01-29T10:32:50Z</time>
      </trkpt>
      <trkpt lat="45.09866" lon="4.9103">
        <ele>18.2</ele>
        <time>2022-01-29T10:32:54Z</time>
      </trkpt>
      <trkpt lat="45.09883" lon="4.91045">
        <ele>18.2</ele>
        <time>2022-01-29T10:32:58Z</time>
      </trkpt>
      <trkpt lat="45.09902" lon="4.91066">
        <ele>17.2</ele>
        <time>2022-01-29T10:33:02Z</time>
      </trkpt>
      <trkpt lat="45.09921" lon="4.91087">
        <ele>15.8</ele>
        <time>2022-01-29T10:33:06Z</time>
      </trkpt>
      <trkpt lat="45.09941" lon="4.91107">
        <ele>15.6</ele>
        <time>2022-01-29T10:33:10Z</time>
      </trkpt>
      <trkpt lat="45.0996" lon="4.91124">
        <ele>13.8</ele>
        <time>2022-01-29T10:33:14Z</time>
      </trkpt>
      <trkpt lat="45.0998" lon="4.91138">
        <ele>12.8</ele>
        <time>2022-01-29T10:33:18Z</time>
      </trkpt>
      <trkpt lat="45.09999" lon="4.91149">
        <ele>12.2</ele>
        <time>2022-01-29T10:33:22Z</time>
      </trkpt>
      <trkpt lat="45.10019" lon="4.9116">
        <ele>10.2</ele>
        <time>2022-01-29T10:33:26Z</time>
      </trkpt>
      <trkpt lat="45.10039" lon="4.91173">
        <ele>9.6</ele>
        <time>2022-01-29T10:33:30Z</time>
      </trkpt>
      <trkpt lat="45.1006" lon="4.91185">
        <ele>8.4</ele>
        <time>2022-01-29T10:33:34Z</time>
      </trkpt>
      <trkpt lat="45.10082" lon="4.91196">
        <ele>8</ele>
        <time>2022-01-29T10:33:38Z</time>
      </trkpt>
      <trkpt lat="45.10103" lon="4.91206">
        <ele>6</ele>
        <time>2022-01-29T10:33:42Z</time>
      </trkpt>
      <trkpt lat="45.10124" lon="4.91213">
        <ele>5.8</ele>
        <time>2022-01-29T10:33:46Z</time>
      </trkpt>
      <trkpt lat="45.10143" lon="4.91218">
        <ele>5.4</ele>
        <time>2022-01-29T10:33:50Z</time>
      </trkpt>
      <trkpt lat="45.10162" lon="4.91223">
        <ele>5</ele>
        <time>2022-01-29T10:33:54Z</time>
      </trkpt>
      <trkpt lat="45.10179" lon="4.91228">
        <ele>5</ele>
        <time>2022-01-29T10:33:58Z</time>
      </trkpt>
      <trkpt lat="45.10197" lon="4.91233">
        <ele>4</ele>
        <time>2022-01-29T10:34:02Z</time>
      </trkpt>
      <trkpt lat="45.10215" lon="4.91237">
        <ele>3.4</ele>
        <time>2022-01-29T10:34:06Z</time>
      </trkpt>
      <trkpt lat="45.10232" lon="4.91241">
        <ele>3.6</ele>
        <time>2022-01-29T10:34:10Z</time>
      </trkpt>
      <trkpt lat="45.10248" lon="4.91245">
        <ele>3.6</ele>
        <time>2022-01-29T10:34:14Z</time>
      </trkpt>
      <trkpt lat="45.10264" lon="4.91246">
        <ele>3.4</ele>
        <time>2022-01-29T10:34:18Z</time>
      </trkpt>
      <trkpt lat="45.1028" lon="4.91247">
        <ele>3</ele>
        <time>2022-01-29T10:34:22Z</time>
      </trkpt>
      <trkpt lat="45.10296" lon="4.91246">
        <ele>3.4</ele>
        <time>2022-01-29T10:34:26Z</time>
      </trkpt>
      <trkpt lat="45.10311" lon="4.91244">
        <ele>2.4</ele>
        <time>2022-01-29T10:34:30Z</time>
      </trkpt>
      <trkpt lat="45.10325" lon="4.91243">
        <ele>2.8</ele>
        <time>2022-01-29T10:34:34Z</time>
      </trkpt>
      <trkpt lat="45.10338" lon="4.91242">
        <ele>3.4</ele>
        <time>2022-01-29T10:34:38Z</time>
      </trkpt>
      <trkpt lat="45.10351" lon="4.91241">
        <ele>3</ele>
        <time>2022-01-29T10:34:42Z</time>
      </trkpt>
      <trkpt lat="45.10365" lon="4.91239">
        <ele>3</ele>
        <time>2022-01-29T10:34:46Z</time>
      </trkpt>
      <trkpt lat="45.10378" lon="4.91238">
        <ele>3.2</ele>
        <time>2022-01-29T10:34:50Z</time>
      </trkpt>
      <trkpt lat="45.10391" lon="4.91237">
        <ele>3.4</ele>
        <time>2022-01-29T10:34:54Z</time>
      </trkpt>
      <trkpt lat="45.10405" lon="4.91235">
        <ele>2.6</ele>
        <time>2022-01-29T10:34:58Z</time>
      </trkpt>
      <trkpt lat="45.10417" lon="4.91234">
        <ele>3.4</ele>
        <time>2022-01-29T10:35:02Z</time>
      </trkpt>
      <trkpt lat="45.1043" lon="4.91233">
        <ele>3.4</ele>
        <time>2022-01-29T10:35:06Z</time>
      </trkpt>
      <trkpt lat="45.10442" lon="4.91232">
        <ele>3.6</ele>
        <time>2022-01-29T10:35:10Z</time>
      </trkpt>
      <trkpt lat="45.10454" lon="4.91231">
        <ele>3.8</ele>
        <time>2022-01-29T10:35:14Z</time>
      </trkpt>
      <trkpt lat="45.10466" lon="4.9123">
        <ele>4.4</ele>
        <time>2022-01-29T10:35:18Z</time>
      </trkpt>
      <trkpt lat="45.10478" lon="4.91229">
        <ele>5</ele>
        <time>2022-01-29T10:35:22Z</time>
      </trkpt>
      <trkpt lat="45.10489" lon="4.91228">
        <ele>5.6</ele>
        <time>2022-01-29T10:35:26Z</time>
      </trkpt>
      <trkpt lat="45.10498" lon="4.91227">
        <ele>5.8</ele>
        <time>2022-01-29T10:35:30Z</time>
      </trkpt>
      <trkpt lat="45.10508" lon="4.91225">
        <ele>6.4</ele>
        <time>2022-01-29T10:35:34Z</time>
      </trkpt>
      <trkpt lat="45.10518" lon="4.91224">
        <ele>7.2</ele>
        <time>2022-01-29T10:35:38Z</time>
      </trkpt>
      <trkpt lat="45.10527" lon="4.91224">
        <ele>7.2</ele>
        <time>2022-01-29T10:35:42Z</time>
      </trkpt>
      <trkpt lat="45.10536" lon="4.91224">
        <ele>7.8</ele>
        <time>2022-01-29T10:35:46Z</time>
      </trkpt>
      <trkpt lat="45.10546" lon="4.91225">
        <ele>8.4</ele>
        <time>2022-01-29T10:35:50Z</time>
      </trkpt>
      <trkpt lat="45.10558" lon="4.91224">
        <ele>8.8</ele>
        <time>2022-01-29T10:35:54Z</time>
      </trkpt>
      <trkpt lat="45.1057" lon="4.91225">
        <ele>7.8</ele>
        <time>2022-01-29T10:35:58Z</time>
      </trkpt>
      <trkpt lat="45.10587" lon="4.91228">
        <ele>8.6</ele>
        <time>2022-01-29T10:36:02Z</time>
      </trkpt>
      <trkpt lat="45.10606" lon="4.91229">
        <ele>7.4</ele>
        <time>2022-01-29T10:36:06Z</time>
      </trkpt>
      <trkpt lat="45.10623" lon="4.91231">
        <ele>7.8</ele>
        <time>2022-01-29T10:36:10Z</time>
      </trkpt>
      <trkpt lat="45.1064" lon="4.91233">
        <ele>7.6</ele>
        <time>2022-01-29T10:36:14Z</time>
      </trkpt>
      <trkpt lat="45.10656" lon="4.91236">
        <ele>7.8</ele>
        <time>2022-01-29T10:36:18Z</time>
      </trkpt>
      <trkpt lat="45.10672" lon="4.91238">
        <ele>7</ele>
        <time>2022-01-29T10:36:22Z</time>
      </trkpt>
      <trkpt lat="45.10688" lon="4.9124">
        <ele>6.6</ele>
        <time>2022-01-29T10:36:26Z</time>
      </trkpt>
      <trkpt lat="45.10703" lon="4.91242">
        <ele>6.6</ele>
        <time>2022-01-29T10:36:30Z</time>
      </trkpt>
      <trkpt lat="45.10717" lon="4.91245">
        <ele>6.6</ele>
        <time>2022-01-29T10:36:34Z</time>
      </trkpt>
      <trkpt lat="45.10731" lon="4.91248">
        <ele>6.6</ele>
        <time>2022-01-29T10:36:38Z</time>
      </trkpt>
      <trkpt lat="45.10745" lon="4.91251">
        <ele>7</ele>
        <time>2022-01-29T10:36:42Z</time>
      </trkpt>
      <trkpt lat="45.10759" lon="4.91255">
        <ele>7.6</ele>
        <time>2022-01-29T10:36:46Z</time>
      </trkpt>
      <trkpt lat="45.10773" lon="4.91257">
        <ele>6</ele>
        <time>2022-01-29T10:36:50Z</time>
      </trkpt>
      <trkpt lat="45.10786" lon="4.91246">
        <ele>5.2</ele>
        <time>2022-01-29T10:36:54Z</time>
      </trkpt>
      <trkpt lat="45.10798" lon="4.91235">
        <ele>5</ele>
        <time>2022-01-29T10:36:58Z</time>
      </trkpt>
      <trkpt lat="45.1081" lon="4.91229">
        <ele>5.8</ele>
        <time>2022-01-29T10:37:02Z</time>
      </trkpt>
      <trkpt lat="45.10821" lon="4.91225">
        <ele>6.2</ele>
        <time>2022-01-29T10:37:06Z</time>
      </trkpt>
      <trkpt lat="45.10832" lon="4.91222">
        <ele>6.4</ele>
        <time>2022-01-29T10:37:10Z</time>
      </trkpt>
      <trkpt lat="45.10844" lon="4.91219">
        <ele>6.4</ele>
        <time>2022-01-29T10:37:14Z</time>
      </trkpt>
      <trkpt lat="45.10856" lon="4.91215">
        <ele>6</ele>
        <time>2022-01-29T10:37:18Z</time>
      </trkpt>
      <trkpt lat="45.10869" lon="4.91212">
        <ele>6.4</ele>
        <time>2022-01-29T10:37:22Z</time>
      </trkpt>
      <trkpt lat="45.10881" lon="4.91209">
        <ele>7</ele>
        <time>2022-01-29T10:37:26Z</time>
      </trkpt>
      <trkpt lat="45.10893" lon="4.91206">
        <ele>6.8</ele>
        <time>2022-01-29T10:37:30Z</time>
      </trkpt>
      <trkpt lat="45.10905" lon="4.91203">
        <ele>6.8</ele>
        <time>2022-01-29T10:37:34Z</time>
      </trkpt>
      <trkpt lat="45.10918" lon="4.912">
        <ele>6.6</ele>
        <time>2022-01-29T10:37:38Z</time>
      </trkpt>
      <trkpt lat="45.1093" lon="4.91197">
        <ele>7.2</ele>
        <time>2022-01-29T10:37:42Z</time>
      </trkpt>
      <trkpt lat="45.10942" lon="4.91194">
        <ele>7.8</ele>
        <time>2022-01-29T10:37:46Z</time>
      </trkpt>
      <trkpt lat="45.10954" lon="4.9119">
        <ele>7.2</ele>
        <time>2022-01-29T10:37:50Z</time>
      </trkpt>
      <trkpt lat="45.10966" lon="4.91186">
        <ele>6.6</ele>
        <time>2022-01-29T10:37:54Z</time>
      </trkpt>
      <trkpt lat="45.10978" lon="4.91182">
        <ele>7.4</ele>
        <time>2022-01-29T10:37:58Z</time>
      </trkpt>
      <trkpt lat="45.10991" lon="4.91176">
        <ele>7.4</ele>
        <time>2022-01-29T10:38:02Z</time>
      </trkpt>
      <trkpt lat="45.11002" lon="4.9117">
        <ele>7.6</ele>
        <time>2022-01-29T10:38:06Z</time>
      </trkpt>
      <trkpt lat="45.11014" lon="4.91165">
        <ele>7.4</ele>
        <time>2022-01-29T10:38:10Z</time>
      </trkpt>
      <trkpt lat="45.11025" lon="4.91158">
        <ele>6.2</ele>
        <time>2022-01-29T10:38:14Z</time>
      </trkpt>
      <trkpt lat="45.11035" lon="4.91153">
        <ele>7</ele>
        <time>2022-01-29T10:38:18Z</time>
      </trkpt>
      <trkpt lat="45.11047" lon="4.91146">
        <ele>7</ele>
        <time>2022-01-29T10:38:22Z</time>
      </trkpt>
      <trkpt lat="45.11058" lon="4.91139">
        <ele>7</ele>
        <time>2022-01-29T10:38:26Z</time>
      </trkpt>
      <trkpt lat="45.11069" lon="4.91132">
        <ele>6</ele>
        <time>2022-01-29T10:38:30Z</time>
      </trkpt>
      <trkpt lat="45.1108" lon="4.91125">
        <ele>6.4</ele>
        <time>2022-01-29T10:38:34Z</time>
      </trkpt>
      <trkpt lat="45.11091" lon="4.91117">
        <ele>5.8</ele>
        <time>2022-01-29T10:38:38Z</time>
      </trkpt>
      <trkpt lat="45.11102" lon="4.9111">
        <ele>6.4</ele>
        <time>2022-01-29T10:38:42Z</time>
      </trkpt>
      <trkpt lat="45.11113" lon="4.91103">
        <ele>6.2</ele>
        <time>2022-01-29T10:38:46Z</time>
      </trkpt>
      <trkpt lat="45.11124" lon="4.91095">
        <ele>6.4</ele>
        <time>2022-01-29T10:38:50Z</time>
      </trkpt>
      <trkpt lat="45.11136" lon="4.91088">
        <ele>5.2</ele>
        <time>2022-01-29T10:38:54Z</time>
      </trkpt>
      <trkpt lat="45.11147" lon="4.9108">
        <ele>6.8</ele>
        <time>2022-01-29T10:38:58Z</time>
      </trkpt>
      <trkpt lat="45.11158" lon="4.91072">
        <ele>6.4</ele>
        <time>2022-01-29T10:39:02Z</time>
      </trkpt>
      <trkpt lat="45.11169" lon="4.91064">
        <ele>7.4</ele>
        <time>2022-01-29T10:39:06Z</time>
      </trkpt>
      <trkpt lat="45.11179" lon="4.91055">
        <ele>6.6</ele>
        <time>2022-01-29T10:39:10Z</time>
      </trkpt>
      <trkpt lat="45.1119" lon="4.91046">
        <ele>5.6</ele>
        <time>2022-01-29T10:39:14Z</time>
      </trkpt>
      <trkpt lat="45.112" lon="4.91036">
        <ele>6.4</ele>
        <time>2022-01-29T10:39:18Z</time>
      </trkpt>
      <trkpt lat="45.11212" lon="4.91028">
        <ele>6.8</ele>
        <time>2022-01-29T10:39:22Z</time>
      </trkpt>
      <trkpt lat="45.11223" lon="4.91019">
        <ele>7.2</ele>
        <time>2022-01-29T10:39:26Z</time>
      </trkpt>
      <trkpt lat="45.11234" lon="4.91011">
        <ele>7</ele>
        <time>2022-01-29T10:39:30Z</time>
      </trkpt>
      <trkpt lat="45.11246" lon="4.91003">
        <ele>7.4</ele>
        <time>2022-01-29T10:39:34Z</time>
      </trkpt>
      <trkpt lat="45.11258" lon="4.90996">
        <ele>6.4</ele>
        <time>2022-01-29T10:39:38Z</time>
      </trkpt>
      <trkpt lat="45.1127" lon="4.90988">
        <ele>7.8</ele>
        <time>2022-01-29T10:39:42Z</time>
      </trkpt>
      <trkpt lat="45.11282" lon="4.90982">
        <ele>8.4</ele>
        <time>2022-01-29T10:39:46Z</time>
      </trkpt>
      <trkpt lat="45.11293" lon="4.90975">
        <ele>8.8</ele>
        <time>2022-01-29T10:39:50Z</time>
      </trkpt>
      <trkpt lat="45.11304" lon="4.90968">
        <ele>9.4</ele>
        <time>2022-01-29T10:39:54Z</time>
      </trkpt>
      <trkpt lat="45.11315" lon="4.90962">
        <ele>9</ele>
        <time>2022-01-29T10:39:58Z</time>
      </trkpt>
      <trkpt lat="45.11326" lon="4.90956">
        <ele>9.6</ele>
        <time>2022-01-29T10:40:02Z</time>
      </trkpt>
      <trkpt lat="45.11337" lon="4.90949">
        <ele>9.8</ele>
        <time>2022-01-29T10:40:06Z</time>
      </trkpt>
      <trkpt lat="45.11347" lon="4.90941">
        <ele>10</ele>
        <time>2022-01-29T10:40:10Z</time>
      </trkpt>
      <trkpt lat="45.11358" lon="4.90932">
        <ele>10</ele>
        <time>2022-01-29T10:40:14Z</time>
      </trkpt>
      <trkpt lat="45.11368" lon="4.90922">
        <ele>9</ele>
        <time>2022-01-29T10:40:18Z</time>
      </trkpt>
      <trkpt lat="45.11378" lon="4.90913">
        <ele>8.8</ele>
        <time>2022-01-29T10:40:22Z</time>
      </trkpt>
      <trkpt lat="45.11388" lon="4.90902">
        <ele>9</ele>
        <time>2022-01-29T10:40:26Z</time>
      </trkpt>
      <trkpt lat="45.11398" lon="4.90891">
        <ele>9.4</ele>
        <time>2022-01-29T10:40:30Z</time>
      </trkpt>
      <trkpt lat="45.11407" lon="4.9088">
        <ele>10.6</ele>
        <time>2022-01-29T10:40:34Z</time>
      </trkpt>
      <trkpt lat="45.11418" lon="4.90869">
        <ele>10.8</ele>
        <time>2022-01-29T10:40:38Z</time>
      </trkpt>
      <trkpt lat="45.11429" lon="4.90859">
        <ele>11</ele>
        <time>2022-01-29T10:40:42Z</time>
      </trkpt>
      <trkpt lat="45.11441" lon="4.90852">
        <ele>11.6</ele>
        <time>2022-01-29T10:40:46Z</time>
      </trkpt>
      <trkpt lat="45.11453" lon="4.90846">
        <ele>12.2</ele>
        <time>2022-01-29T10:40:50Z</time>
      </trkpt>
      <trkpt lat="45.11466" lon="4.90841">
        <ele>11.8</ele>
        <time>2022-01-29T10:40:54Z</time>
      </trkpt>
      <trkpt lat="45.11479" lon="4.90836">
        <ele>12</ele>
        <time>2022-01-29T10:40:58Z</time>
      </trkpt>
      <trkpt lat="45.11492" lon="4.90831">
        <ele>11.8</ele>
        <time>2022-01-29T10:41:02Z</time>
      </trkpt>
      <trkpt lat="45.11505" lon="4.90827">
        <ele>12.2</ele>
        <time>2022-01-29T10:41:06Z</time>
      </trkpt>
      <trkpt lat="45.11518" lon="4.90822">
        <ele>12.6</ele>
        <time>2022-01-29T10:41:10Z</time>
      </trkpt>
      <trkpt lat="45.11531" lon="4.90817">
        <ele>12.8</ele>
        <time>2022-01-29T10:41:14Z</time>
      </trkpt>
      <trkpt lat="45.11544" lon="4.90812">
        <ele>12.8</ele>
        <time>2022-01-29T10:41:18Z</time>
      </trkpt>
      <trkpt lat="45.11557" lon="4.90806">
        <ele>13.2</ele>
        <time>2022-01-29T10:41:22Z</time>
      </trkpt>
      <trkpt lat="45.11569" lon="4.90798">
        <ele>12.4</ele>
        <time>2022-01-29T10:41:26Z</time>
      </trkpt>
      <trkpt lat="45.11581" lon="4.90789">
        <ele>13.4</ele>
        <time>2022-01-29T10:41:30Z</time>
      </trkpt>
      <trkpt lat="45.11593" lon="4.9078">
        <ele>13.2</ele>
        <time>2022-01-29T10:41:34Z</time>
      </trkpt>
      <trkpt lat="45.11604" lon="4.90769">
        <ele>13.2</ele>
        <time>2022-01-29T10:41:38Z</time>
      </trkpt>
      <trkpt lat="45.11615" lon="4.90759">
        <ele>12.8</ele>
        <time>2022-01-29T10:41:42Z</time>
      </trkpt>
      <trkpt lat="45.11626" lon="4.90749">
        <ele>13.4</ele>
        <time>2022-01-29T10:41:46Z</time>
      </trkpt>
      <trkpt lat="45.11635" lon="4.90738">
        <ele>13</ele>
        <time>2022-01-29T10:41:50Z</time>
      </trkpt>
      <trkpt lat="45.11645" lon="4.90728">
        <ele>12.8</ele>
        <time>2022-01-29T10:41:54Z</time>
      </trkpt>
      <trkpt lat="45.11654" lon="4.90719">
        <ele>13.4</ele>
        <time>2022-01-29T10:41:58Z</time>
      </trkpt>
      <trkpt lat="45.11661" lon="4.90709">
        <ele>13.8</ele>
        <time>2022-01-29T10:42:02Z</time>
      </trkpt>
      <trkpt lat="45.11668" lon="4.90697">
        <ele>12.4</ele>
        <time>2022-01-29T10:42:57Z</time>
      </trkpt>
      <trkpt lat="45.11677" lon="4.90694">
        <ele>13.6</ele>
        <time>2022-01-29T10:43:01Z</time>
      </trkpt>
      <trkpt lat="45.11689" lon="4.9069">
        <ele>13.8</ele>
        <time>2022-01-29T10:43:05Z</time>
      </trkpt>
      <trkpt lat="45.11703" lon="4.90682">
        <ele>14.2</ele>
        <time>2022-01-29T10:43:09Z</time>
      </trkpt>
      <trkpt lat="45.11715" lon="4.90671">
        <ele>13.2</ele>
        <time>2022-01-29T10:43:13Z</time>
      </trkpt>
      <trkpt lat="45.11727" lon="4.90661">
        <ele>13.4</ele>
        <time>2022-01-29T10:43:17Z</time>
      </trkpt>
      <trkpt lat="45.1174" lon="4.9065">
        <ele>13.4</ele>
        <time>2022-01-29T10:43:21Z</time>
      </trkpt>
      <trkpt lat="45.11753" lon="4.9064">
        <ele>13.6</ele>
        <time>2022-01-29T10:43:25Z</time>
      </trkpt>
      <trkpt lat="45.11767" lon="4.90632">
        <ele>13.2</ele>
        <time>2022-01-29T10:43:29Z</time>
      </trkpt>
      <trkpt lat="45.11779" lon="4.90626">
        <ele>14.8</ele>
        <time>2022-01-29T10:43:33Z</time>
      </trkpt>
      <trkpt lat="45.1179" lon="4.90621">
        <ele>15.4</ele>
        <time>2022-01-29T10:43:37Z</time>
      </trkpt>
      <trkpt lat="45.11802" lon="4.90618">
        <ele>15</ele>
        <time>2022-01-29T10:43:41Z</time>
      </trkpt>
      <trkpt lat="45.11812" lon="4.90613">
        <ele>15.6</ele>
        <time>2022-01-29T10:43:45Z</time>
      </trkpt>
      <trkpt lat="45.11823" lon="4.90608">
        <ele>16.4</ele>
        <time>2022-01-29T10:43:49Z</time>
      </trkpt>
      <trkpt lat="45.11834" lon="4.90603">
        <ele>16.6</ele>
        <time>2022-01-29T10:43:53Z</time>
      </trkpt>
      <trkpt lat="45.11845" lon="4.90599">
        <ele>16.8</ele>
        <time>2022-01-29T10:43:57Z</time>
      </trkpt>
      <trkpt lat="45.11855" lon="4.90596">
        <ele>17.4</ele>
        <time>2022-01-29T10:44:01Z</time>
      </trkpt>
      <trkpt lat="45.11865" lon="4.9059">
        <ele>18</ele>
        <time>2022-01-29T10:44:05Z</time>
      </trkpt>
      <trkpt lat="45.11875" lon="4.90585">
        <ele>18.2</ele>
        <time>2022-01-29T10:44:09Z</time>
      </trkpt>
      <trkpt lat="45.11885" lon="4.90581">
        <ele>18.4</ele>
        <time>2022-01-29T10:44:13Z</time>
      </trkpt>
      <trkpt lat="45.11895" lon="4.90577">
        <ele>19.2</ele>
        <time>2022-01-29T10:44:17Z</time>
      </trkpt>
      <trkpt lat="45.11905" lon="4.90572">
        <ele>20</ele>
        <time>2022-01-29T10:44:21Z</time>
      </trkpt>
      <trkpt lat="45.11915" lon="4.90569">
        <ele>19.8</ele>
        <time>2022-01-29T10:44:25Z</time>
      </trkpt>
      <trkpt lat="45.11924" lon="4.90565">
        <ele>20.4</ele>
        <time>2022-01-29T10:44:29Z</time>
      </trkpt>
      <trkpt lat="45.11934" lon="4.90563">
        <ele>20.4</ele>
        <time>2022-01-29T10:44:33Z</time>
      </trkpt>
      <trkpt lat="45.11944" lon="4.90557">
        <ele>21.6</ele>
        <time>2022-01-29T10:44:37Z</time>
      </trkpt>
      <trkpt lat="45.11954" lon="4.90553">
        <ele>22.2</ele>
        <time>2022-01-29T10:44:41Z</time>
      </trkpt>
      <trkpt lat="45.11963" lon="4.90548">
        <ele>22.8</ele>
        <time>2022-01-29T10:44:45Z</time>
      </trkpt>
      <trkpt lat="45.11972" lon="4.90544">
        <ele>23.6</ele>
        <time>2022-01-29T10:44:49Z</time>
      </trkpt>
      <trkpt lat="45.11981" lon="4.90541">
        <ele>23.6</ele>
        <time>2022-01-29T10:44:53Z</time>
      </trkpt>
      <trkpt lat="45.11991" lon="4.90536">
        <ele>25</ele>
        <time>2022-01-29T10:44:57Z</time>
      </trkpt>
      <trkpt lat="45.11999" lon="4.90532">
        <ele>25.2</ele>
        <time>2022-01-29T10:45:01Z</time>
      </trkpt>
      <trkpt lat="45.1201" lon="4.90528">
        <ele>25.4</ele>
        <time>2022-01-29T10:45:05Z</time>
      </trkpt>
      <trkpt lat="45.12021" lon="4.90525">
        <ele>26</ele>
        <time>2022-01-29T10:45:09Z</time>
      </trkpt>
      <trkpt lat="45.12032" lon="4.90522">
        <ele>26.2</ele>
        <time>2022-01-29T10:45:13Z</time>
      </trkpt>
      <trkpt lat="45.12044" lon="4.90522">
        <ele>26.2</ele>
        <time>2022-01-29T10:45:17Z</time>
      </trkpt>
      <trkpt lat="45.12055" lon="4.90521">
        <ele>27</ele>
        <time>2022-01-29T10:45:21Z</time>
      </trkpt>
      <trkpt lat="45.12066" lon="4.9052">
        <ele>27.2</ele>
        <time>2022-01-29T10:45:25Z</time>
      </trkpt>
      <trkpt lat="45.12078" lon="4.90521">
        <ele>27</ele>
        <time>2022-01-29T10:45:29Z</time>
      </trkpt>
      <trkpt lat="45.1209" lon="4.90521">
        <ele>27.2</ele>
        <time>2022-01-29T10:45:33Z</time>
      </trkpt>
      <trkpt lat="45.12101" lon="4.90522">
        <ele>27.6</ele>
        <time>2022-01-29T10:45:37Z</time>
      </trkpt>
      <trkpt lat="45.12112" lon="4.90519">
        <ele>28</ele>
        <time>2022-01-29T10:45:41Z</time>
      </trkpt>
      <trkpt lat="45.12123" lon="4.90518">
        <ele>28.2</ele>
        <time>2022-01-29T10:45:45Z</time>
      </trkpt>
      <trkpt lat="45.12136" lon="4.90517">
        <ele>29.2</ele>
        <time>2022-01-29T10:45:49Z</time>
      </trkpt>
      <trkpt lat="45.12149" lon="4.90517">
        <ele>29.4</ele>
        <time>2022-01-29T10:45:53Z</time>
      </trkpt>
      <trkpt lat="45.12162" lon="4.90515">
        <ele>30</ele>
        <time>2022-01-29T10:45:57Z</time>
      </trkpt>
      <trkpt lat="45.12174" lon="4.90514">
        <ele>30.2</ele>
        <time>2022-01-29T10:46:01Z</time>
      </trkpt>
      <trkpt lat="45.12186" lon="4.90511">
        <ele>30.8</ele>
        <time>2022-01-29T10:46:05Z</time>
      </trkpt>
      <trkpt lat="45.12197" lon="4.90508">
        <ele>31</ele>
        <time>2022-01-29T10:46:09Z</time>
      </trkpt>
      <trkpt lat="45.12207" lon="4.90505">
        <ele>31.6</ele>
        <time>2022-01-29T10:46:13Z</time>
      </trkpt>
      <trkpt lat="45.12217" lon="4.905">
        <ele>31.6</ele>
        <time>2022-01-29T10:46:17Z</time>
      </trkpt>
      <trkpt lat="45.12228" lon="4.90499">
        <ele>31.8</ele>
        <time>2022-01-29T10:46:21Z</time>
      </trkpt>
      <trkpt lat="45.1224" lon="4.90496">
        <ele>32.4</ele>
        <time>2022-01-29T10:46:25Z</time>
      </trkpt>
      <trkpt lat="45.12252" lon="4.90494">
        <ele>33.2</ele>
        <time>2022-01-29T10:46:29Z</time>
      </trkpt>
      <trkpt lat="45.12263" lon="4.90493">
        <ele>33.4</ele>
        <time>2022-01-29T10:46:33Z</time>
      </trkpt>
      <trkpt lat="45.12275" lon="4.90491">
        <ele>34</ele>
        <time>2022-01-29T10:46:37Z</time>
      </trkpt>
      <trkpt lat="45.12285" lon="4.9049">
        <ele>34</ele>
        <time>2022-01-29T10:46:41Z</time>
      </trkpt>
      <trkpt lat="45.12295" lon="4.90491">
        <ele>34.2</ele>
        <time>2022-01-29T10:46:45Z</time>
      </trkpt>
      <trkpt lat="45.12308" lon="4.90494">
        <ele>33.6</ele>
        <time>2022-01-29T10:46:49Z</time>
      </trkpt>
      <trkpt lat="45.12323" lon="4.90498">
        <ele>33</ele>
        <time>2022-01-29T10:46:53Z</time>
      </trkpt>
      <trkpt lat="45.12342" lon="4.90505">
        <ele>31.4</ele>
        <time>2022-01-29T10:46:57Z</time>
      </trkpt>
      <trkpt lat="45.12357" lon="4.90512">
        <ele>30.4</ele>
        <time>2022-01-29T10:47:01Z</time>
      </trkpt>
      <trkpt lat="45.12372" lon="4.9052">
        <ele>29</ele>
        <time>2022-01-29T10:47:05Z</time>
      </trkpt>
      <trkpt lat="45.12389" lon="4.90526">
        <ele>28.6</ele>
        <time>2022-01-29T10:47:09Z</time>
      </trkpt>
      <trkpt lat="45.12408" lon="4.90532">
        <ele>28.4</ele>
        <time>2022-01-29T10:47:13Z</time>
      </trkpt>
      <trkpt lat="45.12427" lon="4.90539">
        <ele>27.2</ele>
        <time>2022-01-29T10:47:17Z</time>
      </trkpt>
      <trkpt lat="45.12446" lon="4.90545">
        <ele>26.2</ele>
        <time>2022-01-29T10:47:21Z</time>
      </trkpt>
      <trkpt lat="45.12468" lon="4.90547">
        <ele>25.2</ele>
        <time>2022-01-29T10:47:25Z</time>
      </trkpt>
      <trkpt lat="45.12489" lon="4.90546">
        <ele>24.8</ele>
        <time>2022-01-29T10:47:29Z</time>
      </trkpt>
      <trkpt lat="45.12509" lon="4.90544">
        <ele>22.8</ele>
        <time>2022-01-29T10:47:33Z</time>
      </trkpt>
      <trkpt lat="45.12528" lon="4.9054">
        <ele>22.6</ele>
        <time>2022-01-29T10:47:37Z</time>
      </trkpt>
      <trkpt lat="45.12546" lon="4.90537">
        <ele>21.4</ele>
        <time>2022-01-29T10:47:41Z</time>
      </trkpt>
      <trkpt lat="45.12562" lon="4.90533">
        <ele>21.4</ele>
        <time>2022-01-29T10:47:45Z</time>
      </trkpt>
      <trkpt lat="45.12578" lon="4.9053">
        <ele>21.6</ele>
        <time>2022-01-29T10:47:49Z</time>
      </trkpt>
      <trkpt lat="45.12593" lon="4.90528">
        <ele>20.8</ele>
        <time>2022-01-29T10:47:53Z</time>
      </trkpt>
      <trkpt lat="45.12609" lon="4.90525">
        <ele>20.8</ele>
        <time>2022-01-29T10:47:57Z</time>
      </trkpt>
      <trkpt lat="45.12625" lon="4.90523">
        <ele>21.4</ele>
        <time>2022-01-29T10:48:01Z</time>
      </trkpt>
      <trkpt lat="45.12643" lon="4.90518">
        <ele>19.4</ele>
        <time>2022-01-29T10:48:05Z</time>
      </trkpt>
      <trkpt lat="45.12661" lon="4.90514">
        <ele>18.4</ele>
        <time>2022-01-29T10:48:09Z</time>
      </trkpt>
      <trkpt lat="45.12678" lon="4.9051">
        <ele>18.2</ele>
        <time>2022-01-29T10:48:13Z</time>
      </trkpt>
      <trkpt lat="45.12698" lon="4.90506">
        <ele>17</ele>
        <time>2022-01-29T10:48:17Z</time>
      </trkpt>
      <trkpt lat="45.12718" lon="4.90502">
        <ele>17</ele>
        <time>2022-01-29T10:48:21Z</time>
      </trkpt>
      <trkpt lat="45.12735" lon="4.90494">
        <ele>15.6</ele>
        <time>2022-01-29T10:48:25Z</time>
      </trkpt>
      <trkpt lat="45.12747" lon="4.90474">
        <ele>13.2</ele>
        <time>2022-01-29T10:48:29Z</time>
      </trkpt>
      <trkpt lat="45.12755" lon="4.9045">
        <ele>12.2</ele>
        <time>2022-01-29T10:48:33Z</time>
      </trkpt>
      <trkpt lat="45.12762" lon="4.90426">
        <ele>14</ele>
        <time>2022-01-29T10:48:37Z</time>
      </trkpt>
      <trkpt lat="45.1277" lon="4.90401">
        <ele>13.4</ele>
        <time>2022-01-29T10:48:41Z</time>
      </trkpt>
      <trkpt lat="45.12779" lon="4.90376">
        <ele>13</ele>
        <time>2022-01-29T10:48:45Z</time>
      </trkpt>
      <trkpt lat="45.12791" lon="4.90352">
        <ele>12.2</ele>
        <time>2022-01-29T10:48:49Z</time>
      </trkpt>
      <trkpt lat="45.12805" lon="4.90333">
        <ele>11.2</ele>
        <time>2022-01-29T10:48:53Z</time>
      </trkpt>
      <trkpt lat="45.1282" lon="4.90317">
        <ele>11.2</ele>
        <time>2022-01-29T10:48:57Z</time>
      </trkpt>
      <trkpt lat="45.12834" lon="4.903">
        <ele>10.8</ele>
        <time>2022-01-29T10:49:01Z</time>
      </trkpt>
      <trkpt lat="45.12852" lon="4.90286">
        <ele>11.2</ele>
        <time>2022-01-29T10:49:05Z</time>
      </trkpt>
      <trkpt lat="45.12867" lon="4.90269">
        <ele>11</ele>
        <time>2022-01-29T10:49:09Z</time>
      </trkpt>
      <trkpt lat="45.12881" lon="4.90255">
        <ele>10.8</ele>
        <time>2022-01-29T10:49:13Z</time>
      </trkpt>
      <trkpt lat="45.12893" lon="4.90237">
        <ele>10</ele>
        <time>2022-01-29T10:49:17Z</time>
      </trkpt>
      <trkpt lat="45.12903" lon="4.90219">
        <ele>9.4</ele>
        <time>2022-01-29T10:49:21Z</time>
      </trkpt>
      <trkpt lat="45.12912" lon="4.902">
        <ele>9.2</ele>
        <time>2022-01-29T10:49:25Z</time>
      </trkpt>
      <trkpt lat="45.12922" lon="4.90182">
        <ele>9.8</ele>
        <time>2022-01-29T10:49:29Z</time>
      </trkpt>
      <trkpt lat="45.1293" lon="4.90165">
        <ele>9.6</ele>
        <time>2022-01-29T10:49:33Z</time>
      </trkpt>
      <trkpt lat="45.12938" lon="4.9015">
        <ele>8.2</ele>
        <time>2022-01-29T10:49:37Z</time>
      </trkpt>
      <trkpt lat="45.12945" lon="4.90135">
        <ele>9</ele>
        <time>2022-01-29T10:49:41Z</time>
      </trkpt>
      <trkpt lat="45.12953" lon="4.9012">
        <ele>8.4</ele>
        <time>2022-01-29T10:49:45Z</time>
      </trkpt>
      <trkpt lat="45.1296" lon="4.90106">
        <ele>10.6</ele>
        <time>2022-01-29T10:49:49Z</time>
      </trkpt>
      <trkpt lat="45.12967" lon="4.9009">
        <ele>10.2</ele>
        <time>2022-01-29T10:49:53Z</time>
      </trkpt>
      <trkpt lat="45.12975" lon="4.90076">
        <ele>10.4</ele>
        <time>2022-01-29T10:49:57Z</time>
      </trkpt>
      <trkpt lat="45.12982" lon="4.90061">
        <ele>10.6</ele>
        <time>2022-01-29T10:50:01Z</time>
      </trkpt>
      <trkpt lat="45.12989" lon="4.90047">
        <ele>9</ele>
        <time>2022-01-29T10:50:05Z</time>
      </trkpt>
      <trkpt lat="45.12995" lon="4.90032">
        <ele>9.6</ele>
        <time>2022-01-29T10:50:09Z</time>
      </trkpt>
      <trkpt lat="45.13002" lon="4.90019">
        <ele>11.2</ele>
        <time>2022-01-29T10:50:13Z</time>
      </trkpt>
      <trkpt lat="45.1301" lon="4.90005">
        <ele>9.6</ele>
        <time>2022-01-29T10:50:17Z</time>
      </trkpt>
      <trkpt lat="45.1302" lon="4.90001">
        <ele>12.4</ele>
        <time>2022-01-29T10:50:21Z</time>
      </trkpt>
      <trkpt lat="45.13032" lon="4.90005">
        <ele>13.6</ele>
        <time>2022-01-29T10:50:25Z</time>
      </trkpt>
      <trkpt lat="45.13045" lon="4.90009">
        <ele>13.2</ele>
        <time>2022-01-29T10:50:29Z</time>
      </trkpt>
      <trkpt lat="45.13058" lon="4.90012">
        <ele>12.8</ele>
        <time>2022-01-29T10:50:33Z</time>
      </trkpt>
      <trkpt lat="45.1307" lon="4.90014">
        <ele>12.8</ele>
        <time>2022-01-29T10:50:37Z</time>
      </trkpt>
      <trkpt lat="45.13083" lon="4.90016">
        <ele>13</ele>
        <time>2022-01-29T10:50:41Z</time>
      </trkpt>
      <trkpt lat="45.13096" lon="4.90018">
        <ele>13.4</ele>
        <time>2022-01-29T10:50:45Z</time>
      </trkpt>
      <trkpt lat="45.13108" lon="4.90019">
        <ele>13</ele>
        <time>2022-01-29T10:50:49Z</time>
      </trkpt>
      <trkpt lat="45.13121" lon="4.9002">
        <ele>12.8</ele>
        <time>2022-01-29T10:50:53Z</time>
      </trkpt>
      <trkpt lat="45.13134" lon="4.90022">
        <ele>13.4</ele>
        <time>2022-01-29T10:50:57Z</time>
      </trkpt>
      <trkpt lat="45.13146" lon="4.90023">
        <ele>12.2</ele>
        <time>2022-01-29T10:51:01Z</time>
      </trkpt>
      <trkpt lat="45.13159" lon="4.90025">
        <ele>13.4</ele>
        <time>2022-01-29T10:51:05Z</time>
      </trkpt>
      <trkpt lat="45.13171" lon="4.90026">
        <ele>13.6</ele>
        <time>2022-01-29T10:51:09Z</time>
      </trkpt>
      <trkpt lat="45.13183" lon="4.90028">
        <ele>12.4</ele>
        <time>2022-01-29T10:51:13Z</time>
      </trkpt>
      <trkpt lat="45.13195" lon="4.9003">
        <ele>12.8</ele>
        <time>2022-01-29T10:51:17Z</time>
      </trkpt>
      <trkpt lat="45.13207" lon="4.90031">
        <ele>12.8</ele>
        <time>2022-01-29T10:51:21Z</time>
      </trkpt>
      <trkpt lat="45.1322" lon="4.90032">
        <ele>12.4</ele>
        <time>2022-01-29T10:51:25Z</time>
      </trkpt>
      <trkpt lat="45.13232" lon="4.90034">
        <ele>12.4</ele>
        <time>2022-01-29T10:51:29Z</time>
      </trkpt>
      <trkpt lat="45.13244" lon="4.90036">
        <ele>13.2</ele>
        <time>2022-01-29T10:51:33Z</time>
      </trkpt>
      <trkpt lat="45.13257" lon="4.90037">
        <ele>13.4</ele>
        <time>2022-01-29T10:51:37Z</time>
      </trkpt>
      <trkpt lat="45.13269" lon="4.90038">
        <ele>13.2</ele>
        <time>2022-01-29T10:51:41Z</time>
      </trkpt>
      <trkpt lat="45.13282" lon="4.9004">
        <ele>13.6</ele>
        <time>2022-01-29T10:51:45Z</time>
      </trkpt>
      <trkpt lat="45.13294" lon="4.90042">
        <ele>14.2</ele>
        <time>2022-01-29T10:51:49Z</time>
      </trkpt>
      <trkpt lat="45.13307" lon="4.90043">
        <ele>14.2</ele>
        <time>2022-01-29T10:51:53Z</time>
      </trkpt>
      <trkpt lat="45.13319" lon="4.90045">
        <ele>14.2</ele>
        <time>2022-01-29T10:51:57Z</time>
      </trkpt>
      <trkpt lat="45.1333" lon="4.90046">
        <ele>13.6</ele>
        <time>2022-01-29T10:52:01Z</time>
      </trkpt>
      <trkpt lat="45.13342" lon="4.90047">
        <ele>15</ele>
        <time>2022-01-29T10:52:05Z</time>
      </trkpt>
      <trkpt lat="45.13355" lon="4.90048">
        <ele>15.2</ele>
        <time>2022-01-29T10:52:09Z</time>
      </trkpt>
      <trkpt lat="45.13366" lon="4.90049">
        <ele>14.6</ele>
        <time>2022-01-29T10:52:13Z</time>
      </trkpt>
      <trkpt lat="45.13378" lon="4.90049">
        <ele>14.4</ele>
        <time>2022-01-29T10:52:17Z</time>
      </trkpt>
      <trkpt lat="45.13391" lon="4.90047">
        <ele>14.6</ele>
        <time>2022-01-29T10:52:21Z</time>
      </trkpt>
      <trkpt lat="45.13403" lon="4.90046">
        <ele>15.2</ele>
        <time>2022-01-29T10:52:25Z</time>
      </trkpt>
      <trkpt lat="45.13416" lon="4.90044">
        <ele>14.6</ele>
        <time>2022-01-29T10:52:29Z</time>
      </trkpt>
      <trkpt lat="45.13429" lon="4.90042">
        <ele>14.4</ele>
        <time>2022-01-29T10:52:33Z</time>
      </trkpt>
      <trkpt lat="45.13443" lon="4.90041">
        <ele>14.6</ele>
        <time>2022-01-29T10:52:37Z</time>
      </trkpt>
      <trkpt lat="45.13456" lon="4.9004">
        <ele>14.4</ele>
        <time>2022-01-29T10:52:41Z</time>
      </trkpt>
      <trkpt lat="45.1347" lon="4.90038">
        <ele>14.2</ele>
        <time>2022-01-29T10:52:45Z</time>
      </trkpt>
      <trkpt lat="45.13483" lon="4.90037">
        <ele>14.2</ele>
        <time>2022-01-29T10:52:49Z</time>
      </trkpt>
      <trkpt lat="45.13497" lon="4.90035">
        <ele>14.8</ele>
        <time>2022-01-29T10:52:53Z</time>
      </trkpt>
      <trkpt lat="45.1351" lon="4.90034">
        <ele>14.4</ele>
        <time>2022-01-29T10:52:57Z</time>
      </trkpt>
      <trkpt lat="45.13523" lon="4.90035">
        <ele>14.6</ele>
        <time>2022-01-29T10:53:01Z</time>
      </trkpt>
      <trkpt lat="45.13537" lon="4.90036">
        <ele>14.6</ele>
        <time>2022-01-29T10:53:05Z</time>
      </trkpt>
      <trkpt lat="45.13551" lon="4.90038">
        <ele>15</ele>
        <time>2022-01-29T10:53:09Z</time>
      </trkpt>
      <trkpt lat="45.13565" lon="4.90042">
        <ele>15.2</ele>
        <time>2022-01-29T10:53:13Z</time>
      </trkpt>
      <trkpt lat="45.13578" lon="4.90047">
        <ele>15</ele>
        <time>2022-01-29T10:53:17Z</time>
      </trkpt>
      <trkpt lat="45.13591" lon="4.90053">
        <ele>15.2</ele>
        <time>2022-01-29T10:53:21Z</time>
      </trkpt>
      <trkpt lat="45.13605" lon="4.90058">
        <ele>15.6</ele>
        <time>2022-01-29T10:53:25Z</time>
      </trkpt>
      <trkpt lat="45.1362" lon="4.90064">
        <ele>15.4</ele>
        <time>2022-01-29T10:53:29Z</time>
      </trkpt>
      <trkpt lat="45.13634" lon="4.9007">
        <ele>15.6</ele>
        <time>2022-01-29T10:53:33Z</time>
      </trkpt>
      <trkpt lat="45.13648" lon="4.90077">
        <ele>15.6</ele>
        <time>2022-01-29T10:53:37Z</time>
      </trkpt>
      <trkpt lat="45.13661" lon="4.90084">
        <ele>15.8</ele>
        <time>2022-01-29T10:53:41Z</time>
      </trkpt>
      <trkpt lat="45.13674" lon="4.90092">
        <ele>16</ele>
        <time>2022-01-29T10:53:45Z</time>
      </trkpt>
      <trkpt lat="45.13688" lon="4.90101">
        <ele>14.6</ele>
        <time>2022-01-29T10:53:49Z</time>
      </trkpt>
      <trkpt lat="45.13702" lon="4.9011">
        <ele>14.6</ele>
        <time>2022-01-29T10:53:53Z</time>
      </trkpt>
      <trkpt lat="45.13716" lon="4.9012">
        <ele>15</ele>
        <time>2022-01-29T10:53:57Z</time>
      </trkpt>
      <trkpt lat="45.13729" lon="4.90131">
        <ele>14.8</ele>
        <time>2022-01-29T10:54:01Z</time>
      </trkpt>
      <trkpt lat="45.13743" lon="4.90141">
        <ele>14.6</ele>
        <time>2022-01-29T10:54:05Z</time>
      </trkpt>
      <trkpt lat="45.13757" lon="4.90152">
        <ele>15.4</ele>
        <time>2022-01-29T10:54:09Z</time>
      </trkpt>
      <trkpt lat="45.13771" lon="4.90165">
        <ele>15.4</ele>
        <time>2022-01-29T10:54:13Z</time>
      </trkpt>
      <trkpt lat="45.13783" lon="4.90179">
        <ele>15.6</ele>
        <time>2022-01-29T10:54:17Z</time>
      </trkpt>
      <trkpt lat="45.13794" lon="4.90196">
        <ele>15.4</ele>
        <time>2022-01-29T10:54:21Z</time>
      </trkpt>
      <trkpt lat="45.13804" lon="4.90212">
        <ele>15.6</ele>
        <time>2022-01-29T10:54:25Z</time>
      </trkpt>
      <trkpt lat="45.13814" lon="4.9023">
        <ele>15.6</ele>
        <time>2022-01-29T10:54:29Z</time>
      </trkpt>
      <trkpt lat="45.13824" lon="4.90248">
        <ele>15.8</ele>
        <time>2022-01-29T10:54:33Z</time>
      </trkpt>
      <trkpt lat="45.13834" lon="4.90266">
        <ele>15.8</ele>
        <time>2022-01-29T10:54:37Z</time>
      </trkpt>
      <trkpt lat="45.13845" lon="4.90284">
        <ele>15.6</ele>
        <time>2022-01-29T10:54:41Z</time>
      </trkpt>
      <trkpt lat="45.13856" lon="4.90302">
        <ele>15.8</ele>
        <time>2022-01-29T10:54:45Z</time>
      </trkpt>
      <trkpt lat="45.13866" lon="4.90319">
        <ele>16</ele>
        <time>2022-01-29T10:54:49Z</time>
      </trkpt>
      <trkpt lat="45.13877" lon="4.90335">
        <ele>16.4</ele>
        <time>2022-01-29T10:54:53Z</time>
      </trkpt>
      <trkpt lat="45.1389" lon="4.90349">
        <ele>16.4</ele>
        <time>2022-01-29T10:54:57Z</time>
      </trkpt>
      <trkpt lat="45.13903" lon="4.90361">
        <ele>16.6</ele>
        <time>2022-01-29T10:55:01Z</time>
      </trkpt>
      <trkpt lat="45.13917" lon="4.90369">
        <ele>17.2</ele>
        <time>2022-01-29T10:55:05Z</time>
      </trkpt>
      <trkpt lat="45.13931" lon="4.90377">
        <ele>16.2</ele>
        <time>2022-01-29T10:55:09Z</time>
      </trkpt>
      <trkpt lat="45.13946" lon="4.90385">
        <ele>16.6</ele>
        <time>2022-01-29T10:55:13Z</time>
      </trkpt>
      <trkpt lat="45.1396" lon="4.90392">
        <ele>16.6</ele>
        <time>2022-01-29T10:55:17Z</time>
      </trkpt>
      <trkpt lat="45.13975" lon="4.90401">
        <ele>16.2</ele>
        <time>2022-01-29T10:55:21Z</time>
      </trkpt>
      <trkpt lat="45.13989" lon="4.90409">
        <ele>16.2</ele>
        <time>2022-01-29T10:55:25Z</time>
      </trkpt>
      <trkpt lat="45.14004" lon="4.90417">
        <ele>16.6</ele>
        <time>2022-01-29T10:55:29Z</time>
      </trkpt>
      <trkpt lat="45.14019" lon="4.90425">
        <ele>17.2</ele>
        <time>2022-01-29T10:55:33Z</time>
      </trkpt>
      <trkpt lat="45.14034" lon="4.90433">
        <ele>16.4</ele>
        <time>2022-01-29T10:55:37Z</time>
      </trkpt>
      <trkpt lat="45.14048" lon="4.90444">
        <ele>17</ele>
        <time>2022-01-29T10:55:41Z</time>
      </trkpt>
      <trkpt lat="45.1406" lon="4.90458">
        <ele>18</ele>
        <time>2022-01-29T10:55:45Z</time>
      </trkpt>
      <trkpt lat="45.14069" lon="4.90476">
        <ele>17.2</ele>
        <time>2022-01-29T10:55:49Z</time>
      </trkpt>
      <trkpt lat="45.14073" lon="4.905">
        <ele>17.2</ele>
        <time>2022-01-29T10:55:53Z</time>
      </trkpt>
      <trkpt lat="45.14074" lon="4.90524">
        <ele>17</ele>
        <time>2022-01-29T10:55:57Z</time>
      </trkpt>
      <trkpt lat="45.14076" lon="4.90547">
        <ele>17</ele>
        <time>2022-01-29T10:56:01Z</time>
      </trkpt>
      <trkpt lat="45.14081" lon="4.90567">
        <ele>17.6</ele>
        <time>2022-01-29T10:56:05Z</time>
      </trkpt>
      <trkpt lat="45.14089" lon="4.90583">
        <ele>18</ele>
        <time>2022-01-29T10:56:09Z</time>
      </trkpt>
      <trkpt lat="45.14099" lon="4.90597">
        <ele>18.2</ele>
        <time>2022-01-29T10:56:13Z</time>
      </trkpt>
      <trkpt lat="45.14111" lon="4.90607">
        <ele>18.4</ele>
        <time>2022-01-29T10:56:17Z</time>
      </trkpt>
      <trkpt lat="45.14125" lon="4.90613">
        <ele>18.6</ele>
        <time>2022-01-29T10:56:21Z</time>
      </trkpt>
      <trkpt lat="45.14138" lon="4.9062">
        <ele>18.4</ele>
        <time>2022-01-29T10:56:25Z</time>
      </trkpt>
      <trkpt lat="45.1415" lon="4.90622">
        <ele>18.6</ele>
        <time>2022-01-29T10:56:29Z</time>
      </trkpt>
      <trkpt lat="45.14162" lon="4.90627">
        <ele>18.8</ele>
        <time>2022-01-29T10:56:33Z</time>
      </trkpt>
      <trkpt lat="45.14175" lon="4.90631">
        <ele>19.6</ele>
        <time>2022-01-29T10:56:37Z</time>
      </trkpt>
      <trkpt lat="45.1419" lon="4.90635">
        <ele>19.8</ele>
        <time>2022-01-29T10:56:41Z</time>
      </trkpt>
      <trkpt lat="45.14204" lon="4.90639">
        <ele>20.2</ele>
        <time>2022-01-29T10:56:45Z</time>
      </trkpt>
      <trkpt lat="45.1422" lon="4.90643">
        <ele>20.2</ele>
        <time>2022-01-29T10:56:49Z</time>
      </trkpt>
      <trkpt lat="45.14235" lon="4.90647">
        <ele>19.8</ele>
        <time>2022-01-29T10:56:53Z</time>
      </trkpt>
      <trkpt lat="45.1425" lon="4.90651">
        <ele>19.6</ele>
        <time>2022-01-29T10:56:57Z</time>
      </trkpt>
      <trkpt lat="45.14265" lon="4.90653">
        <ele>20.4</ele>
        <time>2022-01-29T10:57:01Z</time>
      </trkpt>
      <trkpt lat="45.14279" lon="4.90655">
        <ele>19.8</ele>
        <time>2022-01-29T10:57:05Z</time>
      </trkpt>
      <trkpt lat="45.14295" lon="4.90659">
        <ele>20</ele>
        <time>2022-01-29T10:57:09Z</time>
      </trkpt>
      <trkpt lat="45.1431" lon="4.90663">
        <ele>19.8</ele>
        <time>2022-01-29T10:57:13Z</time>
      </trkpt>
      <trkpt lat="45.14326" lon="4.90666">
        <ele>20.2</ele>
        <time>2022-01-29T10:57:17Z</time>
      </trkpt>
      <trkpt lat="45.14341" lon="4.90669">
        <ele>20</ele>
        <time>2022-01-29T10:57:21Z</time>
      </trkpt>
      <trkpt lat="45.14357" lon="4.90674">
        <ele>20.4</ele>
        <time>2022-01-29T10:57:25Z</time>
      </trkpt>
      <trkpt lat="45.14372" lon="4.90677">
        <ele>20.4</ele>
        <time>2022-01-29T10:57:29Z</time>
      </trkpt>
      <trkpt lat="45.14387" lon="4.9068">
        <ele>20.8</ele>
        <time>2022-01-29T10:57:33Z</time>
      </trkpt>
      <trkpt lat="45.14402" lon="4.90683">
        <ele>20.6</ele>
        <time>2022-01-29T10:57:37Z</time>
      </trkpt>
      <trkpt lat="45.14416" lon="4.90687">
        <ele>20.8</ele>
        <time>2022-01-29T10:57:41Z</time>
      </trkpt>
      <trkpt lat="45.14432" lon="4.9069">
        <ele>19.8</ele>
        <time>2022-01-29T10:57:45Z</time>
      </trkpt>
      <trkpt lat="45.14447" lon="4.90694">
        <ele>20.6</ele>
        <time>2022-01-29T10:57:49Z</time>
      </trkpt>
      <trkpt lat="45.14461" lon="4.90699">
        <ele>20.4</ele>
        <time>2022-01-29T10:57:53Z</time>
      </trkpt>
      <trkpt lat="45.14474" lon="4.90703">
        <ele>20.6</ele>
        <time>2022-01-29T10:57:57Z</time>
      </trkpt>
      <trkpt lat="45.14487" lon="4.90708">
        <ele>21</ele>
        <time>2022-01-29T10:58:01Z</time>
      </trkpt>
      <trkpt lat="45.14499" lon="4.90713">
        <ele>21.6</ele>
        <time>2022-01-29T10:58:05Z</time>
      </trkpt>
      <trkpt lat="45.14511" lon="4.90719">
        <ele>22</ele>
        <time>2022-01-29T10:58:09Z</time>
      </trkpt>
      <trkpt lat="45.14522" lon="4.90725">
        <ele>23</ele>
        <time>2022-01-29T10:58:13Z</time>
      </trkpt>
      <trkpt lat="45.14533" lon="4.90731">
        <ele>23.4</ele>
        <time>2022-01-29T10:58:17Z</time>
      </trkpt>
      <trkpt lat="45.14544" lon="4.90738">
        <ele>24</ele>
        <time>2022-01-29T10:58:21Z</time>
      </trkpt>
      <trkpt lat="45.14555" lon="4.90744">
        <ele>24.8</ele>
        <time>2022-01-29T10:58:25Z</time>
      </trkpt>
      <trkpt lat="45.14566" lon="4.90751">
        <ele>24.6</ele>
        <time>2022-01-29T10:58:29Z</time>
      </trkpt>
      <trkpt lat="45.14577" lon="4.90759">
        <ele>25.6</ele>
        <time>2022-01-29T10:58:33Z</time>
      </trkpt>
      <trkpt lat="45.14587" lon="4.90766">
        <ele>25.8</ele>
        <time>2022-01-29T10:58:37Z</time>
      </trkpt>
      <trkpt lat="45.14597" lon="4.90774">
        <ele>26.6</ele>
        <time>2022-01-29T10:58:41Z</time>
      </trkpt>
      <trkpt lat="45.14606" lon="4.90781">
        <ele>26.4</ele>
        <time>2022-01-29T10:58:45Z</time>
      </trkpt>
      <trkpt lat="45.14615" lon="4.90788">
        <ele>26.8</ele>
        <time>2022-01-29T10:58:49Z</time>
      </trkpt>
      <trkpt lat="45.14624" lon="4.90796">
        <ele>27.8</ele>
        <time>2022-01-29T10:58:53Z</time>
      </trkpt>
      <trkpt lat="45.14634" lon="4.90803">
        <ele>28</ele>
        <time>2022-01-29T10:58:57Z</time>
      </trkpt>
      <trkpt lat="45.14642" lon="4.90809">
        <ele>29</ele>
        <time>2022-01-29T10:59:01Z</time>
      </trkpt>
      <trkpt lat="45.14651" lon="4.90817">
        <ele>29.4</ele>
        <time>2022-01-29T10:59:05Z</time>
      </trkpt>
      <trkpt lat="45.14661" lon="4.90825">
        <ele>29.8</ele>
        <time>2022-01-29T10:59:09Z</time>
      </trkpt>
      <trkpt lat="45.14672" lon="4.90832">
        <ele>30.2</ele>
        <time>2022-01-29T10:59:13Z</time>
      </trkpt>
      <trkpt lat="45.14682" lon="4.90838">
        <ele>31</ele>
        <time>2022-01-29T10:59:17Z</time>
      </trkpt>
      <trkpt lat="45.14692" lon="4.90844">
        <ele>31.2</ele>
        <time>2022-01-29T10:59:21Z</time>
      </trkpt>
      <trkpt lat="45.14702" lon="4.90852">
        <ele>32</ele>
        <time>2022-01-29T10:59:25Z</time>
      </trkpt>
      <trkpt lat="45.14712" lon="4.90858">
        <ele>32.2</ele>
        <time>2022-01-29T10:59:29Z</time>
      </trkpt>
      <trkpt lat="45.14723" lon="4.90865">
        <ele>33</ele>
        <time>2022-01-29T10:59:33Z</time>
      </trkpt>
      <trkpt lat="45.14733" lon="4.90871">
        <ele>33.4</ele>
        <time>2022-01-29T10:59:37Z</time>
      </trkpt>
      <trkpt lat="45.14744" lon="4.90878">
        <ele>34</ele>
        <time>2022-01-29T10:59:41Z</time>
      </trkpt>
      <trkpt lat="45.14755" lon="4.90886">
        <ele>33.6</ele>
        <time>2022-01-29T10:59:45Z</time>
      </trkpt>
      <trkpt lat="45.14765" lon="4.90893">
        <ele>35</ele>
        <time>2022-01-29T10:59:49Z</time>
      </trkpt>
      <trkpt lat="45.14776" lon="4.90899">
        <ele>35.2</ele>
        <time>2022-01-29T10:59:53Z</time>
      </trkpt>
      <trkpt lat="45.14786" lon="4.90907">
        <ele>35</ele>
        <time>2022-01-29T10:59:57Z</time>
      </trkpt>
      <trkpt lat="45.14796" lon="4.90914">
        <ele>35.8</ele>
        <time>2022-01-29T11:00:01Z</time>
      </trkpt>
      <trkpt lat="45.14806" lon="4.90921">
        <ele>36</ele>
        <time>2022-01-29T11:00:05Z</time>
      </trkpt>
      <trkpt lat="45.14815" lon="4.90928">
        <ele>36.2</ele>
        <time>2022-01-29T11:00:09Z</time>
      </trkpt>
      <trkpt lat="45.14826" lon="4.90935">
        <ele>36.4</ele>
        <time>2022-01-29T11:00:13Z</time>
      </trkpt>
      <trkpt lat="45.14835" lon="4.90943">
        <ele>36.6</ele>
        <time>2022-01-29T11:00:17Z</time>
      </trkpt>
      <trkpt lat="45.14845" lon="4.9095">
        <ele>37</ele>
        <time>2022-01-29T11:00:21Z</time>
      </trkpt>
      <trkpt lat="45.14855" lon="4.90956">
        <ele>37</ele>
        <time>2022-01-29T11:00:25Z</time>
      </trkpt>
      <trkpt lat="45.14864" lon="4.90962">
        <ele>37.2</ele>
        <time>2022-01-29T11:00:29Z</time>
      </trkpt>
      <trkpt lat="45.14874" lon="4.9097">
        <ele>37.4</ele>
        <time>2022-01-29T11:00:33Z</time>
      </trkpt>
      <trkpt lat="45.14883" lon="4.90976">
        <ele>37.8</ele>
        <time>2022-01-29T11:00:37Z</time>
      </trkpt>
      <trkpt lat="45.14893" lon="4.90984">
        <ele>38.4</ele>
        <time>2022-01-29T11:00:41Z</time>
      </trkpt>
      <trkpt lat="45.14903" lon="4.90991">
        <ele>38.6</ele>
        <time>2022-01-29T11:00:45Z</time>
      </trkpt>
      <trkpt lat="45.14913" lon="4.90998">
        <ele>38.6</ele>
        <time>2022-01-29T11:00:49Z</time>
      </trkpt>
      <trkpt lat="45.14923" lon="4.91006">
        <ele>39.4</ele>
        <time>2022-01-29T11:00:53Z</time>
      </trkpt>
      <trkpt lat="45.14933" lon="4.91013">
        <ele>39</ele>
        <time>2022-01-29T11:00:57Z</time>
      </trkpt>
      <trkpt lat="45.14943" lon="4.9102">
        <ele>39.8</ele>
        <time>2022-01-29T11:01:01Z</time>
      </trkpt>
      <trkpt lat="45.14952" lon="4.91027">
        <ele>40.6</ele>
        <time>2022-01-29T11:01:05Z</time>
      </trkpt>
      <trkpt lat="45.14962" lon="4.91034">
        <ele>40.6</ele>
        <time>2022-01-29T11:01:09Z</time>
      </trkpt>
      <trkpt lat="45.14973" lon="4.91042">
        <ele>40</ele>
        <time>2022-01-29T11:01:13Z</time>
      </trkpt>
      <trkpt lat="45.14983" lon="4.91049">
        <ele>40.4</ele>
        <time>2022-01-29T11:01:17Z</time>
      </trkpt>
      <trkpt lat="45.14994" lon="4.91057">
        <ele>40.8</ele>
        <time>2022-01-29T11:01:21Z</time>
      </trkpt>
      <trkpt lat="45.15005" lon="4.91064">
        <ele>41</ele>
        <time>2022-01-29T11:01:25Z</time>
      </trkpt>
      <trkpt lat="45.15015" lon="4.91072">
        <ele>40.6</ele>
        <time>2022-01-29T11:01:29Z</time>
      </trkpt>
      <trkpt lat="45.15027" lon="4.91081">
        <ele>40.6</ele>
        <time>2022-01-29T11:01:33Z</time>
      </trkpt>
      <trkpt lat="45.15039" lon="4.91089">
        <ele>40.6</ele>
        <time>2022-01-29T11:01:37Z</time>
      </trkpt>
      <trkpt lat="45.15051" lon="4.91098">
        <ele>41</ele>
        <time>2022-01-29T11:01:41Z</time>
      </trkpt>
      <trkpt lat="45.15064" lon="4.91107">
        <ele>41</ele>
        <time>2022-01-29T11:01:45Z</time>
      </trkpt>
      <trkpt lat="45.15076" lon="4.91114">
        <ele>40.6</ele>
        <time>2022-01-29T11:01:49Z</time>
      </trkpt>
      <trkpt lat="45.15089" lon="4.91121">
        <ele>41</ele>
        <time>2022-01-29T11:01:53Z</time>
      </trkpt>
      <trkpt lat="45.15101" lon="4.91129">
        <ele>41</ele>
        <time>2022-01-29T11:01:57Z</time>
      </trkpt>
      <trkpt lat="45.15113" lon="4.91136">
        <ele>41</ele>
        <time>2022-01-29T11:02:01Z</time>
      </trkpt>
      <trkpt lat="45.15125" lon="4.91143">
        <ele>41</ele>
        <time>2022-01-29T11:02:05Z</time>
      </trkpt>
      <trkpt lat="45.15137" lon="4.9115">
        <ele>41.2</ele>
        <time>2022-01-29T11:02:09Z</time>
      </trkpt>
      <trkpt lat="45.15148" lon="4.91156">
        <ele>41</ele>
        <time>2022-01-29T11:02:13Z</time>
      </trkpt>
      <trkpt lat="45.1516" lon="4.91163">
        <ele>41.4</ele>
        <time>2022-01-29T11:02:17Z</time>
      </trkpt>
      <trkpt lat="45.15173" lon="4.91169">
        <ele>41.4</ele>
        <time>2022-01-29T11:02:21Z</time>
      </trkpt>
      <trkpt lat="45.15184" lon="4.91176">
        <ele>42</ele>
        <time>2022-01-29T11:02:25Z</time>
      </trkpt>
      <trkpt lat="45.15196" lon="4.91183">
        <ele>42</ele>
        <time>2022-01-29T11:02:29Z</time>
      </trkpt>
      <trkpt lat="45.15208" lon="4.9119">
        <ele>41.8</ele>
        <time>2022-01-29T11:02:33Z</time>
      </trkpt>
      <trkpt lat="45.15219" lon="4.91196">
        <ele>42</ele>
        <time>2022-01-29T11:02:37Z</time>
      </trkpt>
      <trkpt lat="45.15231" lon="4.91202">
        <ele>42.2</ele>
        <time>2022-01-29T11:02:41Z</time>
      </trkpt>
      <trkpt lat="45.15243" lon="4.91209">
        <ele>42.6</ele>
        <time>2022-01-29T11:02:45Z</time>
      </trkpt>
      <trkpt lat="45.15254" lon="4.91215">
        <ele>42.8</ele>
        <time>2022-01-29T11:02:49Z</time>
      </trkpt>
      <trkpt lat="45.15265" lon="4.91222">
        <ele>43.4</ele>
        <time>2022-01-29T11:02:53Z</time>
      </trkpt>
      <trkpt lat="45.15274" lon="4.91228">
        <ele>43.4</ele>
        <time>2022-01-29T11:02:57Z</time>
      </trkpt>
      <trkpt lat="45.15286" lon="4.91234">
        <ele>43.8</ele>
        <time>2022-01-29T11:03:01Z</time>
      </trkpt>
      <trkpt lat="45.15297" lon="4.9124">
        <ele>44</ele>
        <time>2022-01-29T11:03:05Z</time>
      </trkpt>
      <trkpt lat="45.15308" lon="4.91246">
        <ele>44.4</ele>
        <time>2022-01-29T11:03:09Z</time>
      </trkpt>
      <trkpt lat="45.15319" lon="4.91252">
        <ele>44.4</ele>
        <time>2022-01-29T11:03:13Z</time>
      </trkpt>
      <trkpt lat="45.15331" lon="4.91259">
        <ele>45</ele>
        <time>2022-01-29T11:03:17Z</time>
      </trkpt>
      <trkpt lat="45.15342" lon="4.91265">
        <ele>45.2</ele>
        <time>2022-01-29T11:03:21Z</time>
      </trkpt>
      <trkpt lat="45.1535" lon="4.91272">
        <ele>46</ele>
        <time>2022-01-29T11:03:25Z</time>
      </trkpt>
      <trkpt lat="45.1536" lon="4.91282">
        <ele>46</ele>
        <time>2022-01-29T11:03:29Z</time>
      </trkpt>
      <trkpt lat="45.15369" lon="4.91294">
        <ele>45.6</ele>
        <time>2022-01-29T11:03:33Z</time>
      </trkpt>
      <trkpt lat="45.15378" lon="4.91308">
        <ele>46.2</ele>
        <time>2022-01-29T11:03:37Z</time>
      </trkpt>
      <trkpt lat="45.15386" lon="4.91322">
        <ele>46.4</ele>
        <time>2022-01-29T11:03:41Z</time>
      </trkpt>
      <trkpt lat="45.15393" lon="4.91338">
        <ele>47</ele>
        <time>2022-01-29T11:03:45Z</time>
      </trkpt>
      <trkpt lat="45.15397" lon="4.91355">
        <ele>47.2</ele>
        <time>2022-01-29T11:03:49Z</time>
      </trkpt>
      <trkpt lat="45.15399" lon="4.9137">
        <ele>47.4</ele>
        <time>2022-01-29T11:03:53Z</time>
      </trkpt>
      <trkpt lat="45.15405" lon="4.91385">
        <ele>47.4</ele>
        <time>2022-01-29T11:04:14Z</time>
      </trkpt>
      <trkpt lat="45.15408" lon="4.91401">
        <ele>47.6</ele>
        <time>2022-01-29T11:04:18Z</time>
      </trkpt>
      <trkpt lat="45.15414" lon="4.91419">
        <ele>47.2</ele>
        <time>2022-01-29T11:04:22Z</time>
      </trkpt>
      <trkpt lat="45.15424" lon="4.91432">
        <ele>47</ele>
        <time>2022-01-29T11:04:26Z</time>
      </trkpt>
      <trkpt lat="45.15436" lon="4.91439">
        <ele>47.6</ele>
        <time>2022-01-29T11:04:30Z</time>
      </trkpt>
      <trkpt lat="45.15448" lon="4.91445">
        <ele>47.6</ele>
        <time>2022-01-29T11:04:34Z</time>
      </trkpt>
      <trkpt lat="45.1546" lon="4.91451">
        <ele>48</ele>
        <time>2022-01-29T11:04:38Z</time>
      </trkpt>
      <trkpt lat="45.15472" lon="4.91458">
        <ele>48</ele>
        <time>2022-01-29T11:04:42Z</time>
      </trkpt>
      <trkpt lat="45.15482" lon="4.91465">
        <ele>48.6</ele>
        <time>2022-01-29T11:04:46Z</time>
      </trkpt>
      <trkpt lat="45.15492" lon="4.91474">
        <ele>48.8</ele>
        <time>2022-01-29T11:04:50Z</time>
      </trkpt>
      <trkpt lat="45.15501" lon="4.91484">
        <ele>50</ele>
        <time>2022-01-29T11:04:54Z</time>
      </trkpt>
      <trkpt lat="45.1551" lon="4.91495">
        <ele>49.6</ele>
        <time>2022-01-29T11:04:58Z</time>
      </trkpt>
      <trkpt lat="45.15519" lon="4.91507">
        <ele>50.6</ele>
        <time>2022-01-29T11:05:02Z</time>
      </trkpt>
      <trkpt lat="45.15527" lon="4.91518">
        <ele>50.2</ele>
        <time>2022-01-29T11:05:06Z</time>
      </trkpt>
      <trkpt lat="45.15536" lon="4.91529">
        <ele>50.6</ele>
        <time>2022-01-29T11:05:10Z</time>
      </trkpt>
      <trkpt lat="45.15545" lon="4.91541">
        <ele>50.8</ele>
        <time>2022-01-29T11:05:14Z</time>
      </trkpt>
      <trkpt lat="45.15554" lon="4.91553">
        <ele>50.8</ele>
        <time>2022-01-29T11:05:18Z</time>
      </trkpt>
      <trkpt lat="45.15563" lon="4.91565">
        <ele>51.4</ele>
        <time>2022-01-29T11:05:22Z</time>
      </trkpt>
      <trkpt lat="45.15572" lon="4.91576">
        <ele>51.8</ele>
        <time>2022-01-29T11:05:26Z</time>
      </trkpt>
      <trkpt lat="45.1558" lon="4.91588">
        <ele>52.4</ele>
        <time>2022-01-29T11:05:30Z</time>
      </trkpt>
      <trkpt lat="45.15589" lon="4.91599">
        <ele>52.4</ele>
        <time>2022-01-29T11:05:34Z</time>
      </trkpt>
      <trkpt lat="45.15597" lon="4.91609">
        <ele>52.4</ele>
        <time>2022-01-29T11:05:38Z</time>
      </trkpt>
      <trkpt lat="45.15606" lon="4.9162">
        <ele>53.2</ele>
        <time>2022-01-29T11:05:42Z</time>
      </trkpt>
      <trkpt lat="45.15614" lon="4.91629">
        <ele>53.2</ele>
        <time>2022-01-29T11:05:46Z</time>
      </trkpt>
      <trkpt lat="45.15623" lon="4.91639">
        <ele>53.4</ele>
        <time>2022-01-29T11:05:50Z</time>
      </trkpt>
      <trkpt lat="45.15631" lon="4.91648">
        <ele>54.6</ele>
        <time>2022-01-29T11:05:54Z</time>
      </trkpt>
      <trkpt lat="45.1564" lon="4.91657">
        <ele>54.6</ele>
        <time>2022-01-29T11:05:58Z</time>
      </trkpt>
      <trkpt lat="45.15648" lon="4.91666">
        <ele>55</ele>
        <time>2022-01-29T11:06:02Z</time>
      </trkpt>
      <trkpt lat="45.15657" lon="4.91675">
        <ele>55</ele>
        <time>2022-01-29T11:06:06Z</time>
      </trkpt>
      <trkpt lat="45.15665" lon="4.91684">
        <ele>55.8</ele>
        <time>2022-01-29T11:06:10Z</time>
      </trkpt>
      <trkpt lat="45.15673" lon="4.91693">
        <ele>56</ele>
        <time>2022-01-29T11:06:14Z</time>
      </trkpt>
      <trkpt lat="45.15682" lon="4.91701">
        <ele>56.6</ele>
        <time>2022-01-29T11:06:18Z</time>
      </trkpt>
      <trkpt lat="45.15691" lon="4.91708">
        <ele>57.6</ele>
        <time>2022-01-29T11:06:22Z</time>
      </trkpt>
      <trkpt lat="45.157" lon="4.91715">
        <ele>57.8</ele>
        <time>2022-01-29T11:06:26Z</time>
      </trkpt>
      <trkpt lat="45.1571" lon="4.9172">
        <ele>58.2</ele>
        <time>2022-01-29T11:06:30Z</time>
      </trkpt>
      <trkpt lat="45.15719" lon="4.91725">
        <ele>58.6</ele>
        <time>2022-01-29T11:06:34Z</time>
      </trkpt>
      <trkpt lat="45.15729" lon="4.91729">
        <ele>59</ele>
        <time>2022-01-29T11:06:38Z</time>
      </trkpt>
      <trkpt lat="45.15739" lon="4.91731">
        <ele>59.4</ele>
        <time>2022-01-29T11:06:42Z</time>
      </trkpt>
      <trkpt lat="45.15749" lon="4.91733">
        <ele>59.2</ele>
        <time>2022-01-29T11:06:46Z</time>
      </trkpt>
      <trkpt lat="45.15759" lon="4.91733">
        <ele>60</ele>
        <time>2022-01-29T11:06:50Z</time>
      </trkpt>
      <trkpt lat="45.15768" lon="4.91734">
        <ele>60</ele>
        <time>2022-01-29T11:06:54Z</time>
      </trkpt>
      <trkpt lat="45.15779" lon="4.91734">
        <ele>60.4</ele>
        <time>2022-01-29T11:06:58Z</time>
      </trkpt>
      <trkpt lat="45.15789" lon="4.91733">
        <ele>60.4</ele>
        <time>2022-01-29T11:07:02Z</time>
      </trkpt>
      <trkpt lat="45.15802" lon="4.91731">
        <ele>60</ele>
        <time>2022-01-29T11:07:06Z</time>
      </trkpt>
      <trkpt lat="45.15816" lon="4.91729">
        <ele>59.6</ele>
        <time>2022-01-29T11:07:10Z</time>
      </trkpt>
      <trkpt lat="45.15831" lon="4.91728">
        <ele>58.8</ele>
        <time>2022-01-29T11:07:14Z</time>
      </trkpt>
      <trkpt lat="45.15847" lon="4.91729">
        <ele>59.2</ele>
        <time>2022-01-29T11:07:18Z</time>
      </trkpt>
      <trkpt lat="45.15863" lon="4.91731">
        <ele>59.4</ele>
        <time>2022-01-29T11:07:22Z</time>
      </trkpt>
      <trkpt lat="45.15881" lon="4.91734">
        <ele>58.8</ele>
        <time>2022-01-29T11:07:26Z</time>
      </trkpt>
      <trkpt lat="45.15899" lon="4.91736">
        <ele>57.2</ele>
        <time>2022-01-29T11:07:30Z</time>
      </trkpt>
      <trkpt lat="45.15918" lon="4.91739">
        <ele>56.8</ele>
        <time>2022-01-29T11:07:34Z</time>
      </trkpt>
      <trkpt lat="45.15937" lon="4.91742">
        <ele>56.8</ele>
        <time>2022-01-29T11:07:38Z</time>
      </trkpt>
      <trkpt lat="45.15955" lon="4.91743">
        <ele>56.2</ele>
        <time>2022-01-29T11:07:42Z</time>
      </trkpt>
      <trkpt lat="45.15973" lon="4.91744">
        <ele>55.2</ele>
        <time>2022-01-29T11:07:46Z</time>
      </trkpt>
      <trkpt lat="45.15991" lon="4.91745">
        <ele>54.4</ele>
        <time>2022-01-29T11:07:50Z</time>
      </trkpt>
      <trkpt lat="45.16009" lon="4.91746">
        <ele>52.4</ele>
        <time>2022-01-29T11:07:54Z</time>
      </trkpt>
      <trkpt lat="45.16026" lon="4.91747">
        <ele>52</ele>
        <time>2022-01-29T11:07:58Z</time>
      </trkpt>
      <trkpt lat="45.16044" lon="4.91748">
        <ele>52</ele>
        <time>2022-01-29T11:08:02Z</time>
      </trkpt>
      <trkpt lat="45.16061" lon="4.91748">
        <ele>51.8</ele>
        <time>2022-01-29T11:08:06Z</time>
      </trkpt>
      <trkpt lat="45.16079" lon="4.9175">
        <ele>51.2</ele>
        <time>2022-01-29T11:08:10Z</time>
      </trkpt>
      <trkpt lat="45.16098" lon="4.91751">
        <ele>50</ele>
        <time>2022-01-29T11:08:14Z</time>
      </trkpt>
      <trkpt lat="45.16116" lon="4.91752">
        <ele>50</ele>
        <time>2022-01-29T11:08:18Z</time>
      </trkpt>
      <trkpt lat="45.16134" lon="4.91754">
        <ele>50</ele>
        <time>2022-01-29T11:08:22Z</time>
      </trkpt>
      <trkpt lat="45.16151" lon="4.91755">
        <ele>50.6</ele>
        <time>2022-01-29T11:08:26Z</time>
      </trkpt>
      <trkpt lat="45.16169" lon="4.91758">
        <ele>49.8</ele>
        <time>2022-01-29T11:08:30Z</time>
      </trkpt>
      <trkpt lat="45.16186" lon="4.9176">
        <ele>50.8</ele>
        <time>2022-01-29T11:08:34Z</time>
      </trkpt>
      <trkpt lat="45.16204" lon="4.91763">
        <ele>49.8</ele>
        <time>2022-01-29T11:08:38Z</time>
      </trkpt>
      <trkpt lat="45.16221" lon="4.91766">
        <ele>49.6</ele>
        <time>2022-01-29T11:08:42Z</time>
      </trkpt>
      <trkpt lat="45.16238" lon="4.91768">
        <ele>49.2</ele>
        <time>2022-01-29T11:08:46Z</time>
      </trkpt>
      <trkpt lat="45.16255" lon="4.9177">
        <ele>49.4</ele>
        <time>2022-01-29T11:08:50Z</time>
      </trkpt>
      <trkpt lat="45.16273" lon="4.91771">
        <ele>49</ele>
        <time>2022-01-29T11:08:54Z</time>
      </trkpt>
      <trkpt lat="45.16291" lon="4.91768">
        <ele>47.4</ele>
        <time>2022-01-29T11:08:58Z</time>
      </trkpt>
      <trkpt lat="45.16311" lon="4.91763">
        <ele>46.2</ele>
        <time>2022-01-29T11:09:02Z</time>
      </trkpt>
      <trkpt lat="45.16331" lon="4.91758">
        <ele>45.4</ele>
        <time>2022-01-29T11:09:06Z</time>
      </trkpt>
      <trkpt lat="45.16351" lon="4.91752">
        <ele>45.4</ele>
        <time>2022-01-29T11:09:10Z</time>
      </trkpt>
      <trkpt lat="45.16371" lon="4.91746">
        <ele>44.6</ele>
        <time>2022-01-29T11:09:14Z</time>
      </trkpt>
      <trkpt lat="45.16391" lon="4.9174">
        <ele>45</ele>
        <time>2022-01-29T11:09:18Z</time>
      </trkpt>
      <trkpt lat="45.16409" lon="4.91735">
        <ele>44.4</ele>
        <time>2022-01-29T11:09:22Z</time>
      </trkpt>
      <trkpt lat="45.16427" lon="4.9173">
        <ele>44</ele>
        <time>2022-01-29T11:09:26Z</time>
      </trkpt>
      <trkpt lat="45.16443" lon="4.91725">
        <ele>44</ele>
        <time>2022-01-29T11:09:30Z</time>
      </trkpt>
      <trkpt lat="45.16458" lon="4.91721">
        <ele>43.4</ele>
        <time>2022-01-29T11:09:34Z</time>
      </trkpt>
      <trkpt lat="45.16472" lon="4.91716">
        <ele>44</ele>
        <time>2022-01-29T11:09:38Z</time>
      </trkpt>
      <trkpt lat="45.16486" lon="4.91712">
        <ele>43.4</ele>
        <time>2022-01-29T11:09:42Z</time>
      </trkpt>
      <trkpt lat="45.165" lon="4.91708">
        <ele>43.2</ele>
        <time>2022-01-29T11:09:46Z</time>
      </trkpt>
      <trkpt lat="45.16515" lon="4.91703">
        <ele>44</ele>
        <time>2022-01-29T11:09:50Z</time>
      </trkpt>
      <trkpt lat="45.1653" lon="4.91699">
        <ele>43.8</ele>
        <time>2022-01-29T11:09:54Z</time>
      </trkpt>
      <trkpt lat="45.16545" lon="4.91695">
        <ele>44.4</ele>
        <time>2022-01-29T11:09:58Z</time>
      </trkpt>
      <trkpt lat="45.1656" lon="4.91691">
        <ele>44</ele>
        <time>2022-01-29T11:10:02Z</time>
      </trkpt>
      <trkpt lat="45.16576" lon="4.91689">
        <ele>43.6</ele>
        <time>2022-01-29T11:10:06Z</time>
      </trkpt>
      <trkpt lat="45.16591" lon="4.91687">
        <ele>43.4</ele>
        <time>2022-01-29T11:10:10Z</time>
      </trkpt>
      <trkpt lat="45.16607" lon="4.91684">
        <ele>43.6</ele>
        <time>2022-01-29T11:10:14Z</time>
      </trkpt>
      <trkpt lat="45.16622" lon="4.91683">
        <ele>43.4</ele>
        <time>2022-01-29T11:10:18Z</time>
      </trkpt>
      <trkpt lat="45.16636" lon="4.91681">
        <ele>42.8</ele>
        <time>2022-01-29T11:10:22Z</time>
      </trkpt>
      <trkpt lat="45.16651" lon="4.91679">
        <ele>42.2</ele>
        <time>2022-01-29T11:10:26Z</time>
      </trkpt>
      <trkpt lat="45.16667" lon="4.91677">
        <ele>42</ele>
        <time>2022-01-29T11:10:30Z</time>
      </trkpt>
      <trkpt lat="45.16682" lon="4.91675">
        <ele>42</ele>
        <time>2022-01-29T11:10:34Z</time>
      </trkpt>
      <trkpt lat="45.16697" lon="4.91673">
        <ele>42.4</ele>
        <time>2022-01-29T11:10:38Z</time>
      </trkpt>
      <trkpt lat="45.16713" lon="4.91671">
        <ele>42.2</ele>
        <time>2022-01-29T11:10:42Z</time>
      </trkpt>
      <trkpt lat="45.16728" lon="4.91669">
        <ele>42.4</ele>
        <time>2022-01-29T11:10:46Z</time>
      </trkpt>
      <trkpt lat="45.16743" lon="4.91666">
        <ele>42</ele>
        <time>2022-01-29T11:10:50Z</time>
      </trkpt>
      <trkpt lat="45.16758" lon="4.91664">
        <ele>42</ele>
        <time>2022-01-29T11:10:54Z</time>
      </trkpt>
      <trkpt lat="45.16774" lon="4.91662">
        <ele>41.8</ele>
        <time>2022-01-29T11:10:58Z</time>
      </trkpt>
      <trkpt lat="45.16789" lon="4.9166">
        <ele>41.4</ele>
        <time>2022-01-29T11:11:02Z</time>
      </trkpt>
      <trkpt lat="45.16804" lon="4.91658">
        <ele>41.2</ele>
        <time>2022-01-29T11:11:06Z</time>
      </trkpt>
      <trkpt lat="45.16819" lon="4.91656">
        <ele>41.4</ele>
        <time>2022-01-29T11:11:10Z</time>
      </trkpt>
      <trkpt lat="45.16834" lon="4.91654">
        <ele>41.6</ele>
        <time>2022-01-29T11:11:14Z</time>
      </trkpt>
      <trkpt lat="45.16849" lon="4.91653">
        <ele>41.4</ele>
        <time>2022-01-29T11:11:18Z</time>
      </trkpt>
      <trkpt lat="45.16865" lon="4.91651">
        <ele>41.8</ele>
        <time>2022-01-29T11:11:22Z</time>
      </trkpt>
      <trkpt lat="45.16882" lon="4.91649">
        <ele>41.2</ele>
        <time>2022-01-29T11:11:26Z</time>
      </trkpt>
      <trkpt lat="45.16898" lon="4.91646">
        <ele>40.4</ele>
        <time>2022-01-29T11:11:30Z</time>
      </trkpt>
      <trkpt lat="45.16917" lon="4.91643">
        <ele>39.2</ele>
        <time>2022-01-29T11:11:34Z</time>
      </trkpt>
      <trkpt lat="45.16937" lon="4.91639">
        <ele>37.2</ele>
        <time>2022-01-29T11:11:38Z</time>
      </trkpt>
      <trkpt lat="45.16958" lon="4.91636">
        <ele>36</ele>
        <time>2022-01-29T11:11:42Z</time>
      </trkpt>
      <trkpt lat="45.16979" lon="4.91633">
        <ele>34.6</ele>
        <time>2022-01-29T11:11:46Z</time>
      </trkpt>
      <trkpt lat="45.17001" lon="4.91629">
        <ele>33.6</ele>
        <time>2022-01-29T11:11:50Z</time>
      </trkpt>
      <trkpt lat="45.17023" lon="4.91626">
        <ele>32.2</ele>
        <time>2022-01-29T11:11:54Z</time>
      </trkpt>
      <trkpt lat="45.17044" lon="4.91625">
        <ele>31.2</ele>
        <time>2022-01-29T11:11:58Z</time>
      </trkpt>
      <trkpt lat="45.17064" lon="4.91625">
        <ele>30.6</ele>
        <time>2022-01-29T11:12:02Z</time>
      </trkpt>
      <trkpt lat="45.17082" lon="4.91626">
        <ele>29.8</ele>
        <time>2022-01-29T11:12:06Z</time>
      </trkpt>
      <trkpt lat="45.17098" lon="4.91629">
        <ele>30.2</ele>
        <time>2022-01-29T11:12:10Z</time>
      </trkpt>
      <trkpt lat="45.17114" lon="4.91634">
        <ele>30.8</ele>
        <time>2022-01-29T11:12:14Z</time>
      </trkpt>
      <trkpt lat="45.17129" lon="4.91641">
        <ele>30.4</ele>
        <time>2022-01-29T11:12:18Z</time>
      </trkpt>
      <trkpt lat="45.17142" lon="4.91649">
        <ele>30</ele>
        <time>2022-01-29T11:12:22Z</time>
      </trkpt>
      <trkpt lat="45.17155" lon="4.91659">
        <ele>30</ele>
        <time>2022-01-29T11:12:26Z</time>
      </trkpt>
      <trkpt lat="45.17167" lon="4.9167">
        <ele>30.2</ele>
        <time>2022-01-29T11:12:30Z</time>
      </trkpt>
      <trkpt lat="45.17178" lon="4.91683">
        <ele>30.2</ele>
        <time>2022-01-29T11:12:34Z</time>
      </trkpt>
      <trkpt lat="45.17188" lon="4.91696">
        <ele>30.6</ele>
        <time>2022-01-29T11:12:38Z</time>
      </trkpt>
      <trkpt lat="45.17197" lon="4.9171">
        <ele>31</ele>
        <time>2022-01-29T11:12:42Z</time>
      </trkpt>
      <trkpt lat="45.17205" lon="4.91724">
        <ele>32</ele>
        <time>2022-01-29T11:12:46Z</time>
      </trkpt>
      <trkpt lat="45.17212" lon="4.91738">
        <ele>32.6</ele>
        <time>2022-01-29T11:12:50Z</time>
      </trkpt>
      <trkpt lat="45.17217" lon="4.91753">
        <ele>33</ele>
        <time>2022-01-29T11:12:54Z</time>
      </trkpt>
      <trkpt lat="45.17222" lon="4.91768">
        <ele>33</ele>
        <time>2022-01-29T11:12:58Z</time>
      </trkpt>
      <trkpt lat="45.17226" lon="4.91784">
        <ele>33.6</ele>
        <time>2022-01-29T11:13:02Z</time>
      </trkpt>
      <trkpt lat="45.17231" lon="4.91799">
        <ele>34</ele>
        <time>2022-01-29T11:13:06Z</time>
      </trkpt>
      <trkpt lat="45.17235" lon="4.91815">
        <ele>34.6</ele>
        <time>2022-01-29T11:13:10Z</time>
      </trkpt>
      <trkpt lat="45.17238" lon="4.91832">
        <ele>35.2</ele>
        <time>2022-01-29T11:13:14Z</time>
      </trkpt>
      <trkpt lat="45.17243" lon="4.91848">
        <ele>35.2</ele>
        <time>2022-01-29T11:13:18Z</time>
      </trkpt>
      <trkpt lat="45.17248" lon="4.91863">
        <ele>35.2</ele>
        <time>2022-01-29T11:13:22Z</time>
      </trkpt>
      <trkpt lat="45.17253" lon="4.91884">
        <ele>35.6</ele>
        <time>2022-01-29T11:13:26Z</time>
      </trkpt>
      <trkpt lat="45.17258" lon="4.91906">
        <ele>35.4</ele>
        <time>2022-01-29T11:13:30Z</time>
      </trkpt>
      <trkpt lat="45.17264" lon="4.91928">
        <ele>35</ele>
        <time>2022-01-29T11:13:34Z</time>
      </trkpt>
      <trkpt lat="45.17271" lon="4.91949">
        <ele>35.2</ele>
        <time>2022-01-29T11:13:38Z</time>
      </trkpt>
      <trkpt lat="45.17278" lon="4.91972">
        <ele>34.4</ele>
        <time>2022-01-29T11:13:42Z</time>
      </trkpt>
      <trkpt lat="45.17287" lon="4.91993">
        <ele>34.2</ele>
        <time>2022-01-29T11:13:46Z</time>
      </trkpt>
      <trkpt lat="45.17297" lon="4.92013">
        <ele>34</ele>
        <time>2022-01-29T11:13:50Z</time>
      </trkpt>
      <trkpt lat="45.17309" lon="4.92034">
        <ele>33.4</ele>
        <time>2022-01-29T11:13:54Z</time>
      </trkpt>
      <trkpt lat="45.1732" lon="4.92054">
        <ele>33.2</ele>
        <time>2022-01-29T11:13:58Z</time>
      </trkpt>
      <trkpt lat="45.17331" lon="4.92074">
        <ele>33.4</ele>
        <time>2022-01-29T11:14:02Z</time>
      </trkpt>
      <trkpt lat="45.17342" lon="4.92094">
        <ele>33.4</ele>
        <time>2022-01-29T11:14:06Z</time>
      </trkpt>
      <trkpt lat="45.17353" lon="4.92114">
        <ele>32.8</ele>
        <time>2022-01-29T11:14:10Z</time>
      </trkpt>
      <trkpt lat="45.17364" lon="4.92135">
        <ele>32.6</ele>
        <time>2022-01-29T11:14:14Z</time>
      </trkpt>
      <trkpt lat="45.17375" lon="4.92155">
        <ele>32.4</ele>
        <time>2022-01-29T11:14:18Z</time>
      </trkpt>
      <trkpt lat="45.17385" lon="4.92175">
        <ele>32</ele>
        <time>2022-01-29T11:14:22Z</time>
      </trkpt>
      <trkpt lat="45.17395" lon="4.92196">
        <ele>31.6</ele>
        <time>2022-01-29T11:14:26Z</time>
      </trkpt>
      <trkpt lat="45.17406" lon="4.92216">
        <ele>31</ele>
        <time>2022-01-29T11:14:30Z</time>
      </trkpt>
      <trkpt lat="45.17416" lon="4.92236">
        <ele>30.8</ele>
        <time>2022-01-29T11:14:34Z</time>
      </trkpt>
      <trkpt lat="45.17426" lon="4.92256">
        <ele>31</ele>
        <time>2022-01-29T11:14:38Z</time>
      </trkpt>
      <trkpt lat="45.17436" lon="4.92275">
        <ele>30.8</ele>
        <time>2022-01-29T11:14:42Z</time>
      </trkpt>
      <trkpt lat="45.17446" lon="4.92294">
        <ele>29.6</ele>
        <time>2022-01-29T11:14:46Z</time>
      </trkpt>
      <trkpt lat="45.17456" lon="4.92313">
        <ele>29.4</ele>
        <time>2022-01-29T11:14:50Z</time>
      </trkpt>
      <trkpt lat="45.17467" lon="4.92334">
        <ele>29</ele>
        <time>2022-01-29T11:14:54Z</time>
      </trkpt>
      <trkpt lat="45.17479" lon="4.92356">
        <ele>28</ele>
        <time>2022-01-29T11:14:58Z</time>
      </trkpt>
      <trkpt lat="45.17492" lon="4.92377">
        <ele>27.4</ele>
        <time>2022-01-29T11:15:02Z</time>
      </trkpt>
      <trkpt lat="45.17508" lon="4.92399">
        <ele>26.8</ele>
        <time>2022-01-29T11:15:06Z</time>
      </trkpt>
      <trkpt lat="45.17524" lon="4.92421">
        <ele>26.8</ele>
        <time>2022-01-29T11:15:10Z</time>
      </trkpt>
      <trkpt lat="45.17539" lon="4.92441">
        <ele>26.2</ele>
        <time>2022-01-29T11:15:14Z</time>
      </trkpt>
      <trkpt lat="45.17553" lon="4.9246">
        <ele>25.8</ele>
        <time>2022-01-29T11:15:18Z</time>
      </trkpt>
      <trkpt lat="45.17566" lon="4.92478">
        <ele>25</ele>
        <time>2022-01-29T11:15:22Z</time>
      </trkpt>
      <trkpt lat="45.17579" lon="4.92495">
        <ele>25.6</ele>
        <time>2022-01-29T11:15:26Z</time>
      </trkpt>
      <trkpt lat="45.17592" lon="4.92513">
        <ele>24.4</ele>
        <time>2022-01-29T11:15:30Z</time>
      </trkpt>
      <trkpt lat="45.17604" lon="4.92529">
        <ele>24.8</ele>
        <time>2022-01-29T11:15:34Z</time>
      </trkpt>
      <trkpt lat="45.17616" lon="4.92545">
        <ele>24.6</ele>
        <time>2022-01-29T11:15:38Z</time>
      </trkpt>
      <trkpt lat="45.17628" lon="4.92561">
        <ele>24.8</ele>
        <time>2022-01-29T11:15:42Z</time>
      </trkpt>
      <trkpt lat="45.1764" lon="4.92577">
        <ele>24.6</ele>
        <time>2022-01-29T11:15:46Z</time>
      </trkpt>
      <trkpt lat="45.17652" lon="4.92591">
        <ele>25</ele>
        <time>2022-01-29T11:15:50Z</time>
      </trkpt>
      <trkpt lat="45.17665" lon="4.92604">
        <ele>24.8</ele>
        <time>2022-01-29T11:15:54Z</time>
      </trkpt>
      <trkpt lat="45.17677" lon="4.92616">
        <ele>25.4</ele>
        <time>2022-01-29T11:15:58Z</time>
      </trkpt>
      <trkpt lat="45.17689" lon="4.92626">
        <ele>25.6</ele>
        <time>2022-01-29T11:16:02Z</time>
      </trkpt>
      <trkpt lat="45.177" lon="4.92636">
        <ele>26</ele>
        <time>2022-01-29T11:16:06Z</time>
      </trkpt>
      <trkpt lat="45.17708" lon="4.92644">
        <ele>26.8</ele>
        <time>2022-01-29T11:16:10Z</time>
      </trkpt>
      <trkpt lat="45.1772" lon="4.9265">
        <ele>27</ele>
        <time>2022-01-29T11:16:14Z</time>
      </trkpt>
      <trkpt lat="45.17728" lon="4.92655">
        <ele>27.8</ele>
        <time>2022-01-29T11:16:18Z</time>
      </trkpt>
      <trkpt lat="45.17739" lon="4.92661">
        <ele>28</ele>
        <time>2022-01-29T11:16:22Z</time>
      </trkpt>
      <trkpt lat="45.17749" lon="4.92668">
        <ele>28</ele>
        <time>2022-01-29T11:16:26Z</time>
      </trkpt>
      <trkpt lat="45.17759" lon="4.92675">
        <ele>28.4</ele>
        <time>2022-01-29T11:16:30Z</time>
      </trkpt>
      <trkpt lat="45.17771" lon="4.92687">
        <ele>28.2</ele>
        <time>2022-01-29T11:16:34Z</time>
      </trkpt>
      <trkpt lat="45.17782" lon="4.92699">
        <ele>28</ele>
        <time>2022-01-29T11:16:38Z</time>
      </trkpt>
      <trkpt lat="45.17794" lon="4.92714">
        <ele>28</ele>
        <time>2022-01-29T11:16:42Z</time>
      </trkpt>
      <trkpt lat="45.17805" lon="4.92731">
        <ele>28</ele>
        <time>2022-01-29T11:16:46Z</time>
      </trkpt>
      <trkpt lat="45.17814" lon="4.92749">
        <ele>27.8</ele>
        <time>2022-01-29T11:16:50Z</time>
      </trkpt>
      <trkpt lat="45.17822" lon="4.92768">
        <ele>27.6</ele>
        <time>2022-01-29T11:16:54Z</time>
      </trkpt>
      <trkpt lat="45.17831" lon="4.92789">
        <ele>27.8</ele>
        <time>2022-01-29T11:16:58Z</time>
      </trkpt>
      <trkpt lat="45.17838" lon="4.92811">
        <ele>26.8</ele>
        <time>2022-01-29T11:17:02Z</time>
      </trkpt>
      <trkpt lat="45.17844" lon="4.92833">
        <ele>26.6</ele>
        <time>2022-01-29T11:17:06Z</time>
      </trkpt>
      <trkpt lat="45.17851" lon="4.92854">
        <ele>26.6</ele>
        <time>2022-01-29T11:17:10Z</time>
      </trkpt>
      <trkpt lat="45.17857" lon="4.92875">
        <ele>26.8</ele>
        <time>2022-01-29T11:17:14Z</time>
      </trkpt>
      <trkpt lat="45.17861" lon="4.92898">
        <ele>26</ele>
        <time>2022-01-29T11:17:18Z</time>
      </trkpt>
      <trkpt lat="45.17863" lon="4.9292">
        <ele>25.8</ele>
        <time>2022-01-29T11:17:22Z</time>
      </trkpt>
      <trkpt lat="45.17866" lon="4.92943">
        <ele>25.6</ele>
        <time>2022-01-29T11:17:26Z</time>
      </trkpt>
      <trkpt lat="45.17869" lon="4.92967">
        <ele>24.8</ele>
        <time>2022-01-29T11:17:30Z</time>
      </trkpt>
      <trkpt lat="45.17875" lon="4.92989">
        <ele>25</ele>
        <time>2022-01-29T11:17:34Z</time>
      </trkpt>
      <trkpt lat="45.17884" lon="4.93005">
        <ele>25</ele>
        <time>2022-01-29T11:17:38Z</time>
      </trkpt>
      <trkpt lat="45.17897" lon="4.93015">
        <ele>24.8</ele>
        <time>2022-01-29T11:17:42Z</time>
      </trkpt>
      <trkpt lat="45.17908" lon="4.93025">
        <ele>24.6</ele>
        <time>2022-01-29T11:17:46Z</time>
      </trkpt>
      <trkpt lat="45.17917" lon="4.93036">
        <ele>24.2</ele>
        <time>2022-01-29T11:17:50Z</time>
      </trkpt>
      <trkpt lat="45.17928" lon="4.9304">
        <ele>24.4</ele>
        <time>2022-01-29T11:17:54Z</time>
      </trkpt>
      <trkpt lat="45.17941" lon="4.93041">
        <ele>24.4</ele>
        <time>2022-01-29T11:17:58Z</time>
      </trkpt>
      <trkpt lat="45.17954" lon="4.9304">
        <ele>23.8</ele>
        <time>2022-01-29T11:18:02Z</time>
      </trkpt>
      <trkpt lat="45.17968" lon="4.93042">
        <ele>24</ele>
        <time>2022-01-29T11:18:06Z</time>
      </trkpt>
      <trkpt lat="45.17981" lon="4.93042">
        <ele>23.6</ele>
        <time>2022-01-29T11:18:10Z</time>
      </trkpt>
      <trkpt lat="45.17973" lon="4.93039">
        <ele>27</ele>
        <time>2022-01-29T11:48:37Z</time>
      </trkpt>
      <trkpt lat="45.17961" lon="4.93038">
        <ele>27</ele>
        <time>2022-01-29T11:48:41Z</time>
      </trkpt>
      <trkpt lat="45.1795" lon="4.93037">
        <ele>27.4</ele>
        <time>2022-01-29T11:48:45Z</time>
      </trkpt>
      <trkpt lat="45.17939" lon="4.93039">
        <ele>27.6</ele>
        <time>2022-01-29T11:48:49Z</time>
      </trkpt>
      <trkpt lat="45.17928" lon="4.93041">
        <ele>27.6</ele>
        <time>2022-01-29T11:48:53Z</time>
      </trkpt>
      <trkpt lat="45.1792" lon="4.93031">
        <ele>27.4</ele>
        <time>2022-01-29T11:48:57Z</time>
      </trkpt>
      <trkpt lat="45.1791" lon="4.93018">
        <ele>27.6</ele>
        <time>2022-01-29T11:49:01Z</time>
      </trkpt>
      <trkpt lat="45.17898" lon="4.9301">
        <ele>28.2</ele>
        <time>2022-01-29T11:49:05Z</time>
      </trkpt>
      <trkpt lat="45.1789" lon="4.92998">
        <ele>28.6</ele>
        <time>2022-01-29T11:49:09Z</time>
      </trkpt>
      <trkpt lat="45.17885" lon="4.92982">
        <ele>29</ele>
        <time>2022-01-29T11:49:13Z</time>
      </trkpt>
      <trkpt lat="45.17881" lon="4.92964">
        <ele>29</ele>
        <time>2022-01-29T11:49:17Z</time>
      </trkpt>
      <trkpt lat="45.17877" lon="4.92945">
        <ele>29</ele>
        <time>2022-01-29T11:49:21Z</time>
      </trkpt>
      <trkpt lat="45.17873" lon="4.92925">
        <ele>29</ele>
        <time>2022-01-29T11:49:25Z</time>
      </trkpt>
      <trkpt lat="45.17869" lon="4.92906">
        <ele>29.2</ele>
        <time>2022-01-29T11:49:29Z</time>
      </trkpt>
      <trkpt lat="45.17865" lon="4.92886">
        <ele>29.4</ele>
        <time>2022-01-29T11:49:33Z</time>
      </trkpt>
      <trkpt lat="45.1786" lon="4.92867">
        <ele>29.6</ele>
        <time>2022-01-29T11:49:37Z</time>
      </trkpt>
      <trkpt lat="45.17855" lon="4.92847">
        <ele>30.4</ele>
        <time>2022-01-29T11:49:41Z</time>
      </trkpt>
      <trkpt lat="45.1785" lon="4.92828">
        <ele>29.8</ele>
        <time>2022-01-29T11:49:45Z</time>
      </trkpt>
      <trkpt lat="45.17844" lon="4.9281">
        <ele>30</ele>
        <time>2022-01-29T11:49:49Z</time>
      </trkpt>
      <trkpt lat="45.17838" lon="4.92791">
        <ele>29.8</ele>
        <time>2022-01-29T11:49:53Z</time>
      </trkpt>
      <trkpt lat="45.17833" lon="4.92774">
        <ele>30.8</ele>
        <time>2022-01-29T11:49:57Z</time>
      </trkpt>
      <trkpt lat="45.17827" lon="4.92756">
        <ele>31.4</ele>
        <time>2022-01-29T11:50:01Z</time>
      </trkpt>
      <trkpt lat="45.1782" lon="4.92738">
        <ele>31.4</ele>
        <time>2022-01-29T11:50:05Z</time>
      </trkpt>
      <trkpt lat="45.1781" lon="4.92722">
        <ele>31.2</ele>
        <time>2022-01-29T11:50:09Z</time>
      </trkpt>
      <trkpt lat="45.17801" lon="4.92705">
        <ele>31.8</ele>
        <time>2022-01-29T11:50:13Z</time>
      </trkpt>
      <trkpt lat="45.17791" lon="4.92692">
        <ele>32</ele>
        <time>2022-01-29T11:50:17Z</time>
      </trkpt>
      <trkpt lat="45.17779" lon="4.92679">
        <ele>31.4</ele>
        <time>2022-01-29T11:50:21Z</time>
      </trkpt>
      <trkpt lat="45.17766" lon="4.9267">
        <ele>32.2</ele>
        <time>2022-01-29T11:50:25Z</time>
      </trkpt>
      <trkpt lat="45.17752" lon="4.92662">
        <ele>32.2</ele>
        <time>2022-01-29T11:50:29Z</time>
      </trkpt>
      <trkpt lat="45.17738" lon="4.92654">
        <ele>31.8</ele>
        <time>2022-01-29T11:50:33Z</time>
      </trkpt>
      <trkpt lat="45.17722" lon="4.92645">
        <ele>31.2</ele>
        <time>2022-01-29T11:50:37Z</time>
      </trkpt>
      <trkpt lat="45.17704" lon="4.92644">
        <ele>31</ele>
        <time>2022-01-29T11:50:41Z</time>
      </trkpt>
      <trkpt lat="45.17692" lon="4.92659">
        <ele>32</ele>
        <time>2022-01-29T11:50:45Z</time>
      </trkpt>
      <trkpt lat="45.17685" lon="4.92674">
        <ele>32.2</ele>
        <time>2022-01-29T11:50:49Z</time>
      </trkpt>
      <trkpt lat="45.17679" lon="4.92687">
        <ele>32.4</ele>
        <time>2022-01-29T11:50:53Z</time>
      </trkpt>
      <trkpt lat="45.17669" lon="4.92698">
        <ele>33</ele>
        <time>2022-01-29T11:50:57Z</time>
      </trkpt>
      <trkpt lat="45.17657" lon="4.92708">
        <ele>33</ele>
        <time>2022-01-29T11:51:01Z</time>
      </trkpt>
      <trkpt lat="45.17643" lon="4.92719">
        <ele>32.4</ele>
        <time>2022-01-29T11:51:05Z</time>
      </trkpt>
      <trkpt lat="45.1763" lon="4.9273">
        <ele>32.4</ele>
        <time>2022-01-29T11:51:09Z</time>
      </trkpt>
      <trkpt lat="45.17617" lon="4.92739">
        <ele>32</ele>
        <time>2022-01-29T11:51:13Z</time>
      </trkpt>
      <trkpt lat="45.17604" lon="4.92749">
        <ele>31.8</ele>
        <time>2022-01-29T11:51:17Z</time>
      </trkpt>
      <trkpt lat="45.17591" lon="4.92757">
        <ele>32</ele>
        <time>2022-01-29T11:51:21Z</time>
      </trkpt>
      <trkpt lat="45.1758" lon="4.92767">
        <ele>32.2</ele>
        <time>2022-01-29T11:51:25Z</time>
      </trkpt>
      <trkpt lat="45.17566" lon="4.92779">
        <ele>32</ele>
        <time>2022-01-29T11:52:08Z</time>
      </trkpt>
      <trkpt lat="45.17555" lon="4.92789">
        <ele>32</ele>
        <time>2022-01-29T11:52:12Z</time>
      </trkpt>
      <trkpt lat="45.17543" lon="4.92798">
        <ele>32</ele>
        <time>2022-01-29T11:52:16Z</time>
      </trkpt>
      <trkpt lat="45.1753" lon="4.92807">
        <ele>32</ele>
        <time>2022-01-29T11:52:20Z</time>
      </trkpt>
      <trkpt lat="45.17518" lon="4.92815">
        <ele>31.6</ele>
        <time>2022-01-29T11:52:24Z</time>
      </trkpt>
      <trkpt lat="45.17505" lon="4.92826">
        <ele>31.6</ele>
        <time>2022-01-29T11:52:28Z</time>
      </trkpt>
      <trkpt lat="45.17492" lon="4.92835">
        <ele>32</ele>
        <time>2022-01-29T11:52:32Z</time>
      </trkpt>
      <trkpt lat="45.1748" lon="4.92845">
        <ele>32.4</ele>
        <time>2022-01-29T11:52:36Z</time>
      </trkpt>
      <trkpt lat="45.17467" lon="4.92855">
        <ele>32.8</ele>
        <time>2022-01-29T11:52:40Z</time>
      </trkpt>
      <trkpt lat="45.17455" lon="4.92866">
        <ele>32</ele>
        <time>2022-01-29T11:52:44Z</time>
      </trkpt>
      <trkpt lat="45.17442" lon="4.92876">
        <ele>32.6</ele>
        <time>2022-01-29T11:52:48Z</time>
      </trkpt>
      <trkpt lat="45.1743" lon="4.92886">
        <ele>32.4</ele>
        <time>2022-01-29T11:52:52Z</time>
      </trkpt>
      <trkpt lat="45.17418" lon="4.92897">
        <ele>32.8</ele>
        <time>2022-01-29T11:52:56Z</time>
      </trkpt>
      <trkpt lat="45.17405" lon="4.92907">
        <ele>32.6</ele>
        <time>2022-01-29T11:53:00Z</time>
      </trkpt>
      <trkpt lat="45.17393" lon="4.92917">
        <ele>33</ele>
        <time>2022-01-29T11:53:04Z</time>
      </trkpt>
      <trkpt lat="45.1738" lon="4.92928">
        <ele>33</ele>
        <time>2022-01-29T11:53:08Z</time>
      </trkpt>
      <trkpt lat="45.17366" lon="4.92936">
        <ele>33.2</ele>
        <time>2022-01-29T11:53:12Z</time>
      </trkpt>
      <trkpt lat="45.1735" lon="4.92944">
        <ele>33.4</ele>
        <time>2022-01-29T11:53:16Z</time>
      </trkpt>
      <trkpt lat="45.17335" lon="4.92949">
        <ele>33.4</ele>
        <time>2022-01-29T11:53:20Z</time>
      </trkpt>
      <trkpt lat="45.1732" lon="4.92954">
        <ele>33.8</ele>
        <time>2022-01-29T11:53:24Z</time>
      </trkpt>
      <trkpt lat="45.17305" lon="4.92958">
        <ele>33.8</ele>
        <time>2022-01-29T11:53:28Z</time>
      </trkpt>
      <trkpt lat="45.1729" lon="4.92962">
        <ele>34.4</ele>
        <time>2022-01-29T11:53:32Z</time>
      </trkpt>
      <trkpt lat="45.17274" lon="4.92967">
        <ele>34.4</ele>
        <time>2022-01-29T11:53:36Z</time>
      </trkpt>
      <trkpt lat="45.17258" lon="4.92971">
        <ele>35.2</ele>
        <time>2022-01-29T11:53:40Z</time>
      </trkpt>
      <trkpt lat="45.17243" lon="4.92976">
        <ele>35.6</ele>
        <time>2022-01-29T11:53:44Z</time>
      </trkpt>
      <trkpt lat="45.17228" lon="4.92981">
        <ele>35.8</ele>
        <time>2022-01-29T11:53:48Z</time>
      </trkpt>
      <trkpt lat="45.17213" lon="4.92985">
        <ele>36.2</ele>
        <time>2022-01-29T11:53:52Z</time>
      </trkpt>
      <trkpt lat="45.17197" lon="4.92989">
        <ele>37.2</ele>
        <time>2022-01-29T11:53:56Z</time>
      </trkpt>
      <trkpt lat="45.17183" lon="4.92993">
        <ele>37</ele>
        <time>2022-01-29T11:54:00Z</time>
      </trkpt>
      <trkpt lat="45.17168" lon="4.92997">
        <ele>37.2</ele>
        <time>2022-01-29T11:54:04Z</time>
      </trkpt>
      <trkpt lat="45.17153" lon="4.93002">
        <ele>37.4</ele>
        <time>2022-01-29T11:54:08Z</time>
      </trkpt>
      <trkpt lat="45.17139" lon="4.93006">
        <ele>37.8</ele>
        <time>2022-01-29T11:54:12Z</time>
      </trkpt>
      <trkpt lat="45.17124" lon="4.93011">
        <ele>38</ele>
        <time>2022-01-29T11:54:16Z</time>
      </trkpt>
      <trkpt lat="45.17109" lon="4.93015">
        <ele>38.4</ele>
        <time>2022-01-29T11:54:20Z</time>
      </trkpt>
      <trkpt lat="45.17093" lon="4.93019">
        <ele>38.8</ele>
        <time>2022-01-29T11:54:24Z</time>
      </trkpt>
      <trkpt lat="45.17078" lon="4.93023">
        <ele>39.2</ele>
        <time>2022-01-29T11:54:28Z</time>
      </trkpt>
      <trkpt lat="45.17063" lon="4.93028">
        <ele>39.6</ele>
        <time>2022-01-29T11:54:32Z</time>
      </trkpt>
      <trkpt lat="45.17048" lon="4.93032">
        <ele>39.4</ele>
        <time>2022-01-29T11:54:36Z</time>
      </trkpt>
      <trkpt lat="45.17033" lon="4.93037">
        <ele>40.4</ele>
        <time>2022-01-29T11:54:40Z</time>
      </trkpt>
      <trkpt lat="45.17019" lon="4.93041">
        <ele>40.8</ele>
        <time>2022-01-29T11:54:44Z</time>
      </trkpt>
      <trkpt lat="45.17004" lon="4.93044">
        <ele>40.8</ele>
        <time>2022-01-29T11:54:48Z</time>
      </trkpt>
      <trkpt lat="45.16989" lon="4.93047">
        <ele>41.6</ele>
        <time>2022-01-29T11:54:52Z</time>
      </trkpt>
      <trkpt lat="45.16975" lon="4.9305">
        <ele>41.6</ele>
        <time>2022-01-29T11:54:56Z</time>
      </trkpt>
      <trkpt lat="45.1696" lon="4.93051">
        <ele>41.8</ele>
        <time>2022-01-29T11:55:00Z</time>
      </trkpt>
      <trkpt lat="45.16945" lon="4.93053">
        <ele>42.4</ele>
        <time>2022-01-29T11:55:04Z</time>
      </trkpt>
      <trkpt lat="45.16932" lon="4.93055">
        <ele>43</ele>
        <time>2022-01-29T11:55:08Z</time>
      </trkpt>
      <trkpt lat="45.16918" lon="4.93057">
        <ele>43.8</ele>
        <time>2022-01-29T11:55:12Z</time>
      </trkpt>
      <trkpt lat="45.16904" lon="4.93059">
        <ele>44</ele>
        <time>2022-01-29T11:55:16Z</time>
      </trkpt>
      <trkpt lat="45.1689" lon="4.93061">
        <ele>44.4</ele>
        <time>2022-01-29T11:55:20Z</time>
      </trkpt>
      <trkpt lat="45.16876" lon="4.93063">
        <ele>45.4</ele>
        <time>2022-01-29T11:55:24Z</time>
      </trkpt>
      <trkpt lat="45.16863" lon="4.93065">
        <ele>46.4</ele>
        <time>2022-01-29T11:55:28Z</time>
      </trkpt>
      <trkpt lat="45.16849" lon="4.93067">
        <ele>46.4</ele>
        <time>2022-01-29T11:55:32Z</time>
      </trkpt>
      <trkpt lat="45.16836" lon="4.93068">
        <ele>47</ele>
        <time>2022-01-29T11:55:36Z</time>
      </trkpt>
      <trkpt lat="45.16822" lon="4.93071">
        <ele>47.6</ele>
        <time>2022-01-29T11:55:40Z</time>
      </trkpt>
      <trkpt lat="45.1681" lon="4.93073">
        <ele>48.2</ele>
        <time>2022-01-29T11:55:44Z</time>
      </trkpt>
      <trkpt lat="45.16801" lon="4.93072">
        <ele>48.4</ele>
        <time>2022-01-29T11:55:48Z</time>
      </trkpt>
      <trkpt lat="45.16792" lon="4.93073">
        <ele>49</ele>
        <time>2022-01-29T11:55:52Z</time>
      </trkpt>
      <trkpt lat="45.16779" lon="4.93075">
        <ele>49.4</ele>
        <time>2022-01-29T11:55:56Z</time>
      </trkpt>
      <trkpt lat="45.16765" lon="4.93077">
        <ele>49.8</ele>
        <time>2022-01-29T11:56:00Z</time>
      </trkpt>
      <trkpt lat="45.16751" lon="4.93079">
        <ele>50.4</ele>
        <time>2022-01-29T11:56:04Z</time>
      </trkpt>
      <trkpt lat="45.16737" lon="4.9308">
        <ele>50.8</ele>
        <time>2022-01-29T11:56:08Z</time>
      </trkpt>
      <trkpt lat="45.16723" lon="4.93082">
        <ele>50.6</ele>
        <time>2022-01-29T11:56:12Z</time>
      </trkpt>
      <trkpt lat="45.16709" lon="4.93084">
        <ele>51.4</ele>
        <time>2022-01-29T11:56:16Z</time>
      </trkpt>
      <trkpt lat="45.16694" lon="4.93086">
        <ele>52</ele>
        <time>2022-01-29T11:56:20Z</time>
      </trkpt>
      <trkpt lat="45.16682" lon="4.93088">
        <ele>53</ele>
        <time>2022-01-29T11:56:24Z</time>
      </trkpt>
      <trkpt lat="45.1667" lon="4.9309">
        <ele>53.2</ele>
        <time>2022-01-29T11:56:28Z</time>
      </trkpt>
      <trkpt lat="45.16658" lon="4.93093">
        <ele>54</ele>
        <time>2022-01-29T11:56:32Z</time>
      </trkpt>
      <trkpt lat="45.16647" lon="4.93097">
        <ele>54.6</ele>
        <time>2022-01-29T11:56:36Z</time>
      </trkpt>
      <trkpt lat="45.16636" lon="4.93102">
        <ele>55.2</ele>
        <time>2022-01-29T11:56:40Z</time>
      </trkpt>
      <trkpt lat="45.16625" lon="4.93107">
        <ele>56.6</ele>
        <time>2022-01-29T11:56:44Z</time>
      </trkpt>
      <trkpt lat="45.16614" lon="4.93112">
        <ele>57</ele>
        <time>2022-01-29T11:56:48Z</time>
      </trkpt>
      <trkpt lat="45.16603" lon="4.93117">
        <ele>57.6</ele>
        <time>2022-01-29T11:56:52Z</time>
      </trkpt>
      <trkpt lat="45.16591" lon="4.93122">
        <ele>57.6</ele>
        <time>2022-01-29T11:56:56Z</time>
      </trkpt>
      <trkpt lat="45.16579" lon="4.93126">
        <ele>58.8</ele>
        <time>2022-01-29T11:57:00Z</time>
      </trkpt>
      <trkpt lat="45.16567" lon="4.93128">
        <ele>59.2</ele>
        <time>2022-01-29T11:57:04Z</time>
      </trkpt>
      <trkpt lat="45.16554" lon="4.93129">
        <ele>59.6</ele>
        <time>2022-01-29T11:57:08Z</time>
      </trkpt>
      <trkpt lat="45.1654" lon="4.93128">
        <ele>60</ele>
        <time>2022-01-29T11:57:12Z</time>
      </trkpt>
      <trkpt lat="45.16527" lon="4.93127">
        <ele>60.6</ele>
        <time>2022-01-29T11:57:16Z</time>
      </trkpt>
      <trkpt lat="45.16513" lon="4.93125">
        <ele>61</ele>
        <time>2022-01-29T11:57:20Z</time>
      </trkpt>
      <trkpt lat="45.165" lon="4.93124">
        <ele>61.2</ele>
        <time>2022-01-29T11:57:24Z</time>
      </trkpt>
      <trkpt lat="45.16487" lon="4.93123">
        <ele>61.4</ele>
        <time>2022-01-29T11:57:28Z</time>
      </trkpt>
      <trkpt lat="45.16474" lon="4.93122">
        <ele>62.2</ele>
        <time>2022-01-29T11:57:32Z</time>
      </trkpt>
      <trkpt lat="45.16461" lon="4.93121">
        <ele>62.8</ele>
        <time>2022-01-29T11:57:36Z</time>
      </trkpt>
      <trkpt lat="45.16448" lon="4.9312">
        <ele>63</ele>
        <time>2022-01-29T11:57:40Z</time>
      </trkpt>
      <trkpt lat="45.16435" lon="4.93121">
        <ele>63.8</ele>
        <time>2022-01-29T11:57:44Z</time>
      </trkpt>
      <trkpt lat="45.16419" lon="4.93124">
        <ele>63.4</ele>
        <time>2022-01-29T11:57:48Z</time>
      </trkpt>
      <trkpt lat="45.16403" lon="4.9313">
        <ele>63</ele>
        <time>2022-01-29T11:57:52Z</time>
      </trkpt>
      <trkpt lat="45.16386" lon="4.93138">
        <ele>63</ele>
        <time>2022-01-29T11:57:56Z</time>
      </trkpt>
      <trkpt lat="45.16368" lon="4.93146">
        <ele>62.8</ele>
        <time>2022-01-29T11:58:00Z</time>
      </trkpt>
      <trkpt lat="45.1635" lon="4.93155">
        <ele>62.2</ele>
        <time>2022-01-29T11:58:04Z</time>
      </trkpt>
      <trkpt lat="45.16331" lon="4.93164">
        <ele>61.6</ele>
        <time>2022-01-29T11:58:08Z</time>
      </trkpt>
      <trkpt lat="45.16311" lon="4.93174">
        <ele>61.4</ele>
        <time>2022-01-29T11:58:12Z</time>
      </trkpt>
      <trkpt lat="45.16293" lon="4.93182">
        <ele>61.4</ele>
        <time>2022-01-29T11:58:16Z</time>
      </trkpt>
      <trkpt lat="45.16275" lon="4.93186">
        <ele>61.6</ele>
        <time>2022-01-29T11:58:20Z</time>
      </trkpt>
      <trkpt lat="45.16256" lon="4.93187">
        <ele>61.8</ele>
        <time>2022-01-29T11:58:24Z</time>
      </trkpt>
      <trkpt lat="45.16238" lon="4.93188">
        <ele>62.4</ele>
        <time>2022-01-29T11:58:28Z</time>
      </trkpt>
      <trkpt lat="45.1622" lon="4.93189">
        <ele>62.6</ele>
        <time>2022-01-29T11:58:32Z</time>
      </trkpt>
      <trkpt lat="45.16203" lon="4.93189">
        <ele>62.6</ele>
        <time>2022-01-29T11:58:36Z</time>
      </trkpt>
      <trkpt lat="45.16187" lon="4.93189">
        <ele>63.6</ele>
        <time>2022-01-29T11:58:40Z</time>
      </trkpt>
      <trkpt lat="45.16174" lon="4.93189">
        <ele>64</ele>
        <time>2022-01-29T11:58:44Z</time>
      </trkpt>
      <trkpt lat="45.16159" lon="4.93188">
        <ele>64</ele>
        <time>2022-01-29T11:58:48Z</time>
      </trkpt>
      <trkpt lat="45.16142" lon="4.9319">
        <ele>65</ele>
        <time>2022-01-29T11:58:52Z</time>
      </trkpt>
      <trkpt lat="45.16125" lon="4.93191">
        <ele>64.6</ele>
        <time>2022-01-29T11:58:56Z</time>
      </trkpt>
      <trkpt lat="45.16105" lon="4.93195">
        <ele>64.6</ele>
        <time>2022-01-29T11:59:00Z</time>
      </trkpt>
      <trkpt lat="45.16084" lon="4.932">
        <ele>64</ele>
        <time>2022-01-29T11:59:04Z</time>
      </trkpt>
      <trkpt lat="45.16062" lon="4.93204">
        <ele>63.6</ele>
        <time>2022-01-29T11:59:08Z</time>
      </trkpt>
      <trkpt lat="45.16039" lon="4.93207">
        <ele>63.2</ele>
        <time>2022-01-29T11:59:12Z</time>
      </trkpt>
      <trkpt lat="45.16018" lon="4.93209">
        <ele>62.6</ele>
        <time>2022-01-29T11:59:16Z</time>
      </trkpt>
      <trkpt lat="45.15998" lon="4.93207">
        <ele>62.6</ele>
        <time>2022-01-29T11:59:20Z</time>
      </trkpt>
      <trkpt lat="45.15978" lon="4.93207">
        <ele>62.6</ele>
        <time>2022-01-29T11:59:24Z</time>
      </trkpt>
      <trkpt lat="45.15959" lon="4.93205">
        <ele>62.8</ele>
        <time>2022-01-29T11:59:28Z</time>
      </trkpt>
      <trkpt lat="45.15941" lon="4.93203">
        <ele>63.2</ele>
        <time>2022-01-29T11:59:32Z</time>
      </trkpt>
      <trkpt lat="45.15923" lon="4.932">
        <ele>63.2</ele>
        <time>2022-01-29T11:59:36Z</time>
      </trkpt>
      <trkpt lat="45.15905" lon="4.93199">
        <ele>63.6</ele>
        <time>2022-01-29T11:59:40Z</time>
      </trkpt>
      <trkpt lat="45.15887" lon="4.93197">
        <ele>63.8</ele>
        <time>2022-01-29T11:59:44Z</time>
      </trkpt>
      <trkpt lat="45.15869" lon="4.93195">
        <ele>64</ele>
        <time>2022-01-29T11:59:48Z</time>
      </trkpt>
      <trkpt lat="45.15852" lon="4.93194">
        <ele>64.2</ele>
        <time>2022-01-29T11:59:52Z</time>
      </trkpt>
      <trkpt lat="45.15834" lon="4.93194">
        <ele>64.8</ele>
        <time>2022-01-29T11:59:56Z</time>
      </trkpt>
      <trkpt lat="45.15817" lon="4.93192">
        <ele>65.2</ele>
        <time>2022-01-29T12:00:00Z</time>
      </trkpt>
      <trkpt lat="45.158" lon="4.93191">
        <ele>65.2</ele>
        <time>2022-01-29T12:00:04Z</time>
      </trkpt>
      <trkpt lat="45.15785" lon="4.93189">
        <ele>66</ele>
        <time>2022-01-29T12:00:08Z</time>
      </trkpt>
      <trkpt lat="45.15769" lon="4.93188">
        <ele>66.2</ele>
        <time>2022-01-29T12:00:12Z</time>
      </trkpt>
      <trkpt lat="45.15754" lon="4.93187">
        <ele>67.2</ele>
        <time>2022-01-29T12:00:16Z</time>
      </trkpt>
      <trkpt lat="45.15739" lon="4.93185">
        <ele>67.2</ele>
        <time>2022-01-29T12:00:20Z</time>
      </trkpt>
      <trkpt lat="45.15724" lon="4.93184">
        <ele>67.2</ele>
        <time>2022-01-29T12:00:24Z</time>
      </trkpt>
      <trkpt lat="45.15709" lon="4.93181">
        <ele>67.8</ele>
        <time>2022-01-29T12:00:28Z</time>
      </trkpt>
      <trkpt lat="45.15695" lon="4.93177">
        <ele>68.4</ele>
        <time>2022-01-29T12:00:32Z</time>
      </trkpt>
      <trkpt lat="45.15681" lon="4.93171">
        <ele>68.8</ele>
        <time>2022-01-29T12:00:36Z</time>
      </trkpt>
      <trkpt lat="45.15669" lon="4.93165">
        <ele>70.2</ele>
        <time>2022-01-29T12:00:40Z</time>
      </trkpt>
      <trkpt lat="45.15657" lon="4.93159">
        <ele>70.2</ele>
        <time>2022-01-29T12:00:44Z</time>
      </trkpt>
      <trkpt lat="45.15644" lon="4.93152">
        <ele>71</ele>
        <time>2022-01-29T12:00:48Z</time>
      </trkpt>
      <trkpt lat="45.15632" lon="4.93146">
        <ele>71.6</ele>
        <time>2022-01-29T12:00:52Z</time>
      </trkpt>
      <trkpt lat="45.1562" lon="4.9314">
        <ele>72.6</ele>
        <time>2022-01-29T12:00:56Z</time>
      </trkpt>
      <trkpt lat="45.15608" lon="4.93133">
        <ele>72.8</ele>
        <time>2022-01-29T12:01:00Z</time>
      </trkpt>
      <trkpt lat="45.15596" lon="4.93126">
        <ele>73.8</ele>
        <time>2022-01-29T12:01:04Z</time>
      </trkpt>
      <trkpt lat="45.15584" lon="4.9312">
        <ele>74.4</ele>
        <time>2022-01-29T12:01:08Z</time>
      </trkpt>
      <trkpt lat="45.15573" lon="4.93113">
        <ele>75.2</ele>
        <time>2022-01-29T12:01:12Z</time>
      </trkpt>
      <trkpt lat="45.15561" lon="4.93107">
        <ele>75.8</ele>
        <time>2022-01-29T12:01:16Z</time>
      </trkpt>
      <trkpt lat="45.15549" lon="4.93101">
        <ele>76.2</ele>
        <time>2022-01-29T12:01:20Z</time>
      </trkpt>
      <trkpt lat="45.15537" lon="4.93094">
        <ele>77.2</ele>
        <time>2022-01-29T12:01:24Z</time>
      </trkpt>
      <trkpt lat="45.15526" lon="4.93088">
        <ele>77.8</ele>
        <time>2022-01-29T12:01:28Z</time>
      </trkpt>
      <trkpt lat="45.15515" lon="4.93082">
        <ele>79.2</ele>
        <time>2022-01-29T12:01:32Z</time>
      </trkpt>
      <trkpt lat="45.15503" lon="4.93075">
        <ele>79.6</ele>
        <time>2022-01-29T12:01:36Z</time>
      </trkpt>
      <trkpt lat="45.15492" lon="4.93067">
        <ele>80.8</ele>
        <time>2022-01-29T12:01:40Z</time>
      </trkpt>
      <trkpt lat="45.1548" lon="4.9306">
        <ele>80.6</ele>
        <time>2022-01-29T12:01:44Z</time>
      </trkpt>
      <trkpt lat="45.15469" lon="4.93052">
        <ele>81.8</ele>
        <time>2022-01-29T12:01:48Z</time>
      </trkpt>
      <trkpt lat="45.15457" lon="4.93046">
        <ele>82.2</ele>
        <time>2022-01-29T12:01:52Z</time>
      </trkpt>
      <trkpt lat="45.15446" lon="4.9304">
        <ele>82.6</ele>
        <time>2022-01-29T12:01:56Z</time>
      </trkpt>
      <trkpt lat="45.15431" lon="4.93034">
        <ele>81.8</ele>
        <time>2022-01-29T12:02:00Z</time>
      </trkpt>
      <trkpt lat="45.15414" lon="4.9303">
        <ele>81.8</ele>
        <time>2022-01-29T12:02:04Z</time>
      </trkpt>
      <trkpt lat="45.15395" lon="4.93025">
        <ele>80.8</ele>
        <time>2022-01-29T12:02:08Z</time>
      </trkpt>
      <trkpt lat="45.15373" lon="4.93018">
        <ele>79.4</ele>
        <time>2022-01-29T12:02:12Z</time>
      </trkpt>
      <trkpt lat="45.15356" lon="4.9301">
        <ele>79.2</ele>
        <time>2022-01-29T12:02:16Z</time>
      </trkpt>
      <trkpt lat="45.15344" lon="4.93004">
        <ele>78.4</ele>
        <time>2022-01-29T12:02:20Z</time>
      </trkpt>
      <trkpt lat="45.15327" lon="4.92996">
        <ele>77.8</ele>
        <time>2022-01-29T12:02:24Z</time>
      </trkpt>
      <trkpt lat="45.15307" lon="4.92988">
        <ele>77.4</ele>
        <time>2022-01-29T12:02:28Z</time>
      </trkpt>
      <trkpt lat="45.15285" lon="4.92977">
        <ele>76.2</ele>
        <time>2022-01-29T12:02:32Z</time>
      </trkpt>
      <trkpt lat="45.15259" lon="4.92964">
        <ele>75.2</ele>
        <time>2022-01-29T12:02:36Z</time>
      </trkpt>
      <trkpt lat="45.1523" lon="4.92949">
        <ele>73.6</ele>
        <time>2022-01-29T12:02:40Z</time>
      </trkpt>
      <trkpt lat="45.15199" lon="4.92933">
        <ele>72.4</ele>
        <time>2022-01-29T12:02:44Z</time>
      </trkpt>
      <trkpt lat="45.15168" lon="4.92916">
        <ele>71.6</ele>
        <time>2022-01-29T12:02:48Z</time>
      </trkpt>
      <trkpt lat="45.15137" lon="4.92902">
        <ele>70.6</ele>
        <time>2022-01-29T12:02:52Z</time>
      </trkpt>
      <trkpt lat="45.15106" lon="4.92886">
        <ele>70.6</ele>
        <time>2022-01-29T12:02:56Z</time>
      </trkpt>
      <trkpt lat="45.15074" lon="4.92869">
        <ele>68.2</ele>
        <time>2022-01-29T12:03:00Z</time>
      </trkpt>
      <trkpt lat="45.1504" lon="4.9285">
        <ele>67.2</ele>
        <time>2022-01-29T12:03:04Z</time>
      </trkpt>
      <trkpt lat="45.15007" lon="4.92831">
        <ele>64.8</ele>
        <time>2022-01-29T12:03:08Z</time>
      </trkpt>
      <trkpt lat="45.14976" lon="4.92814">
        <ele>64.4</ele>
        <time>2022-01-29T12:03:12Z</time>
      </trkpt>
      <trkpt lat="45.14949" lon="4.92798">
        <ele>62</ele>
        <time>2022-01-29T12:03:16Z</time>
      </trkpt>
      <trkpt lat="45.14923" lon="4.92784">
        <ele>63.4</ele>
        <time>2022-01-29T12:03:20Z</time>
      </trkpt>
      <trkpt lat="45.14896" lon="4.9277">
        <ele>63.6</ele>
        <time>2022-01-29T12:03:24Z</time>
      </trkpt>
      <trkpt lat="45.14872" lon="4.92755">
        <ele>63.6</ele>
        <time>2022-01-29T12:03:28Z</time>
      </trkpt>
      <trkpt lat="45.14848" lon="4.9274">
        <ele>62.4</ele>
        <time>2022-01-29T12:03:32Z</time>
      </trkpt>
      <trkpt lat="45.14826" lon="4.92725">
        <ele>62.8</ele>
        <time>2022-01-29T12:03:36Z</time>
      </trkpt>
      <trkpt lat="45.14804" lon="4.92706">
        <ele>62.2</ele>
        <time>2022-01-29T12:03:40Z</time>
      </trkpt>
      <trkpt lat="45.14785" lon="4.92687">
        <ele>62.2</ele>
        <time>2022-01-29T12:03:44Z</time>
      </trkpt>
      <trkpt lat="45.14775" lon="4.92678">
        <ele>60.6</ele>
        <time>2022-01-29T12:03:48Z</time>
      </trkpt>
      <trkpt lat="45.14771" lon="4.92672">
        <ele>60</ele>
        <time>2022-01-29T12:03:52Z</time>
      </trkpt>
      <trkpt lat="45.14761" lon="4.92664">
        <ele>60</ele>
        <time>2022-01-29T12:03:56Z</time>
      </trkpt>
      <trkpt lat="45.14748" lon="4.9265">
        <ele>59.4</ele>
        <time>2022-01-29T12:04:00Z</time>
      </trkpt>
      <trkpt lat="45.14733" lon="4.92632">
        <ele>58.8</ele>
        <time>2022-01-29T12:04:04Z</time>
      </trkpt>
      <trkpt lat="45.14717" lon="4.92614">
        <ele>58.6</ele>
        <time>2022-01-29T12:04:08Z</time>
      </trkpt>
      <trkpt lat="45.147" lon="4.92595">
        <ele>57</ele>
        <time>2022-01-29T12:04:12Z</time>
      </trkpt>
      <trkpt lat="45.14682" lon="4.92581">
        <ele>57.8</ele>
        <time>2022-01-29T12:04:16Z</time>
      </trkpt>
      <trkpt lat="45.14662" lon="4.92569">
        <ele>57</ele>
        <time>2022-01-29T12:04:20Z</time>
      </trkpt>
      <trkpt lat="45.14642" lon="4.92559">
        <ele>56.2</ele>
        <time>2022-01-29T12:04:24Z</time>
      </trkpt>
      <trkpt lat="45.14623" lon="4.92549">
        <ele>57</ele>
        <time>2022-01-29T12:04:28Z</time>
      </trkpt>
      <trkpt lat="45.14605" lon="4.9254">
        <ele>55.6</ele>
        <time>2022-01-29T12:04:32Z</time>
      </trkpt>
      <trkpt lat="45.14587" lon="4.92535">
        <ele>55.6</ele>
        <time>2022-01-29T12:04:36Z</time>
      </trkpt>
      <trkpt lat="45.14568" lon="4.92535">
        <ele>56</ele>
        <time>2022-01-29T12:04:40Z</time>
      </trkpt>
      <trkpt lat="45.14549" lon="4.92537">
        <ele>56.6</ele>
        <time>2022-01-29T12:04:44Z</time>
      </trkpt>
      <trkpt lat="45.14531" lon="4.92538">
        <ele>56.6</ele>
        <time>2022-01-29T12:04:48Z</time>
      </trkpt>
      <trkpt lat="45.14512" lon="4.92542">
        <ele>56.2</ele>
        <time>2022-01-29T12:04:52Z</time>
      </trkpt>
      <trkpt lat="45.14493" lon="4.92547">
        <ele>56.6</ele>
        <time>2022-01-29T12:04:56Z</time>
      </trkpt>
      <trkpt lat="45.14473" lon="4.92553">
        <ele>56.8</ele>
        <time>2022-01-29T12:05:00Z</time>
      </trkpt>
      <trkpt lat="45.14454" lon="4.92558">
        <ele>56.2</ele>
        <time>2022-01-29T12:05:04Z</time>
      </trkpt>
      <trkpt lat="45.14434" lon="4.92563">
        <ele>56</ele>
        <time>2022-01-29T12:05:08Z</time>
      </trkpt>
      <trkpt lat="45.14413" lon="4.92568">
        <ele>56.6</ele>
        <time>2022-01-29T12:05:12Z</time>
      </trkpt>
      <trkpt lat="45.14394" lon="4.92573">
        <ele>56.8</ele>
        <time>2022-01-29T12:05:16Z</time>
      </trkpt>
      <trkpt lat="45.14374" lon="4.92577">
        <ele>56</ele>
        <time>2022-01-29T12:05:20Z</time>
      </trkpt>
      <trkpt lat="45.14354" lon="4.92582">
        <ele>56.6</ele>
        <time>2022-01-29T12:05:24Z</time>
      </trkpt>
      <trkpt lat="45.14334" lon="4.92588">
        <ele>56.4</ele>
        <time>2022-01-29T12:05:28Z</time>
      </trkpt>
      <trkpt lat="45.14313" lon="4.92593">
        <ele>55.8</ele>
        <time>2022-01-29T12:05:32Z</time>
      </trkpt>
      <trkpt lat="45.14294" lon="4.92597">
        <ele>55.8</ele>
        <time>2022-01-29T12:05:36Z</time>
      </trkpt>
      <trkpt lat="45.14275" lon="4.926">
        <ele>56</ele>
        <time>2022-01-29T12:05:40Z</time>
      </trkpt>
      <trkpt lat="45.14256" lon="4.92606">
        <ele>56.6</ele>
        <time>2022-01-29T12:05:44Z</time>
      </trkpt>
      <trkpt lat="45.14239" lon="4.92613">
        <ele>56.6</ele>
        <time>2022-01-29T12:05:48Z</time>
      </trkpt>
      <trkpt lat="45.14223" lon="4.92625">
        <ele>56.6</ele>
        <time>2022-01-29T12:05:52Z</time>
      </trkpt>
      <trkpt lat="45.14208" lon="4.92634">
        <ele>56.8</ele>
        <time>2022-01-29T12:05:56Z</time>
      </trkpt>
      <trkpt lat="45.14198" lon="4.92627">
        <ele>56.6</ele>
        <time>2022-01-29T12:06:00Z</time>
      </trkpt>
      <trkpt lat="45.142" lon="4.92606">
        <ele>56</ele>
        <time>2022-01-29T12:06:04Z</time>
      </trkpt>
      <trkpt lat="45.14206" lon="4.92585">
        <ele>57.8</ele>
        <time>2022-01-29T12:06:08Z</time>
      </trkpt>
      <trkpt lat="45.14211" lon="4.92561">
        <ele>57.4</ele>
        <time>2022-01-29T12:06:12Z</time>
      </trkpt>
      <trkpt lat="45.14217" lon="4.92535">
        <ele>54.4</ele>
        <time>2022-01-29T12:06:16Z</time>
      </trkpt>
      <trkpt lat="45.14222" lon="4.92508">
        <ele>54.2</ele>
        <time>2022-01-29T12:06:20Z</time>
      </trkpt>
      <trkpt lat="45.14227" lon="4.92482">
        <ele>52.2</ele>
        <time>2022-01-29T12:06:24Z</time>
      </trkpt>
      <trkpt lat="45.14232" lon="4.92455">
        <ele>52.6</ele>
        <time>2022-01-29T12:06:28Z</time>
      </trkpt>
      <trkpt lat="45.14238" lon="4.92429">
        <ele>52.4</ele>
        <time>2022-01-29T12:06:32Z</time>
      </trkpt>
      <trkpt lat="45.14241" lon="4.92404">
        <ele>52.6</ele>
        <time>2022-01-29T12:06:36Z</time>
      </trkpt>
      <trkpt lat="45.1423" lon="4.92386">
        <ele>53.4</ele>
        <time>2022-01-29T12:06:40Z</time>
      </trkpt>
      <trkpt lat="45.14212" lon="4.92376">
        <ele>53.2</ele>
        <time>2022-01-29T12:06:44Z</time>
      </trkpt>
      <trkpt lat="45.14194" lon="4.92365">
        <ele>52.4</ele>
        <time>2022-01-29T12:06:48Z</time>
      </trkpt>
      <trkpt lat="45.14176" lon="4.92354">
        <ele>52.2</ele>
        <time>2022-01-29T12:06:52Z</time>
      </trkpt>
      <trkpt lat="45.14159" lon="4.92343">
        <ele>52.4</ele>
        <time>2022-01-29T12:06:56Z</time>
      </trkpt>
      <trkpt lat="45.14141" lon="4.92332">
        <ele>52</ele>
        <time>2022-01-29T12:07:00Z</time>
      </trkpt>
      <trkpt lat="45.14121" lon="4.92323">
        <ele>52.6</ele>
        <time>2022-01-29T12:07:04Z</time>
      </trkpt>
      <trkpt lat="45.141" lon="4.92314">
        <ele>52</ele>
        <time>2022-01-29T12:07:08Z</time>
      </trkpt>
      <trkpt lat="45.14076" lon="4.92306">
        <ele>50.6</ele>
        <time>2022-01-29T12:07:12Z</time>
      </trkpt>
      <trkpt lat="45.14051" lon="4.92296">
        <ele>50</ele>
        <time>2022-01-29T12:07:16Z</time>
      </trkpt>
      <trkpt lat="45.14027" lon="4.92288">
        <ele>50.2</ele>
        <time>2022-01-29T12:07:20Z</time>
      </trkpt>
      <trkpt lat="45.14005" lon="4.9228">
        <ele>49.6</ele>
        <time>2022-01-29T12:07:24Z</time>
      </trkpt>
      <trkpt lat="45.13982" lon="4.92272">
        <ele>49.4</ele>
        <time>2022-01-29T12:07:28Z</time>
      </trkpt>
      <trkpt lat="45.13959" lon="4.92264">
        <ele>49.2</ele>
        <time>2022-01-29T12:07:32Z</time>
      </trkpt>
      <trkpt lat="45.13936" lon="4.92253">
        <ele>48.8</ele>
        <time>2022-01-29T12:07:36Z</time>
      </trkpt>
      <trkpt lat="45.13915" lon="4.9224">
        <ele>48.4</ele>
        <time>2022-01-29T12:07:40Z</time>
      </trkpt>
      <trkpt lat="45.13895" lon="4.92228">
        <ele>49</ele>
        <time>2022-01-29T12:07:44Z</time>
      </trkpt>
      <trkpt lat="45.13875" lon="4.92217">
        <ele>49</ele>
        <time>2022-01-29T12:07:48Z</time>
      </trkpt>
      <trkpt lat="45.13855" lon="4.92208">
        <ele>50.6</ele>
        <time>2022-01-29T12:07:52Z</time>
      </trkpt>
      <trkpt lat="45.13837" lon="4.92203">
        <ele>50.6</ele>
        <time>2022-01-29T12:07:56Z</time>
      </trkpt>
      <trkpt lat="45.13819" lon="4.92199">
        <ele>51.2</ele>
        <time>2022-01-29T12:08:00Z</time>
      </trkpt>
      <trkpt lat="45.13802" lon="4.92195">
        <ele>52</ele>
        <time>2022-01-29T12:08:04Z</time>
      </trkpt>
      <trkpt lat="45.13784" lon="4.92191">
        <ele>52.4</ele>
        <time>2022-01-29T12:08:08Z</time>
      </trkpt>
      <trkpt lat="45.13767" lon="4.92187">
        <ele>53.2</ele>
        <time>2022-01-29T12:08:12Z</time>
      </trkpt>
      <trkpt lat="45.1375" lon="4.92183">
        <ele>54.2</ele>
        <time>2022-01-29T12:08:16Z</time>
      </trkpt>
      <trkpt lat="45.13731" lon="4.92179">
        <ele>53.4</ele>
        <time>2022-01-29T12:08:20Z</time>
      </trkpt>
      <trkpt lat="45.1371" lon="4.92178">
        <ele>52.6</ele>
        <time>2022-01-29T12:08:24Z</time>
      </trkpt>
      <trkpt lat="45.13686" lon="4.9218">
        <ele>52.4</ele>
        <time>2022-01-29T12:08:28Z</time>
      </trkpt>
      <trkpt lat="45.13664" lon="4.92188">
        <ele>52.4</ele>
        <time>2022-01-29T12:08:32Z</time>
      </trkpt>
      <trkpt lat="45.13643" lon="4.92196">
        <ele>52.4</ele>
        <time>2022-01-29T12:08:36Z</time>
      </trkpt>
      <trkpt lat="45.13622" lon="4.92206">
        <ele>52.6</ele>
        <time>2022-01-29T12:08:40Z</time>
      </trkpt>
      <trkpt lat="45.13601" lon="4.92216">
        <ele>52.4</ele>
        <time>2022-01-29T12:08:44Z</time>
      </trkpt>
      <trkpt lat="45.1358" lon="4.92225">
        <ele>53</ele>
        <time>2022-01-29T12:08:48Z</time>
      </trkpt>
      <trkpt lat="45.1356" lon="4.92232">
        <ele>52.4</ele>
        <time>2022-01-29T12:08:52Z</time>
      </trkpt>
      <trkpt lat="45.13538" lon="4.92238">
        <ele>51.4</ele>
        <time>2022-01-29T12:08:56Z</time>
      </trkpt>
      <trkpt lat="45.13511" lon="4.9224">
        <ele>50.6</ele>
        <time>2022-01-29T12:09:00Z</time>
      </trkpt>
      <trkpt lat="45.13481" lon="4.9224">
        <ele>49.6</ele>
        <time>2022-01-29T12:09:04Z</time>
      </trkpt>
      <trkpt lat="45.13451" lon="4.92239">
        <ele>48.4</ele>
        <time>2022-01-29T12:09:08Z</time>
      </trkpt>
      <trkpt lat="45.13421" lon="4.92236">
        <ele>46.4</ele>
        <time>2022-01-29T12:09:12Z</time>
      </trkpt>
      <trkpt lat="45.13389" lon="4.92227">
        <ele>45.4</ele>
        <time>2022-01-29T12:09:16Z</time>
      </trkpt>
      <trkpt lat="45.13361" lon="4.92219">
        <ele>45</ele>
        <time>2022-01-29T12:09:20Z</time>
      </trkpt>
      <trkpt lat="45.13347" lon="4.92212">
        <ele>44.4</ele>
        <time>2022-01-29T12:09:24Z</time>
      </trkpt>
      <trkpt lat="45.1334" lon="4.92206">
        <ele>44.4</ele>
        <time>2022-01-29T12:09:28Z</time>
      </trkpt>
      <trkpt lat="45.13333" lon="4.92199">
        <ele>44</ele>
        <time>2022-01-29T12:09:32Z</time>
      </trkpt>
      <trkpt lat="45.13324" lon="4.92189">
        <ele>43.4</ele>
        <time>2022-01-29T12:09:36Z</time>
      </trkpt>
      <trkpt lat="45.13312" lon="4.9218">
        <ele>43</ele>
        <time>2022-01-29T12:09:40Z</time>
      </trkpt>
      <trkpt lat="45.13299" lon="4.92186">
        <ele>43.8</ele>
        <time>2022-01-29T12:09:44Z</time>
      </trkpt>
      <trkpt lat="45.13287" lon="4.92203">
        <ele>43.6</ele>
        <time>2022-01-29T12:09:48Z</time>
      </trkpt>
      <trkpt lat="45.13275" lon="4.9222">
        <ele>43.6</ele>
        <time>2022-01-29T12:09:52Z</time>
      </trkpt>
      <trkpt lat="45.13263" lon="4.92235">
        <ele>43.4</ele>
        <time>2022-01-29T12:09:56Z</time>
      </trkpt>
      <trkpt lat="45.13246" lon="4.92239">
        <ele>43.8</ele>
        <time>2022-01-29T12:10:00Z</time>
      </trkpt>
      <trkpt lat="45.13226" lon="4.92239">
        <ele>42.6</ele>
        <time>2022-01-29T12:10:04Z</time>
      </trkpt>
      <trkpt lat="45.13206" lon="4.9224">
        <ele>42.4</ele>
        <time>2022-01-29T12:10:08Z</time>
      </trkpt>
      <trkpt lat="45.13185" lon="4.9224">
        <ele>42</ele>
        <time>2022-01-29T12:10:12Z</time>
      </trkpt>
      <trkpt lat="45.13162" lon="4.92242">
        <ele>42</ele>
        <time>2022-01-29T12:10:16Z</time>
      </trkpt>
      <trkpt lat="45.13141" lon="4.92245">
        <ele>41.6</ele>
        <time>2022-01-29T12:10:20Z</time>
      </trkpt>
      <trkpt lat="45.1312" lon="4.92248">
        <ele>41.4</ele>
        <time>2022-01-29T12:10:24Z</time>
      </trkpt>
      <trkpt lat="45.13099" lon="4.92251">
        <ele>41.2</ele>
        <time>2022-01-29T12:10:28Z</time>
      </trkpt>
      <trkpt lat="45.13077" lon="4.92256">
        <ele>41.4</ele>
        <time>2022-01-29T12:10:32Z</time>
      </trkpt>
      <trkpt lat="45.13056" lon="4.9226">
        <ele>41.6</ele>
        <time>2022-01-29T12:10:36Z</time>
      </trkpt>
      <trkpt lat="45.13035" lon="4.92266">
        <ele>41.4</ele>
        <time>2022-01-29T12:10:40Z</time>
      </trkpt>
      <trkpt lat="45.13014" lon="4.92275">
        <ele>40</ele>
        <time>2022-01-29T12:10:44Z</time>
      </trkpt>
      <trkpt lat="45.12992" lon="4.92288">
        <ele>39.4</ele>
        <time>2022-01-29T12:10:48Z</time>
      </trkpt>
      <trkpt lat="45.12971" lon="4.92304">
        <ele>38.8</ele>
        <time>2022-01-29T12:10:52Z</time>
      </trkpt>
      <trkpt lat="45.12951" lon="4.92322">
        <ele>38.6</ele>
        <time>2022-01-29T12:10:56Z</time>
      </trkpt>
      <trkpt lat="45.1293" lon="4.92342">
        <ele>37.8</ele>
        <time>2022-01-29T12:11:00Z</time>
      </trkpt>
      <trkpt lat="45.12909" lon="4.92362">
        <ele>37.2</ele>
        <time>2022-01-29T12:11:04Z</time>
      </trkpt>
      <trkpt lat="45.12886" lon="4.92383">
        <ele>36.8</ele>
        <time>2022-01-29T12:11:08Z</time>
      </trkpt>
      <trkpt lat="45.12865" lon="4.92404">
        <ele>36.8</ele>
        <time>2022-01-29T12:11:12Z</time>
      </trkpt>
      <trkpt lat="45.12844" lon="4.92423">
        <ele>36.4</ele>
        <time>2022-01-29T12:11:16Z</time>
      </trkpt>
      <trkpt lat="45.12824" lon="4.92443">
        <ele>35.6</ele>
        <time>2022-01-29T12:11:20Z</time>
      </trkpt>
      <trkpt lat="45.12805" lon="4.92462">
        <ele>36</ele>
        <time>2022-01-29T12:11:24Z</time>
      </trkpt>
      <trkpt lat="45.12786" lon="4.9248">
        <ele>35.6</ele>
        <time>2022-01-29T12:11:28Z</time>
      </trkpt>
      <trkpt lat="45.12769" lon="4.92497">
        <ele>36</ele>
        <time>2022-01-29T12:11:32Z</time>
      </trkpt>
      <trkpt lat="45.12753" lon="4.92513">
        <ele>36</ele>
        <time>2022-01-29T12:11:36Z</time>
      </trkpt>
      <trkpt lat="45.12739" lon="4.92528">
        <ele>37</ele>
        <time>2022-01-29T12:11:40Z</time>
      </trkpt>
      <trkpt lat="45.12727" lon="4.92545">
        <ele>37.8</ele>
        <time>2022-01-29T12:11:44Z</time>
      </trkpt>
      <trkpt lat="45.12725" lon="4.92566">
        <ele>38.4</ele>
        <time>2022-01-29T12:11:48Z</time>
      </trkpt>
      <trkpt lat="45.1272" lon="4.92574">
        <ele>37</ele>
        <time>2022-01-29T12:11:52Z</time>
      </trkpt>
      <trkpt lat="45.12708" lon="4.92576">
        <ele>37.6</ele>
        <time>2022-01-29T12:11:56Z</time>
      </trkpt>
      <trkpt lat="45.12694" lon="4.92582">
        <ele>37.6</ele>
        <time>2022-01-29T12:12:00Z</time>
      </trkpt>
      <trkpt lat="45.12679" lon="4.92595">
        <ele>37.2</ele>
        <time>2022-01-29T12:12:04Z</time>
      </trkpt>
      <trkpt lat="45.12665" lon="4.92611">
        <ele>38</ele>
        <time>2022-01-29T12:12:08Z</time>
      </trkpt>
      <trkpt lat="45.12652" lon="4.92626">
        <ele>38.6</ele>
        <time>2022-01-29T12:12:12Z</time>
      </trkpt>
      <trkpt lat="45.12639" lon="4.92641">
        <ele>39</ele>
        <time>2022-01-29T12:12:16Z</time>
      </trkpt>
      <trkpt lat="45.12626" lon="4.92654">
        <ele>38.8</ele>
        <time>2022-01-29T12:12:20Z</time>
      </trkpt>
      <trkpt lat="45.12613" lon="4.92667">
        <ele>39.4</ele>
        <time>2022-01-29T12:12:24Z</time>
      </trkpt>
      <trkpt lat="45.12601" lon="4.92681">
        <ele>39.2</ele>
        <time>2022-01-29T12:12:28Z</time>
      </trkpt>
      <trkpt lat="45.12588" lon="4.92694">
        <ele>39.4</ele>
        <time>2022-01-29T12:12:32Z</time>
      </trkpt>
      <trkpt lat="45.12576" lon="4.92708">
        <ele>41</ele>
        <time>2022-01-29T12:12:36Z</time>
      </trkpt>
      <trkpt lat="45.12564" lon="4.92721">
        <ele>40.8</ele>
        <time>2022-01-29T12:12:40Z</time>
      </trkpt>
      <trkpt lat="45.12552" lon="4.92735">
        <ele>41.6</ele>
        <time>2022-01-29T12:12:44Z</time>
      </trkpt>
      <trkpt lat="45.12541" lon="4.92746">
        <ele>42</ele>
        <time>2022-01-29T12:12:48Z</time>
      </trkpt>
      <trkpt lat="45.1253" lon="4.92758">
        <ele>42.2</ele>
        <time>2022-01-29T12:12:52Z</time>
      </trkpt>
      <trkpt lat="45.12519" lon="4.92771">
        <ele>43.2</ele>
        <time>2022-01-29T12:12:56Z</time>
      </trkpt>
      <trkpt lat="45.12509" lon="4.92784">
        <ele>43.4</ele>
        <time>2022-01-29T12:13:00Z</time>
      </trkpt>
      <trkpt lat="45.12499" lon="4.92799">
        <ele>44</ele>
        <time>2022-01-29T12:13:04Z</time>
      </trkpt>
      <trkpt lat="45.12492" lon="4.92815">
        <ele>44</ele>
        <time>2022-01-29T12:13:08Z</time>
      </trkpt>
      <trkpt lat="45.12487" lon="4.92833">
        <ele>44.8</ele>
        <time>2022-01-29T12:13:12Z</time>
      </trkpt>
      <trkpt lat="45.12481" lon="4.92853">
        <ele>45</ele>
        <time>2022-01-29T12:13:16Z</time>
      </trkpt>
      <trkpt lat="45.12474" lon="4.92872">
        <ele>45.2</ele>
        <time>2022-01-29T12:13:20Z</time>
      </trkpt>
      <trkpt lat="45.12467" lon="4.92893">
        <ele>44.8</ele>
        <time>2022-01-29T12:13:24Z</time>
      </trkpt>
      <trkpt lat="45.12456" lon="4.92915">
        <ele>45.4</ele>
        <time>2022-01-29T12:13:28Z</time>
      </trkpt>
      <trkpt lat="45.12441" lon="4.9294">
        <ele>44.2</ele>
        <time>2022-01-29T12:13:32Z</time>
      </trkpt>
      <trkpt lat="45.12423" lon="4.92968">
        <ele>43.8</ele>
        <time>2022-01-29T12:13:36Z</time>
      </trkpt>
      <trkpt lat="45.12405" lon="4.92998">
        <ele>42.6</ele>
        <time>2022-01-29T12:13:40Z</time>
      </trkpt>
      <trkpt lat="45.12386" lon="4.93032">
        <ele>41.6</ele>
        <time>2022-01-29T12:13:44Z</time>
      </trkpt>
      <trkpt lat="45.1237" lon="4.93069">
        <ele>41</ele>
        <time>2022-01-29T12:13:48Z</time>
      </trkpt>
      <trkpt lat="45.12356" lon="4.93107">
        <ele>40.2</ele>
        <time>2022-01-29T12:13:52Z</time>
      </trkpt>
      <trkpt lat="45.12341" lon="4.93145">
        <ele>38.8</ele>
        <time>2022-01-29T12:13:56Z</time>
      </trkpt>
      <trkpt lat="45.12327" lon="4.93182">
        <ele>38.8</ele>
        <time>2022-01-29T12:14:00Z</time>
      </trkpt>
      <trkpt lat="45.12314" lon="4.93216">
        <ele>38.2</ele>
        <time>2022-01-29T12:14:04Z</time>
      </trkpt>
      <trkpt lat="45.12301" lon="4.93248">
        <ele>38</ele>
        <time>2022-01-29T12:14:08Z</time>
      </trkpt>
      <trkpt lat="45.12287" lon="4.93278">
        <ele>38.4</ele>
        <time>2022-01-29T12:14:12Z</time>
      </trkpt>
      <trkpt lat="45.12274" lon="4.93307">
        <ele>37.4</ele>
        <time>2022-01-29T12:14:16Z</time>
      </trkpt>
      <trkpt lat="45.12262" lon="4.93332">
        <ele>37.8</ele>
        <time>2022-01-29T12:14:20Z</time>
      </trkpt>
      <trkpt lat="45.1225" lon="4.93358">
        <ele>38.4</ele>
        <time>2022-01-29T12:14:24Z</time>
      </trkpt>
      <trkpt lat="45.12238" lon="4.93378">
        <ele>38.2</ele>
        <time>2022-01-29T12:14:28Z</time>
      </trkpt>
      <trkpt lat="45.12226" lon="4.93402">
        <ele>38</ele>
        <time>2022-01-29T12:14:32Z</time>
      </trkpt>
      <trkpt lat="45.12214" lon="4.93425">
        <ele>39.2</ele>
        <time>2022-01-29T12:14:36Z</time>
      </trkpt>
      <trkpt lat="45.12203" lon="4.93446">
        <ele>40</ele>
        <time>2022-01-29T12:14:40Z</time>
      </trkpt>
      <trkpt lat="45.12191" lon="4.93467">
        <ele>39.8</ele>
        <time>2022-01-29T12:14:44Z</time>
      </trkpt>
      <trkpt lat="45.1218" lon="4.93487">
        <ele>40.2</ele>
        <time>2022-01-29T12:14:48Z</time>
      </trkpt>
      <trkpt lat="45.12167" lon="4.93505">
        <ele>40.6</ele>
        <time>2022-01-29T12:14:52Z</time>
      </trkpt>
      <trkpt lat="45.12154" lon="4.9352">
        <ele>41</ele>
        <time>2022-01-29T12:14:56Z</time>
      </trkpt>
      <trkpt lat="45.1214" lon="4.93534">
        <ele>41.8</ele>
        <time>2022-01-29T12:15:00Z</time>
      </trkpt>
      <trkpt lat="45.12126" lon="4.93547">
        <ele>42.2</ele>
        <time>2022-01-29T12:15:04Z</time>
      </trkpt>
      <trkpt lat="45.12113" lon="4.93558">
        <ele>42.4</ele>
        <time>2022-01-29T12:15:08Z</time>
      </trkpt>
      <trkpt lat="45.121" lon="4.9357">
        <ele>42.8</ele>
        <time>2022-01-29T12:15:12Z</time>
      </trkpt>
      <trkpt lat="45.12087" lon="4.93582">
        <ele>43</ele>
        <time>2022-01-29T12:15:16Z</time>
      </trkpt>
      <trkpt lat="45.12074" lon="4.93593">
        <ele>43.4</ele>
        <time>2022-01-29T12:15:20Z</time>
      </trkpt>
      <trkpt lat="45.12061" lon="4.93605">
        <ele>43.4</ele>
        <time>2022-01-29T12:15:24Z</time>
      </trkpt>
      <trkpt lat="45.12048" lon="4.93618">
        <ele>44</ele>
        <time>2022-01-29T12:15:28Z</time>
      </trkpt>
      <trkpt lat="45.12036" lon="4.93631">
        <ele>44.4</ele>
        <time>2022-01-29T12:15:32Z</time>
      </trkpt>
      <trkpt lat="45.12024" lon="4.93645">
        <ele>44.4</ele>
        <time>2022-01-29T12:15:36Z</time>
      </trkpt>
      <trkpt lat="45.12013" lon="4.93661">
        <ele>44.6</ele>
        <time>2022-01-29T12:15:40Z</time>
      </trkpt>
      <trkpt lat="45.12004" lon="4.93678">
        <ele>44.8</ele>
        <time>2022-01-29T12:15:44Z</time>
      </trkpt>
      <trkpt lat="45.11996" lon="4.93698">
        <ele>45</ele>
        <time>2022-01-29T12:15:48Z</time>
      </trkpt>
      <trkpt lat="45.11987" lon="4.93716">
        <ele>44.8</ele>
        <time>2022-01-29T12:15:52Z</time>
      </trkpt>
      <trkpt lat="45.11975" lon="4.93737">
        <ele>44.4</ele>
        <time>2022-01-29T12:15:56Z</time>
      </trkpt>
      <trkpt lat="45.11959" lon="4.93756">
        <ele>43.8</ele>
        <time>2022-01-29T12:16:00Z</time>
      </trkpt>
      <trkpt lat="45.11943" lon="4.93778">
        <ele>42.4</ele>
        <time>2022-01-29T12:16:04Z</time>
      </trkpt>
      <trkpt lat="45.11925" lon="4.93805">
        <ele>40.8</ele>
        <time>2022-01-29T12:16:08Z</time>
      </trkpt>
      <trkpt lat="45.11904" lon="4.93834">
        <ele>40.8</ele>
        <time>2022-01-29T12:16:12Z</time>
      </trkpt>
      <trkpt lat="45.11884" lon="4.93865">
        <ele>39.4</ele>
        <time>2022-01-29T12:16:16Z</time>
      </trkpt>
      <trkpt lat="45.11862" lon="4.93895">
        <ele>39.2</ele>
        <time>2022-01-29T12:16:20Z</time>
      </trkpt>
      <trkpt lat="45.11845" lon="4.93928">
        <ele>40.4</ele>
        <time>2022-01-29T12:16:24Z</time>
      </trkpt>
      <trkpt lat="45.11836" lon="4.93962">
        <ele>38.6</ele>
        <time>2022-01-29T12:16:28Z</time>
      </trkpt>
      <trkpt lat="45.1183" lon="4.93994">
        <ele>38</ele>
        <time>2022-01-29T12:16:32Z</time>
      </trkpt>
      <trkpt lat="45.11822" lon="4.94025">
        <ele>37.2</ele>
        <time>2022-01-29T12:16:36Z</time>
      </trkpt>
      <trkpt lat="45.11816" lon="4.94054">
        <ele>37.6</ele>
        <time>2022-01-29T12:16:40Z</time>
      </trkpt>
      <trkpt lat="45.1181" lon="4.94082">
        <ele>37.8</ele>
        <time>2022-01-29T12:16:44Z</time>
      </trkpt>
      <trkpt lat="45.11806" lon="4.94106">
        <ele>37</ele>
        <time>2022-01-29T12:16:48Z</time>
      </trkpt>
      <trkpt lat="45.11801" lon="4.94129">
        <ele>37.4</ele>
        <time>2022-01-29T12:16:52Z</time>
      </trkpt>
      <trkpt lat="45.11796" lon="4.94147">
        <ele>37.8</ele>
        <time>2022-01-29T12:16:56Z</time>
      </trkpt>
      <trkpt lat="45.11791" lon="4.94168">
        <ele>37.4</ele>
        <time>2022-01-29T12:17:00Z</time>
      </trkpt>
      <trkpt lat="45.11788" lon="4.9419">
        <ele>37</ele>
        <time>2022-01-29T12:17:04Z</time>
      </trkpt>
      <trkpt lat="45.11785" lon="4.94213">
        <ele>36</ele>
        <time>2022-01-29T12:17:08Z</time>
      </trkpt>
      <trkpt lat="45.11783" lon="4.94236">
        <ele>36</ele>
        <time>2022-01-29T12:17:12Z</time>
      </trkpt>
      <trkpt lat="45.11781" lon="4.94259">
        <ele>35.8</ele>
        <time>2022-01-29T12:17:16Z</time>
      </trkpt>
      <trkpt lat="45.11777" lon="4.94284">
        <ele>35.4</ele>
        <time>2022-01-29T12:17:20Z</time>
      </trkpt>
      <trkpt lat="45.11779" lon="4.94306">
        <ele>35.4</ele>
        <time>2022-01-29T12:17:24Z</time>
      </trkpt>
      <trkpt lat="45.11772" lon="4.94324">
        <ele>35</ele>
        <time>2022-01-29T12:17:28Z</time>
      </trkpt>
      <trkpt lat="45.11766" lon="4.94342">
        <ele>35.6</ele>
        <time>2022-01-29T12:17:32Z</time>
      </trkpt>
      <trkpt lat="45.11758" lon="4.94356">
        <ele>35.4</ele>
        <time>2022-01-29T12:17:36Z</time>
      </trkpt>
      <trkpt lat="45.11748" lon="4.94372">
        <ele>35.8</ele>
        <time>2022-01-29T12:17:40Z</time>
      </trkpt>
      <trkpt lat="45.11739" lon="4.9438">
        <ele>36.4</ele>
        <time>2022-01-29T12:17:44Z</time>
      </trkpt>
      <trkpt lat="45.1173" lon="4.9439">
        <ele>37.4</ele>
        <time>2022-01-29T12:17:48Z</time>
      </trkpt>
      <trkpt lat="45.11719" lon="4.94396">
        <ele>37.2</ele>
        <time>2022-01-29T12:17:52Z</time>
      </trkpt>
      <trkpt lat="45.11707" lon="4.94402">
        <ele>38.4</ele>
        <time>2022-01-29T12:17:56Z</time>
      </trkpt>
      <trkpt lat="45.11696" lon="4.94406">
        <ele>38.8</ele>
        <time>2022-01-29T12:18:00Z</time>
      </trkpt>
      <trkpt lat="45.11685" lon="4.94409">
        <ele>39.8</ele>
        <time>2022-01-29T12:18:04Z</time>
      </trkpt>
      <trkpt lat="45.11677" lon="4.94413">
        <ele>40</ele>
        <time>2022-01-29T12:18:08Z</time>
      </trkpt>
      <trkpt lat="45.11668" lon="4.94416">
        <ele>41</ele>
        <time>2022-01-29T12:18:12Z</time>
      </trkpt>
      <trkpt lat="45.11659" lon="4.94421">
        <ele>42</ele>
        <time>2022-01-29T12:18:16Z</time>
      </trkpt>
      <trkpt lat="45.1165" lon="4.94427">
        <ele>42.4</ele>
        <time>2022-01-29T12:18:20Z</time>
      </trkpt>
      <trkpt lat="45.1164" lon="4.94433">
        <ele>43.2</ele>
        <time>2022-01-29T12:18:24Z</time>
      </trkpt>
      <trkpt lat="45.1163" lon="4.9444">
        <ele>44.2</ele>
        <time>2022-01-29T12:18:28Z</time>
      </trkpt>
      <trkpt lat="45.11619" lon="4.9445">
        <ele>44.8</ele>
        <time>2022-01-29T12:18:32Z</time>
      </trkpt>
      <trkpt lat="45.1161" lon="4.94458">
        <ele>45.4</ele>
        <time>2022-01-29T12:18:36Z</time>
      </trkpt>
      <trkpt lat="45.11602" lon="4.94464">
        <ele>46.4</ele>
        <time>2022-01-29T12:18:40Z</time>
      </trkpt>
      <trkpt lat="45.11596" lon="4.94472">
        <ele>47.8</ele>
        <time>2022-01-29T12:18:44Z</time>
      </trkpt>
      <trkpt lat="45.1159" lon="4.94481">
        <ele>48</ele>
        <time>2022-01-29T12:18:48Z</time>
      </trkpt>
      <trkpt lat="45.11584" lon="4.9449">
        <ele>48.4</ele>
        <time>2022-01-29T12:18:52Z</time>
      </trkpt>
      <trkpt lat="45.11577" lon="4.94498">
        <ele>48.8</ele>
        <time>2022-01-29T12:18:56Z</time>
      </trkpt>
      <trkpt lat="45.11571" lon="4.94509">
        <ele>49.4</ele>
        <time>2022-01-29T12:19:00Z</time>
      </trkpt>
      <trkpt lat="45.11566" lon="4.94526">
        <ele>50</ele>
        <time>2022-01-29T12:19:04Z</time>
      </trkpt>
      <trkpt lat="45.11566" lon="4.94539">
        <ele>50.4</ele>
        <time>2022-01-29T12:19:08Z</time>
      </trkpt>
      <trkpt lat="45.11564" lon="4.94556">
        <ele>50.6</ele>
        <time>2022-01-29T12:19:12Z</time>
      </trkpt>
      <trkpt lat="45.11563" lon="4.94572">
        <ele>51.2</ele>
        <time>2022-01-29T12:19:16Z</time>
      </trkpt>
      <trkpt lat="45.11561" lon="4.94589">
        <ele>50.6</ele>
        <time>2022-01-29T12:19:20Z</time>
      </trkpt>
      <trkpt lat="45.11554" lon="4.94604">
        <ele>51.2</ele>
        <time>2022-01-29T12:19:24Z</time>
      </trkpt>
      <trkpt lat="45.11544" lon="4.94613">
        <ele>50.8</ele>
        <time>2022-01-29T12:19:28Z</time>
      </trkpt>
      <trkpt lat="45.11532" lon="4.94619">
        <ele>50.6</ele>
        <time>2022-01-29T12:19:32Z</time>
      </trkpt>
      <trkpt lat="45.11517" lon="4.94627">
        <ele>50.6</ele>
        <time>2022-01-29T12:19:36Z</time>
      </trkpt>
      <trkpt lat="45.11502" lon="4.9464">
        <ele>50.2</ele>
        <time>2022-01-29T12:19:40Z</time>
      </trkpt>
      <trkpt lat="45.11484" lon="4.94654">
        <ele>50</ele>
        <time>2022-01-29T12:19:44Z</time>
      </trkpt>
      <trkpt lat="45.11465" lon="4.94666">
        <ele>49.4</ele>
        <time>2022-01-29T12:19:48Z</time>
      </trkpt>
      <trkpt lat="45.11442" lon="4.94678">
        <ele>48.4</ele>
        <time>2022-01-29T12:19:52Z</time>
      </trkpt>
      <trkpt lat="45.11421" lon="4.94688">
        <ele>47.2</ele>
        <time>2022-01-29T12:19:56Z</time>
      </trkpt>
      <trkpt lat="45.11399" lon="4.94702">
        <ele>46.4</ele>
        <time>2022-01-29T12:20:00Z</time>
      </trkpt>
      <trkpt lat="45.11373" lon="4.94711">
        <ele>45.8</ele>
        <time>2022-01-29T12:20:04Z</time>
      </trkpt>
      <trkpt lat="45.11344" lon="4.9472">
        <ele>44.8</ele>
        <time>2022-01-29T12:20:08Z</time>
      </trkpt>
      <trkpt lat="45.11314" lon="4.94726">
        <ele>44</ele>
        <time>2022-01-29T12:20:12Z</time>
      </trkpt>
      <trkpt lat="45.11283" lon="4.94728">
        <ele>42.4</ele>
        <time>2022-01-29T12:20:16Z</time>
      </trkpt>
      <trkpt lat="45.11249" lon="4.9473">
        <ele>40.8</ele>
        <time>2022-01-29T12:20:20Z</time>
      </trkpt>
      <trkpt lat="45.11215" lon="4.94735">
        <ele>41.8</ele>
        <time>2022-01-29T12:20:24Z</time>
      </trkpt>
      <trkpt lat="45.11181" lon="4.94744">
        <ele>39.4</ele>
        <time>2022-01-29T12:20:28Z</time>
      </trkpt>
      <trkpt lat="45.11146" lon="4.94754">
        <ele>38.2</ele>
        <time>2022-01-29T12:20:32Z</time>
      </trkpt>
      <trkpt lat="45.1111" lon="4.94763">
        <ele>37</ele>
        <time>2022-01-29T12:20:36Z</time>
      </trkpt>
      <trkpt lat="45.11073" lon="4.94772">
        <ele>36</ele>
        <time>2022-01-29T12:20:40Z</time>
      </trkpt>
      <trkpt lat="45.11038" lon="4.94782">
        <ele>35</ele>
        <time>2022-01-29T12:20:44Z</time>
      </trkpt>
      <trkpt lat="45.11003" lon="4.9479">
        <ele>33.4</ele>
        <time>2022-01-29T12:20:48Z</time>
      </trkpt>
      <trkpt lat="45.10969" lon="4.94797">
        <ele>33.4</ele>
        <time>2022-01-29T12:20:52Z</time>
      </trkpt>
      <trkpt lat="45.10936" lon="4.94808">
        <ele>34</ele>
        <time>2022-01-29T12:20:56Z</time>
      </trkpt>
      <trkpt lat="45.10907" lon="4.94819">
        <ele>33.6</ele>
        <time>2022-01-29T12:21:00Z</time>
      </trkpt>
      <trkpt lat="45.10878" lon="4.94829">
        <ele>32.2</ele>
        <time>2022-01-29T12:21:04Z</time>
      </trkpt>
      <trkpt lat="45.10846" lon="4.94833">
        <ele>31.6</ele>
        <time>2022-01-29T12:21:08Z</time>
      </trkpt>
      <trkpt lat="45.10815" lon="4.94838">
        <ele>31.6</ele>
        <time>2022-01-29T12:21:12Z</time>
      </trkpt>
      <trkpt lat="45.10784" lon="4.94848">
        <ele>30.8</ele>
        <time>2022-01-29T12:21:16Z</time>
      </trkpt>
      <trkpt lat="45.10751" lon="4.94861">
        <ele>28.4</ele>
        <time>2022-01-29T12:21:20Z</time>
      </trkpt>
      <trkpt lat="45.10717" lon="4.94877">
        <ele>26.2</ele>
        <time>2022-01-29T12:21:24Z</time>
      </trkpt>
      <trkpt lat="45.1068" lon="4.94898">
        <ele>22.8</ele>
        <time>2022-01-29T12:21:28Z</time>
      </trkpt>
      <trkpt lat="45.10642" lon="4.94919">
        <ele>21.2</ele>
        <time>2022-01-29T12:21:32Z</time>
      </trkpt>
      <trkpt lat="45.1061" lon="4.94957">
        <ele>17.8</ele>
        <time>2022-01-29T12:21:36Z</time>
      </trkpt>
      <trkpt lat="45.10569" lon="4.94962">
        <ele>14.6</ele>
        <time>2022-01-29T12:21:40Z</time>
      </trkpt>
      <trkpt lat="45.10529" lon="4.94942">
        <ele>13.6</ele>
        <time>2022-01-29T12:21:44Z</time>
      </trkpt>
      <trkpt lat="45.1049" lon="4.9493">
        <ele>12.2</ele>
        <time>2022-01-29T12:21:48Z</time>
      </trkpt>
      <trkpt lat="45.10467" lon="4.94948">
        <ele>10.8</ele>
        <time>2022-01-29T12:21:52Z</time>
      </trkpt>
      <trkpt lat="45.1045" lon="4.9497">
        <ele>10</ele>
        <time>2022-01-29T12:21:56Z</time>
      </trkpt>
      <trkpt lat="45.10446" lon="4.95004">
        <ele>9.6</ele>
        <time>2022-01-29T12:22:00Z</time>
      </trkpt>
      <trkpt lat="45.10434" lon="4.95034">
        <ele>8</ele>
        <time>2022-01-29T12:22:04Z</time>
      </trkpt>
      <trkpt lat="45.10408" lon="4.95037">
        <ele>7.2</ele>
        <time>2022-01-29T12:22:08Z</time>
      </trkpt>
      <trkpt lat="45.10378" lon="4.95032">
        <ele>5.8</ele>
        <time>2022-01-29T12:22:12Z</time>
      </trkpt>
      <trkpt lat="45.10344" lon="4.95035">
        <ele>5</ele>
        <time>2022-01-29T12:22:16Z</time>
      </trkpt>
      <trkpt lat="45.10308" lon="4.95044">
        <ele>2.8</ele>
        <time>2022-01-29T12:22:20Z</time>
      </trkpt>
      <trkpt lat="45.10272" lon="4.95055">
        <ele>0.60000000000002</ele>
        <time>2022-01-29T12:22:24Z</time>
      </trkpt>
      <trkpt lat="45.10236" lon="4.95066">
        <ele>0.80000000000001</ele>
        <time>2022-01-29T12:22:28Z</time>
      </trkpt>
      <trkpt lat="45.102" lon="4.95076">
        <ele>0.39999999999998</ele>
        <time>2022-01-29T12:22:32Z</time>
      </trkpt>
      <trkpt lat="45.10165" lon="4.95086">
        <ele>-2.4</ele>
        <time>2022-01-29T12:22:36Z</time>
      </trkpt>
      <trkpt lat="45.1013" lon="4.95095">
        <ele>-3</ele>
        <time>2022-01-29T12:22:40Z</time>
      </trkpt>
      <trkpt lat="45.10095" lon="4.95103">
        <ele>-3</ele>
        <time>2022-01-29T12:22:44Z</time>
      </trkpt>
      <trkpt lat="45.10061" lon="4.95116">
        <ele>-3.6</ele>
        <time>2022-01-29T12:22:48Z</time>
      </trkpt>
      <trkpt lat="45.10028" lon="4.9513">
        <ele>-4.4</ele>
        <time>2022-01-29T12:22:52Z</time>
      </trkpt>
      <trkpt lat="45.09995" lon="4.95144">
        <ele>-4.4</ele>
        <time>2022-01-29T12:22:56Z</time>
      </trkpt>
      <trkpt lat="45.09964" lon="4.95158">
        <ele>-4.8</ele>
        <time>2022-01-29T12:23:00Z</time>
      </trkpt>
      <trkpt lat="45.09934" lon="4.95171">
        <ele>-4.8</ele>
        <time>2022-01-29T12:23:04Z</time>
      </trkpt>
      <trkpt lat="45.09906" lon="4.95186">
        <ele>-4.8</ele>
        <time>2022-01-29T12:23:08Z</time>
      </trkpt>
      <trkpt lat="45.09879" lon="4.95202">
        <ele>-5.6</ele>
        <time>2022-01-29T12:23:12Z</time>
      </trkpt>
      <trkpt lat="45.09853" lon="4.95217">
        <ele>-5.6</ele>
        <time>2022-01-29T12:23:16Z</time>
      </trkpt>
      <trkpt lat="45.09826" lon="4.95231">
        <ele>-6.4</ele>
        <time>2022-01-29T12:23:20Z</time>
      </trkpt>
      <trkpt lat="45.09799" lon="4.95241">
        <ele>-5.8</ele>
        <time>2022-01-29T12:23:24Z</time>
      </trkpt>
      <trkpt lat="45.09773" lon="4.95249">
        <ele>-5.8</ele>
        <time>2022-01-29T12:23:28Z</time>
      </trkpt>
      <trkpt lat="45.09748" lon="4.95255">
        <ele>-6.4</ele>
        <time>2022-01-29T12:23:32Z</time>
      </trkpt>
      <trkpt lat="45.09723" lon="4.95259">
        <ele>-6.4</ele>
        <time>2022-01-29T12:23:36Z</time>
      </trkpt>
      <trkpt lat="45.09699" lon="4.9526">
        <ele>-6.8</ele>
        <time>2022-01-29T12:23:40Z</time>
      </trkpt>
      <trkpt lat="45.09675" lon="4.95259">
        <ele>-7.2</ele>
        <time>2022-01-29T12:23:44Z</time>
      </trkpt>
      <trkpt lat="45.09653" lon="4.95255">
        <ele>-7.2</ele>
        <time>2022-01-29T12:23:48Z</time>
      </trkpt>
      <trkpt lat="45.09632" lon="4.95251">
        <ele>-7.8</ele>
        <time>2022-01-29T12:23:52Z</time>
      </trkpt>
      <trkpt lat="45.09611" lon="4.95248">
        <ele>-7.2</ele>
        <time>2022-01-29T12:23:56Z</time>
      </trkpt>
      <trkpt lat="45.09591" lon="4.95244">
        <ele>-7.4</ele>
        <time>2022-01-29T12:24:00Z</time>
      </trkpt>
      <trkpt lat="45.09571" lon="4.95242">
        <ele>-7.4</ele>
        <time>2022-01-29T12:24:04Z</time>
      </trkpt>
      <trkpt lat="45.0955" lon="4.95239">
        <ele>-8</ele>
        <time>2022-01-29T12:24:08Z</time>
      </trkpt>
      <trkpt lat="45.0953" lon="4.95236">
        <ele>-7.8</ele>
        <time>2022-01-29T12:24:12Z</time>
      </trkpt>
      <trkpt lat="45.09511" lon="4.95233">
        <ele>-8.2</ele>
        <time>2022-01-29T12:24:16Z</time>
      </trkpt>
      <trkpt lat="45.09491" lon="4.9523">
        <ele>-7.8</ele>
        <time>2022-01-29T12:24:20Z</time>
      </trkpt>
      <trkpt lat="45.09472" lon="4.95224">
        <ele>-6</ele>
        <time>2022-01-29T12:24:24Z</time>
      </trkpt>
      <trkpt lat="45.09453" lon="4.9522">
        <ele>-8.2</ele>
        <time>2022-01-29T12:24:28Z</time>
      </trkpt>
      <trkpt lat="45.09434" lon="4.95214">
        <ele>-9.4</ele>
        <time>2022-01-29T12:24:32Z</time>
      </trkpt>
      <trkpt lat="45.09415" lon="4.95208">
        <ele>-8.6</ele>
        <time>2022-01-29T12:24:36Z</time>
      </trkpt>
      <trkpt lat="45.09396" lon="4.952">
        <ele>-8.6</ele>
        <time>2022-01-29T12:24:40Z</time>
      </trkpt>
      <trkpt lat="45.09377" lon="4.95192">
        <ele>-9</ele>
        <time>2022-01-29T12:24:44Z</time>
      </trkpt>
      <trkpt lat="45.09357" lon="4.95184">
        <ele>-9.6</ele>
        <time>2022-01-29T12:24:48Z</time>
      </trkpt>
      <trkpt lat="45.09338" lon="4.95175">
        <ele>-9.2</ele>
        <time>2022-01-29T12:24:52Z</time>
      </trkpt>
      <trkpt lat="45.09318" lon="4.95164">
        <ele>-9.6</ele>
        <time>2022-01-29T12:24:56Z</time>
      </trkpt>
      <trkpt lat="45.09298" lon="4.95153">
        <ele>-9.2</ele>
        <time>2022-01-29T12:25:00Z</time>
      </trkpt>
      <trkpt lat="45.09278" lon="4.9514">
        <ele>-9.2</ele>
        <time>2022-01-29T12:25:04Z</time>
      </trkpt>
      <trkpt lat="45.09259" lon="4.95128">
        <ele>-9.8</ele>
        <time>2022-01-29T12:25:08Z</time>
      </trkpt>
      <trkpt lat="45.0924" lon="4.95114">
        <ele>-9.6</ele>
        <time>2022-01-29T12:25:12Z</time>
      </trkpt>
      <trkpt lat="45.09222" lon="4.95099">
        <ele>-9.8</ele>
        <time>2022-01-29T12:25:16Z</time>
      </trkpt>
      <trkpt lat="45.09204" lon="4.95084">
        <ele>-10.2</ele>
        <time>2022-01-29T12:25:20Z</time>
      </trkpt>
      <trkpt lat="45.09186" lon="4.95068">
        <ele>-10.4</ele>
        <time>2022-01-29T12:25:24Z</time>
      </trkpt>
      <trkpt lat="45.09168" lon="4.95052">
        <ele>-10.4</ele>
        <time>2022-01-29T12:25:28Z</time>
      </trkpt>
      <trkpt lat="45.0915" lon="4.95036">
        <ele>-10.6</ele>
        <time>2022-01-29T12:25:32Z</time>
      </trkpt>
      <trkpt lat="45.09132" lon="4.9502">
        <ele>-10.4</ele>
        <time>2022-01-29T12:25:36Z</time>
      </trkpt>
      <trkpt lat="45.09113" lon="4.95003">
        <ele>-10.2</ele>
        <time>2022-01-29T12:25:40Z</time>
      </trkpt>
      <trkpt lat="45.09094" lon="4.94989">
        <ele>-10.6</ele>
        <time>2022-01-29T12:25:44Z</time>
      </trkpt>
      <trkpt lat="45.09075" lon="4.94977">
        <ele>-10.6</ele>
        <time>2022-01-29T12:25:48Z</time>
      </trkpt>
      <trkpt lat="45.09054" lon="4.94966">
        <ele>-10.8</ele>
        <time>2022-01-29T12:25:52Z</time>
      </trkpt>
      <trkpt lat="45.09033" lon="4.94957">
        <ele>-11</ele>
        <time>2022-01-29T12:25:56Z</time>
      </trkpt>
      <trkpt lat="45.09012" lon="4.9495">
        <ele>-11.2</ele>
        <time>2022-01-29T12:26:00Z</time>
      </trkpt>
      <trkpt lat="45.0899" lon="4.94946">
        <ele>-11.2</ele>
        <time>2022-01-29T12:26:04Z</time>
      </trkpt>
      <trkpt lat="45.08966" lon="4.94945">
        <ele>-11.4</ele>
        <time>2022-01-29T12:26:08Z</time>
      </trkpt>
      <trkpt lat="45.08941" lon="4.94949">
        <ele>-11</ele>
        <time>2022-01-29T12:26:12Z</time>
      </trkpt>
      <trkpt lat="45.08917" lon="4.94955">
        <ele>-11.8</ele>
        <time>2022-01-29T12:26:16Z</time>
      </trkpt>
      <trkpt lat="45.08892" lon="4.94963">
        <ele>-12</ele>
        <time>2022-01-29T12:26:20Z</time>
      </trkpt>
      <trkpt lat="45.08868" lon="4.94972">
        <ele>-12</ele>
        <time>2022-01-29T12:26:24Z</time>
      </trkpt>
      <trkpt lat="45.08844" lon="4.94981">
        <ele>-12.4</ele>
        <time>2022-01-29T12:26:28Z</time>
      </trkpt>
      <trkpt lat="45.0882" lon="4.9499">
        <ele>-12.2</ele>
        <time>2022-01-29T12:26:32Z</time>
      </trkpt>
      <trkpt lat="45.08796" lon="4.95">
        <ele>-13</ele>
        <time>2022-01-29T12:26:36Z</time>
      </trkpt>
      <trkpt lat="45.08771" lon="4.95009">
        <ele>-12.8</ele>
        <time>2022-01-29T12:26:40Z</time>
      </trkpt>
      <trkpt lat="45.08746" lon="4.95019">
        <ele>-13.4</ele>
        <time>2022-01-29T12:26:44Z</time>
      </trkpt>
      <trkpt lat="45.08721" lon="4.95028">
        <ele>-13</ele>
        <time>2022-01-29T12:26:48Z</time>
      </trkpt>
      <trkpt lat="45.08696" lon="4.95037">
        <ele>-13.2</ele>
        <time>2022-01-29T12:26:52Z</time>
      </trkpt>
      <trkpt lat="45.08671" lon="4.95046">
        <ele>-13.4</ele>
        <time>2022-01-29T12:26:56Z</time>
      </trkpt>
      <trkpt lat="45.08646" lon="4.95055">
        <ele>-14</ele>
        <time>2022-01-29T12:27:00Z</time>
      </trkpt>
      <trkpt lat="45.08621" lon="4.95065">
        <ele>-14</ele>
        <time>2022-01-29T12:27:04Z</time>
      </trkpt>
      <trkpt lat="45.08596" lon="4.95074">
        <ele>-13.8</ele>
        <time>2022-01-29T12:27:08Z</time>
      </trkpt>
      <trkpt lat="45.08571" lon="4.95084">
        <ele>-14.4</ele>
        <time>2022-01-29T12:27:12Z</time>
      </trkpt>
      <trkpt lat="45.08546" lon="4.95096">
        <ele>-15</ele>
        <time>2022-01-29T12:27:16Z</time>
      </trkpt>
      <trkpt lat="45.08522" lon="4.9511">
        <ele>-14.8</ele>
        <time>2022-01-29T12:27:20Z</time>
      </trkpt>
      <trkpt lat="45.08499" lon="4.95125">
        <ele>-15</ele>
        <time>2022-01-29T12:27:24Z</time>
      </trkpt>
      <trkpt lat="45.08476" lon="4.95139">
        <ele>-15.2</ele>
        <time>2022-01-29T12:27:28Z</time>
      </trkpt>
      <trkpt lat="45.08454" lon="4.95153">
        <ele>-15.6</ele>
        <time>2022-01-29T12:27:32Z</time>
      </trkpt>
      <trkpt lat="45.08432" lon="4.95167">
        <ele>-15.6</ele>
        <time>2022-01-29T12:27:36Z</time>
      </trkpt>
      <trkpt lat="45.08411" lon="4.9518">
        <ele>-15.6</ele>
        <time>2022-01-29T12:27:40Z</time>
      </trkpt>
      <trkpt lat="45.0839" lon="4.95193">
        <ele>-15.8</ele>
        <time>2022-01-29T12:27:44Z</time>
      </trkpt>
      <trkpt lat="45.0837" lon="4.95206">
        <ele>-15.6</ele>
        <time>2022-01-29T12:27:48Z</time>
      </trkpt>
      <trkpt lat="45.0835" lon="4.95219">
        <ele>-15.8</ele>
        <time>2022-01-29T12:27:52Z</time>
      </trkpt>
      <trkpt lat="45.0833" lon="4.95234">
        <ele>-15.6</ele>
        <time>2022-01-29T12:27:56Z</time>
      </trkpt>
      <trkpt lat="45.08313" lon="4.95248">
        <ele>-15.2</ele>
        <time>2022-01-29T12:28:00Z</time>
      </trkpt>
      <trkpt lat="45.08296" lon="4.95261">
        <ele>-15.2</ele>
        <time>2022-01-29T12:28:04Z</time>
      </trkpt>
      <trkpt lat="45.08279" lon="4.95277">
        <ele>-15.2</ele>
        <time>2022-01-29T12:28:08Z</time>
      </trkpt>
      <trkpt lat="45.08263" lon="4.95296">
        <ele>-14.8</ele>
        <time>2022-01-29T12:28:12Z</time>
      </trkpt>
      <trkpt lat="45.08247" lon="4.95317">
        <ele>-15</ele>
        <time>2022-01-29T12:28:16Z</time>
      </trkpt>
      <trkpt lat="45.0823" lon="4.9534">
        <ele>-15.8</ele>
        <time>2022-01-29T12:28:20Z</time>
      </trkpt>
      <trkpt lat="45.08214" lon="4.95363">
        <ele>-15.8</ele>
        <time>2022-01-29T12:28:24Z</time>
      </trkpt>
      <trkpt lat="45.08197" lon="4.95388">
        <ele>-15.6</ele>
        <time>2022-01-29T12:28:28Z</time>
      </trkpt>
      <trkpt lat="45.08178" lon="4.95409">
        <ele>-15.4</ele>
        <time>2022-01-29T12:28:32Z</time>
      </trkpt>
      <trkpt lat="45.08158" lon="4.95426">
        <ele>-16.2</ele>
        <time>2022-01-29T12:28:36Z</time>
      </trkpt>
      <trkpt lat="45.08138" lon="4.95441">
        <ele>-15.8</ele>
        <time>2022-01-29T12:28:40Z</time>
      </trkpt>
      <trkpt lat="45.08119" lon="4.95455">
        <ele>-15.8</ele>
        <time>2022-01-29T12:28:44Z</time>
      </trkpt>
      <trkpt lat="45.081" lon="4.95469">
        <ele>-16.2</ele>
        <time>2022-01-29T12:28:48Z</time>
      </trkpt>
      <trkpt lat="45.08082" lon="4.95483">
        <ele>-15.6</ele>
        <time>2022-01-29T12:28:52Z</time>
      </trkpt>
      <trkpt lat="45.08065" lon="4.95499">
        <ele>-15.2</ele>
        <time>2022-01-29T12:28:56Z</time>
      </trkpt>
      <trkpt lat="45.08053" lon="4.95521">
        <ele>-14.8</ele>
        <time>2022-01-29T12:29:00Z</time>
      </trkpt>
      <trkpt lat="45.08043" lon="4.95546">
        <ele>-14.8</ele>
        <time>2022-01-29T12:29:04Z</time>
      </trkpt>
      <trkpt lat="45.08034" lon="4.95571">
        <ele>-15</ele>
        <time>2022-01-29T12:29:08Z</time>
      </trkpt>
      <trkpt lat="45.08026" lon="4.95596">
        <ele>-14.8</ele>
        <time>2022-01-29T12:29:12Z</time>
      </trkpt>
      <trkpt lat="45.08018" lon="4.9562">
        <ele>-14.8</ele>
        <time>2022-01-29T12:29:16Z</time>
      </trkpt>
      <trkpt lat="45.08011" lon="4.95643">
        <ele>-14.2</ele>
        <time>2022-01-29T12:29:20Z</time>
      </trkpt>
      <trkpt lat="45.08007" lon="4.95667">
        <ele>-13.8</ele>
        <time>2022-01-29T12:29:24Z</time>
      </trkpt>
      <trkpt lat="45.08005" lon="4.9569">
        <ele>-13.2</ele>
        <time>2022-01-29T12:29:28Z</time>
      </trkpt>
      <trkpt lat="45.08004" lon="4.95711">
        <ele>-13.6</ele>
        <time>2022-01-29T12:29:32Z</time>
      </trkpt>
      <trkpt lat="45.08004" lon="4.95731">
        <ele>-13.2</ele>
        <time>2022-01-29T12:29:36Z</time>
      </trkpt>
      <trkpt lat="45.08003" lon="4.9575">
        <ele>-13.8</ele>
        <time>2022-01-29T12:29:40Z</time>
      </trkpt>
      <trkpt lat="45.08002" lon="4.95768">
        <ele>-13.6</ele>
        <time>2022-01-29T12:29:44Z</time>
      </trkpt>
      <trkpt lat="45.08002" lon="4.9579">
        <ele>-13.6</ele>
        <time>2022-01-29T12:29:48Z</time>
      </trkpt>
      <trkpt lat="45.08003" lon="4.95812">
        <ele>-13.6</ele>
        <time>2022-01-29T12:29:52Z</time>
      </trkpt>
      <trkpt lat="45.08003" lon="4.95833">
        <ele>-13.8</ele>
        <time>2022-01-29T12:29:56Z</time>
      </trkpt>
      <trkpt lat="45.08004" lon="4.9585">
        <ele>-13.8</ele>
        <time>2022-01-29T12:30:00Z</time>
      </trkpt>
      <trkpt lat="45.08008" lon="4.95858">
        <ele>-13.8</ele>
        <time>2022-01-29T12:30:04Z</time>
      </trkpt>
      <trkpt lat="45.07994" lon="4.95863">
        <ele>-14.6</ele>
        <time>2022-01-29T12:31:36Z</time>
      </trkpt>
      <trkpt lat="45.07977" lon="4.95863">
        <ele>-15.2</ele>
        <time>2022-01-29T12:31:40Z</time>
      </trkpt>
      <trkpt lat="45.0796" lon="4.95863">
        <ele>-15.8</ele>
        <time>2022-01-29T12:31:44Z</time>
      </trkpt>
      <trkpt lat="45.07941" lon="4.95859">
        <ele>-16.8</ele>
        <time>2022-01-29T12:31:48Z</time>
      </trkpt>
      <trkpt lat="45.07921" lon="4.95855">
        <ele>-15.8</ele>
        <time>2022-01-29T12:31:52Z</time>
      </trkpt>
      <trkpt lat="45.07903" lon="4.95853">
        <ele>-17</ele>
        <time>2022-01-29T12:31:56Z</time>
      </trkpt>
      <trkpt lat="45.07886" lon="4.95851">
        <ele>-17</ele>
        <time>2022-01-29T12:32:00Z</time>
      </trkpt>
      <trkpt lat="45.07868" lon="4.95847">
        <ele>-16.4</ele>
        <time>2022-01-29T12:32:04Z</time>
      </trkpt>
      <trkpt lat="45.07851" lon="4.95843">
        <ele>-17</ele>
        <time>2022-01-29T12:32:08Z</time>
      </trkpt>
      <trkpt lat="45.07833" lon="4.9584">
        <ele>-16.4</ele>
        <time>2022-01-29T12:32:12Z</time>
      </trkpt>
      <trkpt lat="45.07817" lon="4.9584">
        <ele>-17</ele>
        <time>2022-01-29T12:32:16Z</time>
      </trkpt>
      <trkpt lat="45.078" lon="4.95836">
        <ele>-16.8</ele>
        <time>2022-01-29T12:32:20Z</time>
      </trkpt>
      <trkpt lat="45.07785" lon="4.95832">
        <ele>-16.4</ele>
        <time>2022-01-29T12:32:24Z</time>
      </trkpt>
      <trkpt lat="45.07767" lon="4.95828">
        <ele>-16.6</ele>
        <time>2022-01-29T12:32:28Z</time>
      </trkpt>
      <trkpt lat="45.07749" lon="4.95827">
        <ele>-16.6</ele>
        <time>2022-01-29T12:32:32Z</time>
      </trkpt>
      <trkpt lat="45.07734" lon="4.95831">
        <ele>-16.8</ele>
        <time>2022-01-29T12:32:36Z</time>
      </trkpt>
      <trkpt lat="45.07718" lon="4.95828">
        <ele>-17</ele>
        <time>2022-01-29T12:32:40Z</time>
      </trkpt>
      <trkpt lat="45.07699" lon="4.95826">
        <ele>-17</ele>
        <time>2022-01-29T12:32:44Z</time>
      </trkpt>
      <trkpt lat="45.07681" lon="4.95823">
        <ele>-17.2</ele>
        <time>2022-01-29T12:32:48Z</time>
      </trkpt>
      <trkpt lat="45.07661" lon="4.95822">
        <ele>-17</ele>
        <time>2022-01-29T12:32:52Z</time>
      </trkpt>
      <trkpt lat="45.07641" lon="4.95823">
        <ele>-17</ele>
        <time>2022-01-29T12:32:56Z</time>
      </trkpt>
      <trkpt lat="45.07624" lon="4.95826">
        <ele>-17</ele>
        <time>2022-01-29T12:33:00Z</time>
      </trkpt>
      <trkpt lat="45.07608" lon="4.95828">
        <ele>-16.8</ele>
        <time>2022-01-29T12:33:04Z</time>
      </trkpt>
      <trkpt lat="45.07593" lon="4.95831">
        <ele>-16.2</ele>
        <time>2022-01-29T12:33:08Z</time>
      </trkpt>
      <trkpt lat="45.0758" lon="4.95832">
        <ele>-16.8</ele>
        <time>2022-01-29T12:33:12Z</time>
      </trkpt>
      <trkpt lat="45.07569" lon="4.95834">
        <ele>-16.4</ele>
        <time>2022-01-29T12:33:16Z</time>
      </trkpt>
      <trkpt lat="45.07553" lon="4.95844">
        <ele>-16.2</ele>
        <time>2022-01-29T12:33:56Z</time>
      </trkpt>
      <trkpt lat="45.07541" lon="4.95845">
        <ele>-16</ele>
        <time>2022-01-29T12:34:00Z</time>
      </trkpt>
      <trkpt lat="45.07527" lon="4.95845">
        <ele>-16.4</ele>
        <time>2022-01-29T12:34:04Z</time>
      </trkpt>
      <trkpt lat="45.07513" lon="4.95848">
        <ele>-16.2</ele>
        <time>2022-01-29T12:34:08Z</time>
      </trkpt>
      <trkpt lat="45.07498" lon="4.9585">
        <ele>-16.6</ele>
        <time>2022-01-29T12:34:12Z</time>
      </trkpt>
      <trkpt lat="45.07485" lon="4.95853">
        <ele>-16.4</ele>
        <time>2022-01-29T12:34:16Z</time>
      </trkpt>
      <trkpt lat="45.07471" lon="4.95856">
        <ele>-15.8</ele>
        <time>2022-01-29T12:34:20Z</time>
      </trkpt>
      <trkpt lat="45.07456" lon="4.95859">
        <ele>-15.8</ele>
        <time>2022-01-29T12:34:24Z</time>
      </trkpt>
      <trkpt lat="45.07441" lon="4.95865">
        <ele>-16.2</ele>
        <time>2022-01-29T12:34:28Z</time>
      </trkpt>
      <trkpt lat="45.07431" lon="4.95878">
        <ele>-15.6</ele>
        <time>2022-01-29T12:34:32Z</time>
      </trkpt>
      <trkpt lat="45.07426" lon="4.95886">
        <ele>-15.6</ele>
        <time>2022-01-29T12:34:36Z</time>
      </trkpt>
      <trkpt lat="45.07421" lon="4.95894">
        <ele>-14.4</ele>
        <time>2022-01-29T12:34:40Z</time>
      </trkpt>
      <trkpt lat="45.07417" lon="4.95901">
        <ele>-13.2</ele>
        <time>2022-01-29T12:34:44Z</time>
      </trkpt>
      <trkpt lat="45.07413" lon="4.95909">
        <ele>-12.2</ele>
        <time>2022-01-29T12:34:48Z</time>
      </trkpt>
      <trkpt lat="45.07409" lon="4.95916">
        <ele>-11</ele>
        <time>2022-01-29T12:34:52Z</time>
      </trkpt>
      <trkpt lat="45.07406" lon="4.95923">
        <ele>-10.6</ele>
        <time>2022-01-29T12:34:56Z</time>
      </trkpt>
      <trkpt lat="45.07403" lon="4.95929">
        <ele>-9.6</ele>
        <time>2022-01-29T12:35:00Z</time>
      </trkpt>
      <trkpt lat="45.074" lon="4.95935">
        <ele>-8.8</ele>
        <time>2022-01-29T12:35:04Z</time>
      </trkpt>
      <trkpt lat="45.07397" lon="4.9594">
        <ele>-7.8</ele>
        <time>2022-01-29T12:35:08Z</time>
      </trkpt>
      <trkpt lat="45.07394" lon="4.95945">
        <ele>-6.8</ele>
        <time>2022-01-29T12:35:12Z</time>
      </trkpt>
      <trkpt lat="45.07389" lon="4.95949">
        <ele>-6.4</ele>
        <time>2022-01-29T12:35:16Z</time>
      </trkpt>
      <trkpt lat="45.07384" lon="4.95952">
        <ele>-5.4</ele>
        <time>2022-01-29T12:35:20Z</time>
      </trkpt>
      <trkpt lat="45.07379" lon="4.95954">
        <ele>-4</ele>
        <time>2022-01-29T12:35:24Z</time>
      </trkpt>
      <trkpt lat="45.07373" lon="4.95955">
        <ele>-4</ele>
        <time>2022-01-29T12:35:28Z</time>
      </trkpt>
      <trkpt lat="45.07367" lon="4.95955">
        <ele>-3.2</ele>
        <time>2022-01-29T12:35:32Z</time>
      </trkpt>
      <trkpt lat="45.07361" lon="4.95956">
        <ele>-2.4</ele>
        <time>2022-01-29T12:35:36Z</time>
      </trkpt>
      <trkpt lat="45.07356" lon="4.95956">
        <ele>-1.2</ele>
        <time>2022-01-29T12:35:40Z</time>
      </trkpt>
      <trkpt lat="45.07351" lon="4.95956">
        <ele>-0.19999999999999</ele>
        <time>2022-01-29T12:35:44Z</time>
      </trkpt>
      <trkpt lat="45.07345" lon="4.95956">
        <ele>0.60000000000002</ele>
        <time>2022-01-29T12:35:48Z</time>
      </trkpt>
      <trkpt lat="45.07339" lon="4.95958">
        <ele>1.4</ele>
        <time>2022-01-29T12:35:52Z</time>
      </trkpt>
      <trkpt lat="45.07334" lon="4.95961">
        <ele>2.6</ele>
        <time>2022-01-29T12:35:56Z</time>
      </trkpt>
      <trkpt lat="45.0733" lon="4.95966">
        <ele>3.4</ele>
        <time>2022-01-29T12:36:00Z</time>
      </trkpt>
      <trkpt lat="45.07328" lon="4.95973">
        <ele>4</ele>
        <time>2022-01-29T12:36:04Z</time>
      </trkpt>
      <trkpt lat="45.07325" lon="4.95982">
        <ele>5.4</ele>
        <time>2022-01-29T12:36:08Z</time>
      </trkpt>
      <trkpt lat="45.07324" lon="4.95992">
        <ele>6.2</ele>
        <time>2022-01-29T12:36:12Z</time>
      </trkpt>
      <trkpt lat="45.07322" lon="4.96003">
        <ele>5.8</ele>
        <time>2022-01-29T12:36:16Z</time>
      </trkpt>
      <trkpt lat="45.07321" lon="4.96017">
        <ele>6.4</ele>
        <time>2022-01-29T12:36:20Z</time>
      </trkpt>
      <trkpt lat="45.07319" lon="4.96031">
        <ele>7.4</ele>
        <time>2022-01-29T12:36:24Z</time>
      </trkpt>
      <trkpt lat="45.07318" lon="4.96044">
        <ele>7.6</ele>
        <time>2022-01-29T12:36:28Z</time>
      </trkpt>
      <trkpt lat="45.07315" lon="4.96057">
        <ele>8.2</ele>
        <time>2022-01-29T12:36:32Z</time>
      </trkpt>
      <trkpt lat="45.07313" lon="4.96072">
        <ele>8.8</ele>
        <time>2022-01-29T12:36:36Z</time>
      </trkpt>
      <trkpt lat="45.07311" lon="4.96088">
        <ele>9.4</ele>
        <time>2022-01-29T12:36:40Z</time>
      </trkpt>
      <trkpt lat="45.07307" lon="4.96105">
        <ele>9.8</ele>
        <time>2022-01-29T12:36:44Z</time>
      </trkpt>
      <trkpt lat="45.07303" lon="4.96122">
        <ele>9.8</ele>
        <time>2022-01-29T12:36:48Z</time>
      </trkpt>
      <trkpt lat="45.073" lon="4.96138">
        <ele>10.2</ele>
        <time>2022-01-29T12:36:52Z</time>
      </trkpt>
      <trkpt lat="45.07297" lon="4.96156">
        <ele>11.4</ele>
        <time>2022-01-29T12:36:56Z</time>
      </trkpt>
      <trkpt lat="45.07293" lon="4.96172">
        <ele>11.8</ele>
        <time>2022-01-29T12:37:00Z</time>
      </trkpt>
      <trkpt lat="45.07289" lon="4.96189">
        <ele>12</ele>
        <time>2022-01-29T12:37:04Z</time>
      </trkpt>
      <trkpt lat="45.07284" lon="4.96205">
        <ele>12.2</ele>
        <time>2022-01-29T12:37:08Z</time>
      </trkpt>
      <trkpt lat="45.0728" lon="4.96217">
        <ele>12.8</ele>
        <time>2022-01-29T12:37:12Z</time>
      </trkpt>
      <trkpt lat="45.07275" lon="4.96232">
        <ele>13.2</ele>
        <time>2022-01-29T12:37:16Z</time>
      </trkpt>
      <trkpt lat="45.07271" lon="4.96246">
        <ele>13.2</ele>
        <time>2022-01-29T12:37:20Z</time>
      </trkpt>
      <trkpt lat="45.07267" lon="4.9626">
        <ele>14.2</ele>
        <time>2022-01-29T12:37:24Z</time>
      </trkpt>
      <trkpt lat="45.07264" lon="4.96273">
        <ele>15</ele>
        <time>2022-01-29T12:37:28Z</time>
      </trkpt>
      <trkpt lat="45.07262" lon="4.96284">
        <ele>16.2</ele>
        <time>2022-01-29T12:37:32Z</time>
      </trkpt>
      <trkpt lat="45.07264" lon="4.96294">
        <ele>17.2</ele>
        <time>2022-01-29T12:37:36Z</time>
      </trkpt>
      <trkpt lat="45.07268" lon="4.96301">
        <ele>17.8</ele>
        <time>2022-01-29T12:37:40Z</time>
      </trkpt>
      <trkpt lat="45.07274" lon="4.96305">
        <ele>19.2</ele>
        <time>2022-01-29T12:37:44Z</time>
      </trkpt>
      <trkpt lat="45.07281" lon="4.96308">
        <ele>20.2</ele>
        <time>2022-01-29T12:37:48Z</time>
      </trkpt>
      <trkpt lat="45.07286" lon="4.96313">
        <ele>21.2</ele>
        <time>2022-01-29T12:37:52Z</time>
      </trkpt>
      <trkpt lat="45.07292" lon="4.96316">
        <ele>22</ele>
        <time>2022-01-29T12:37:56Z</time>
      </trkpt>
      <trkpt lat="45.07297" lon="4.96321">
        <ele>22.6</ele>
        <time>2022-01-29T12:38:00Z</time>
      </trkpt>
      <trkpt lat="45.07303" lon="4.96326">
        <ele>23.8</ele>
        <time>2022-01-29T12:38:04Z</time>
      </trkpt>
      <trkpt lat="45.07307" lon="4.96333">
        <ele>24.8</ele>
        <time>2022-01-29T12:38:08Z</time>
      </trkpt>
      <trkpt lat="45.07312" lon="4.96341">
        <ele>25.2</ele>
        <time>2022-01-29T12:38:12Z</time>
      </trkpt>
      <trkpt lat="45.07317" lon="4.96348">
        <ele>25.6</ele>
        <time>2022-01-29T12:38:16Z</time>
      </trkpt>
      <trkpt lat="45.07322" lon="4.96356">
        <ele>26</ele>
        <time>2022-01-29T12:38:20Z</time>
      </trkpt>
      <trkpt lat="45.07327" lon="4.96363">
        <ele>27.2</ele>
        <time>2022-01-29T12:38:24Z</time>
      </trkpt>
      <trkpt lat="45.07333" lon="4.9637">
        <ele>27.6</ele>
        <time>2022-01-29T12:38:28Z</time>
      </trkpt>
      <trkpt lat="45.07338" lon="4.96378">
        <ele>28.2</ele>
        <time>2022-01-29T12:38:32Z</time>
      </trkpt>
      <trkpt lat="45.07344" lon="4.96386">
        <ele>29</ele>
        <time>2022-01-29T12:38:36Z</time>
      </trkpt>
      <trkpt lat="45.07351" lon="4.96394">
        <ele>29.8</ele>
        <time>2022-01-29T12:38:40Z</time>
      </trkpt>
      <trkpt lat="45.07356" lon="4.96402">
        <ele>29.8</ele>
        <time>2022-01-29T12:38:44Z</time>
      </trkpt>
      <trkpt lat="45.07363" lon="4.9641">
        <ele>30.6</ele>
        <time>2022-01-29T12:38:48Z</time>
      </trkpt>
      <trkpt lat="45.07369" lon="4.96417">
        <ele>31.2</ele>
        <time>2022-01-29T12:38:52Z</time>
      </trkpt>
      <trkpt lat="45.07375" lon="4.96424">
        <ele>31.6</ele>
        <time>2022-01-29T12:38:56Z</time>
      </trkpt>
      <trkpt lat="45.07381" lon="4.96432">
        <ele>32</ele>
        <time>2022-01-29T12:39:00Z</time>
      </trkpt>
      <trkpt lat="45.07387" lon="4.96439">
        <ele>33</ele>
        <time>2022-01-29T12:39:04Z</time>
      </trkpt>
      <trkpt lat="45.07393" lon="4.96446">
        <ele>33</ele>
        <time>2022-01-29T12:39:08Z</time>
      </trkpt>
      <trkpt lat="45.07399" lon="4.96454">
        <ele>34.4</ele>
        <time>2022-01-29T12:39:12Z</time>
      </trkpt>
      <trkpt lat="45.07405" lon="4.96461">
        <ele>34.8</ele>
        <time>2022-01-29T12:39:16Z</time>
      </trkpt>
      <trkpt lat="45.0741" lon="4.96468">
        <ele>35</ele>
        <time>2022-01-29T12:39:20Z</time>
      </trkpt>
      <trkpt lat="45.07415" lon="4.96474">
        <ele>36</ele>
        <time>2022-01-29T12:39:24Z</time>
      </trkpt>
      <trkpt lat="45.07421" lon="4.9648">
        <ele>37</ele>
        <time>2022-01-29T12:39:28Z</time>
      </trkpt>
      <trkpt lat="45.07426" lon="4.96487">
        <ele>37.6</ele>
        <time>2022-01-29T12:39:32Z</time>
      </trkpt>
      <trkpt lat="45.07431" lon="4.96493">
        <ele>38.6</ele>
        <time>2022-01-29T12:39:36Z</time>
      </trkpt>
      <trkpt lat="45.07437" lon="4.96499">
        <ele>39.4</ele>
        <time>2022-01-29T12:39:40Z</time>
      </trkpt>
      <trkpt lat="45.07444" lon="4.96504">
        <ele>39.4</ele>
        <time>2022-01-29T12:39:44Z</time>
      </trkpt>
      <trkpt lat="45.0745" lon="4.9651">
        <ele>40</ele>
        <time>2022-01-29T12:39:48Z</time>
      </trkpt>
      <trkpt lat="45.07457" lon="4.96516">
        <ele>40.4</ele>
        <time>2022-01-29T12:39:52Z</time>
      </trkpt>
      <trkpt lat="45.07463" lon="4.96523">
        <ele>40.8</ele>
        <time>2022-01-29T12:39:56Z</time>
      </trkpt>
      <trkpt lat="45.07469" lon="4.96532">
        <ele>41</ele>
        <time>2022-01-29T12:40:00Z</time>
      </trkpt>
      <trkpt lat="45.07473" lon="4.96543">
        <ele>41.4</ele>
        <time>2022-01-29T12:40:04Z</time>
      </trkpt>
      <trkpt lat="45.07474" lon="4.96555">
        <ele>42</ele>
        <time>2022-01-29T12:40:08Z</time>
      </trkpt>
      <trkpt lat="45.07473" lon="4.96568">
        <ele>43</ele>
        <time>2022-01-29T12:40:12Z</time>
      </trkpt>
      <trkpt lat="45.07474" lon="4.96584">
        <ele>43</ele>
        <time>2022-01-29T12:40:16Z</time>
      </trkpt>
      <trkpt lat="45.07477" lon="4.96602">
        <ele>43.2</ele>
        <time>2022-01-29T12:40:20Z</time>
      </trkpt>
      <trkpt lat="45.07481" lon="4.96619">
        <ele>43.2</ele>
        <time>2022-01-29T12:40:24Z</time>
      </trkpt>
      <trkpt lat="45.07487" lon="4.96635">
        <ele>43.4</ele>
        <time>2022-01-29T12:40:28Z</time>
      </trkpt>
      <trkpt lat="45.07493" lon="4.96649">
        <ele>44</ele>
        <time>2022-01-29T12:40:32Z</time>
      </trkpt>
      <trkpt lat="45.07501" lon="4.96658">
        <ele>44</ele>
        <time>2022-01-29T12:40:36Z</time>
      </trkpt>
      <trkpt lat="45.07509" lon="4.96662">
        <ele>44.4</ele>
        <time>2022-01-29T12:40:40Z</time>
      </trkpt>
      <trkpt lat="45.07516" lon="4.96665">
        <ele>46.4</ele>
        <time>2022-01-29T12:40:44Z</time>
      </trkpt>
      <trkpt lat="45.07522" lon="4.96665">
        <ele>46.8</ele>
        <time>2022-01-29T12:40:48Z</time>
      </trkpt>
      <trkpt lat="45.07528" lon="4.96664">
        <ele>47.4</ele>
        <time>2022-01-29T12:40:52Z</time>
      </trkpt>
      <trkpt lat="45.07534" lon="4.96663">
        <ele>48</ele>
        <time>2022-01-29T12:40:56Z</time>
      </trkpt>
      <trkpt lat="45.07539" lon="4.96662">
        <ele>48.8</ele>
        <time>2022-01-29T12:41:00Z</time>
      </trkpt>
      <trkpt lat="45.07545" lon="4.9666">
        <ele>50.2</ele>
        <time>2022-01-29T12:41:04Z</time>
      </trkpt>
      <trkpt lat="45.0755" lon="4.96658">
        <ele>51.4</ele>
        <time>2022-01-29T12:41:08Z</time>
      </trkpt>
      <trkpt lat="45.07555" lon="4.96656">
        <ele>52.2</ele>
        <time>2022-01-29T12:41:12Z</time>
      </trkpt>
      <trkpt lat="45.07559" lon="4.96654">
        <ele>52.6</ele>
        <time>2022-01-29T12:41:16Z</time>
      </trkpt>
      <trkpt lat="45.07564" lon="4.96652">
        <ele>53.4</ele>
        <time>2022-01-29T12:41:20Z</time>
      </trkpt>
      <trkpt lat="45.07569" lon="4.96653">
        <ele>54.6</ele>
        <time>2022-01-29T12:41:24Z</time>
      </trkpt>
      <trkpt lat="45.07574" lon="4.96655">
        <ele>55</ele>
        <time>2022-01-29T12:41:28Z</time>
      </trkpt>
      <trkpt lat="45.07577" lon="4.96659">
        <ele>56.8</ele>
        <time>2022-01-29T12:41:32Z</time>
      </trkpt>
      <trkpt lat="45.07582" lon="4.96663">
        <ele>56.8</ele>
        <time>2022-01-29T12:41:36Z</time>
      </trkpt>
      <trkpt lat="45.07586" lon="4.96668">
        <ele>57.4</ele>
        <time>2022-01-29T12:41:40Z</time>
      </trkpt>
      <trkpt lat="45.07591" lon="4.96673">
        <ele>57.6</ele>
        <time>2022-01-29T12:41:44Z</time>
      </trkpt>
      <trkpt lat="45.07596" lon="4.9668">
        <ele>58.6</ele>
        <time>2022-01-29T12:41:48Z</time>
      </trkpt>
      <trkpt lat="45.07603" lon="4.96687">
        <ele>58.6</ele>
        <time>2022-01-29T12:41:52Z</time>
      </trkpt>
      <trkpt lat="45.07609" lon="4.96696">
        <ele>59.2</ele>
        <time>2022-01-29T12:41:56Z</time>
      </trkpt>
      <trkpt lat="45.07616" lon="4.96704">
        <ele>59.4</ele>
        <time>2022-01-29T12:42:00Z</time>
      </trkpt>
      <trkpt lat="45.07623" lon="4.96713">
        <ele>59.4</ele>
        <time>2022-01-29T12:42:04Z</time>
      </trkpt>
      <trkpt lat="45.07631" lon="4.96723">
        <ele>60</ele>
        <time>2022-01-29T12:42:08Z</time>
      </trkpt>
      <trkpt lat="45.07638" lon="4.96734">
        <ele>61</ele>
        <time>2022-01-29T12:42:12Z</time>
      </trkpt>
      <trkpt lat="45.07646" lon="4.96742">
        <ele>61.4</ele>
        <time>2022-01-29T12:42:16Z</time>
      </trkpt>
      <trkpt lat="45.07653" lon="4.96749">
        <ele>61.6</ele>
        <time>2022-01-29T12:42:20Z</time>
      </trkpt>
      <trkpt lat="45.07661" lon="4.96754">
        <ele>62</ele>
        <time>2022-01-29T12:42:24Z</time>
      </trkpt>
      <trkpt lat="45.07669" lon="4.96759">
        <ele>62</ele>
        <time>2022-01-29T12:42:28Z</time>
      </trkpt>
      <trkpt lat="45.07678" lon="4.96763">
        <ele>61.6</ele>
        <time>2022-01-29T12:42:32Z</time>
      </trkpt>
      <trkpt lat="45.07688" lon="4.96767">
        <ele>62.6</ele>
        <time>2022-01-29T12:42:36Z</time>
      </trkpt>
      <trkpt lat="45.07697" lon="4.96772">
        <ele>62.6</ele>
        <time>2022-01-29T12:42:40Z</time>
      </trkpt>
      <trkpt lat="45.07708" lon="4.96778">
        <ele>62.4</ele>
        <time>2022-01-29T12:42:44Z</time>
      </trkpt>
      <trkpt lat="45.07718" lon="4.96785">
        <ele>63.2</ele>
        <time>2022-01-29T12:42:48Z</time>
      </trkpt>
      <trkpt lat="45.07727" lon="4.96792">
        <ele>62.8</ele>
        <time>2022-01-29T12:42:52Z</time>
      </trkpt>
      <trkpt lat="45.07737" lon="4.96801">
        <ele>62.8</ele>
        <time>2022-01-29T12:42:56Z</time>
      </trkpt>
      <trkpt lat="45.07747" lon="4.96811">
        <ele>63</ele>
        <time>2022-01-29T12:43:00Z</time>
      </trkpt>
      <trkpt lat="45.07758" lon="4.96818">
        <ele>63.8</ele>
        <time>2022-01-29T12:43:04Z</time>
      </trkpt>
      <trkpt lat="45.07769" lon="4.96826">
        <ele>63.8</ele>
        <time>2022-01-29T12:43:08Z</time>
      </trkpt>
      <trkpt lat="45.0778" lon="4.96833">
        <ele>63.8</ele>
        <time>2022-01-29T12:43:12Z</time>
      </trkpt>
      <trkpt lat="45.07791" lon="4.9684">
        <ele>63.8</ele>
        <time>2022-01-29T12:43:16Z</time>
      </trkpt>
      <trkpt lat="45.07804" lon="4.96847">
        <ele>64</ele>
        <time>2022-01-29T12:43:20Z</time>
      </trkpt>
      <trkpt lat="45.07817" lon="4.96854">
        <ele>64</ele>
        <time>2022-01-29T12:43:24Z</time>
      </trkpt>
      <trkpt lat="45.07829" lon="4.96861">
        <ele>65.4</ele>
        <time>2022-01-29T12:43:28Z</time>
      </trkpt>
      <trkpt lat="45.0784" lon="4.96867">
        <ele>65.2</ele>
        <time>2022-01-29T12:43:32Z</time>
      </trkpt>
      <trkpt lat="45.07852" lon="4.96873">
        <ele>64.6</ele>
        <time>2022-01-29T12:43:36Z</time>
      </trkpt>
      <trkpt lat="45.07863" lon="4.96878">
        <ele>65</ele>
        <time>2022-01-29T12:43:40Z</time>
      </trkpt>
      <trkpt lat="45.07875" lon="4.96883">
        <ele>64.4</ele>
        <time>2022-01-29T12:43:44Z</time>
      </trkpt>
      <trkpt lat="45.07887" lon="4.96888">
        <ele>64.2</ele>
        <time>2022-01-29T12:43:48Z</time>
      </trkpt>
      <trkpt lat="45.07898" lon="4.96893">
        <ele>64.4</ele>
        <time>2022-01-29T12:43:52Z</time>
      </trkpt>
      <trkpt lat="45.0791" lon="4.96899">
        <ele>65</ele>
        <time>2022-01-29T12:43:56Z</time>
      </trkpt>
      <trkpt lat="45.07922" lon="4.96905">
        <ele>65</ele>
        <time>2022-01-29T12:44:00Z</time>
      </trkpt>
      <trkpt lat="45.07933" lon="4.96912">
        <ele>66</ele>
        <time>2022-01-29T12:44:04Z</time>
      </trkpt>
      <trkpt lat="45.07945" lon="4.96918">
        <ele>66</ele>
        <time>2022-01-29T12:44:08Z</time>
      </trkpt>
      <trkpt lat="45.07956" lon="4.96927">
        <ele>66</ele>
        <time>2022-01-29T12:44:12Z</time>
      </trkpt>
      <trkpt lat="45.07967" lon="4.96935">
        <ele>67.4</ele>
        <time>2022-01-29T12:44:16Z</time>
      </trkpt>
      <trkpt lat="45.07978" lon="4.96942">
        <ele>66.4</ele>
        <time>2022-01-29T12:44:20Z</time>
      </trkpt>
      <trkpt lat="45.07989" lon="4.9695">
        <ele>66.8</ele>
        <time>2022-01-29T12:44:24Z</time>
      </trkpt>
      <trkpt lat="45.08" lon="4.96959">
        <ele>67.4</ele>
        <time>2022-01-29T12:44:28Z</time>
      </trkpt>
      <trkpt lat="45.0801" lon="4.96968">
        <ele>67.4</ele>
        <time>2022-01-29T12:44:32Z</time>
      </trkpt>
      <trkpt lat="45.0802" lon="4.96976">
        <ele>68.4</ele>
        <time>2022-01-29T12:44:36Z</time>
      </trkpt>
      <trkpt lat="45.0803" lon="4.96984">
        <ele>68.2</ele>
        <time>2022-01-29T12:44:40Z</time>
      </trkpt>
      <trkpt lat="45.08039" lon="4.96992">
        <ele>68.4</ele>
        <time>2022-01-29T12:44:44Z</time>
      </trkpt>
      <trkpt lat="45.08048" lon="4.97001">
        <ele>68.4</ele>
        <time>2022-01-29T12:44:48Z</time>
      </trkpt>
      <trkpt lat="45.08057" lon="4.97009">
        <ele>68.6</ele>
        <time>2022-01-29T12:44:52Z</time>
      </trkpt>
      <trkpt lat="45.08065" lon="4.97018">
        <ele>68.6</ele>
        <time>2022-01-29T12:44:56Z</time>
      </trkpt>
      <trkpt lat="45.08073" lon="4.9703">
        <ele>69.2</ele>
        <time>2022-01-29T12:45:00Z</time>
      </trkpt>
      <trkpt lat="45.08079" lon="4.97042">
        <ele>69.8</ele>
        <time>2022-01-29T12:45:04Z</time>
      </trkpt>
      <trkpt lat="45.08087" lon="4.97052">
        <ele>70.2</ele>
        <time>2022-01-29T12:45:08Z</time>
      </trkpt>
      <trkpt lat="45.08095" lon="4.9706">
        <ele>70.2</ele>
        <time>2022-01-29T12:45:12Z</time>
      </trkpt>
      <trkpt lat="45.08104" lon="4.97066">
        <ele>71.2</ele>
        <time>2022-01-29T12:45:16Z</time>
      </trkpt>
      <trkpt lat="45.08113" lon="4.9707">
        <ele>70.6</ele>
        <time>2022-01-29T12:45:20Z</time>
      </trkpt>
      <trkpt lat="45.08121" lon="4.97075">
        <ele>71.6</ele>
        <time>2022-01-29T12:45:24Z</time>
      </trkpt>
      <trkpt lat="45.0813" lon="4.9708">
        <ele>72.2</ele>
        <time>2022-01-29T12:45:28Z</time>
      </trkpt>
      <trkpt lat="45.0814" lon="4.97085">
        <ele>72.4</ele>
        <time>2022-01-29T12:45:32Z</time>
      </trkpt>
      <trkpt lat="45.08149" lon="4.97091">
        <ele>72.6</ele>
        <time>2022-01-29T12:45:36Z</time>
      </trkpt>
      <trkpt lat="45.08158" lon="4.97097">
        <ele>72.8</ele>
        <time>2022-01-29T12:45:40Z</time>
      </trkpt>
      <trkpt lat="45.08167" lon="4.97104">
        <ele>73.2</ele>
        <time>2022-01-29T12:45:44Z</time>
      </trkpt>
      <trkpt lat="45.08176" lon="4.97112">
        <ele>73</ele>
        <time>2022-01-29T12:45:48Z</time>
      </trkpt>
      <trkpt lat="45.08185" lon="4.97119">
        <ele>74.2</ele>
        <time>2022-01-29T12:45:52Z</time>
      </trkpt>
      <trkpt lat="45.08193" lon="4.97125">
        <ele>74.2</ele>
        <time>2022-01-29T12:45:56Z</time>
      </trkpt>
      <trkpt lat="45.08202" lon="4.97131">
        <ele>75</ele>
        <time>2022-01-29T12:46:00Z</time>
      </trkpt>
      <trkpt lat="45.08211" lon="4.97136">
        <ele>74.8</ele>
        <time>2022-01-29T12:46:04Z</time>
      </trkpt>
      <trkpt lat="45.08221" lon="4.9714">
        <ele>75.8</ele>
        <time>2022-01-29T12:46:08Z</time>
      </trkpt>
      <trkpt lat="45.0823" lon="4.97144">
        <ele>76.2</ele>
        <time>2022-01-29T12:46:12Z</time>
      </trkpt>
      <trkpt lat="45.08239" lon="4.97147">
        <ele>76.8</ele>
        <time>2022-01-29T12:46:16Z</time>
      </trkpt>
      <trkpt lat="45.08248" lon="4.97151">
        <ele>77.2</ele>
        <time>2022-01-29T12:46:20Z</time>
      </trkpt>
      <trkpt lat="45.08256" lon="4.97154">
        <ele>77.8</ele>
        <time>2022-01-29T12:46:24Z</time>
      </trkpt>
      <trkpt lat="45.08265" lon="4.97157">
        <ele>78.6</ele>
        <time>2022-01-29T12:46:28Z</time>
      </trkpt>
      <trkpt lat="45.08274" lon="4.97159">
        <ele>78.8</ele>
        <time>2022-01-29T12:46:32Z</time>
      </trkpt>
      <trkpt lat="45.08282" lon="4.97161">
        <ele>80</ele>
        <time>2022-01-29T12:46:36Z</time>
      </trkpt>
      <trkpt lat="45.08289" lon="4.97164">
        <ele>80.4</ele>
        <time>2022-01-29T12:46:40Z</time>
      </trkpt>
      <trkpt lat="45.08297" lon="4.97166">
        <ele>81</ele>
        <time>2022-01-29T12:46:44Z</time>
      </trkpt>
      <trkpt lat="45.08304" lon="4.97169">
        <ele>81.4</ele>
        <time>2022-01-29T12:46:48Z</time>
      </trkpt>
      <trkpt lat="45.08311" lon="4.97171">
        <ele>82</ele>
        <time>2022-01-29T12:46:52Z</time>
      </trkpt>
      <trkpt lat="45.08318" lon="4.97173">
        <ele>82.4</ele>
        <time>2022-01-29T12:46:56Z</time>
      </trkpt>
      <trkpt lat="45.08325" lon="4.97176">
        <ele>82.8</ele>
        <time>2022-01-29T12:47:00Z</time>
      </trkpt>
      <trkpt lat="45.08332" lon="4.97178">
        <ele>83.2</ele>
        <time>2022-01-29T12:47:04Z</time>
      </trkpt>
      <trkpt lat="45.0834" lon="4.97179">
        <ele>84</ele>
        <time>2022-01-29T12:47:08Z</time>
      </trkpt>
      <trkpt lat="45.08348" lon="4.9718">
        <ele>85</ele>
        <time>2022-01-29T12:47:12Z</time>
      </trkpt>
      <trkpt lat="45.08356" lon="4.97182">
        <ele>85</ele>
        <time>2022-01-29T12:47:16Z</time>
      </trkpt>
      <trkpt lat="45.08363" lon="4.97184">
        <ele>86.4</ele>
        <time>2022-01-29T12:47:20Z</time>
      </trkpt>
      <trkpt lat="45.0837" lon="4.97186">
        <ele>87.8</ele>
        <time>2022-01-29T12:47:24Z</time>
      </trkpt>
      <trkpt lat="45.08378" lon="4.97189">
        <ele>88.6</ele>
        <time>2022-01-29T12:47:28Z</time>
      </trkpt>
      <trkpt lat="45.08386" lon="4.97193">
        <ele>88.6</ele>
        <time>2022-01-29T12:47:32Z</time>
      </trkpt>
      <trkpt lat="45.08394" lon="4.97195">
        <ele>88.8</ele>
        <time>2022-01-29T12:47:36Z</time>
      </trkpt>
      <trkpt lat="45.084" lon="4.97201">
        <ele>89.4</ele>
        <time>2022-01-29T12:47:40Z</time>
      </trkpt>
      <trkpt lat="45.08407" lon="4.97207">
        <ele>90.2</ele>
        <time>2022-01-29T12:47:44Z</time>
      </trkpt>
      <trkpt lat="45.08413" lon="4.97213">
        <ele>90.8</ele>
        <time>2022-01-29T12:47:48Z</time>
      </trkpt>
      <trkpt lat="45.08419" lon="4.97219">
        <ele>91.8</ele>
        <time>2022-01-29T12:47:52Z</time>
      </trkpt>
      <trkpt lat="45.08426" lon="4.97226">
        <ele>92.2</ele>
        <time>2022-01-29T12:47:56Z</time>
      </trkpt>
      <trkpt lat="45.08433" lon="4.97234">
        <ele>92.6</ele>
        <time>2022-01-29T12:48:00Z</time>
      </trkpt>
      <trkpt lat="45.08441" lon="4.97242">
        <ele>93.2</ele>
        <time>2022-01-29T12:48:04Z</time>
      </trkpt>
      <trkpt lat="45.08448" lon="4.97252">
        <ele>93.2</ele>
        <time>2022-01-29T12:48:08Z</time>
      </trkpt>
      <trkpt lat="45.08456" lon="4.97262">
        <ele>93.4</ele>
        <time>2022-01-29T12:48:12Z</time>
      </trkpt>
      <trkpt lat="45.08466" lon="4.97271">
        <ele>93.8</ele>
        <time>2022-01-29T12:48:16Z</time>
      </trkpt>
      <trkpt lat="45.08476" lon="4.97279">
        <ele>93.8</ele>
        <time>2022-01-29T12:48:20Z</time>
      </trkpt>
      <trkpt lat="45.08487" lon="4.97283">
        <ele>93.8</ele>
        <time>2022-01-29T12:48:24Z</time>
      </trkpt>
      <trkpt lat="45.08497" lon="4.97287">
        <ele>94.6</ele>
        <time>2022-01-29T12:48:28Z</time>
      </trkpt>
      <trkpt lat="45.08508" lon="4.97287">
        <ele>95.2</ele>
        <time>2022-01-29T12:48:32Z</time>
      </trkpt>
      <trkpt lat="45.08518" lon="4.97282">
        <ele>95.2</ele>
        <time>2022-01-29T12:48:36Z</time>
      </trkpt>
      <trkpt lat="45.08527" lon="4.97274">
        <ele>94.8</ele>
        <time>2022-01-29T12:48:40Z</time>
      </trkpt>
      <trkpt lat="45.08536" lon="4.97265">
        <ele>95</ele>
        <time>2022-01-29T12:48:44Z</time>
      </trkpt>
      <trkpt lat="45.08546" lon="4.97258">
        <ele>94.4</ele>
        <time>2022-01-29T12:48:48Z</time>
      </trkpt>
      <trkpt lat="45.08557" lon="4.97268">
        <ele>94</ele>
        <time>2022-01-29T12:48:52Z</time>
      </trkpt>
      <trkpt lat="45.08566" lon="4.97283">
        <ele>94.2</ele>
        <time>2022-01-29T12:48:56Z</time>
      </trkpt>
      <trkpt lat="45.08576" lon="4.97296">
        <ele>94.2</ele>
        <time>2022-01-29T12:49:00Z</time>
      </trkpt>
      <trkpt lat="45.08586" lon="4.97312">
        <ele>93</ele>
        <time>2022-01-29T12:49:04Z</time>
      </trkpt>
      <trkpt lat="45.08594" lon="4.97328">
        <ele>93.6</ele>
        <time>2022-01-29T12:49:08Z</time>
      </trkpt>
      <trkpt lat="45.08605" lon="4.97343">
        <ele>93.8</ele>
        <time>2022-01-29T12:49:12Z</time>
      </trkpt>
      <trkpt lat="45.08617" lon="4.97356">
        <ele>93.6</ele>
        <time>2022-01-29T12:49:16Z</time>
      </trkpt>
      <trkpt lat="45.08629" lon="4.97368">
        <ele>93.2</ele>
        <time>2022-01-29T12:49:20Z</time>
      </trkpt>
      <trkpt lat="45.0864" lon="4.97379">
        <ele>92.2</ele>
        <time>2022-01-29T12:49:24Z</time>
      </trkpt>
      <trkpt lat="45.0865" lon="4.97392">
        <ele>92.6</ele>
        <time>2022-01-29T12:49:28Z</time>
      </trkpt>
      <trkpt lat="45.08659" lon="4.97404">
        <ele>94.4</ele>
        <time>2022-01-29T12:49:32Z</time>
      </trkpt>
      <trkpt lat="45.08665" lon="4.97416">
        <ele>93.2</ele>
        <time>2022-01-29T12:49:36Z</time>
      </trkpt>
      <trkpt lat="45.08669" lon="4.97428">
        <ele>95.8</ele>
        <time>2022-01-29T12:49:40Z</time>
      </trkpt>
      <trkpt lat="45.08678" lon="4.97434">
        <ele>96.4</ele>
        <time>2022-01-29T12:49:44Z</time>
      </trkpt>
      <trkpt lat="45.08687" lon="4.97439">
        <ele>96.4</ele>
        <time>2022-01-29T12:49:48Z</time>
      </trkpt>
      <trkpt lat="45.08694" lon="4.97444">
        <ele>97.6</ele>
        <time>2022-01-29T12:49:52Z</time>
      </trkpt>
      <trkpt lat="45.087" lon="4.97449">
        <ele>97.8</ele>
        <time>2022-01-29T12:49:56Z</time>
      </trkpt>
      <trkpt lat="45.08708" lon="4.97455">
        <ele>98.2</ele>
        <time>2022-01-29T12:50:00Z</time>
      </trkpt>
      <trkpt lat="45.08717" lon="4.97462">
        <ele>99.6</ele>
        <time>2022-01-29T12:50:04Z</time>
      </trkpt>
      <trkpt lat="45.08727" lon="4.97469">
        <ele>99.4</ele>
        <time>2022-01-29T12:50:08Z</time>
      </trkpt>
      <trkpt lat="45.08735" lon="4.97475">
        <ele>100.4</ele>
        <time>2022-01-29T12:50:12Z</time>
      </trkpt>
      <trkpt lat="45.08746" lon="4.97481">
        <ele>100.8</ele>
        <time>2022-01-29T12:50:16Z</time>
      </trkpt>
      <trkpt lat="45.08757" lon="4.97488">
        <ele>101</ele>
        <time>2022-01-29T12:50:20Z</time>
      </trkpt>
      <trkpt lat="45.08768" lon="4.97494">
        <ele>101</ele>
        <time>2022-01-29T12:50:24Z</time>
      </trkpt>
      <trkpt lat="45.08779" lon="4.97501">
        <ele>101.2</ele>
        <time>2022-01-29T12:50:28Z</time>
      </trkpt>
      <trkpt lat="45.08791" lon="4.97505">
        <ele>101.4</ele>
        <time>2022-01-29T12:50:32Z</time>
      </trkpt>
      <trkpt lat="45.08803" lon="4.97509">
        <ele>101.6</ele>
        <time>2022-01-29T12:50:36Z</time>
      </trkpt>
      <trkpt lat="45.08814" lon="4.97511">
        <ele>102.2</ele>
        <time>2022-01-29T12:50:40Z</time>
      </trkpt>
      <trkpt lat="45.08826" lon="4.97513">
        <ele>102.4</ele>
        <time>2022-01-29T12:50:44Z</time>
      </trkpt>
      <trkpt lat="45.08838" lon="4.97515">
        <ele>102.6</ele>
        <time>2022-01-29T12:50:48Z</time>
      </trkpt>
      <trkpt lat="45.0885" lon="4.97516">
        <ele>103.4</ele>
        <time>2022-01-29T12:50:52Z</time>
      </trkpt>
      <trkpt lat="45.08861" lon="4.97517">
        <ele>104</ele>
        <time>2022-01-29T12:50:56Z</time>
      </trkpt>
      <trkpt lat="45.08873" lon="4.97518">
        <ele>104.6</ele>
        <time>2022-01-29T12:51:00Z</time>
      </trkpt>
      <trkpt lat="45.08884" lon="4.97523">
        <ele>104</ele>
        <time>2022-01-29T12:51:04Z</time>
      </trkpt>
      <trkpt lat="45.08895" lon="4.97528">
        <ele>103.6</ele>
        <time>2022-01-29T12:51:08Z</time>
      </trkpt>
      <trkpt lat="45.08904" lon="4.97534">
        <ele>104.4</ele>
        <time>2022-01-29T12:51:12Z</time>
      </trkpt>
      <trkpt lat="45.08913" lon="4.97541">
        <ele>106.2</ele>
        <time>2022-01-29T12:51:16Z</time>
      </trkpt>
      <trkpt lat="45.08921" lon="4.97548">
        <ele>106.6</ele>
        <time>2022-01-29T12:51:20Z</time>
      </trkpt>
      <trkpt lat="45.08929" lon="4.97555">
        <ele>105.6</ele>
        <time>2022-01-29T12:51:24Z</time>
      </trkpt>
      <trkpt lat="45.08936" lon="4.97563">
        <ele>107.2</ele>
        <time>2022-01-29T12:51:28Z</time>
      </trkpt>
      <trkpt lat="45.08944" lon="4.97569">
        <ele>107.8</ele>
        <time>2022-01-29T12:51:32Z</time>
      </trkpt>
      <trkpt lat="45.08951" lon="4.97576">
        <ele>108.2</ele>
        <time>2022-01-29T12:51:36Z</time>
      </trkpt>
      <trkpt lat="45.0896" lon="4.97582">
        <ele>108.8</ele>
        <time>2022-01-29T12:51:40Z</time>
      </trkpt>
      <trkpt lat="45.08968" lon="4.97588">
        <ele>108.8</ele>
        <time>2022-01-29T12:51:44Z</time>
      </trkpt>
      <trkpt lat="45.08977" lon="4.97594">
        <ele>110</ele>
        <time>2022-01-29T12:51:48Z</time>
      </trkpt>
      <trkpt lat="45.08987" lon="4.97599">
        <ele>110</ele>
        <time>2022-01-29T12:51:52Z</time>
      </trkpt>
      <trkpt lat="45.08997" lon="4.97604">
        <ele>110.6</ele>
        <time>2022-01-29T12:51:56Z</time>
      </trkpt>
      <trkpt lat="45.09007" lon="4.9761">
        <ele>110.8</ele>
        <time>2022-01-29T12:52:00Z</time>
      </trkpt>
      <trkpt lat="45.09017" lon="4.97615">
        <ele>111.2</ele>
        <time>2022-01-29T12:52:04Z</time>
      </trkpt>
      <trkpt lat="45.09028" lon="4.97621">
        <ele>111.8</ele>
        <time>2022-01-29T12:52:08Z</time>
      </trkpt>
      <trkpt lat="45.09039" lon="4.97629">
        <ele>110.8</ele>
        <time>2022-01-29T12:52:12Z</time>
      </trkpt>
      <trkpt lat="45.0905" lon="4.97637">
        <ele>110.6</ele>
        <time>2022-01-29T12:52:16Z</time>
      </trkpt>
      <trkpt lat="45.09061" lon="4.97647">
        <ele>110.2</ele>
        <time>2022-01-29T12:52:20Z</time>
      </trkpt>
      <trkpt lat="45.09071" lon="4.97665">
        <ele>109.6</ele>
        <time>2022-01-29T12:52:24Z</time>
      </trkpt>
      <trkpt lat="45.09078" lon="4.97687">
        <ele>109.8</ele>
        <time>2022-01-29T12:52:28Z</time>
      </trkpt>
      <trkpt lat="45.09086" lon="4.97711">
        <ele>109.6</ele>
        <time>2022-01-29T12:52:32Z</time>
      </trkpt>
      <trkpt lat="45.09092" lon="4.97735">
        <ele>109.2</ele>
        <time>2022-01-29T12:52:36Z</time>
      </trkpt>
      <trkpt lat="45.09099" lon="4.97754">
        <ele>108.2</ele>
        <time>2022-01-29T12:52:40Z</time>
      </trkpt>
      <trkpt lat="45.09105" lon="4.9777">
        <ele>106.8</ele>
        <time>2022-01-29T12:52:44Z</time>
      </trkpt>
      <trkpt lat="45.09113" lon="4.97784">
        <ele>107.6</ele>
        <time>2022-01-29T12:52:48Z</time>
      </trkpt>
      <trkpt lat="45.09122" lon="4.97797">
        <ele>107.8</ele>
        <time>2022-01-29T12:52:52Z</time>
      </trkpt>
      <trkpt lat="45.09131" lon="4.97812">
        <ele>107.8</ele>
        <time>2022-01-29T12:52:56Z</time>
      </trkpt>
      <trkpt lat="45.09137" lon="4.97829">
        <ele>106.2</ele>
        <time>2022-01-29T12:53:00Z</time>
      </trkpt>
      <trkpt lat="45.09139" lon="4.97847">
        <ele>107.6</ele>
        <time>2022-01-29T12:53:04Z</time>
      </trkpt>
      <trkpt lat="45.09138" lon="4.97864">
        <ele>107.4</ele>
        <time>2022-01-29T12:53:08Z</time>
      </trkpt>
      <trkpt lat="45.09136" lon="4.97887">
        <ele>108</ele>
        <time>2022-01-29T12:53:12Z</time>
      </trkpt>
      <trkpt lat="45.09132" lon="4.9791">
        <ele>106.6</ele>
        <time>2022-01-29T12:53:16Z</time>
      </trkpt>
      <trkpt lat="45.09128" lon="4.97933">
        <ele>106.4</ele>
        <time>2022-01-29T12:53:20Z</time>
      </trkpt>
      <trkpt lat="45.09124" lon="4.97957">
        <ele>106</ele>
        <time>2022-01-29T12:53:24Z</time>
      </trkpt>
      <trkpt lat="45.0913" lon="4.9798">
        <ele>106.4</ele>
        <time>2022-01-29T12:53:28Z</time>
      </trkpt>
      <trkpt lat="45.09134" lon="4.98">
        <ele>106</ele>
        <time>2022-01-29T12:53:32Z</time>
      </trkpt>
      <trkpt lat="45.09138" lon="4.98017">
        <ele>107.4</ele>
        <time>2022-01-29T12:53:36Z</time>
      </trkpt>
      <trkpt lat="45.0914" lon="4.98035">
        <ele>107</ele>
        <time>2022-01-29T12:53:40Z</time>
      </trkpt>
      <trkpt lat="45.09143" lon="4.98051">
        <ele>107.8</ele>
        <time>2022-01-29T12:53:44Z</time>
      </trkpt>
      <trkpt lat="45.09146" lon="4.98067">
        <ele>107.8</ele>
        <time>2022-01-29T12:53:48Z</time>
      </trkpt>
      <trkpt lat="45.09149" lon="4.98084">
        <ele>108.2</ele>
        <time>2022-01-29T12:53:52Z</time>
      </trkpt>
      <trkpt lat="45.09152" lon="4.98102">
        <ele>108.6</ele>
        <time>2022-01-29T12:53:56Z</time>
      </trkpt>
      <trkpt lat="45.09155" lon="4.9812">
        <ele>108.6</ele>
        <time>2022-01-29T12:54:00Z</time>
      </trkpt>
      <trkpt lat="45.09157" lon="4.98138">
        <ele>109.2</ele>
        <time>2022-01-29T12:54:04Z</time>
      </trkpt>
      <trkpt lat="45.0916" lon="4.98156">
        <ele>109</ele>
        <time>2022-01-29T12:54:08Z</time>
      </trkpt>
      <trkpt lat="45.09161" lon="4.98175">
        <ele>109.2</ele>
        <time>2022-01-29T12:54:12Z</time>
      </trkpt>
      <trkpt lat="45.09163" lon="4.98195">
        <ele>109.2</ele>
        <time>2022-01-29T12:54:16Z</time>
      </trkpt>
      <trkpt lat="45.09164" lon="4.98213">
        <ele>109.8</ele>
        <time>2022-01-29T12:54:20Z</time>
      </trkpt>
      <trkpt lat="45.09166" lon="4.98232">
        <ele>109.8</ele>
        <time>2022-01-29T12:54:24Z</time>
      </trkpt>
      <trkpt lat="45.09169" lon="4.9825">
        <ele>109.6</ele>
        <time>2022-01-29T12:54:28Z</time>
      </trkpt>
      <trkpt lat="45.09173" lon="4.98268">
        <ele>110</ele>
        <time>2022-01-29T12:54:32Z</time>
      </trkpt>
      <trkpt lat="45.09177" lon="4.98285">
        <ele>111</ele>
        <time>2022-01-29T12:54:36Z</time>
      </trkpt>
      <trkpt lat="45.09181" lon="4.98301">
        <ele>111.8</ele>
        <time>2022-01-29T12:54:40Z</time>
      </trkpt>
      <trkpt lat="45.09185" lon="4.98316">
        <ele>112.2</ele>
        <time>2022-01-29T12:54:44Z</time>
      </trkpt>
      <trkpt lat="45.09188" lon="4.9833">
        <ele>112</ele>
        <time>2022-01-29T12:54:48Z</time>
      </trkpt>
      <trkpt lat="45.09193" lon="4.98344">
        <ele>112.8</ele>
        <time>2022-01-29T12:54:52Z</time>
      </trkpt>
      <trkpt lat="45.09199" lon="4.98356">
        <ele>114.4</ele>
        <time>2022-01-29T12:54:56Z</time>
      </trkpt>
      <trkpt lat="45.09205" lon="4.98367">
        <ele>114.2</ele>
        <time>2022-01-29T12:55:00Z</time>
      </trkpt>
      <trkpt lat="45.09212" lon="4.98377">
        <ele>114.8</ele>
        <time>2022-01-29T12:55:04Z</time>
      </trkpt>
      <trkpt lat="45.0922" lon="4.98386">
        <ele>115.4</ele>
        <time>2022-01-29T12:55:08Z</time>
      </trkpt>
      <trkpt lat="45.09228" lon="4.98396">
        <ele>115.4</ele>
        <time>2022-01-29T12:55:12Z</time>
      </trkpt>
      <trkpt lat="45.09235" lon="4.98406">
        <ele>116.2</ele>
        <time>2022-01-29T12:55:16Z</time>
      </trkpt>
      <trkpt lat="45.09243" lon="4.98416">
        <ele>117.2</ele>
        <time>2022-01-29T12:55:20Z</time>
      </trkpt>
      <trkpt lat="45.09251" lon="4.98425">
        <ele>117.2</ele>
        <time>2022-01-29T12:55:24Z</time>
      </trkpt>
      <trkpt lat="45.09259" lon="4.98435">
        <ele>118.2</ele>
        <time>2022-01-29T12:55:28Z</time>
      </trkpt>
      <trkpt lat="45.09267" lon="4.98445">
        <ele>118.8</ele>
        <time>2022-01-29T12:55:32Z</time>
      </trkpt>
      <trkpt lat="45.09275" lon="4.98454">
        <ele>119.2</ele>
        <time>2022-01-29T12:55:36Z</time>
      </trkpt>
      <trkpt lat="45.09282" lon="4.98465">
        <ele>119.2</ele>
        <time>2022-01-29T12:55:40Z</time>
      </trkpt>
      <trkpt lat="45.09291" lon="4.98475">
        <ele>120.2</ele>
        <time>2022-01-29T12:55:44Z</time>
      </trkpt>
      <trkpt lat="45.09299" lon="4.98485">
        <ele>120.2</ele>
        <time>2022-01-29T12:55:48Z</time>
      </trkpt>
      <trkpt lat="45.09307" lon="4.98495">
        <ele>120.8</ele>
        <time>2022-01-29T12:55:52Z</time>
      </trkpt>
      <trkpt lat="45.09316" lon="4.98504">
        <ele>121.2</ele>
        <time>2022-01-29T12:55:56Z</time>
      </trkpt>
      <trkpt lat="45.09327" lon="4.98512">
        <ele>121.2</ele>
        <time>2022-01-29T12:56:00Z</time>
      </trkpt>
      <trkpt lat="45.09338" lon="4.9852">
        <ele>121.2</ele>
        <time>2022-01-29T12:56:04Z</time>
      </trkpt>
      <trkpt lat="45.09352" lon="4.98526">
        <ele>120.2</ele>
        <time>2022-01-29T12:56:08Z</time>
      </trkpt>
      <trkpt lat="45.09367" lon="4.98531">
        <ele>119.6</ele>
        <time>2022-01-29T12:56:12Z</time>
      </trkpt>
      <trkpt lat="45.09383" lon="4.98535">
        <ele>118.2</ele>
        <time>2022-01-29T12:56:16Z</time>
      </trkpt>
      <trkpt lat="45.09399" lon="4.98537">
        <ele>117.6</ele>
        <time>2022-01-29T12:56:20Z</time>
      </trkpt>
      <trkpt lat="45.09414" lon="4.98539">
        <ele>117.8</ele>
        <time>2022-01-29T12:56:24Z</time>
      </trkpt>
      <trkpt lat="45.09429" lon="4.98541">
        <ele>117.6</ele>
        <time>2022-01-29T12:56:28Z</time>
      </trkpt>
      <trkpt lat="45.09443" lon="4.98543">
        <ele>116.8</ele>
        <time>2022-01-29T12:56:32Z</time>
      </trkpt>
      <trkpt lat="45.09458" lon="4.98545">
        <ele>117</ele>
        <time>2022-01-29T12:56:36Z</time>
      </trkpt>
      <trkpt lat="45.09472" lon="4.98547">
        <ele>116.6</ele>
        <time>2022-01-29T12:56:40Z</time>
      </trkpt>
      <trkpt lat="45.09488" lon="4.98549">
        <ele>115.8</ele>
        <time>2022-01-29T12:56:44Z</time>
      </trkpt>
      <trkpt lat="45.09504" lon="4.98552">
        <ele>115.6</ele>
        <time>2022-01-29T12:56:48Z</time>
      </trkpt>
      <trkpt lat="45.09521" lon="4.98557">
        <ele>114.8</ele>
        <time>2022-01-29T12:56:52Z</time>
      </trkpt>
      <trkpt lat="45.09539" lon="4.98563">
        <ele>114.6</ele>
        <time>2022-01-29T12:56:56Z</time>
      </trkpt>
      <trkpt lat="45.09556" lon="4.98571">
        <ele>113.4</ele>
        <time>2022-01-29T12:57:00Z</time>
      </trkpt>
      <trkpt lat="45.09573" lon="4.98578">
        <ele>113.4</ele>
        <time>2022-01-29T12:57:04Z</time>
      </trkpt>
      <trkpt lat="45.09589" lon="4.98586">
        <ele>113.4</ele>
        <time>2022-01-29T12:57:08Z</time>
      </trkpt>
      <trkpt lat="45.09605" lon="4.98593">
        <ele>112.6</ele>
        <time>2022-01-29T12:57:12Z</time>
      </trkpt>
      <trkpt lat="45.09621" lon="4.98601">
        <ele>112.4</ele>
        <time>2022-01-29T12:57:16Z</time>
      </trkpt>
      <trkpt lat="45.09636" lon="4.98608">
        <ele>113</ele>
        <time>2022-01-29T12:57:20Z</time>
      </trkpt>
      <trkpt lat="45.0965" lon="4.98615">
        <ele>112.8</ele>
        <time>2022-01-29T12:57:24Z</time>
      </trkpt>
      <trkpt lat="45.09663" lon="4.98623">
        <ele>112.6</ele>
        <time>2022-01-29T12:57:28Z</time>
      </trkpt>
      <trkpt lat="45.09676" lon="4.98631">
        <ele>113</ele>
        <time>2022-01-29T12:57:32Z</time>
      </trkpt>
      <trkpt lat="45.09689" lon="4.9864">
        <ele>111.8</ele>
        <time>2022-01-29T12:57:36Z</time>
      </trkpt>
      <trkpt lat="45.09701" lon="4.98649">
        <ele>111.8</ele>
        <time>2022-01-29T12:57:40Z</time>
      </trkpt>
      <trkpt lat="45.09715" lon="4.98658">
        <ele>111.8</ele>
        <time>2022-01-29T12:57:44Z</time>
      </trkpt>
      <trkpt lat="45.09729" lon="4.98668">
        <ele>112.2</ele>
        <time>2022-01-29T12:57:48Z</time>
      </trkpt>
      <trkpt lat="45.09742" lon="4.98679">
        <ele>111.6</ele>
        <time>2022-01-29T12:57:52Z</time>
      </trkpt>
      <trkpt lat="45.09755" lon="4.98692">
        <ele>111.8</ele>
        <time>2022-01-29T12:57:56Z</time>
      </trkpt>
      <trkpt lat="45.09765" lon="4.98703">
        <ele>112.4</ele>
        <time>2022-01-29T12:58:00Z</time>
      </trkpt>
      <trkpt lat="45.09773" lon="4.98714">
        <ele>112.8</ele>
        <time>2022-01-29T12:58:04Z</time>
      </trkpt>
      <trkpt lat="45.09781" lon="4.98722">
        <ele>113</ele>
        <time>2022-01-29T12:58:08Z</time>
      </trkpt>
      <trkpt lat="45.09787" lon="4.9873">
        <ele>113.6</ele>
        <time>2022-01-29T12:58:12Z</time>
      </trkpt>
      <trkpt lat="45.09794" lon="4.98737">
        <ele>114</ele>
        <time>2022-01-29T12:58:16Z</time>
      </trkpt>
      <trkpt lat="45.09799" lon="4.98745">
        <ele>114.4</ele>
        <time>2022-01-29T12:58:20Z</time>
      </trkpt>
      <trkpt lat="45.09804" lon="4.98754">
        <ele>114.8</ele>
        <time>2022-01-29T12:58:24Z</time>
      </trkpt>
      <trkpt lat="45.09812" lon="4.98761">
        <ele>115.4</ele>
        <time>2022-01-29T12:58:28Z</time>
      </trkpt>
      <trkpt lat="45.09819" lon="4.98769">
        <ele>115.8</ele>
        <time>2022-01-29T12:58:32Z</time>
      </trkpt>
      <trkpt lat="45.09825" lon="4.98777">
        <ele>115.8</ele>
        <time>2022-01-29T12:58:36Z</time>
      </trkpt>
      <trkpt lat="45.09835" lon="4.98784">
        <ele>117</ele>
        <time>2022-01-29T12:58:40Z</time>
      </trkpt>
      <trkpt lat="45.09842" lon="4.98791">
        <ele>117.6</ele>
        <time>2022-01-29T12:58:44Z</time>
      </trkpt>
      <trkpt lat="45.09848" lon="4.98799">
        <ele>118.2</ele>
        <time>2022-01-29T12:58:48Z</time>
      </trkpt>
      <trkpt lat="45.09855" lon="4.98807">
        <ele>118.4</ele>
        <time>2022-01-29T12:58:52Z</time>
      </trkpt>
      <trkpt lat="45.09861" lon="4.98816">
        <ele>119.4</ele>
        <time>2022-01-29T12:58:56Z</time>
      </trkpt>
      <trkpt lat="45.09866" lon="4.98825">
        <ele>119.4</ele>
        <time>2022-01-29T12:59:00Z</time>
      </trkpt>
      <trkpt lat="45.09873" lon="4.98834">
        <ele>120.4</ele>
        <time>2022-01-29T12:59:04Z</time>
      </trkpt>
      <trkpt lat="45.09879" lon="4.98844">
        <ele>121</ele>
        <time>2022-01-29T12:59:08Z</time>
      </trkpt>
      <trkpt lat="45.09885" lon="4.98853">
        <ele>121.4</ele>
        <time>2022-01-29T12:59:12Z</time>
      </trkpt>
      <trkpt lat="45.09891" lon="4.98862">
        <ele>121.6</ele>
        <time>2022-01-29T12:59:16Z</time>
      </trkpt>
      <trkpt lat="45.09895" lon="4.98873">
        <ele>122.8</ele>
        <time>2022-01-29T12:59:20Z</time>
      </trkpt>
      <trkpt lat="45.09897" lon="4.98883">
        <ele>124.2</ele>
        <time>2022-01-29T12:59:24Z</time>
      </trkpt>
      <trkpt lat="45.099" lon="4.98892">
        <ele>124.6</ele>
        <time>2022-01-29T12:59:28Z</time>
      </trkpt>
      <trkpt lat="45.09904" lon="4.98901">
        <ele>125</ele>
        <time>2022-01-29T12:59:32Z</time>
      </trkpt>
      <trkpt lat="45.09907" lon="4.98909">
        <ele>126</ele>
        <time>2022-01-29T12:59:36Z</time>
      </trkpt>
      <trkpt lat="45.09909" lon="4.98916">
        <ele>126.4</ele>
        <time>2022-01-29T12:59:40Z</time>
      </trkpt>
      <trkpt lat="45.09911" lon="4.98927">
        <ele>127</ele>
        <time>2022-01-29T12:59:44Z</time>
      </trkpt>
      <trkpt lat="45.09913" lon="4.9894">
        <ele>127.6</ele>
        <time>2022-01-29T12:59:48Z</time>
      </trkpt>
      <trkpt lat="45.09914" lon="4.9895">
        <ele>127.4</ele>
        <time>2022-01-29T12:59:52Z</time>
      </trkpt>
      <trkpt lat="45.09914" lon="4.98963">
        <ele>128</ele>
        <time>2022-01-29T12:59:56Z</time>
      </trkpt>
      <trkpt lat="45.09915" lon="4.98975">
        <ele>128.2</ele>
        <time>2022-01-29T13:00:00Z</time>
      </trkpt>
      <trkpt lat="45.09917" lon="4.98989">
        <ele>129</ele>
        <time>2022-01-29T13:00:04Z</time>
      </trkpt>
      <trkpt lat="45.09915" lon="4.99008">
        <ele>128.2</ele>
        <time>2022-01-29T13:00:08Z</time>
      </trkpt>
      <trkpt lat="45.09915" lon="4.99026">
        <ele>128.2</ele>
        <time>2022-01-29T13:00:12Z</time>
      </trkpt>
      <trkpt lat="45.09913" lon="4.99044">
        <ele>127.8</ele>
        <time>2022-01-29T13:00:16Z</time>
      </trkpt>
      <trkpt lat="45.09913" lon="4.99063">
        <ele>127.8</ele>
        <time>2022-01-29T13:00:20Z</time>
      </trkpt>
      <trkpt lat="45.09916" lon="4.99083">
        <ele>127.2</ele>
        <time>2022-01-29T13:00:24Z</time>
      </trkpt>
      <trkpt lat="45.09921" lon="4.99113">
        <ele>125.4</ele>
        <time>2022-01-29T13:00:28Z</time>
      </trkpt>
      <trkpt lat="45.09938" lon="4.99135">
        <ele>122.2</ele>
        <time>2022-01-29T13:00:32Z</time>
      </trkpt>
      <trkpt lat="45.09946" lon="4.99173">
        <ele>118.6</ele>
        <time>2022-01-29T13:00:36Z</time>
      </trkpt>
      <trkpt lat="45.09942" lon="4.99203">
        <ele>115.8</ele>
        <time>2022-01-29T13:00:40Z</time>
      </trkpt>
      <trkpt lat="45.09921" lon="4.99225">
        <ele>113.4</ele>
        <time>2022-01-29T13:00:44Z</time>
      </trkpt>
      <trkpt lat="45.09896" lon="4.99252">
        <ele>111</ele>
        <time>2022-01-29T13:00:48Z</time>
      </trkpt>
      <trkpt lat="45.09862" lon="4.99266">
        <ele>107.8</ele>
        <time>2022-01-29T13:00:52Z</time>
      </trkpt>
      <trkpt lat="45.09826" lon="4.99263">
        <ele>104.8</ele>
        <time>2022-01-29T13:00:56Z</time>
      </trkpt>
      <trkpt lat="45.09792" lon="4.9926">
        <ele>102.4</ele>
        <time>2022-01-29T13:01:00Z</time>
      </trkpt>
      <trkpt lat="45.09764" lon="4.99257">
        <ele>100.8</ele>
        <time>2022-01-29T13:01:04Z</time>
      </trkpt>
      <trkpt lat="45.09739" lon="4.99255">
        <ele>99.8</ele>
        <time>2022-01-29T13:01:08Z</time>
      </trkpt>
      <trkpt lat="45.09708" lon="4.99252">
        <ele>97.8</ele>
        <time>2022-01-29T13:01:12Z</time>
      </trkpt>
      <trkpt lat="45.09672" lon="4.99253">
        <ele>94.4</ele>
        <time>2022-01-29T13:01:16Z</time>
      </trkpt>
      <trkpt lat="45.09638" lon="4.99259">
        <ele>91.6</ele>
        <time>2022-01-29T13:01:20Z</time>
      </trkpt>
      <trkpt lat="45.09604" lon="4.99259">
        <ele>88.2</ele>
        <time>2022-01-29T13:01:24Z</time>
      </trkpt>
      <trkpt lat="45.0957" lon="4.99245">
        <ele>85.4</ele>
        <time>2022-01-29T13:01:28Z</time>
      </trkpt>
      <trkpt lat="45.09547" lon="4.99258">
        <ele>83.8</ele>
        <time>2022-01-29T13:01:32Z</time>
      </trkpt>
      <trkpt lat="45.0954" lon="4.99285">
        <ele>82</ele>
        <time>2022-01-29T13:01:36Z</time>
      </trkpt>
      <trkpt lat="45.09539" lon="4.99322">
        <ele>77.6</ele>
        <time>2022-01-29T13:01:40Z</time>
      </trkpt>
      <trkpt lat="45.09526" lon="4.99363">
        <ele>72.2</ele>
        <time>2022-01-29T13:01:44Z</time>
      </trkpt>
      <trkpt lat="45.09503" lon="4.99388">
        <ele>66.6</ele>
        <time>2022-01-29T13:01:48Z</time>
      </trkpt>
      <trkpt lat="45.09478" lon="4.99415">
        <ele>62.6</ele>
        <time>2022-01-29T13:01:52Z</time>
      </trkpt>
      <trkpt lat="45.09447" lon="4.99436">
        <ele>58.4</ele>
        <time>2022-01-29T13:01:56Z</time>
      </trkpt>
      <trkpt lat="45.09422" lon="4.99443">
        <ele>55.6</ele>
        <time>2022-01-29T13:02:00Z</time>
      </trkpt>
      <trkpt lat="45.09419" lon="4.99466">
        <ele>53.4</ele>
        <time>2022-01-29T13:02:04Z</time>
      </trkpt>
      <trkpt lat="45.09435" lon="4.99489">
        <ele>49</ele>
        <time>2022-01-29T13:02:08Z</time>
      </trkpt>
      <trkpt lat="45.09453" lon="4.99508">
        <ele>44.8</ele>
        <time>2022-01-29T13:02:12Z</time>
      </trkpt>
      <trkpt lat="45.09443" lon="4.99529">
        <ele>39.2</ele>
        <time>2022-01-29T13:02:16Z</time>
      </trkpt>
      <trkpt lat="45.09442" lon="4.99558">
        <ele>37</ele>
        <time>2022-01-29T13:02:20Z</time>
      </trkpt>
      <trkpt lat="45.09454" lon="4.99589">
        <ele>33.8</ele>
        <time>2022-01-29T13:02:24Z</time>
      </trkpt>
      <trkpt lat="45.09466" lon="4.99621">
        <ele>33.4</ele>
        <time>2022-01-29T13:02:28Z</time>
      </trkpt>
      <trkpt lat="45.09479" lon="4.99646">
        <ele>34</ele>
        <time>2022-01-29T13:02:32Z</time>
      </trkpt>
      <trkpt lat="45.0949" lon="4.99665">
        <ele>32.2</ele>
        <time>2022-01-29T13:02:36Z</time>
      </trkpt>
      <trkpt lat="45.095" lon="4.99683">
        <ele>32.2</ele>
        <time>2022-01-29T13:02:40Z</time>
      </trkpt>
      <trkpt lat="45.09509" lon="4.99699">
        <ele>33.2</ele>
        <time>2022-01-29T13:02:44Z</time>
      </trkpt>
      <trkpt lat="45.09518" lon="4.99714">
        <ele>34</ele>
        <time>2022-01-29T13:02:48Z</time>
      </trkpt>
      <trkpt lat="45.09527" lon="4.99728">
        <ele>34.4</ele>
        <time>2022-01-29T13:02:52Z</time>
      </trkpt>
      <trkpt lat="45.09535" lon="4.99742">
        <ele>33</ele>
        <time>2022-01-29T13:02:56Z</time>
      </trkpt>
      <trkpt lat="45.09544" lon="4.99756">
        <ele>34</ele>
        <time>2022-01-29T13:03:00Z</time>
      </trkpt>
      <trkpt lat="45.09552" lon="4.99769">
        <ele>34.4</ele>
        <time>2022-01-29T13:03:04Z</time>
      </trkpt>
      <trkpt lat="45.0956" lon="4.99781">
        <ele>34</ele>
        <time>2022-01-29T13:03:08Z</time>
      </trkpt>
      <trkpt lat="45.09563" lon="4.99789">
        <ele>34.8</ele>
        <time>2022-01-29T13:03:12Z</time>
      </trkpt>
      <trkpt lat="45.0956" lon="4.99799">
        <ele>33.8</ele>
        <time>2022-01-29T13:03:16Z</time>
      </trkpt>
      <trkpt lat="45.09552" lon="4.99805">
        <ele>33</ele>
        <time>2022-01-29T13:03:20Z</time>
      </trkpt>
      <trkpt lat="45.09544" lon="4.99814">
        <ele>33.2</ele>
        <time>2022-01-29T13:03:24Z</time>
      </trkpt>
      <trkpt lat="45.09536" lon="4.99824">
        <ele>34</ele>
        <time>2022-01-29T13:03:28Z</time>
      </trkpt>
      <trkpt lat="45.09527" lon="4.99836">
        <ele>33.4</ele>
        <time>2022-01-29T13:03:32Z</time>
      </trkpt>
      <trkpt lat="45.09517" lon="4.99848">
        <ele>34.2</ele>
        <time>2022-01-29T13:03:36Z</time>
      </trkpt>
      <trkpt lat="45.09507" lon="4.99859">
        <ele>34</ele>
        <time>2022-01-29T13:03:40Z</time>
      </trkpt>
      <trkpt lat="45.09497" lon="4.9987">
        <ele>34</ele>
        <time>2022-01-29T13:03:44Z</time>
      </trkpt>
      <trkpt lat="45.09488" lon="4.99879">
        <ele>33.8</ele>
        <time>2022-01-29T13:03:48Z</time>
      </trkpt>
      <trkpt lat="45.0948" lon="4.99887">
        <ele>33.8</ele>
        <time>2022-01-29T13:03:52Z</time>
      </trkpt>
      <trkpt lat="45.09471" lon="4.99896">
        <ele>34.4</ele>
        <time>2022-01-29T13:03:56Z</time>
      </trkpt>
      <trkpt lat="45.09463" lon="4.99905">
        <ele>35</ele>
        <time>2022-01-29T13:04:00Z</time>
      </trkpt>
      <trkpt lat="45.09458" lon="4.99913">
        <ele>35.8</ele>
        <time>2022-01-29T13:04:04Z</time>
      </trkpt>
      <trkpt lat="45.09455" lon="4.9992">
        <ele>36.4</ele>
        <time>2022-01-29T13:04:08Z</time>
      </trkpt>
      <trkpt lat="45.09451" lon="4.99929">
        <ele>37</ele>
        <time>2022-01-29T13:04:12Z</time>
      </trkpt>
      <trkpt lat="45.09449" lon="4.9994">
        <ele>38.2</ele>
        <time>2022-01-29T13:04:16Z</time>
      </trkpt>
      <trkpt lat="45.09446" lon="4.99952">
        <ele>38.6</ele>
        <time>2022-01-29T13:04:20Z</time>
      </trkpt>
      <trkpt lat="45.09448" lon="4.99963">
        <ele>39.2</ele>
        <time>2022-01-29T13:04:24Z</time>
      </trkpt>
      <trkpt lat="45.09448" lon="4.99978">
        <ele>40</ele>
        <time>2022-01-29T13:04:28Z</time>
      </trkpt>
      <trkpt lat="45.09449" lon="4.99991">
        <ele>40.8</ele>
        <time>2022-01-29T13:04:32Z</time>
      </trkpt>
      <trkpt lat="45.09448" lon="5.00003">
        <ele>41.2</ele>
        <time>2022-01-29T13:04:36Z</time>
      </trkpt>
      <trkpt lat="45.09448" lon="5.00015">
        <ele>41.6</ele>
        <time>2022-01-29T13:04:40Z</time>
      </trkpt>
      <trkpt lat="45.09447" lon="5.00027">
        <ele>42.4</ele>
        <time>2022-01-29T13:04:44Z</time>
      </trkpt>
      <trkpt lat="45.09445" lon="5.00037">
        <ele>42.8</ele>
        <time>2022-01-29T13:04:48Z</time>
      </trkpt>
      <trkpt lat="45.0944" lon="5.00048">
        <ele>43</ele>
        <time>2022-01-29T13:04:52Z</time>
      </trkpt>
      <trkpt lat="45.09433" lon="5.00057">
        <ele>43.6</ele>
        <time>2022-01-29T13:04:56Z</time>
      </trkpt>
      <trkpt lat="45.09424" lon="5.00064">
        <ele>44.2</ele>
        <time>2022-01-29T13:05:00Z</time>
      </trkpt>
      <trkpt lat="45.09416" lon="5.0007">
        <ele>44.4</ele>
        <time>2022-01-29T13:05:04Z</time>
      </trkpt>
      <trkpt lat="45.09406" lon="5.00074">
        <ele>44.4</ele>
        <time>2022-01-29T13:05:08Z</time>
      </trkpt>
      <trkpt lat="45.09397" lon="5.00081">
        <ele>45</ele>
        <time>2022-01-29T13:05:12Z</time>
      </trkpt>
      <trkpt lat="45.09388" lon="5.00087">
        <ele>45.4</ele>
        <time>2022-01-29T13:05:16Z</time>
      </trkpt>
      <trkpt lat="45.09379" lon="5.00096">
        <ele>46</ele>
        <time>2022-01-29T13:05:20Z</time>
      </trkpt>
      <trkpt lat="45.09372" lon="5.00103">
        <ele>46.2</ele>
        <time>2022-01-29T13:05:24Z</time>
      </trkpt>
      <trkpt lat="45.09362" lon="5.00107">
        <ele>47.4</ele>
        <time>2022-01-29T13:05:28Z</time>
      </trkpt>
      <trkpt lat="45.09354" lon="5.00111">
        <ele>47.6</ele>
        <time>2022-01-29T13:05:32Z</time>
      </trkpt>
      <trkpt lat="45.09346" lon="5.00116">
        <ele>48.6</ele>
        <time>2022-01-29T13:05:36Z</time>
      </trkpt>
      <trkpt lat="45.09339" lon="5.00121">
        <ele>50</ele>
        <time>2022-01-29T13:05:40Z</time>
      </trkpt>
      <trkpt lat="45.09333" lon="5.00129">
        <ele>49.8</ele>
        <time>2022-01-29T13:05:44Z</time>
      </trkpt>
      <trkpt lat="45.09327" lon="5.00133">
        <ele>50.4</ele>
        <time>2022-01-29T13:05:48Z</time>
      </trkpt>
      <trkpt lat="45.09322" lon="5.00139">
        <ele>51</ele>
        <time>2022-01-29T13:05:52Z</time>
      </trkpt>
      <trkpt lat="45.09316" lon="5.00144">
        <ele>51.4</ele>
        <time>2022-01-29T13:05:56Z</time>
      </trkpt>
      <trkpt lat="45.09309" lon="5.0015">
        <ele>51.8</ele>
        <time>2022-01-29T13:06:00Z</time>
      </trkpt>
      <trkpt lat="45.09296" lon="5.00147">
        <ele>52.8</ele>
        <time>2022-01-29T13:06:04Z</time>
      </trkpt>
      <trkpt lat="45.09286" lon="5.00153">
        <ele>53.4</ele>
        <time>2022-01-29T13:06:08Z</time>
      </trkpt>
      <trkpt lat="45.09278" lon="5.0016">
        <ele>54</ele>
        <time>2022-01-29T13:06:12Z</time>
      </trkpt>
      <trkpt lat="45.09269" lon="5.00165">
        <ele>55.2</ele>
        <time>2022-01-29T13:06:16Z</time>
      </trkpt>
      <trkpt lat="45.09262" lon="5.00172">
        <ele>55.2</ele>
        <time>2022-01-29T13:06:20Z</time>
      </trkpt>
      <trkpt lat="45.09255" lon="5.00179">
        <ele>55.6</ele>
        <time>2022-01-29T13:06:24Z</time>
      </trkpt>
      <trkpt lat="45.09248" lon="5.00185">
        <ele>56.4</ele>
        <time>2022-01-29T13:06:28Z</time>
      </trkpt>
      <trkpt lat="45.09242" lon="5.0019">
        <ele>57</ele>
        <time>2022-01-29T13:06:32Z</time>
      </trkpt>
      <trkpt lat="45.09235" lon="5.00195">
        <ele>57.6</ele>
        <time>2022-01-29T13:06:36Z</time>
      </trkpt>
      <trkpt lat="45.09228" lon="5.00201">
        <ele>58.4</ele>
        <time>2022-01-29T13:06:40Z</time>
      </trkpt>
      <trkpt lat="45.0922" lon="5.00208">
        <ele>59</ele>
        <time>2022-01-29T13:06:44Z</time>
      </trkpt>
      <trkpt lat="45.09213" lon="5.00213">
        <ele>60.2</ele>
        <time>2022-01-29T13:06:48Z</time>
      </trkpt>
      <trkpt lat="45.09205" lon="5.00216">
        <ele>60.4</ele>
        <time>2022-01-29T13:06:52Z</time>
      </trkpt>
      <trkpt lat="45.09205" lon="5.00216">
        <ele>61.4</ele>
        <time>2022-01-29T13:06:56Z</time>
      </trkpt>
      <trkpt lat="45.09194" lon="5.00223">
        <ele>62</ele>
        <time>2022-01-29T13:08:00Z</time>
      </trkpt>
      <trkpt lat="45.09185" lon="5.00226">
        <ele>62.4</ele>
        <time>2022-01-29T13:08:04Z</time>
      </trkpt>
      <trkpt lat="45.09175" lon="5.00231">
        <ele>63.2</ele>
        <time>2022-01-29T13:08:08Z</time>
      </trkpt>
      <trkpt lat="45.09166" lon="5.00235">
        <ele>63.2</ele>
        <time>2022-01-29T13:08:12Z</time>
      </trkpt>
      <trkpt lat="45.09157" lon="5.00237">
        <ele>64</ele>
        <time>2022-01-29T13:08:16Z</time>
      </trkpt>
      <trkpt lat="45.09147" lon="5.00237">
        <ele>64.6</ele>
        <time>2022-01-29T13:08:20Z</time>
      </trkpt>
      <trkpt lat="45.09137" lon="5.00234">
        <ele>65</ele>
        <time>2022-01-29T13:08:24Z</time>
      </trkpt>
      <trkpt lat="45.09128" lon="5.00228">
        <ele>65.4</ele>
        <time>2022-01-29T13:08:28Z</time>
      </trkpt>
      <trkpt lat="45.09119" lon="5.00223">
        <ele>66</ele>
        <time>2022-01-29T13:08:32Z</time>
      </trkpt>
      <trkpt lat="45.09111" lon="5.00218">
        <ele>66.6</ele>
        <time>2022-01-29T13:08:36Z</time>
      </trkpt>
      <trkpt lat="45.09102" lon="5.00215">
        <ele>68.2</ele>
        <time>2022-01-29T13:08:40Z</time>
      </trkpt>
      <trkpt lat="45.09094" lon="5.00215">
        <ele>69</ele>
        <time>2022-01-29T13:08:44Z</time>
      </trkpt>
      <trkpt lat="45.09086" lon="5.00215">
        <ele>69.2</ele>
        <time>2022-01-29T13:08:48Z</time>
      </trkpt>
      <trkpt lat="45.09079" lon="5.00216">
        <ele>70.2</ele>
        <time>2022-01-29T13:08:52Z</time>
      </trkpt>
      <trkpt lat="45.09072" lon="5.00216">
        <ele>71</ele>
        <time>2022-01-29T13:08:56Z</time>
      </trkpt>
      <trkpt lat="45.09064" lon="5.00217">
        <ele>71.8</ele>
        <time>2022-01-29T13:09:00Z</time>
      </trkpt>
      <trkpt lat="45.09056" lon="5.00217">
        <ele>73.2</ele>
        <time>2022-01-29T13:09:04Z</time>
      </trkpt>
      <trkpt lat="45.09049" lon="5.00215">
        <ele>74.2</ele>
        <time>2022-01-29T13:09:08Z</time>
      </trkpt>
      <trkpt lat="45.09042" lon="5.00216">
        <ele>76.2</ele>
        <time>2022-01-29T13:09:12Z</time>
      </trkpt>
      <trkpt lat="45.09034" lon="5.00214">
        <ele>77</ele>
        <time>2022-01-29T13:09:16Z</time>
      </trkpt>
      <trkpt lat="45.09028" lon="5.00213">
        <ele>77.4</ele>
        <time>2022-01-29T13:09:20Z</time>
      </trkpt>
      <trkpt lat="45.09023" lon="5.00212">
        <ele>78.8</ele>
        <time>2022-01-29T13:09:24Z</time>
      </trkpt>
      <trkpt lat="45.09018" lon="5.00211">
        <ele>79.4</ele>
        <time>2022-01-29T13:09:28Z</time>
      </trkpt>
      <trkpt lat="45.09011" lon="5.00209">
        <ele>80</ele>
        <time>2022-01-29T13:09:32Z</time>
      </trkpt>
      <trkpt lat="45.09003" lon="5.00208">
        <ele>79.8</ele>
        <time>2022-01-29T13:09:36Z</time>
      </trkpt>
      <trkpt lat="45.08993" lon="5.00209">
        <ele>81.4</ele>
        <time>2022-01-29T13:09:40Z</time>
      </trkpt>
      <trkpt lat="45.08984" lon="5.0021">
        <ele>81.6</ele>
        <time>2022-01-29T13:09:44Z</time>
      </trkpt>
      <trkpt lat="45.08974" lon="5.00211">
        <ele>82.4</ele>
        <time>2022-01-29T13:09:48Z</time>
      </trkpt>
      <trkpt lat="45.08964" lon="5.00212">
        <ele>82.4</ele>
        <time>2022-01-29T13:09:52Z</time>
      </trkpt>
      <trkpt lat="45.08954" lon="5.00214">
        <ele>83</ele>
        <time>2022-01-29T13:09:56Z</time>
      </trkpt>
      <trkpt lat="45.08944" lon="5.00215">
        <ele>83</ele>
        <time>2022-01-29T13:10:00Z</time>
      </trkpt>
      <trkpt lat="45.08934" lon="5.00217">
        <ele>83.2</ele>
        <time>2022-01-29T13:10:04Z</time>
      </trkpt>
      <trkpt lat="45.08924" lon="5.0022">
        <ele>83.8</ele>
        <time>2022-01-29T13:10:08Z</time>
      </trkpt>
      <trkpt lat="45.08914" lon="5.00223">
        <ele>84.4</ele>
        <time>2022-01-29T13:10:12Z</time>
      </trkpt>
      <trkpt lat="45.08906" lon="5.00229">
        <ele>85.2</ele>
        <time>2022-01-29T13:10:16Z</time>
      </trkpt>
      <trkpt lat="45.08899" lon="5.00235">
        <ele>85.8</ele>
        <time>2022-01-29T13:10:20Z</time>
      </trkpt>
      <trkpt lat="45.08891" lon="5.00242">
        <ele>87.2</ele>
        <time>2022-01-29T13:10:24Z</time>
      </trkpt>
      <trkpt lat="45.08885" lon="5.0025">
        <ele>87.6</ele>
        <time>2022-01-29T13:10:28Z</time>
      </trkpt>
      <trkpt lat="45.0888" lon="5.00259">
        <ele>88</ele>
        <time>2022-01-29T13:10:32Z</time>
      </trkpt>
      <trkpt lat="45.08874" lon="5.00269">
        <ele>88.8</ele>
        <time>2022-01-29T13:10:36Z</time>
      </trkpt>
      <trkpt lat="45.0887" lon="5.00279">
        <ele>89.2</ele>
        <time>2022-01-29T13:10:40Z</time>
      </trkpt>
      <trkpt lat="45.08865" lon="5.00291">
        <ele>90</ele>
        <time>2022-01-29T13:10:44Z</time>
      </trkpt>
      <trkpt lat="45.08862" lon="5.00303">
        <ele>91</ele>
        <time>2022-01-29T13:10:48Z</time>
      </trkpt>
      <trkpt lat="45.08859" lon="5.00317">
        <ele>91.2</ele>
        <time>2022-01-29T13:10:52Z</time>
      </trkpt>
      <trkpt lat="45.08858" lon="5.00334">
        <ele>90</ele>
        <time>2022-01-29T13:10:56Z</time>
      </trkpt>
      <trkpt lat="45.08857" lon="5.00357">
        <ele>89.8</ele>
        <time>2022-01-29T13:11:00Z</time>
      </trkpt>
      <trkpt lat="45.08856" lon="5.00392">
        <ele>86.8</ele>
        <time>2022-01-29T13:11:04Z</time>
      </trkpt>
      <trkpt lat="45.0884" lon="5.00414">
        <ele>83.4</ele>
        <time>2022-01-29T13:11:08Z</time>
      </trkpt>
      <trkpt lat="45.08814" lon="5.00408">
        <ele>81</ele>
        <time>2022-01-29T13:11:12Z</time>
      </trkpt>
      <trkpt lat="45.08787" lon="5.00403">
        <ele>78.4</ele>
        <time>2022-01-29T13:11:16Z</time>
      </trkpt>
      <trkpt lat="45.08754" lon="5.00396">
        <ele>74.8</ele>
        <time>2022-01-29T13:11:20Z</time>
      </trkpt>
      <trkpt lat="45.08725" lon="5.00393">
        <ele>72.6</ele>
        <time>2022-01-29T13:11:24Z</time>
      </trkpt>
      <trkpt lat="45.08703" lon="5.00419">
        <ele>72.2</ele>
        <time>2022-01-29T13:11:28Z</time>
      </trkpt>
      <trkpt lat="45.08696" lon="5.00456">
        <ele>71.8</ele>
        <time>2022-01-29T13:11:32Z</time>
      </trkpt>
      <trkpt lat="45.08702" lon="5.00481">
        <ele>71.4</ele>
        <time>2022-01-29T13:11:36Z</time>
      </trkpt>
      <trkpt lat="45.08714" lon="5.00492">
        <ele>71.8</ele>
        <time>2022-01-29T13:11:40Z</time>
      </trkpt>
      <trkpt lat="45.08725" lon="5.00498">
        <ele>73</ele>
        <time>2022-01-29T13:11:44Z</time>
      </trkpt>
      <trkpt lat="45.08734" lon="5.00503">
        <ele>72.8</ele>
        <time>2022-01-29T13:11:48Z</time>
      </trkpt>
      <trkpt lat="45.08743" lon="5.00509">
        <ele>74</ele>
        <time>2022-01-29T13:11:52Z</time>
      </trkpt>
      <trkpt lat="45.08752" lon="5.00514">
        <ele>74.8</ele>
        <time>2022-01-29T13:11:56Z</time>
      </trkpt>
      <trkpt lat="45.0876" lon="5.00519">
        <ele>76</ele>
        <time>2022-01-29T13:12:00Z</time>
      </trkpt>
      <trkpt lat="45.08768" lon="5.00523">
        <ele>76.4</ele>
        <time>2022-01-29T13:12:04Z</time>
      </trkpt>
      <trkpt lat="45.08776" lon="5.00529">
        <ele>77.2</ele>
        <time>2022-01-29T13:12:08Z</time>
      </trkpt>
      <trkpt lat="45.08783" lon="5.00536">
        <ele>77.6</ele>
        <time>2022-01-29T13:12:12Z</time>
      </trkpt>
      <trkpt lat="45.0879" lon="5.00545">
        <ele>79</ele>
        <time>2022-01-29T13:12:16Z</time>
      </trkpt>
      <trkpt lat="45.08797" lon="5.00555">
        <ele>79.2</ele>
        <time>2022-01-29T13:12:20Z</time>
      </trkpt>
      <trkpt lat="45.08804" lon="5.00565">
        <ele>79.4</ele>
        <time>2022-01-29T13:12:24Z</time>
      </trkpt>
      <trkpt lat="45.08809" lon="5.00575">
        <ele>79.4</ele>
        <time>2022-01-29T13:12:28Z</time>
      </trkpt>
      <trkpt lat="45.08815" lon="5.00587">
        <ele>80</ele>
        <time>2022-01-29T13:12:32Z</time>
      </trkpt>
      <trkpt lat="45.0882" lon="5.00598">
        <ele>80.4</ele>
        <time>2022-01-29T13:12:36Z</time>
      </trkpt>
      <trkpt lat="45.08826" lon="5.00608">
        <ele>80.8</ele>
        <time>2022-01-29T13:12:40Z</time>
      </trkpt>
      <trkpt lat="45.08829" lon="5.00621">
        <ele>81.4</ele>
        <time>2022-01-29T13:12:44Z</time>
      </trkpt>
      <trkpt lat="45.08827" lon="5.00636">
        <ele>81.6</ele>
        <time>2022-01-29T13:12:48Z</time>
      </trkpt>
      <trkpt lat="45.08825" lon="5.00649">
        <ele>80.6</ele>
        <time>2022-01-29T13:12:52Z</time>
      </trkpt>
      <trkpt lat="45.08821" lon="5.00665">
        <ele>81.2</ele>
        <time>2022-01-29T13:12:56Z</time>
      </trkpt>
      <trkpt lat="45.08817" lon="5.00677">
        <ele>80.2</ele>
        <time>2022-01-29T13:13:00Z</time>
      </trkpt>
      <trkpt lat="45.08815" lon="5.00688">
        <ele>81.2</ele>
        <time>2022-01-29T13:13:04Z</time>
      </trkpt>
      <trkpt lat="45.0881" lon="5.00714">
        <ele>79.8</ele>
        <time>2022-01-29T13:13:30Z</time>
      </trkpt>
      <trkpt lat="45.08803" lon="5.00737">
        <ele>78.4</ele>
        <time>2022-01-29T13:13:34Z</time>
      </trkpt>
      <trkpt lat="45.08795" lon="5.00769">
        <ele>76.4</ele>
        <time>2022-01-29T13:13:38Z</time>
      </trkpt>
      <trkpt lat="45.08784" lon="5.00808">
        <ele>74.2</ele>
        <time>2022-01-29T13:13:42Z</time>
      </trkpt>
      <trkpt lat="45.08778" lon="5.00848">
        <ele>73.8</ele>
        <time>2022-01-29T13:13:46Z</time>
      </trkpt>
      <trkpt lat="45.08773" lon="5.00881">
        <ele>74.2</ele>
        <time>2022-01-29T13:13:50Z</time>
      </trkpt>
      <trkpt lat="45.08769" lon="5.00904">
        <ele>74.4</ele>
        <time>2022-01-29T13:13:54Z</time>
      </trkpt>
      <trkpt lat="45.08769" lon="5.00921">
        <ele>75</ele>
        <time>2022-01-29T13:13:58Z</time>
      </trkpt>
      <trkpt lat="45.08769" lon="5.00936">
        <ele>75.8</ele>
        <time>2022-01-29T13:14:02Z</time>
      </trkpt>
      <trkpt lat="45.08767" lon="5.00951">
        <ele>76.4</ele>
        <time>2022-01-29T13:14:06Z</time>
      </trkpt>
      <trkpt lat="45.08766" lon="5.00966">
        <ele>77</ele>
        <time>2022-01-29T13:14:10Z</time>
      </trkpt>
      <trkpt lat="45.08764" lon="5.00979">
        <ele>77.8</ele>
        <time>2022-01-29T13:14:14Z</time>
      </trkpt>
      <trkpt lat="45.08762" lon="5.00992">
        <ele>79</ele>
        <time>2022-01-29T13:14:18Z</time>
      </trkpt>
      <trkpt lat="45.0876" lon="5.01004">
        <ele>80.2</ele>
        <time>2022-01-29T13:14:22Z</time>
      </trkpt>
      <trkpt lat="45.08759" lon="5.01015">
        <ele>81</ele>
        <time>2022-01-29T13:14:26Z</time>
      </trkpt>
      <trkpt lat="45.08757" lon="5.01025">
        <ele>82</ele>
        <time>2022-01-29T13:14:30Z</time>
      </trkpt>
      <trkpt lat="45.08756" lon="5.01034">
        <ele>83.2</ele>
        <time>2022-01-29T13:14:34Z</time>
      </trkpt>
      <trkpt lat="45.08755" lon="5.01043">
        <ele>83.6</ele>
        <time>2022-01-29T13:14:38Z</time>
      </trkpt>
      <trkpt lat="45.08755" lon="5.01052">
        <ele>83.8</ele>
        <time>2022-01-29T13:14:42Z</time>
      </trkpt>
      <trkpt lat="45.08753" lon="5.01061">
        <ele>84.8</ele>
        <time>2022-01-29T13:14:46Z</time>
      </trkpt>
      <trkpt lat="45.08753" lon="5.01072">
        <ele>85</ele>
        <time>2022-01-29T13:14:50Z</time>
      </trkpt>
      <trkpt lat="45.08753" lon="5.01083">
        <ele>86</ele>
        <time>2022-01-29T13:14:54Z</time>
      </trkpt>
      <trkpt lat="45.08753" lon="5.01093">
        <ele>87</ele>
        <time>2022-01-29T13:14:58Z</time>
      </trkpt>
      <trkpt lat="45.08753" lon="5.01103">
        <ele>87</ele>
        <time>2022-01-29T13:15:02Z</time>
      </trkpt>
      <trkpt lat="45.08754" lon="5.01113">
        <ele>88</ele>
        <time>2022-01-29T13:15:06Z</time>
      </trkpt>
      <trkpt lat="45.08755" lon="5.01123">
        <ele>88.8</ele>
        <time>2022-01-29T13:15:10Z</time>
      </trkpt>
      <trkpt lat="45.08756" lon="5.01131">
        <ele>90</ele>
        <time>2022-01-29T13:15:14Z</time>
      </trkpt>
      <trkpt lat="45.08758" lon="5.0114">
        <ele>91.4</ele>
        <time>2022-01-29T13:15:18Z</time>
      </trkpt>
      <trkpt lat="45.08761" lon="5.01149">
        <ele>92.2</ele>
        <time>2022-01-29T13:15:22Z</time>
      </trkpt>
      <trkpt lat="45.08763" lon="5.01158">
        <ele>92.4</ele>
        <time>2022-01-29T13:15:26Z</time>
      </trkpt>
      <trkpt lat="45.08765" lon="5.01166">
        <ele>93.2</ele>
        <time>2022-01-29T13:15:30Z</time>
      </trkpt>
      <trkpt lat="45.08767" lon="5.01175">
        <ele>93.6</ele>
        <time>2022-01-29T13:15:34Z</time>
      </trkpt>
      <trkpt lat="45.08769" lon="5.01184">
        <ele>95</ele>
        <time>2022-01-29T13:15:38Z</time>
      </trkpt>
      <trkpt lat="45.08771" lon="5.01192">
        <ele>95.8</ele>
        <time>2022-01-29T13:15:42Z</time>
      </trkpt>
      <trkpt lat="45.08773" lon="5.01201">
        <ele>96.4</ele>
        <time>2022-01-29T13:15:46Z</time>
      </trkpt>
      <trkpt lat="45.08776" lon="5.0121">
        <ele>97.2</ele>
        <time>2022-01-29T13:15:50Z</time>
      </trkpt>
      <trkpt lat="45.08779" lon="5.01218">
        <ele>98</ele>
        <time>2022-01-29T13:15:54Z</time>
      </trkpt>
      <trkpt lat="45.08783" lon="5.01226">
        <ele>98.4</ele>
        <time>2022-01-29T13:15:58Z</time>
      </trkpt>
      <trkpt lat="45.08786" lon="5.01235">
        <ele>99.8</ele>
        <time>2022-01-29T13:16:02Z</time>
      </trkpt>
      <trkpt lat="45.0879" lon="5.01245">
        <ele>100.4</ele>
        <time>2022-01-29T13:16:06Z</time>
      </trkpt>
      <trkpt lat="45.08794" lon="5.01258">
        <ele>100.4</ele>
        <time>2022-01-29T13:16:10Z</time>
      </trkpt>
      <trkpt lat="45.08797" lon="5.01273">
        <ele>100</ele>
        <time>2022-01-29T13:16:14Z</time>
      </trkpt>
      <trkpt lat="45.08799" lon="5.01289">
        <ele>100.2</ele>
        <time>2022-01-29T13:16:18Z</time>
      </trkpt>
      <trkpt lat="45.08802" lon="5.01307">
        <ele>100.2</ele>
        <time>2022-01-29T13:16:22Z</time>
      </trkpt>
      <trkpt lat="45.08805" lon="5.01323">
        <ele>99.8</ele>
        <time>2022-01-29T13:16:26Z</time>
      </trkpt>
      <trkpt lat="45.08808" lon="5.0134">
        <ele>99.8</ele>
        <time>2022-01-29T13:16:30Z</time>
      </trkpt>
      <trkpt lat="45.0881" lon="5.01357">
        <ele>99.8</ele>
        <time>2022-01-29T13:16:34Z</time>
      </trkpt>
      <trkpt lat="45.08812" lon="5.01374">
        <ele>99.8</ele>
        <time>2022-01-29T13:16:38Z</time>
      </trkpt>
      <trkpt lat="45.08815" lon="5.0139">
        <ele>99.8</ele>
        <time>2022-01-29T13:16:42Z</time>
      </trkpt>
      <trkpt lat="45.08817" lon="5.01404">
        <ele>100.8</ele>
        <time>2022-01-29T13:16:46Z</time>
      </trkpt>
      <trkpt lat="45.08818" lon="5.01417">
        <ele>100.8</ele>
        <time>2022-01-29T13:16:50Z</time>
      </trkpt>
      <trkpt lat="45.08821" lon="5.0143">
        <ele>101.8</ele>
        <time>2022-01-29T13:16:54Z</time>
      </trkpt>
      <trkpt lat="45.08823" lon="5.01443">
        <ele>101.8</ele>
        <time>2022-01-29T13:16:58Z</time>
      </trkpt>
      <trkpt lat="45.08825" lon="5.01454">
        <ele>103</ele>
        <time>2022-01-29T13:17:02Z</time>
      </trkpt>
      <trkpt lat="45.08828" lon="5.01467">
        <ele>103.6</ele>
        <time>2022-01-29T13:17:06Z</time>
      </trkpt>
      <trkpt lat="45.0883" lon="5.01481">
        <ele>104</ele>
        <time>2022-01-29T13:17:10Z</time>
      </trkpt>
      <trkpt lat="45.08832" lon="5.01497">
        <ele>104</ele>
        <time>2022-01-29T13:17:14Z</time>
      </trkpt>
      <trkpt lat="45.08832" lon="5.01515">
        <ele>104.4</ele>
        <time>2022-01-29T13:17:18Z</time>
      </trkpt>
      <trkpt lat="45.08832" lon="5.01533">
        <ele>103.8</ele>
        <time>2022-01-29T13:17:22Z</time>
      </trkpt>
      <trkpt lat="45.08832" lon="5.01551">
        <ele>104.2</ele>
        <time>2022-01-29T13:17:26Z</time>
      </trkpt>
      <trkpt lat="45.08831" lon="5.01568">
        <ele>104</ele>
        <time>2022-01-29T13:17:30Z</time>
      </trkpt>
      <trkpt lat="45.0883" lon="5.01584">
        <ele>104.6</ele>
        <time>2022-01-29T13:17:34Z</time>
      </trkpt>
      <trkpt lat="45.08823" lon="5.01597">
        <ele>104.8</ele>
        <time>2022-01-29T13:17:38Z</time>
      </trkpt>
      <trkpt lat="45.08814" lon="5.01605">
        <ele>105.6</ele>
        <time>2022-01-29T13:17:42Z</time>
      </trkpt>
      <trkpt lat="45.08805" lon="5.01612">
        <ele>105.6</ele>
        <time>2022-01-29T13:17:46Z</time>
      </trkpt>
      <trkpt lat="45.08796" lon="5.0162">
        <ele>106.4</ele>
        <time>2022-01-29T13:17:50Z</time>
      </trkpt>
      <trkpt lat="45.08787" lon="5.01627">
        <ele>107</ele>
        <time>2022-01-29T13:17:54Z</time>
      </trkpt>
      <trkpt lat="45.08779" lon="5.01634">
        <ele>107.2</ele>
        <time>2022-01-29T13:17:58Z</time>
      </trkpt>
      <trkpt lat="45.08774" lon="5.01643">
        <ele>108</ele>
        <time>2022-01-29T13:18:02Z</time>
      </trkpt>
      <trkpt lat="45.08767" lon="5.01651">
        <ele>108.6</ele>
        <time>2022-01-29T13:18:06Z</time>
      </trkpt>
      <trkpt lat="45.0876" lon="5.01654">
        <ele>109.4</ele>
        <time>2022-01-29T13:18:10Z</time>
      </trkpt>
      <trkpt lat="45.08753" lon="5.01658">
        <ele>110.2</ele>
        <time>2022-01-29T13:18:14Z</time>
      </trkpt>
      <trkpt lat="45.08747" lon="5.01663">
        <ele>111</ele>
        <time>2022-01-29T13:18:18Z</time>
      </trkpt>
      <trkpt lat="45.0874" lon="5.01668">
        <ele>111</ele>
        <time>2022-01-29T13:18:22Z</time>
      </trkpt>
      <trkpt lat="45.08732" lon="5.01675">
        <ele>111.8</ele>
        <time>2022-01-29T13:18:26Z</time>
      </trkpt>
      <trkpt lat="45.08726" lon="5.01681">
        <ele>112.6</ele>
        <time>2022-01-29T13:18:30Z</time>
      </trkpt>
      <trkpt lat="45.08717" lon="5.01689">
        <ele>113</ele>
        <time>2022-01-29T13:18:34Z</time>
      </trkpt>
      <trkpt lat="45.08709" lon="5.01696">
        <ele>113.4</ele>
        <time>2022-01-29T13:18:38Z</time>
      </trkpt>
      <trkpt lat="45.08702" lon="5.017">
        <ele>113.6</ele>
        <time>2022-01-29T13:18:42Z</time>
      </trkpt>
      <trkpt lat="45.08694" lon="5.01704">
        <ele>114.2</ele>
        <time>2022-01-29T13:18:46Z</time>
      </trkpt>
      <trkpt lat="45.08686" lon="5.01708">
        <ele>114.4</ele>
        <time>2022-01-29T13:18:50Z</time>
      </trkpt>
      <trkpt lat="45.08678" lon="5.01711">
        <ele>116</ele>
        <time>2022-01-29T13:18:54Z</time>
      </trkpt>
      <trkpt lat="45.0867" lon="5.01714">
        <ele>116.2</ele>
        <time>2022-01-29T13:18:58Z</time>
      </trkpt>
      <trkpt lat="45.08663" lon="5.01715">
        <ele>116.6</ele>
        <time>2022-01-29T13:19:02Z</time>
      </trkpt>
      <trkpt lat="45.08655" lon="5.01716">
        <ele>117.6</ele>
        <time>2022-01-29T13:19:06Z</time>
      </trkpt>
      <trkpt lat="45.08647" lon="5.01715">
        <ele>118</ele>
        <time>2022-01-29T13:19:10Z</time>
      </trkpt>
      <trkpt lat="45.0864" lon="5.01717">
        <ele>119.2</ele>
        <time>2022-01-29T13:19:14Z</time>
      </trkpt>
      <trkpt lat="45.08632" lon="5.01716">
        <ele>119.8</ele>
        <time>2022-01-29T13:19:18Z</time>
      </trkpt>
      <trkpt lat="45.08626" lon="5.01717">
        <ele>120.2</ele>
        <time>2022-01-29T13:19:22Z</time>
      </trkpt>
      <trkpt lat="45.08618" lon="5.01716">
        <ele>121.2</ele>
        <time>2022-01-29T13:19:26Z</time>
      </trkpt>
      <trkpt lat="45.08611" lon="5.01717">
        <ele>121.4</ele>
        <time>2022-01-29T13:19:30Z</time>
      </trkpt>
      <trkpt lat="45.08606" lon="5.01717">
        <ele>122.2</ele>
        <time>2022-01-29T13:19:34Z</time>
      </trkpt>
      <trkpt lat="45.08598" lon="5.01718">
        <ele>123.4</ele>
        <time>2022-01-29T13:19:38Z</time>
      </trkpt>
      <trkpt lat="45.08591" lon="5.01722">
        <ele>123.6</ele>
        <time>2022-01-29T13:19:42Z</time>
      </trkpt>
      <trkpt lat="45.08586" lon="5.01732">
        <ele>123.8</ele>
        <time>2022-01-29T13:19:46Z</time>
      </trkpt>
      <trkpt lat="45.08579" lon="5.01747">
        <ele>123.4</ele>
        <time>2022-01-29T13:19:50Z</time>
      </trkpt>
      <trkpt lat="45.08574" lon="5.01773">
        <ele>122.4</ele>
        <time>2022-01-29T13:19:54Z</time>
      </trkpt>
      <trkpt lat="45.08568" lon="5.01807">
        <ele>121.2</ele>
        <time>2022-01-29T13:19:58Z</time>
      </trkpt>
      <trkpt lat="45.08567" lon="5.01842">
        <ele>118.6</ele>
        <time>2022-01-29T13:20:02Z</time>
      </trkpt>
      <trkpt lat="45.08569" lon="5.01888">
        <ele>116.4</ele>
        <time>2022-01-29T13:20:06Z</time>
      </trkpt>
      <trkpt lat="45.08565" lon="5.01938">
        <ele>114</ele>
        <time>2022-01-29T13:20:10Z</time>
      </trkpt>
      <trkpt lat="45.08555" lon="5.01976">
        <ele>113.4</ele>
        <time>2022-01-29T13:20:14Z</time>
      </trkpt>
      <trkpt lat="45.08542" lon="5.02009">
        <ele>112.4</ele>
        <time>2022-01-29T13:20:18Z</time>
      </trkpt>
      <trkpt lat="45.08522" lon="5.02029">
        <ele>112.2</ele>
        <time>2022-01-29T13:20:22Z</time>
      </trkpt>
      <trkpt lat="45.08501" lon="5.02041">
        <ele>111.8</ele>
        <time>2022-01-29T13:20:26Z</time>
      </trkpt>
      <trkpt lat="45.08478" lon="5.02052">
        <ele>111.2</ele>
        <time>2022-01-29T13:20:30Z</time>
      </trkpt>
      <trkpt lat="45.08456" lon="5.02063">
        <ele>110.2</ele>
        <time>2022-01-29T13:20:34Z</time>
      </trkpt>
      <trkpt lat="45.08435" lon="5.02073">
        <ele>110.2</ele>
        <time>2022-01-29T13:20:38Z</time>
      </trkpt>
      <trkpt lat="45.08416" lon="5.02083">
        <ele>110.2</ele>
        <time>2022-01-29T13:20:42Z</time>
      </trkpt>
      <trkpt lat="45.08397" lon="5.02098">
        <ele>110.2</ele>
        <time>2022-01-29T13:20:46Z</time>
      </trkpt>
      <trkpt lat="45.08382" lon="5.02116">
        <ele>110.2</ele>
        <time>2022-01-29T13:20:50Z</time>
      </trkpt>
      <trkpt lat="45.08367" lon="5.02133">
        <ele>109.8</ele>
        <time>2022-01-29T13:20:54Z</time>
      </trkpt>
      <trkpt lat="45.08352" lon="5.02147">
        <ele>110.8</ele>
        <time>2022-01-29T13:20:58Z</time>
      </trkpt>
      <trkpt lat="45.0834" lon="5.02154">
        <ele>112</ele>
        <time>2022-01-29T13:21:02Z</time>
      </trkpt>
      <trkpt lat="45.08328" lon="5.02158">
        <ele>113</ele>
        <time>2022-01-29T13:21:06Z</time>
      </trkpt>
      <trkpt lat="45.08317" lon="5.02161">
        <ele>112.6</ele>
        <time>2022-01-29T13:21:10Z</time>
      </trkpt>
      <trkpt lat="45.08304" lon="5.02164">
        <ele>112.8</ele>
        <time>2022-01-29T13:21:14Z</time>
      </trkpt>
      <trkpt lat="45.08292" lon="5.02169">
        <ele>112.6</ele>
        <time>2022-01-29T13:21:18Z</time>
      </trkpt>
      <trkpt lat="45.08278" lon="5.02178">
        <ele>112.4</ele>
        <time>2022-01-29T13:21:22Z</time>
      </trkpt>
      <trkpt lat="45.08262" lon="5.02192">
        <ele>111.6</ele>
        <time>2022-01-29T13:21:26Z</time>
      </trkpt>
      <trkpt lat="45.08245" lon="5.02209">
        <ele>110.6</ele>
        <time>2022-01-29T13:21:30Z</time>
      </trkpt>
      <trkpt lat="45.08228" lon="5.02224">
        <ele>110</ele>
        <time>2022-01-29T13:21:34Z</time>
      </trkpt>
      <trkpt lat="45.08214" lon="5.02238">
        <ele>109.4</ele>
        <time>2022-01-29T13:21:38Z</time>
      </trkpt>
      <trkpt lat="45.08201" lon="5.02251">
        <ele>109.2</ele>
        <time>2022-01-29T13:21:42Z</time>
      </trkpt>
      <trkpt lat="45.08189" lon="5.02266">
        <ele>108.2</ele>
        <time>2022-01-29T13:21:46Z</time>
      </trkpt>
      <trkpt lat="45.08175" lon="5.0228">
        <ele>108.2</ele>
        <time>2022-01-29T13:21:50Z</time>
      </trkpt>
      <trkpt lat="45.0816" lon="5.02298">
        <ele>108</ele>
        <time>2022-01-29T13:21:54Z</time>
      </trkpt>
      <trkpt lat="45.08143" lon="5.02316">
        <ele>107.2</ele>
        <time>2022-01-29T13:21:58Z</time>
      </trkpt>
      <trkpt lat="45.08127" lon="5.02334">
        <ele>106.4</ele>
        <time>2022-01-29T13:22:02Z</time>
      </trkpt>
      <trkpt lat="45.0811" lon="5.02357">
        <ele>105.2</ele>
        <time>2022-01-29T13:22:06Z</time>
      </trkpt>
      <trkpt lat="45.0809" lon="5.02382">
        <ele>103.8</ele>
        <time>2022-01-29T13:22:10Z</time>
      </trkpt>
      <trkpt lat="45.08068" lon="5.02408">
        <ele>102</ele>
        <time>2022-01-29T13:22:14Z</time>
      </trkpt>
      <trkpt lat="45.08042" lon="5.02438">
        <ele>99.6</ele>
        <time>2022-01-29T13:22:18Z</time>
      </trkpt>
      <trkpt lat="45.08011" lon="5.02468">
        <ele>99</ele>
        <time>2022-01-29T13:22:22Z</time>
      </trkpt>
      <trkpt lat="45.07982" lon="5.02499">
        <ele>97.6</ele>
        <time>2022-01-29T13:22:26Z</time>
      </trkpt>
      <trkpt lat="45.07954" lon="5.02531">
        <ele>96.6</ele>
        <time>2022-01-29T13:22:30Z</time>
      </trkpt>
      <trkpt lat="45.07931" lon="5.02558">
        <ele>96.4</ele>
        <time>2022-01-29T13:22:34Z</time>
      </trkpt>
      <trkpt lat="45.07914" lon="5.02584">
        <ele>95.8</ele>
        <time>2022-01-29T13:22:38Z</time>
      </trkpt>
      <trkpt lat="45.079" lon="5.02605">
        <ele>95.8</ele>
        <time>2022-01-29T13:22:42Z</time>
      </trkpt>
      <trkpt lat="45.07886" lon="5.02625">
        <ele>94.8</ele>
        <time>2022-01-29T13:22:46Z</time>
      </trkpt>
      <trkpt lat="45.07871" lon="5.02651">
        <ele>94.6</ele>
        <time>2022-01-29T13:22:50Z</time>
      </trkpt>
      <trkpt lat="45.07851" lon="5.02676">
        <ele>93.8</ele>
        <time>2022-01-29T13:22:54Z</time>
      </trkpt>
      <trkpt lat="45.0783" lon="5.02705">
        <ele>92.2</ele>
        <time>2022-01-29T13:22:58Z</time>
      </trkpt>
      <trkpt lat="45.07812" lon="5.02737">
        <ele>90.4</ele>
        <time>2022-01-29T13:23:02Z</time>
      </trkpt>
      <trkpt lat="45.07783" lon="5.02758">
        <ele>88.2</ele>
        <time>2022-01-29T13:23:06Z</time>
      </trkpt>
      <trkpt lat="45.07745" lon="5.02762">
        <ele>83.8</ele>
        <time>2022-01-29T13:23:10Z</time>
      </trkpt>
      <trkpt lat="45.07707" lon="5.0278">
        <ele>78.2</ele>
        <time>2022-01-29T13:23:14Z</time>
      </trkpt>
      <trkpt lat="45.07669" lon="5.02802">
        <ele>71.8</ele>
        <time>2022-01-29T13:23:18Z</time>
      </trkpt>
      <trkpt lat="45.0763" lon="5.02814">
        <ele>64.2</ele>
        <time>2022-01-29T13:23:22Z</time>
      </trkpt>
      <trkpt lat="45.07599" lon="5.02822">
        <ele>58</ele>
        <time>2022-01-29T13:23:26Z</time>
      </trkpt>
      <trkpt lat="45.07566" lon="5.02819">
        <ele>54</ele>
        <time>2022-01-29T13:23:30Z</time>
      </trkpt>
      <trkpt lat="45.07532" lon="5.02826">
        <ele>48.4</ele>
        <time>2022-01-29T13:23:34Z</time>
      </trkpt>
      <trkpt lat="45.07497" lon="5.02841">
        <ele>44.2</ele>
        <time>2022-01-29T13:23:38Z</time>
      </trkpt>
      <trkpt lat="45.0746" lon="5.02853">
        <ele>37.4</ele>
        <time>2022-01-29T13:23:42Z</time>
      </trkpt>
      <trkpt lat="45.07427" lon="5.02874">
        <ele>32.4</ele>
        <time>2022-01-29T13:23:46Z</time>
      </trkpt>
      <trkpt lat="45.07391" lon="5.02894">
        <ele>27</ele>
        <time>2022-01-29T13:23:50Z</time>
      </trkpt>
      <trkpt lat="45.07354" lon="5.02917">
        <ele>23.6</ele>
        <time>2022-01-29T13:23:54Z</time>
      </trkpt>
      <trkpt lat="45.0732" lon="5.02937">
        <ele>17.8</ele>
        <time>2022-01-29T13:23:58Z</time>
      </trkpt>
      <trkpt lat="45.07278" lon="5.02958">
        <ele>12.8</ele>
        <time>2022-01-29T13:24:02Z</time>
      </trkpt>
      <trkpt lat="45.07234" lon="5.02965">
        <ele>10.4</ele>
        <time>2022-01-29T13:24:06Z</time>
      </trkpt>
      <trkpt lat="45.07192" lon="5.02967">
        <ele>8</ele>
        <time>2022-01-29T13:24:10Z</time>
      </trkpt>
      <trkpt lat="45.07151" lon="5.02974">
        <ele>6.8</ele>
        <time>2022-01-29T13:24:14Z</time>
      </trkpt>
      <trkpt lat="45.07115" lon="5.02994">
        <ele>5</ele>
        <time>2022-01-29T13:24:18Z</time>
      </trkpt>
      <trkpt lat="45.07086" lon="5.0302">
        <ele>3.4</ele>
        <time>2022-01-29T13:24:22Z</time>
      </trkpt>
      <trkpt lat="45.07088" lon="5.03031">
        <ele>2.4</ele>
        <time>2022-01-29T13:24:41Z</time>
      </trkpt>
      <trkpt lat="45.071" lon="5.03034">
        <ele>3</ele>
        <time>2022-01-29T13:24:45Z</time>
      </trkpt>
      <trkpt lat="45.07113" lon="5.03036">
        <ele>3.4</ele>
        <time>2022-01-29T13:24:49Z</time>
      </trkpt>
      <trkpt lat="45.07127" lon="5.03038">
        <ele>3.2</ele>
        <time>2022-01-29T13:24:53Z</time>
      </trkpt>
      <trkpt lat="45.07142" lon="5.03041">
        <ele>3.4</ele>
        <time>2022-01-29T13:24:57Z</time>
      </trkpt>
      <trkpt lat="45.07158" lon="5.03044">
        <ele>3.4</ele>
        <time>2022-01-29T13:25:01Z</time>
      </trkpt>
      <trkpt lat="45.07174" lon="5.03047">
        <ele>3.8</ele>
        <time>2022-01-29T13:25:05Z</time>
      </trkpt>
      <trkpt lat="45.0719" lon="5.03051">
        <ele>4</ele>
        <time>2022-01-29T13:25:09Z</time>
      </trkpt>
      <trkpt lat="45.07205" lon="5.03055">
        <ele>3.6</ele>
        <time>2022-01-29T13:25:13Z</time>
      </trkpt>
      <trkpt lat="45.07221" lon="5.0306">
        <ele>4</ele>
        <time>2022-01-29T13:25:17Z</time>
      </trkpt>
      <trkpt lat="45.07236" lon="5.0307">
        <ele>4.8</ele>
        <time>2022-01-29T13:25:21Z</time>
      </trkpt>
      <trkpt lat="45.07249" lon="5.03083">
        <ele>4.2</ele>
        <time>2022-01-29T13:25:25Z</time>
      </trkpt>
      <trkpt lat="45.07264" lon="5.03095">
        <ele>4.4</ele>
        <time>2022-01-29T13:25:29Z</time>
      </trkpt>
      <trkpt lat="45.0728" lon="5.03103">
        <ele>4</ele>
        <time>2022-01-29T13:25:33Z</time>
      </trkpt>
      <trkpt lat="45.07296" lon="5.03106">
        <ele>3</ele>
        <time>2022-01-29T13:25:37Z</time>
      </trkpt>
      <trkpt lat="45.07313" lon="5.03107">
        <ele>2.8</ele>
        <time>2022-01-29T13:25:41Z</time>
      </trkpt>
      <trkpt lat="45.0733" lon="5.03107">
        <ele>3</ele>
        <time>2022-01-29T13:25:45Z</time>
      </trkpt>
      <trkpt lat="45.07345" lon="5.03108">
        <ele>3.6</ele>
        <time>2022-01-29T13:25:49Z</time>
      </trkpt>
      <trkpt lat="45.0736" lon="5.03109">
        <ele>3.6</ele>
        <time>2022-01-29T13:25:53Z</time>
      </trkpt>
      <trkpt lat="45.07375" lon="5.0311">
        <ele>3.6</ele>
        <time>2022-01-29T13:25:57Z</time>
      </trkpt>
      <trkpt lat="45.07391" lon="5.03111">
        <ele>3.6</ele>
        <time>2022-01-29T13:26:01Z</time>
      </trkpt>
      <trkpt lat="45.07407" lon="5.03112">
        <ele>3.4</ele>
        <time>2022-01-29T13:26:05Z</time>
      </trkpt>
      <trkpt lat="45.07422" lon="5.03113">
        <ele>3.6</ele>
        <time>2022-01-29T13:26:09Z</time>
      </trkpt>
      <trkpt lat="45.07437" lon="5.03115">
        <ele>4</ele>
        <time>2022-01-29T13:26:13Z</time>
      </trkpt>
      <trkpt lat="45.0745" lon="5.03115">
        <ele>4</ele>
        <time>2022-01-29T13:26:17Z</time>
      </trkpt>
      <trkpt lat="45.07461" lon="5.03115">
        <ele>4.6</ele>
        <time>2022-01-29T13:26:21Z</time>
      </trkpt>
      <trkpt lat="45.07471" lon="5.03114">
        <ele>5</ele>
        <time>2022-01-29T13:26:25Z</time>
      </trkpt>
      <trkpt lat="45.07481" lon="5.03114">
        <ele>6.4</ele>
        <time>2022-01-29T13:26:29Z</time>
      </trkpt>
      <trkpt lat="45.07493" lon="5.03111">
        <ele>5.8</ele>
        <time>2022-01-29T13:26:33Z</time>
      </trkpt>
      <trkpt lat="45.07507" lon="5.03108">
        <ele>5.8</ele>
        <time>2022-01-29T13:26:37Z</time>
      </trkpt>
      <trkpt lat="45.07521" lon="5.03107">
        <ele>5.4</ele>
        <time>2022-01-29T13:26:41Z</time>
      </trkpt>
      <trkpt lat="45.07535" lon="5.03106">
        <ele>4.8</ele>
        <time>2022-01-29T13:26:45Z</time>
      </trkpt>
      <trkpt lat="45.0755" lon="5.03108">
        <ele>5.4</ele>
        <time>2022-01-29T13:26:49Z</time>
      </trkpt>
      <trkpt lat="45.07564" lon="5.03112">
        <ele>5.4</ele>
        <time>2022-01-29T13:26:53Z</time>
      </trkpt>
      <trkpt lat="45.07578" lon="5.03118">
        <ele>5.6</ele>
        <time>2022-01-29T13:26:57Z</time>
      </trkpt>
      <trkpt lat="45.07592" lon="5.03125">
        <ele>6</ele>
        <time>2022-01-29T13:27:01Z</time>
      </trkpt>
      <trkpt lat="45.07606" lon="5.03136">
        <ele>5.6</ele>
        <time>2022-01-29T13:27:05Z</time>
      </trkpt>
      <trkpt lat="45.07617" lon="5.0315">
        <ele>5.6</ele>
        <time>2022-01-29T13:27:09Z</time>
      </trkpt>
      <trkpt lat="45.07627" lon="5.03165">
        <ele>5.6</ele>
        <time>2022-01-29T13:27:13Z</time>
      </trkpt>
      <trkpt lat="45.07635" lon="5.03178">
        <ele>6.2</ele>
        <time>2022-01-29T13:27:17Z</time>
      </trkpt>
      <trkpt lat="45.0764" lon="5.0319">
        <ele>5.6</ele>
        <time>2022-01-29T13:27:21Z</time>
      </trkpt>
      <trkpt lat="45.07639" lon="5.03204">
        <ele>5.6</ele>
        <time>2022-01-29T13:27:25Z</time>
      </trkpt>
      <trkpt lat="45.07631" lon="5.03221">
        <ele>5.8</ele>
        <time>2022-01-29T13:27:29Z</time>
      </trkpt>
      <trkpt lat="45.07622" lon="5.03237">
        <ele>5</ele>
        <time>2022-01-29T13:27:33Z</time>
      </trkpt>
      <trkpt lat="45.07614" lon="5.03252">
        <ele>5</ele>
        <time>2022-01-29T13:27:37Z</time>
      </trkpt>
      <trkpt lat="45.07608" lon="5.03267">
        <ele>5.4</ele>
        <time>2022-01-29T13:27:41Z</time>
      </trkpt>
      <trkpt lat="45.0761" lon="5.03285">
        <ele>4.8</ele>
        <time>2022-01-29T13:27:45Z</time>
      </trkpt>
      <trkpt lat="45.07617" lon="5.03301">
        <ele>4.4</ele>
        <time>2022-01-29T13:27:49Z</time>
      </trkpt>
      <trkpt lat="45.07625" lon="5.03312">
        <ele>4.8</ele>
        <time>2022-01-29T13:27:53Z</time>
      </trkpt>
      <trkpt lat="45.07632" lon="5.03322">
        <ele>5.6</ele>
        <time>2022-01-29T13:27:57Z</time>
      </trkpt>
      <trkpt lat="45.07639" lon="5.03332">
        <ele>6.2</ele>
        <time>2022-01-29T13:28:01Z</time>
      </trkpt>
      <trkpt lat="45.07646" lon="5.0334">
        <ele>6.4</ele>
        <time>2022-01-29T13:28:05Z</time>
      </trkpt>
      <trkpt lat="45.07653" lon="5.03347">
        <ele>7.4</ele>
        <time>2022-01-29T13:28:09Z</time>
      </trkpt>
      <trkpt lat="45.07659" lon="5.03354">
        <ele>7.6</ele>
        <time>2022-01-29T13:28:13Z</time>
      </trkpt>
      <trkpt lat="45.07668" lon="5.03363">
        <ele>8</ele>
        <time>2022-01-29T13:28:17Z</time>
      </trkpt>
      <trkpt lat="45.07678" lon="5.03376">
        <ele>7.8</ele>
        <time>2022-01-29T13:28:21Z</time>
      </trkpt>
      <trkpt lat="45.07689" lon="5.03388">
        <ele>7.2</ele>
        <time>2022-01-29T13:28:25Z</time>
      </trkpt>
      <trkpt lat="45.077" lon="5.034">
        <ele>5.8</ele>
        <time>2022-01-29T13:28:29Z</time>
      </trkpt>
      <trkpt lat="45.07714" lon="5.03412">
        <ele>5</ele>
        <time>2022-01-29T13:28:33Z</time>
      </trkpt>
      <trkpt lat="45.07726" lon="5.03424">
        <ele>5.2</ele>
        <time>2022-01-29T13:28:37Z</time>
      </trkpt>
      <trkpt lat="45.07736" lon="5.03436">
        <ele>5.4</ele>
        <time>2022-01-29T13:28:41Z</time>
      </trkpt>
      <trkpt lat="45.07747" lon="5.0345">
        <ele>4.8</ele>
        <time>2022-01-29T13:28:45Z</time>
      </trkpt>
      <trkpt lat="45.07759" lon="5.03463">
        <ele>5.4</ele>
        <time>2022-01-29T13:28:49Z</time>
      </trkpt>
      <trkpt lat="45.07771" lon="5.03475">
        <ele>5</ele>
        <time>2022-01-29T13:28:53Z</time>
      </trkpt>
      <trkpt lat="45.07782" lon="5.03487">
        <ele>6.2</ele>
        <time>2022-01-29T13:28:57Z</time>
      </trkpt>
      <trkpt lat="45.07794" lon="5.035">
        <ele>6.4</ele>
        <time>2022-01-29T13:29:01Z</time>
      </trkpt>
      <trkpt lat="45.07806" lon="5.03512">
        <ele>6.2</ele>
        <time>2022-01-29T13:29:05Z</time>
      </trkpt>
      <trkpt lat="45.07817" lon="5.03525">
        <ele>6.6</ele>
        <time>2022-01-29T13:29:09Z</time>
      </trkpt>
      <trkpt lat="45.07828" lon="5.03537">
        <ele>7</ele>
        <time>2022-01-29T13:29:13Z</time>
      </trkpt>
      <trkpt lat="45.07838" lon="5.03548">
        <ele>7.8</ele>
        <time>2022-01-29T13:29:17Z</time>
      </trkpt>
      <trkpt lat="45.07848" lon="5.03558">
        <ele>6.8</ele>
        <time>2022-01-29T13:29:21Z</time>
      </trkpt>
      <trkpt lat="45.07857" lon="5.03568">
        <ele>7.4</ele>
        <time>2022-01-29T13:29:25Z</time>
      </trkpt>
      <trkpt lat="45.07866" lon="5.03579">
        <ele>7.2</ele>
        <time>2022-01-29T13:29:29Z</time>
      </trkpt>
      <trkpt lat="45.07877" lon="5.03589">
        <ele>7.6</ele>
        <time>2022-01-29T13:29:33Z</time>
      </trkpt>
      <trkpt lat="45.07886" lon="5.036">
        <ele>7.8</ele>
        <time>2022-01-29T13:29:37Z</time>
      </trkpt>
      <trkpt lat="45.07897" lon="5.03613">
        <ele>6.8</ele>
        <time>2022-01-29T13:29:41Z</time>
      </trkpt>
      <trkpt lat="45.07908" lon="5.03626">
        <ele>7.4</ele>
        <time>2022-01-29T13:29:45Z</time>
      </trkpt>
      <trkpt lat="45.07919" lon="5.03639">
        <ele>6.8</ele>
        <time>2022-01-29T13:29:49Z</time>
      </trkpt>
      <trkpt lat="45.07931" lon="5.03652">
        <ele>6.6</ele>
        <time>2022-01-29T13:29:53Z</time>
      </trkpt>
      <trkpt lat="45.07941" lon="5.03665">
        <ele>7.4</ele>
        <time>2022-01-29T13:29:57Z</time>
      </trkpt>
      <trkpt lat="45.07952" lon="5.03677">
        <ele>7.8</ele>
        <time>2022-01-29T13:30:01Z</time>
      </trkpt>
      <trkpt lat="45.07962" lon="5.0369">
        <ele>8</ele>
        <time>2022-01-29T13:30:05Z</time>
      </trkpt>
      <trkpt lat="45.07972" lon="5.03703">
        <ele>7.8</ele>
        <time>2022-01-29T13:30:09Z</time>
      </trkpt>
      <trkpt lat="45.07983" lon="5.03715">
        <ele>8</ele>
        <time>2022-01-29T13:30:13Z</time>
      </trkpt>
      <trkpt lat="45.07993" lon="5.03727">
        <ele>8.2</ele>
        <time>2022-01-29T13:30:17Z</time>
      </trkpt>
      <trkpt lat="45.08003" lon="5.03739">
        <ele>7.6</ele>
        <time>2022-01-29T13:30:21Z</time>
      </trkpt>
      <trkpt lat="45.08013" lon="5.03751">
        <ele>7.6</ele>
        <time>2022-01-29T13:30:25Z</time>
      </trkpt>
      <trkpt lat="45.08024" lon="5.03763">
        <ele>8</ele>
        <time>2022-01-29T13:30:29Z</time>
      </trkpt>
      <trkpt lat="45.08033" lon="5.03773">
        <ele>8.6</ele>
        <time>2022-01-29T13:30:33Z</time>
      </trkpt>
      <trkpt lat="45.08041" lon="5.0379">
        <ele>9.2</ele>
        <time>2022-01-29T13:30:47Z</time>
      </trkpt>
      <trkpt lat="45.08052" lon="5.03801">
        <ele>8.8</ele>
        <time>2022-01-29T13:30:51Z</time>
      </trkpt>
      <trkpt lat="45.08063" lon="5.03816">
        <ele>9</ele>
        <time>2022-01-29T13:30:55Z</time>
      </trkpt>
      <trkpt lat="45.08073" lon="5.03832">
        <ele>9.4</ele>
        <time>2022-01-29T13:30:59Z</time>
      </trkpt>
      <trkpt lat="45.08082" lon="5.03848">
        <ele>9.4</ele>
        <time>2022-01-29T13:31:03Z</time>
      </trkpt>
      <trkpt lat="45.08092" lon="5.03864">
        <ele>9.4</ele>
        <time>2022-01-29T13:31:07Z</time>
      </trkpt>
      <trkpt lat="45.081" lon="5.0388">
        <ele>9.6</ele>
        <time>2022-01-29T13:31:11Z</time>
      </trkpt>
      <trkpt lat="45.0811" lon="5.03896">
        <ele>10</ele>
        <time>2022-01-29T13:31:15Z</time>
      </trkpt>
      <trkpt lat="45.08119" lon="5.03912">
        <ele>10.6</ele>
        <time>2022-01-29T13:31:19Z</time>
      </trkpt>
      <trkpt lat="45.08128" lon="5.03928">
        <ele>10.2</ele>
        <time>2022-01-29T13:31:23Z</time>
      </trkpt>
      <trkpt lat="45.08138" lon="5.03942">
        <ele>10.6</ele>
        <time>2022-01-29T13:31:27Z</time>
      </trkpt>
      <trkpt lat="45.0815" lon="5.03954">
        <ele>10.4</ele>
        <time>2022-01-29T13:31:31Z</time>
      </trkpt>
      <trkpt lat="45.08161" lon="5.03966">
        <ele>10.2</ele>
        <time>2022-01-29T13:31:35Z</time>
      </trkpt>
      <trkpt lat="45.08173" lon="5.03976">
        <ele>10.6</ele>
        <time>2022-01-29T13:31:39Z</time>
      </trkpt>
      <trkpt lat="45.08185" lon="5.03986">
        <ele>11</ele>
        <time>2022-01-29T13:31:43Z</time>
      </trkpt>
      <trkpt lat="45.08196" lon="5.03996">
        <ele>10.8</ele>
        <time>2022-01-29T13:31:47Z</time>
      </trkpt>
      <trkpt lat="45.08208" lon="5.04007">
        <ele>11.6</ele>
        <time>2022-01-29T13:31:51Z</time>
      </trkpt>
      <trkpt lat="45.08218" lon="5.0402">
        <ele>11.8</ele>
        <time>2022-01-29T13:31:55Z</time>
      </trkpt>
      <trkpt lat="45.08228" lon="5.04033">
        <ele>11.2</ele>
        <time>2022-01-29T13:31:59Z</time>
      </trkpt>
      <trkpt lat="45.08239" lon="5.04046">
        <ele>11.4</ele>
        <time>2022-01-29T13:32:03Z</time>
      </trkpt>
      <trkpt lat="45.0825" lon="5.0406">
        <ele>11.2</ele>
        <time>2022-01-29T13:32:07Z</time>
      </trkpt>
      <trkpt lat="45.08261" lon="5.04074">
        <ele>11.2</ele>
        <time>2022-01-29T13:32:11Z</time>
      </trkpt>
      <trkpt lat="45.08272" lon="5.04086">
        <ele>11.6</ele>
        <time>2022-01-29T13:32:15Z</time>
      </trkpt>
      <trkpt lat="45.08284" lon="5.04097">
        <ele>11.8</ele>
        <time>2022-01-29T13:32:19Z</time>
      </trkpt>
      <trkpt lat="45.08297" lon="5.04106">
        <ele>11.6</ele>
        <time>2022-01-29T13:32:23Z</time>
      </trkpt>
      <trkpt lat="45.0831" lon="5.04113">
        <ele>11.8</ele>
        <time>2022-01-29T13:32:27Z</time>
      </trkpt>
      <trkpt lat="45.08323" lon="5.0412">
        <ele>11.4</ele>
        <time>2022-01-29T13:32:31Z</time>
      </trkpt>
      <trkpt lat="45.08337" lon="5.04128">
        <ele>12</ele>
        <time>2022-01-29T13:32:35Z</time>
      </trkpt>
      <trkpt lat="45.0835" lon="5.04136">
        <ele>11.8</ele>
        <time>2022-01-29T13:32:39Z</time>
      </trkpt>
      <trkpt lat="45.08364" lon="5.04145">
        <ele>12.2</ele>
        <time>2022-01-29T13:32:43Z</time>
      </trkpt>
      <trkpt lat="45.08377" lon="5.04153">
        <ele>12.4</ele>
        <time>2022-01-29T13:32:47Z</time>
      </trkpt>
      <trkpt lat="45.0839" lon="5.04161">
        <ele>12.4</ele>
        <time>2022-01-29T13:32:51Z</time>
      </trkpt>
      <trkpt lat="45.08403" lon="5.04169">
        <ele>13.2</ele>
        <time>2022-01-29T13:32:55Z</time>
      </trkpt>
      <trkpt lat="45.08416" lon="5.04177">
        <ele>13</ele>
        <time>2022-01-29T13:32:59Z</time>
      </trkpt>
      <trkpt lat="45.0843" lon="5.04186">
        <ele>14</ele>
        <time>2022-01-29T13:33:03Z</time>
      </trkpt>
      <trkpt lat="45.08441" lon="5.04196">
        <ele>13.6</ele>
        <time>2022-01-29T13:33:07Z</time>
      </trkpt>
      <trkpt lat="45.08452" lon="5.04204">
        <ele>13.8</ele>
        <time>2022-01-29T13:33:11Z</time>
      </trkpt>
      <trkpt lat="45.08465" lon="5.04212">
        <ele>14.4</ele>
        <time>2022-01-29T13:33:15Z</time>
      </trkpt>
      <trkpt lat="45.08478" lon="5.04219">
        <ele>14.4</ele>
        <time>2022-01-29T13:33:19Z</time>
      </trkpt>
      <trkpt lat="45.08492" lon="5.04225">
        <ele>14.2</ele>
        <time>2022-01-29T13:33:23Z</time>
      </trkpt>
      <trkpt lat="45.08504" lon="5.04233">
        <ele>14.4</ele>
        <time>2022-01-29T13:33:27Z</time>
      </trkpt>
      <trkpt lat="45.08517" lon="5.04239">
        <ele>15</ele>
        <time>2022-01-29T13:33:31Z</time>
      </trkpt>
      <trkpt lat="45.0853" lon="5.04245">
        <ele>15</ele>
        <time>2022-01-29T13:33:35Z</time>
      </trkpt>
      <trkpt lat="45.08543" lon="5.0425">
        <ele>16</ele>
        <time>2022-01-29T13:33:39Z</time>
      </trkpt>
      <trkpt lat="45.08555" lon="5.04256">
        <ele>15.6</ele>
        <time>2022-01-29T13:33:43Z</time>
      </trkpt>
      <trkpt lat="45.08566" lon="5.04262">
        <ele>16.4</ele>
        <time>2022-01-29T13:33:47Z</time>
      </trkpt>
      <trkpt lat="45.08578" lon="5.04268">
        <ele>16.2</ele>
        <time>2022-01-29T13:33:51Z</time>
      </trkpt>
      <trkpt lat="45.0859" lon="5.04273">
        <ele>16.4</ele>
        <time>2022-01-29T13:33:55Z</time>
      </trkpt>
      <trkpt lat="45.08602" lon="5.04278">
        <ele>16.4</ele>
        <time>2022-01-29T13:33:59Z</time>
      </trkpt>
      <trkpt lat="45.08613" lon="5.04282">
        <ele>17.2</ele>
        <time>2022-01-29T13:34:03Z</time>
      </trkpt>
      <trkpt lat="45.08625" lon="5.04286">
        <ele>17.4</ele>
        <time>2022-01-29T13:34:07Z</time>
      </trkpt>
      <trkpt lat="45.08637" lon="5.0429">
        <ele>17.6</ele>
        <time>2022-01-29T13:34:11Z</time>
      </trkpt>
      <trkpt lat="45.08648" lon="5.04294">
        <ele>17.4</ele>
        <time>2022-01-29T13:34:15Z</time>
      </trkpt>
      <trkpt lat="45.08654" lon="5.04304">
        <ele>18.4</ele>
        <time>2022-01-29T13:34:19Z</time>
      </trkpt>
      <trkpt lat="45.08652" lon="5.04315">
        <ele>18.6</ele>
        <time>2022-01-29T13:34:23Z</time>
      </trkpt>
      <trkpt lat="45.08646" lon="5.04325">
        <ele>19</ele>
        <time>2022-01-29T13:34:27Z</time>
      </trkpt>
      <trkpt lat="45.08638" lon="5.0434">
        <ele>18.6</ele>
        <time>2022-01-29T13:34:31Z</time>
      </trkpt>
      <trkpt lat="45.08629" lon="5.04355">
        <ele>18.2</ele>
        <time>2022-01-29T13:34:35Z</time>
      </trkpt>
      <trkpt lat="45.08621" lon="5.04371">
        <ele>18.6</ele>
        <time>2022-01-29T13:34:39Z</time>
      </trkpt>
      <trkpt lat="45.08616" lon="5.04384">
        <ele>17.2</ele>
        <time>2022-01-29T13:34:43Z</time>
      </trkpt>
      <trkpt lat="45.08612" lon="5.04396">
        <ele>17.2</ele>
        <time>2022-01-29T13:34:47Z</time>
      </trkpt>
      <trkpt lat="45.08608" lon="5.04405">
        <ele>17.6</ele>
        <time>2022-01-29T13:34:51Z</time>
      </trkpt>
      <trkpt lat="45.08604" lon="5.04419">
        <ele>18</ele>
        <time>2022-01-29T13:34:55Z</time>
      </trkpt>
      <trkpt lat="45.08599" lon="5.04434">
        <ele>18.4</ele>
        <time>2022-01-29T13:34:59Z</time>
      </trkpt>
      <trkpt lat="45.08595" lon="5.04442">
        <ele>19.6</ele>
        <time>2022-01-29T13:35:03Z</time>
      </trkpt>
      <trkpt lat="45.08589" lon="5.04461">
        <ele>17.6</ele>
        <time>2022-01-29T13:35:07Z</time>
      </trkpt>
      <trkpt lat="45.08581" lon="5.04484">
        <ele>18</ele>
        <time>2022-01-29T13:35:11Z</time>
      </trkpt>
      <trkpt lat="45.08573" lon="5.04507">
        <ele>17.6</ele>
        <time>2022-01-29T13:35:15Z</time>
      </trkpt>
      <trkpt lat="45.08565" lon="5.04529">
        <ele>17.6</ele>
        <time>2022-01-29T13:35:19Z</time>
      </trkpt>
      <trkpt lat="45.08556" lon="5.04552">
        <ele>17.4</ele>
        <time>2022-01-29T13:35:23Z</time>
      </trkpt>
      <trkpt lat="45.08547" lon="5.04575">
        <ele>17.2</ele>
        <time>2022-01-29T13:35:27Z</time>
      </trkpt>
      <trkpt lat="45.08537" lon="5.04598">
        <ele>17.2</ele>
        <time>2022-01-29T13:35:31Z</time>
      </trkpt>
      <trkpt lat="45.08529" lon="5.04618">
        <ele>17.2</ele>
        <time>2022-01-29T13:35:35Z</time>
      </trkpt>
      <trkpt lat="45.08518" lon="5.04634">
        <ele>16.6</ele>
        <time>2022-01-29T13:35:39Z</time>
      </trkpt>
      <trkpt lat="45.08506" lon="5.0465">
        <ele>16.4</ele>
        <time>2022-01-29T13:35:43Z</time>
      </trkpt>
      <trkpt lat="45.08495" lon="5.04668">
        <ele>16.8</ele>
        <time>2022-01-29T13:35:47Z</time>
      </trkpt>
      <trkpt lat="45.08487" lon="5.0469">
        <ele>16.6</ele>
        <time>2022-01-29T13:35:51Z</time>
      </trkpt>
      <trkpt lat="45.08481" lon="5.04713">
        <ele>16.4</ele>
        <time>2022-01-29T13:35:55Z</time>
      </trkpt>
      <trkpt lat="45.08474" lon="5.04736">
        <ele>17.4</ele>
        <time>2022-01-29T13:35:59Z</time>
      </trkpt>
      <trkpt lat="45.08468" lon="5.04756">
        <ele>18</ele>
        <time>2022-01-29T13:36:03Z</time>
      </trkpt>
      <trkpt lat="45.08462" lon="5.04778">
        <ele>18.2</ele>
        <time>2022-01-29T13:36:07Z</time>
      </trkpt>
      <trkpt lat="45.0846" lon="5.04801">
        <ele>18.2</ele>
        <time>2022-01-29T13:36:11Z</time>
      </trkpt>
      <trkpt lat="45.08471" lon="5.04819">
        <ele>17.6</ele>
        <time>2022-01-29T13:36:15Z</time>
      </trkpt>
      <trkpt lat="45.08477" lon="5.04843">
        <ele>17.8</ele>
        <time>2022-01-29T13:36:19Z</time>
      </trkpt>
      <trkpt lat="45.08477" lon="5.04867">
        <ele>18</ele>
        <time>2022-01-29T13:36:23Z</time>
      </trkpt>
      <trkpt lat="45.08468" lon="5.04884">
        <ele>18.4</ele>
        <time>2022-01-29T13:36:27Z</time>
      </trkpt>
      <trkpt lat="45.08457" lon="5.04898">
        <ele>18.2</ele>
        <time>2022-01-29T13:36:31Z</time>
      </trkpt>
      <trkpt lat="45.0845" lon="5.04916">
        <ele>18.6</ele>
        <time>2022-01-29T13:36:35Z</time>
      </trkpt>
      <trkpt lat="45.08448" lon="5.04937">
        <ele>19.2</ele>
        <time>2022-01-29T13:36:39Z</time>
      </trkpt>
      <trkpt lat="45.08448" lon="5.04953">
        <ele>20.2</ele>
        <time>2022-01-29T13:36:43Z</time>
      </trkpt>
      <trkpt lat="45.08454" lon="5.04965">
        <ele>21</ele>
        <time>2022-01-29T13:36:47Z</time>
      </trkpt>
      <trkpt lat="45.08464" lon="5.04974">
        <ele>21</ele>
        <time>2022-01-29T13:36:51Z</time>
      </trkpt>
      <trkpt lat="45.08475" lon="5.04981">
        <ele>21.2</ele>
        <time>2022-01-29T13:36:55Z</time>
      </trkpt>
      <trkpt lat="45.08488" lon="5.04987">
        <ele>21.6</ele>
        <time>2022-01-29T13:36:59Z</time>
      </trkpt>
      <trkpt lat="45.085" lon="5.04993">
        <ele>21.6</ele>
        <time>2022-01-29T13:37:03Z</time>
      </trkpt>
      <trkpt lat="45.08513" lon="5.05001">
        <ele>22</ele>
        <time>2022-01-29T13:37:07Z</time>
      </trkpt>
      <trkpt lat="45.08525" lon="5.05009">
        <ele>22.4</ele>
        <time>2022-01-29T13:37:11Z</time>
      </trkpt>
      <trkpt lat="45.08537" lon="5.05017">
        <ele>22.8</ele>
        <time>2022-01-29T13:37:15Z</time>
      </trkpt>
      <trkpt lat="45.08548" lon="5.05026">
        <ele>23.2</ele>
        <time>2022-01-29T13:37:19Z</time>
      </trkpt>
      <trkpt lat="45.08557" lon="5.05038">
        <ele>23.4</ele>
        <time>2022-01-29T13:37:23Z</time>
      </trkpt>
      <trkpt lat="45.08566" lon="5.0505">
        <ele>23.6</ele>
        <time>2022-01-29T13:37:27Z</time>
      </trkpt>
      <trkpt lat="45.08575" lon="5.05063">
        <ele>24.4</ele>
        <time>2022-01-29T13:37:31Z</time>
      </trkpt>
      <trkpt lat="45.08585" lon="5.05076">
        <ele>24.8</ele>
        <time>2022-01-29T13:37:35Z</time>
      </trkpt>
      <trkpt lat="45.08594" lon="5.05088">
        <ele>24.8</ele>
        <time>2022-01-29T13:37:39Z</time>
      </trkpt>
      <trkpt lat="45.08601" lon="5.051">
        <ele>26</ele>
        <time>2022-01-29T13:37:43Z</time>
      </trkpt>
      <trkpt lat="45.0861" lon="5.05109">
        <ele>26.2</ele>
        <time>2022-01-29T13:37:47Z</time>
      </trkpt>
      <trkpt lat="45.0862" lon="5.05119">
        <ele>27.2</ele>
        <time>2022-01-29T13:37:51Z</time>
      </trkpt>
      <trkpt lat="45.08632" lon="5.05128">
        <ele>28</ele>
        <time>2022-01-29T13:37:55Z</time>
      </trkpt>
      <trkpt lat="45.08641" lon="5.05136">
        <ele>27.8</ele>
        <time>2022-01-29T13:37:59Z</time>
      </trkpt>
      <trkpt lat="45.08651" lon="5.05147">
        <ele>27.6</ele>
        <time>2022-01-29T13:38:03Z</time>
      </trkpt>
      <trkpt lat="45.08655" lon="5.05161">
        <ele>28.2</ele>
        <time>2022-01-29T13:38:07Z</time>
      </trkpt>
      <trkpt lat="45.0866" lon="5.05178">
        <ele>28.4</ele>
        <time>2022-01-29T13:38:11Z</time>
      </trkpt>
      <trkpt lat="45.08665" lon="5.05194">
        <ele>28.4</ele>
        <time>2022-01-29T13:38:15Z</time>
      </trkpt>
      <trkpt lat="45.08671" lon="5.05212">
        <ele>28.2</ele>
        <time>2022-01-29T13:38:19Z</time>
      </trkpt>
      <trkpt lat="45.08676" lon="5.05229">
        <ele>28.6</ele>
        <time>2022-01-29T13:38:23Z</time>
      </trkpt>
      <trkpt lat="45.08683" lon="5.05245">
        <ele>29</ele>
        <time>2022-01-29T13:38:27Z</time>
      </trkpt>
      <trkpt lat="45.08687" lon="5.0526">
        <ele>29</ele>
        <time>2022-01-29T13:38:31Z</time>
      </trkpt>
      <trkpt lat="45.08691" lon="5.05277">
        <ele>29.6</ele>
        <time>2022-01-29T13:38:35Z</time>
      </trkpt>
      <trkpt lat="45.08697" lon="5.05294">
        <ele>29.8</ele>
        <time>2022-01-29T13:38:39Z</time>
      </trkpt>
      <trkpt lat="45.08703" lon="5.0531">
        <ele>30.2</ele>
        <time>2022-01-29T13:38:43Z</time>
      </trkpt>
      <trkpt lat="45.08706" lon="5.05326">
        <ele>30.6</ele>
        <time>2022-01-29T13:38:47Z</time>
      </trkpt>
      <trkpt lat="45.08708" lon="5.0534">
        <ele>31</ele>
        <time>2022-01-29T13:38:51Z</time>
      </trkpt>
      <trkpt lat="45.08716" lon="5.0536">
        <ele>31.4</ele>
        <time>2022-01-29T13:38:55Z</time>
      </trkpt>
      <trkpt lat="45.08721" lon="5.05373">
        <ele>31</ele>
        <time>2022-01-29T13:38:59Z</time>
      </trkpt>
      <trkpt lat="45.08726" lon="5.05386">
        <ele>31.6</ele>
        <time>2022-01-29T13:39:03Z</time>
      </trkpt>
      <trkpt lat="45.08735" lon="5.054">
        <ele>32</ele>
        <time>2022-01-29T13:39:07Z</time>
      </trkpt>
      <trkpt lat="45.08748" lon="5.05417">
        <ele>32.8</ele>
        <time>2022-01-29T13:39:11Z</time>
      </trkpt>
      <trkpt lat="45.08761" lon="5.05432">
        <ele>33</ele>
        <time>2022-01-29T13:39:15Z</time>
      </trkpt>
      <trkpt lat="45.08769" lon="5.05448">
        <ele>33.4</ele>
        <time>2022-01-29T13:39:19Z</time>
      </trkpt>
      <trkpt lat="45.08778" lon="5.05462">
        <ele>33.6</ele>
        <time>2022-01-29T13:39:23Z</time>
      </trkpt>
      <trkpt lat="45.08788" lon="5.05474">
        <ele>33.8</ele>
        <time>2022-01-29T13:39:27Z</time>
      </trkpt>
      <trkpt lat="45.08798" lon="5.05486">
        <ele>34.4</ele>
        <time>2022-01-29T13:39:31Z</time>
      </trkpt>
      <trkpt lat="45.08807" lon="5.05496">
        <ele>33.8</ele>
        <time>2022-01-29T13:39:35Z</time>
      </trkpt>
      <trkpt lat="45.08816" lon="5.05503">
        <ele>34.2</ele>
        <time>2022-01-29T13:39:39Z</time>
      </trkpt>
      <trkpt lat="45.08825" lon="5.05512">
        <ele>35.2</ele>
        <time>2022-01-29T13:39:43Z</time>
      </trkpt>
      <trkpt lat="45.08833" lon="5.05519">
        <ele>35.2</ele>
        <time>2022-01-29T13:39:47Z</time>
      </trkpt>
      <trkpt lat="45.08841" lon="5.05526">
        <ele>35</ele>
        <time>2022-01-29T13:39:51Z</time>
      </trkpt>
      <trkpt lat="45.08849" lon="5.05535">
        <ele>35.2</ele>
        <time>2022-01-29T13:39:55Z</time>
      </trkpt>
      <trkpt lat="45.08857" lon="5.05543">
        <ele>36</ele>
        <time>2022-01-29T13:39:59Z</time>
      </trkpt>
      <trkpt lat="45.08865" lon="5.0555">
        <ele>36</ele>
        <time>2022-01-29T13:40:03Z</time>
      </trkpt>
      <trkpt lat="45.08873" lon="5.05557">
        <ele>36</ele>
        <time>2022-01-29T13:40:07Z</time>
      </trkpt>
      <trkpt lat="45.0888" lon="5.05566">
        <ele>35.2</ele>
        <time>2022-01-29T13:40:11Z</time>
      </trkpt>
      <trkpt lat="45.08888" lon="5.05574">
        <ele>36.8</ele>
        <time>2022-01-29T13:40:15Z</time>
      </trkpt>
      <trkpt lat="45.08897" lon="5.0558">
        <ele>36.8</ele>
        <time>2022-01-29T13:40:19Z</time>
      </trkpt>
      <trkpt lat="45.08906" lon="5.05587">
        <ele>37</ele>
        <time>2022-01-29T13:40:23Z</time>
      </trkpt>
      <trkpt lat="45.08912" lon="5.05596">
        <ele>37.4</ele>
        <time>2022-01-29T13:40:27Z</time>
      </trkpt>
      <trkpt lat="45.08921" lon="5.05602">
        <ele>36.8</ele>
        <time>2022-01-29T13:40:31Z</time>
      </trkpt>
      <trkpt lat="45.08929" lon="5.05608">
        <ele>36</ele>
        <time>2022-01-29T13:40:35Z</time>
      </trkpt>
      <trkpt lat="45.08941" lon="5.05615">
        <ele>35.6</ele>
        <time>2022-01-29T13:40:39Z</time>
      </trkpt>
      <trkpt lat="45.08955" lon="5.05625">
        <ele>34.6</ele>
        <time>2022-01-29T13:40:43Z</time>
      </trkpt>
      <trkpt lat="45.08969" lon="5.05636">
        <ele>34.2</ele>
        <time>2022-01-29T13:40:47Z</time>
      </trkpt>
      <trkpt lat="45.08983" lon="5.05647">
        <ele>33.6</ele>
        <time>2022-01-29T13:40:51Z</time>
      </trkpt>
      <trkpt lat="45.08995" lon="5.05663">
        <ele>33.6</ele>
        <time>2022-01-29T13:40:55Z</time>
      </trkpt>
      <trkpt lat="45.09004" lon="5.05677">
        <ele>33.2</ele>
        <time>2022-01-29T13:40:59Z</time>
      </trkpt>
      <trkpt lat="45.09013" lon="5.05691">
        <ele>32.8</ele>
        <time>2022-01-29T13:41:03Z</time>
      </trkpt>
      <trkpt lat="45.09021" lon="5.05706">
        <ele>33</ele>
        <time>2022-01-29T13:41:07Z</time>
      </trkpt>
      <trkpt lat="45.09026" lon="5.0572">
        <ele>32.2</ele>
        <time>2022-01-29T13:41:11Z</time>
      </trkpt>
      <trkpt lat="45.09034" lon="5.05735">
        <ele>31.6</ele>
        <time>2022-01-29T13:41:15Z</time>
      </trkpt>
      <trkpt lat="45.09041" lon="5.05749">
        <ele>32.4</ele>
        <time>2022-01-29T13:41:19Z</time>
      </trkpt>
      <trkpt lat="45.09051" lon="5.05762">
        <ele>33.2</ele>
        <time>2022-01-29T13:41:23Z</time>
      </trkpt>
      <trkpt lat="45.09059" lon="5.05774">
        <ele>33.6</ele>
        <time>2022-01-29T13:41:27Z</time>
      </trkpt>
      <trkpt lat="45.09068" lon="5.05784">
        <ele>34.8</ele>
        <time>2022-01-29T13:41:31Z</time>
      </trkpt>
      <trkpt lat="45.09077" lon="5.05794">
        <ele>35</ele>
        <time>2022-01-29T13:41:35Z</time>
      </trkpt>
      <trkpt lat="45.09084" lon="5.05805">
        <ele>35.8</ele>
        <time>2022-01-29T13:41:39Z</time>
      </trkpt>
      <trkpt lat="45.09088" lon="5.05814">
        <ele>36.2</ele>
        <time>2022-01-29T13:41:43Z</time>
      </trkpt>
      <trkpt lat="45.09093" lon="5.05824">
        <ele>36.8</ele>
        <time>2022-01-29T13:41:47Z</time>
      </trkpt>
      <trkpt lat="45.09095" lon="5.05836">
        <ele>37.4</ele>
        <time>2022-01-29T13:41:51Z</time>
      </trkpt>
      <trkpt lat="45.09101" lon="5.05849">
        <ele>37.4</ele>
        <time>2022-01-29T13:41:55Z</time>
      </trkpt>
      <trkpt lat="45.09103" lon="5.05862">
        <ele>37.6</ele>
        <time>2022-01-29T13:41:59Z</time>
      </trkpt>
      <trkpt lat="45.09103" lon="5.05874">
        <ele>38.4</ele>
        <time>2022-01-29T13:42:03Z</time>
      </trkpt>
      <trkpt lat="45.09104" lon="5.05886">
        <ele>38.2</ele>
        <time>2022-01-29T13:42:07Z</time>
      </trkpt>
      <trkpt lat="45.09104" lon="5.05901">
        <ele>38.4</ele>
        <time>2022-01-29T13:42:11Z</time>
      </trkpt>
      <trkpt lat="45.09103" lon="5.05918">
        <ele>38.8</ele>
        <time>2022-01-29T13:42:15Z</time>
      </trkpt>
      <trkpt lat="45.09102" lon="5.05935">
        <ele>38.6</ele>
        <time>2022-01-29T13:42:19Z</time>
      </trkpt>
      <trkpt lat="45.09101" lon="5.05952">
        <ele>38.6</ele>
        <time>2022-01-29T13:42:23Z</time>
      </trkpt>
      <trkpt lat="45.09103" lon="5.05971">
        <ele>38.6</ele>
        <time>2022-01-29T13:42:27Z</time>
      </trkpt>
      <trkpt lat="45.09109" lon="5.05993">
        <ele>38</ele>
        <time>2022-01-29T13:42:31Z</time>
      </trkpt>
      <trkpt lat="45.09114" lon="5.06014">
        <ele>37.8</ele>
        <time>2022-01-29T13:42:35Z</time>
      </trkpt>
      <trkpt lat="45.09118" lon="5.06033">
        <ele>37.4</ele>
        <time>2022-01-29T13:42:39Z</time>
      </trkpt>
      <trkpt lat="45.09124" lon="5.06053">
        <ele>38</ele>
        <time>2022-01-29T13:42:43Z</time>
      </trkpt>
      <trkpt lat="45.0913" lon="5.06072">
        <ele>38</ele>
        <time>2022-01-29T13:42:47Z</time>
      </trkpt>
      <trkpt lat="45.09134" lon="5.06087">
        <ele>38.6</ele>
        <time>2022-01-29T13:42:51Z</time>
      </trkpt>
      <trkpt lat="45.09141" lon="5.06104">
        <ele>39.2</ele>
        <time>2022-01-29T13:42:55Z</time>
      </trkpt>
      <trkpt lat="45.09146" lon="5.06119">
        <ele>39.4</ele>
        <time>2022-01-29T13:42:59Z</time>
      </trkpt>
      <trkpt lat="45.0915" lon="5.06133">
        <ele>40.2</ele>
        <time>2022-01-29T13:43:03Z</time>
      </trkpt>
      <trkpt lat="45.09154" lon="5.06148">
        <ele>40.4</ele>
        <time>2022-01-29T13:43:07Z</time>
      </trkpt>
      <trkpt lat="45.09155" lon="5.0616">
        <ele>40.4</ele>
        <time>2022-01-29T13:43:11Z</time>
      </trkpt>
      <trkpt lat="45.09153" lon="5.06174">
        <ele>40.2</ele>
        <time>2022-01-29T13:43:15Z</time>
      </trkpt>
      <trkpt lat="45.09152" lon="5.06188">
        <ele>40.4</ele>
        <time>2022-01-29T13:43:19Z</time>
      </trkpt>
      <trkpt lat="45.0915" lon="5.06205">
        <ele>40.8</ele>
        <time>2022-01-29T13:43:23Z</time>
      </trkpt>
      <trkpt lat="45.09149" lon="5.06224">
        <ele>39.8</ele>
        <time>2022-01-29T13:43:27Z</time>
      </trkpt>
      <trkpt lat="45.0915" lon="5.06245">
        <ele>40.2</ele>
        <time>2022-01-29T13:43:31Z</time>
      </trkpt>
      <trkpt lat="45.0915" lon="5.06257">
        <ele>40.4</ele>
        <time>2022-01-29T13:43:35Z</time>
      </trkpt>
      <trkpt lat="45.09154" lon="5.06283">
        <ele>40.6</ele>
        <time>2022-01-29T13:45:24Z</time>
      </trkpt>
      <trkpt lat="45.09155" lon="5.06302">
        <ele>41</ele>
        <time>2022-01-29T13:45:28Z</time>
      </trkpt>
      <trkpt lat="45.09158" lon="5.0632">
        <ele>41.2</ele>
        <time>2022-01-29T13:45:32Z</time>
      </trkpt>
      <trkpt lat="45.0916" lon="5.06337">
        <ele>41.2</ele>
        <time>2022-01-29T13:45:36Z</time>
      </trkpt>
      <trkpt lat="45.0916" lon="5.06355">
        <ele>41.4</ele>
        <time>2022-01-29T13:45:40Z</time>
      </trkpt>
      <trkpt lat="45.09156" lon="5.06371">
        <ele>42.2</ele>
        <time>2022-01-29T13:45:44Z</time>
      </trkpt>
      <trkpt lat="45.0915" lon="5.06382">
        <ele>42.8</ele>
        <time>2022-01-29T13:45:48Z</time>
      </trkpt>
      <trkpt lat="45.09145" lon="5.06391">
        <ele>43.4</ele>
        <time>2022-01-29T13:45:52Z</time>
      </trkpt>
      <trkpt lat="45.09148" lon="5.06391">
        <ele>43.4</ele>
        <time>2022-01-29T13:45:56Z</time>
      </trkpt>
      <trkpt lat="45.09157" lon="5.06386">
        <ele>43.4</ele>
        <time>2022-01-29T13:46:00Z</time>
      </trkpt>
      <trkpt lat="45.09169" lon="5.06385">
        <ele>42</ele>
        <time>2022-01-29T13:46:04Z</time>
      </trkpt>
      <trkpt lat="45.09177" lon="5.06399">
        <ele>41.6</ele>
        <time>2022-01-29T13:46:08Z</time>
      </trkpt>
      <trkpt lat="45.09182" lon="5.06418">
        <ele>41.2</ele>
        <time>2022-01-29T13:46:12Z</time>
      </trkpt>
      <trkpt lat="45.09188" lon="5.06435">
        <ele>41</ele>
        <time>2022-01-29T13:46:16Z</time>
      </trkpt>
      <trkpt lat="45.09193" lon="5.06454">
        <ele>41.2</ele>
        <time>2022-01-29T13:46:20Z</time>
      </trkpt>
      <trkpt lat="45.09198" lon="5.06471">
        <ele>40.8</ele>
        <time>2022-01-29T13:46:24Z</time>
      </trkpt>
      <trkpt lat="45.09202" lon="5.06489">
        <ele>41</ele>
        <time>2022-01-29T13:46:28Z</time>
      </trkpt>
      <trkpt lat="45.09207" lon="5.06508">
        <ele>40.8</ele>
        <time>2022-01-29T13:46:32Z</time>
      </trkpt>
      <trkpt lat="45.09211" lon="5.06527">
        <ele>41.2</ele>
        <time>2022-01-29T13:46:36Z</time>
      </trkpt>
      <trkpt lat="45.09214" lon="5.06545">
        <ele>41.4</ele>
        <time>2022-01-29T13:46:40Z</time>
      </trkpt>
      <trkpt lat="45.09219" lon="5.06562">
        <ele>42.4</ele>
        <time>2022-01-29T13:46:44Z</time>
      </trkpt>
      <trkpt lat="45.09225" lon="5.06578">
        <ele>42.2</ele>
        <time>2022-01-29T13:46:48Z</time>
      </trkpt>
      <trkpt lat="45.0923" lon="5.06593">
        <ele>42.4</ele>
        <time>2022-01-29T13:46:52Z</time>
      </trkpt>
      <trkpt lat="45.09236" lon="5.0661">
        <ele>42</ele>
        <time>2022-01-29T13:46:56Z</time>
      </trkpt>
      <trkpt lat="45.09244" lon="5.06629">
        <ele>42</ele>
        <time>2022-01-29T13:47:00Z</time>
      </trkpt>
      <trkpt lat="45.0925" lon="5.06648">
        <ele>42</ele>
        <time>2022-01-29T13:47:04Z</time>
      </trkpt>
      <trkpt lat="45.09256" lon="5.06666">
        <ele>42.2</ele>
        <time>2022-01-29T13:47:08Z</time>
      </trkpt>
      <trkpt lat="45.09261" lon="5.06686">
        <ele>42.4</ele>
        <time>2022-01-29T13:47:12Z</time>
      </trkpt>
      <trkpt lat="45.09266" lon="5.06704">
        <ele>42.4</ele>
        <time>2022-01-29T13:47:16Z</time>
      </trkpt>
      <trkpt lat="45.0927" lon="5.06722">
        <ele>42.8</ele>
        <time>2022-01-29T13:47:20Z</time>
      </trkpt>
      <trkpt lat="45.09275" lon="5.06739">
        <ele>42.4</ele>
        <time>2022-01-29T13:47:24Z</time>
      </trkpt>
      <trkpt lat="45.0928" lon="5.06756">
        <ele>43.4</ele>
        <time>2022-01-29T13:47:28Z</time>
      </trkpt>
      <trkpt lat="45.09284" lon="5.06773">
        <ele>43.4</ele>
        <time>2022-01-29T13:47:32Z</time>
      </trkpt>
      <trkpt lat="45.09288" lon="5.06789">
        <ele>43.8</ele>
        <time>2022-01-29T13:47:36Z</time>
      </trkpt>
      <trkpt lat="45.09292" lon="5.06805">
        <ele>43.4</ele>
        <time>2022-01-29T13:47:40Z</time>
      </trkpt>
      <trkpt lat="45.09296" lon="5.06823">
        <ele>44</ele>
        <time>2022-01-29T13:47:44Z</time>
      </trkpt>
      <trkpt lat="45.09301" lon="5.06841">
        <ele>43.6</ele>
        <time>2022-01-29T13:47:48Z</time>
      </trkpt>
      <trkpt lat="45.09305" lon="5.06858">
        <ele>43.8</ele>
        <time>2022-01-29T13:47:52Z</time>
      </trkpt>
      <trkpt lat="45.09309" lon="5.06876">
        <ele>43.6</ele>
        <time>2022-01-29T13:47:56Z</time>
      </trkpt>
      <trkpt lat="45.09314" lon="5.06893">
        <ele>43.8</ele>
        <time>2022-01-29T13:48:00Z</time>
      </trkpt>
      <trkpt lat="45.09318" lon="5.06911">
        <ele>43.8</ele>
        <time>2022-01-29T13:48:04Z</time>
      </trkpt>
      <trkpt lat="45.09322" lon="5.06928">
        <ele>44</ele>
        <time>2022-01-29T13:48:08Z</time>
      </trkpt>
      <trkpt lat="45.09326" lon="5.06945">
        <ele>44</ele>
        <time>2022-01-29T13:48:12Z</time>
      </trkpt>
      <trkpt lat="45.0933" lon="5.06962">
        <ele>44</ele>
        <time>2022-01-29T13:48:16Z</time>
      </trkpt>
      <trkpt lat="45.09335" lon="5.06978">
        <ele>44.4</ele>
        <time>2022-01-29T13:48:20Z</time>
      </trkpt>
      <trkpt lat="45.09339" lon="5.06993">
        <ele>44.4</ele>
        <time>2022-01-29T13:48:24Z</time>
      </trkpt>
      <trkpt lat="45.09343" lon="5.07005">
        <ele>44.6</ele>
        <time>2022-01-29T13:48:28Z</time>
      </trkpt>
      <trkpt lat="45.09346" lon="5.07015">
        <ele>44.4</ele>
        <time>2022-01-29T13:48:32Z</time>
      </trkpt>
      <trkpt lat="45.0935" lon="5.07028">
        <ele>45.2</ele>
        <time>2022-01-29T13:48:36Z</time>
      </trkpt>
      <trkpt lat="45.09352" lon="5.07039">
        <ele>45</ele>
        <time>2022-01-29T13:48:40Z</time>
      </trkpt>
      <trkpt lat="45.09355" lon="5.07051">
        <ele>45.6</ele>
        <time>2022-01-29T13:48:44Z</time>
      </trkpt>
      <trkpt lat="45.09357" lon="5.07066">
        <ele>46</ele>
        <time>2022-01-29T13:48:48Z</time>
      </trkpt>
      <trkpt lat="45.09358" lon="5.07078">
        <ele>45.8</ele>
        <time>2022-01-29T13:48:52Z</time>
      </trkpt>
      <trkpt lat="45.09358" lon="5.07089">
        <ele>46.4</ele>
        <time>2022-01-29T13:48:56Z</time>
      </trkpt>
      <trkpt lat="45.09356" lon="5.07099">
        <ele>47</ele>
        <time>2022-01-29T13:49:00Z</time>
      </trkpt>
      <trkpt lat="45.09356" lon="5.07109">
        <ele>47</ele>
        <time>2022-01-29T13:49:04Z</time>
      </trkpt>
      <trkpt lat="45.09353" lon="5.07119">
        <ele>48.2</ele>
        <time>2022-01-29T13:49:08Z</time>
      </trkpt>
      <trkpt lat="45.09353" lon="5.07129">
        <ele>48.6</ele>
        <time>2022-01-29T13:49:12Z</time>
      </trkpt>
      <trkpt lat="45.09352" lon="5.07138">
        <ele>49</ele>
        <time>2022-01-29T13:49:16Z</time>
      </trkpt>
      <trkpt lat="45.09352" lon="5.07146">
        <ele>50</ele>
        <time>2022-01-29T13:49:20Z</time>
      </trkpt>
      <trkpt lat="45.09351" lon="5.07155">
        <ele>50.4</ele>
        <time>2022-01-29T13:49:24Z</time>
      </trkpt>
      <trkpt lat="45.09349" lon="5.07163">
        <ele>51.4</ele>
        <time>2022-01-29T13:49:28Z</time>
      </trkpt>
      <trkpt lat="45.09347" lon="5.07171">
        <ele>51.6</ele>
        <time>2022-01-29T13:49:32Z</time>
      </trkpt>
      <trkpt lat="45.09345" lon="5.07184">
        <ele>50.6</ele>
        <time>2022-01-29T13:49:36Z</time>
      </trkpt>
      <trkpt lat="45.09344" lon="5.07196">
        <ele>50.4</ele>
        <time>2022-01-29T13:49:40Z</time>
      </trkpt>
      <trkpt lat="45.09355" lon="5.07199">
        <ele>50.6</ele>
        <time>2022-01-29T13:49:53Z</time>
      </trkpt>
      <trkpt lat="45.09365" lon="5.07195">
        <ele>50.4</ele>
        <time>2022-01-29T13:49:57Z</time>
      </trkpt>
      <trkpt lat="45.09368" lon="5.0721">
        <ele>50.2</ele>
        <time>2022-01-29T13:50:01Z</time>
      </trkpt>
      <trkpt lat="45.09368" lon="5.07231">
        <ele>50</ele>
        <time>2022-01-29T13:50:05Z</time>
      </trkpt>
      <trkpt lat="45.09369" lon="5.07259">
        <ele>49.2</ele>
        <time>2022-01-29T13:50:09Z</time>
      </trkpt>
      <trkpt lat="45.09372" lon="5.0729">
        <ele>48.4</ele>
        <time>2022-01-29T13:50:13Z</time>
      </trkpt>
      <trkpt lat="45.09377" lon="5.07316">
        <ele>48.6</ele>
        <time>2022-01-29T13:50:17Z</time>
      </trkpt>
      <trkpt lat="45.09383" lon="5.07339">
        <ele>48.8</ele>
        <time>2022-01-29T13:50:21Z</time>
      </trkpt>
      <trkpt lat="45.09388" lon="5.07361">
        <ele>48.6</ele>
        <time>2022-01-29T13:50:25Z</time>
      </trkpt>
      <trkpt lat="45.09394" lon="5.07381">
        <ele>49.4</ele>
        <time>2022-01-29T13:50:29Z</time>
      </trkpt>
      <trkpt lat="45.09399" lon="5.07402">
        <ele>49.4</ele>
        <time>2022-01-29T13:50:33Z</time>
      </trkpt>
      <trkpt lat="45.09404" lon="5.07421">
        <ele>49.6</ele>
        <time>2022-01-29T13:50:37Z</time>
      </trkpt>
      <trkpt lat="45.0941" lon="5.0744">
        <ele>49.4</ele>
        <time>2022-01-29T13:50:41Z</time>
      </trkpt>
      <trkpt lat="45.09419" lon="5.07456">
        <ele>50</ele>
        <time>2022-01-29T13:50:45Z</time>
      </trkpt>
      <trkpt lat="45.09429" lon="5.07473">
        <ele>50.2</ele>
        <time>2022-01-29T13:50:49Z</time>
      </trkpt>
      <trkpt lat="45.0944" lon="5.07488">
        <ele>50.6</ele>
        <time>2022-01-29T13:50:53Z</time>
      </trkpt>
      <trkpt lat="45.0945" lon="5.07504">
        <ele>51</ele>
        <time>2022-01-29T13:50:57Z</time>
      </trkpt>
      <trkpt lat="45.09461" lon="5.07519">
        <ele>51.4</ele>
        <time>2022-01-29T13:51:01Z</time>
      </trkpt>
      <trkpt lat="45.09471" lon="5.07534">
        <ele>51.8</ele>
        <time>2022-01-29T13:51:05Z</time>
      </trkpt>
      <trkpt lat="45.09481" lon="5.07549">
        <ele>51.6</ele>
        <time>2022-01-29T13:51:09Z</time>
      </trkpt>
      <trkpt lat="45.09492" lon="5.07564">
        <ele>51.4</ele>
        <time>2022-01-29T13:51:13Z</time>
      </trkpt>
      <trkpt lat="45.09501" lon="5.07578">
        <ele>51.8</ele>
        <time>2022-01-29T13:51:17Z</time>
      </trkpt>
      <trkpt lat="45.09513" lon="5.07591">
        <ele>52.2</ele>
        <time>2022-01-29T13:51:21Z</time>
      </trkpt>
      <trkpt lat="45.09525" lon="5.07605">
        <ele>52.2</ele>
        <time>2022-01-29T13:51:25Z</time>
      </trkpt>
      <trkpt lat="45.09536" lon="5.07619">
        <ele>52.4</ele>
        <time>2022-01-29T13:51:29Z</time>
      </trkpt>
      <trkpt lat="45.09548" lon="5.07633">
        <ele>53</ele>
        <time>2022-01-29T13:51:33Z</time>
      </trkpt>
      <trkpt lat="45.09558" lon="5.07648">
        <ele>52.8</ele>
        <time>2022-01-29T13:51:37Z</time>
      </trkpt>
      <trkpt lat="45.09571" lon="5.07666">
        <ele>53</ele>
        <time>2022-01-29T13:51:41Z</time>
      </trkpt>
      <trkpt lat="45.0958" lon="5.07685">
        <ele>53.2</ele>
        <time>2022-01-29T13:51:45Z</time>
      </trkpt>
      <trkpt lat="45.09587" lon="5.07703">
        <ele>53.4</ele>
        <time>2022-01-29T13:51:49Z</time>
      </trkpt>
      <trkpt lat="45.09596" lon="5.07719">
        <ele>54.4</ele>
        <time>2022-01-29T13:51:53Z</time>
      </trkpt>
      <trkpt lat="45.09605" lon="5.07736">
        <ele>54.2</ele>
        <time>2022-01-29T13:51:57Z</time>
      </trkpt>
      <trkpt lat="45.09614" lon="5.07753">
        <ele>54.2</ele>
        <time>2022-01-29T13:52:01Z</time>
      </trkpt>
      <trkpt lat="45.09623" lon="5.07768">
        <ele>54</ele>
        <time>2022-01-29T13:52:05Z</time>
      </trkpt>
      <trkpt lat="45.09633" lon="5.07784">
        <ele>54.6</ele>
        <time>2022-01-29T13:52:09Z</time>
      </trkpt>
      <trkpt lat="45.09642" lon="5.07799">
        <ele>55.2</ele>
        <time>2022-01-29T13:52:13Z</time>
      </trkpt>
      <trkpt lat="45.09652" lon="5.07814">
        <ele>55.6</ele>
        <time>2022-01-29T13:52:17Z</time>
      </trkpt>
      <trkpt lat="45.09661" lon="5.07828">
        <ele>56.2</ele>
        <time>2022-01-29T13:52:21Z</time>
      </trkpt>
      <trkpt lat="45.09672" lon="5.07842">
        <ele>56.8</ele>
        <time>2022-01-29T13:52:25Z</time>
      </trkpt>
      <trkpt lat="45.09681" lon="5.07853">
        <ele>57</ele>
        <time>2022-01-29T13:52:29Z</time>
      </trkpt>
      <trkpt lat="45.09689" lon="5.07862">
        <ele>57</ele>
        <time>2022-01-29T13:52:33Z</time>
      </trkpt>
      <trkpt lat="45.09695" lon="5.07868">
        <ele>56.8</ele>
        <time>2022-01-29T13:52:37Z</time>
      </trkpt>
      <trkpt lat="45.09695" lon="5.07863">
        <ele>56.6</ele>
        <time>2022-01-29T13:53:04Z</time>
      </trkpt>
      <trkpt lat="45.09686" lon="5.07853">
        <ele>56.4</ele>
        <time>2022-01-29T13:53:08Z</time>
      </trkpt>
      <trkpt lat="45.09674" lon="5.07839">
        <ele>56.4</ele>
        <time>2022-01-29T13:53:12Z</time>
      </trkpt>
      <trkpt lat="45.09662" lon="5.07821">
        <ele>56.2</ele>
        <time>2022-01-29T13:53:16Z</time>
      </trkpt>
      <trkpt lat="45.09649" lon="5.078">
        <ele>54.8</ele>
        <time>2022-01-29T13:53:20Z</time>
      </trkpt>
      <trkpt lat="45.09635" lon="5.07778">
        <ele>54.6</ele>
        <time>2022-01-29T13:53:24Z</time>
      </trkpt>
      <trkpt lat="45.09623" lon="5.07754">
        <ele>54.2</ele>
        <time>2022-01-29T13:53:28Z</time>
      </trkpt>
      <trkpt lat="45.09611" lon="5.07732">
        <ele>53.6</ele>
        <time>2022-01-29T13:53:32Z</time>
      </trkpt>
      <trkpt lat="45.09602" lon="5.07712">
        <ele>53.6</ele>
        <time>2022-01-29T13:53:36Z</time>
      </trkpt>
      <trkpt lat="45.09594" lon="5.07695">
        <ele>53.4</ele>
        <time>2022-01-29T13:53:40Z</time>
      </trkpt>
      <trkpt lat="45.09586" lon="5.07678">
        <ele>52.6</ele>
        <time>2022-01-29T13:53:44Z</time>
      </trkpt>
      <trkpt lat="45.09577" lon="5.07669">
        <ele>52.2</ele>
        <time>2022-01-29T13:53:48Z</time>
      </trkpt>
      <trkpt lat="45.0957" lon="5.07671">
        <ele>51.2</ele>
        <time>2022-01-29T13:53:52Z</time>
      </trkpt>
      <trkpt lat="45.09565" lon="5.07675">
        <ele>51</ele>
        <time>2022-01-29T13:53:56Z</time>
      </trkpt>
      <trkpt lat="45.0956" lon="5.0768">
        <ele>51.8</ele>
        <time>2022-01-29T13:54:00Z</time>
      </trkpt>
      <trkpt lat="45.09538" lon="5.07694">
        <ele>53.8</ele>
        <time>2022-01-29T13:54:22Z</time>
      </trkpt>
      <trkpt lat="45.09521" lon="5.07697">
        <ele>54</ele>
        <time>2022-01-29T13:54:26Z</time>
      </trkpt>
      <trkpt lat="45.09503" lon="5.07699">
        <ele>53.6</ele>
        <time>2022-01-29T13:54:30Z</time>
      </trkpt>
      <trkpt lat="45.09486" lon="5.077">
        <ele>53.6</ele>
        <time>2022-01-29T13:54:34Z</time>
      </trkpt>
      <trkpt lat="45.09468" lon="5.07701">
        <ele>53.4</ele>
        <time>2022-01-29T13:54:38Z</time>
      </trkpt>
      <trkpt lat="45.0945" lon="5.07702">
        <ele>53.4</ele>
        <time>2022-01-29T13:54:42Z</time>
      </trkpt>
      <trkpt lat="45.09432" lon="5.07703">
        <ele>53.4</ele>
        <time>2022-01-29T13:54:46Z</time>
      </trkpt>
      <trkpt lat="45.09414" lon="5.07703">
        <ele>53.4</ele>
        <time>2022-01-29T13:54:50Z</time>
      </trkpt>
      <trkpt lat="45.09397" lon="5.07704">
        <ele>53.4</ele>
        <time>2022-01-29T13:54:54Z</time>
      </trkpt>
      <trkpt lat="45.0938" lon="5.07704">
        <ele>53</ele>
        <time>2022-01-29T13:54:58Z</time>
      </trkpt>
      <trkpt lat="45.09364" lon="5.07704">
        <ele>53.6</ele>
        <time>2022-01-29T13:55:02Z</time>
      </trkpt>
      <trkpt lat="45.09348" lon="5.07704">
        <ele>54</ele>
        <time>2022-01-29T13:55:06Z</time>
      </trkpt>
      <trkpt lat="45.09332" lon="5.07699">
        <ele>54.6</ele>
        <time>2022-01-29T13:55:10Z</time>
      </trkpt>
      <trkpt lat="45.09316" lon="5.07697">
        <ele>54.6</ele>
        <time>2022-01-29T13:55:14Z</time>
      </trkpt>
      <trkpt lat="45.09301" lon="5.07691">
        <ele>55</ele>
        <time>2022-01-29T13:55:18Z</time>
      </trkpt>
      <trkpt lat="45.09287" lon="5.07684">
        <ele>55.6</ele>
        <time>2022-01-29T13:55:22Z</time>
      </trkpt>
      <trkpt lat="45.09273" lon="5.07678">
        <ele>56</ele>
        <time>2022-01-29T13:55:26Z</time>
      </trkpt>
      <trkpt lat="45.09259" lon="5.07673">
        <ele>56.4</ele>
        <time>2022-01-29T13:55:30Z</time>
      </trkpt>
      <trkpt lat="45.09247" lon="5.07669">
        <ele>56.6</ele>
        <time>2022-01-29T13:55:34Z</time>
      </trkpt>
      <trkpt lat="45.09234" lon="5.07666">
        <ele>56.8</ele>
        <time>2022-01-29T13:55:38Z</time>
      </trkpt>
      <trkpt lat="45.09218" lon="5.07665">
        <ele>57</ele>
        <time>2022-01-29T13:55:42Z</time>
      </trkpt>
      <trkpt lat="45.09202" lon="5.07665">
        <ele>57.8</ele>
        <time>2022-01-29T13:55:46Z</time>
      </trkpt>
      <trkpt lat="45.09185" lon="5.07668">
        <ele>57</ele>
        <time>2022-01-29T13:55:50Z</time>
      </trkpt>
      <trkpt lat="45.09167" lon="5.07671">
        <ele>57</ele>
        <time>2022-01-29T13:55:54Z</time>
      </trkpt>
      <trkpt lat="45.09151" lon="5.07674">
        <ele>57.2</ele>
        <time>2022-01-29T13:55:58Z</time>
      </trkpt>
      <trkpt lat="45.09134" lon="5.07676">
        <ele>57.4</ele>
        <time>2022-01-29T13:56:02Z</time>
      </trkpt>
      <trkpt lat="45.09121" lon="5.07677">
        <ele>57.2</ele>
        <time>2022-01-29T13:56:06Z</time>
      </trkpt>
      <trkpt lat="45.09116" lon="5.07676">
        <ele>57.4</ele>
        <time>2022-01-29T13:56:10Z</time>
      </trkpt>
      <trkpt lat="45.0911" lon="5.07676">
        <ele>58</ele>
        <time>2022-01-29T13:56:14Z</time>
      </trkpt>
      <trkpt lat="45.09098" lon="5.07684">
        <ele>58</ele>
        <time>2022-01-29T13:56:18Z</time>
      </trkpt>
      <trkpt lat="45.09084" lon="5.07698">
        <ele>58</ele>
        <time>2022-01-29T13:56:22Z</time>
      </trkpt>
      <trkpt lat="45.09071" lon="5.07711">
        <ele>58.4</ele>
        <time>2022-01-29T13:56:26Z</time>
      </trkpt>
      <trkpt lat="45.09058" lon="5.07723">
        <ele>59</ele>
        <time>2022-01-29T13:56:30Z</time>
      </trkpt>
      <trkpt lat="45.09045" lon="5.07736">
        <ele>59.4</ele>
        <time>2022-01-29T13:56:34Z</time>
      </trkpt>
      <trkpt lat="45.09032" lon="5.07749">
        <ele>59.2</ele>
        <time>2022-01-29T13:56:38Z</time>
      </trkpt>
      <trkpt lat="45.09017" lon="5.07763">
        <ele>59.2</ele>
        <time>2022-01-29T13:56:42Z</time>
      </trkpt>
      <trkpt lat="45.08999" lon="5.07775">
        <ele>59</ele>
        <time>2022-01-29T13:56:46Z</time>
      </trkpt>
      <trkpt lat="45.08981" lon="5.07788">
        <ele>58</ele>
        <time>2022-01-29T13:56:50Z</time>
      </trkpt>
      <trkpt lat="45.08963" lon="5.078">
        <ele>57.2</ele>
        <time>2022-01-29T13:56:54Z</time>
      </trkpt>
      <trkpt lat="45.08943" lon="5.07812">
        <ele>57.2</ele>
        <time>2022-01-29T13:56:58Z</time>
      </trkpt>
      <trkpt lat="45.08925" lon="5.07826">
        <ele>56.4</ele>
        <time>2022-01-29T13:57:02Z</time>
      </trkpt>
      <trkpt lat="45.08904" lon="5.07838">
        <ele>56.2</ele>
        <time>2022-01-29T13:57:06Z</time>
      </trkpt>
      <trkpt lat="45.08885" lon="5.07857">
        <ele>55</ele>
        <time>2022-01-29T13:57:10Z</time>
      </trkpt>
      <trkpt lat="45.08862" lon="5.07884">
        <ele>53.4</ele>
        <time>2022-01-29T13:57:14Z</time>
      </trkpt>
      <trkpt lat="45.08847" lon="5.0792">
        <ele>52.4</ele>
        <time>2022-01-29T13:57:18Z</time>
      </trkpt>
      <trkpt lat="45.08837" lon="5.0796">
        <ele>51.4</ele>
        <time>2022-01-29T13:57:22Z</time>
      </trkpt>
      <trkpt lat="45.08828" lon="5.08003">
        <ele>50.8</ele>
        <time>2022-01-29T13:57:26Z</time>
      </trkpt>
      <trkpt lat="45.0882" lon="5.08047">
        <ele>49</ele>
        <time>2022-01-29T13:57:30Z</time>
      </trkpt>
      <trkpt lat="45.08811" lon="5.08091">
        <ele>47.6</ele>
        <time>2022-01-29T13:57:34Z</time>
      </trkpt>
      <trkpt lat="45.08802" lon="5.08138">
        <ele>46.2</ele>
        <time>2022-01-29T13:57:38Z</time>
      </trkpt>
      <trkpt lat="45.08793" lon="5.08186">
        <ele>45</ele>
        <time>2022-01-29T13:57:42Z</time>
      </trkpt>
      <trkpt lat="45.08785" lon="5.08236">
        <ele>44</ele>
        <time>2022-01-29T13:57:46Z</time>
      </trkpt>
      <trkpt lat="45.08777" lon="5.08289">
        <ele>41.2</ele>
        <time>2022-01-29T13:57:50Z</time>
      </trkpt>
      <trkpt lat="45.0877" lon="5.08344">
        <ele>39.4</ele>
        <time>2022-01-29T13:57:54Z</time>
      </trkpt>
      <trkpt lat="45.08763" lon="5.084">
        <ele>37.4</ele>
        <time>2022-01-29T13:57:58Z</time>
      </trkpt>
      <trkpt lat="45.08755" lon="5.08455">
        <ele>35</ele>
        <time>2022-01-29T13:58:02Z</time>
      </trkpt>
      <trkpt lat="45.08747" lon="5.08509">
        <ele>32.6</ele>
        <time>2022-01-29T13:58:06Z</time>
      </trkpt>
      <trkpt lat="45.08742" lon="5.08551">
        <ele>31.6</ele>
        <time>2022-01-29T13:58:10Z</time>
      </trkpt>
      <trkpt lat="45.08726" lon="5.08573">
        <ele>29.2</ele>
        <time>2022-01-29T13:58:14Z</time>
      </trkpt>
      <trkpt lat="45.08702" lon="5.08575">
        <ele>29.2</ele>
        <time>2022-01-29T13:58:18Z</time>
      </trkpt>
      <trkpt lat="45.08677" lon="5.0858">
        <ele>27.8</ele>
        <time>2022-01-29T13:58:22Z</time>
      </trkpt>
      <trkpt lat="45.08648" lon="5.08592">
        <ele>26.8</ele>
        <time>2022-01-29T13:58:26Z</time>
      </trkpt>
      <trkpt lat="45.08618" lon="5.08597">
        <ele>26</ele>
        <time>2022-01-29T13:58:30Z</time>
      </trkpt>
      <trkpt lat="45.08586" lon="5.08608">
        <ele>24.6</ele>
        <time>2022-01-29T13:58:34Z</time>
      </trkpt>
      <trkpt lat="45.08556" lon="5.08618">
        <ele>23.4</ele>
        <time>2022-01-29T13:58:38Z</time>
      </trkpt>
      <trkpt lat="45.08529" lon="5.08626">
        <ele>23.2</ele>
        <time>2022-01-29T13:58:42Z</time>
      </trkpt>
      <trkpt lat="45.08505" lon="5.08635">
        <ele>22.2</ele>
        <time>2022-01-29T13:58:46Z</time>
      </trkpt>
      <trkpt lat="45.08482" lon="5.08639">
        <ele>21.6</ele>
        <time>2022-01-29T13:58:50Z</time>
      </trkpt>
      <trkpt lat="45.08462" lon="5.08641">
        <ele>21.2</ele>
        <time>2022-01-29T13:58:54Z</time>
      </trkpt>
      <trkpt lat="45.0844" lon="5.08649">
        <ele>20.4</ele>
        <time>2022-01-29T13:58:58Z</time>
      </trkpt>
      <trkpt lat="45.08417" lon="5.08652">
        <ele>20.4</ele>
        <time>2022-01-29T13:59:02Z</time>
      </trkpt>
      <trkpt lat="45.08397" lon="5.08656">
        <ele>19.6</ele>
        <time>2022-01-29T13:59:06Z</time>
      </trkpt>
      <trkpt lat="45.0838" lon="5.08668">
        <ele>19.8</ele>
        <time>2022-01-29T13:59:10Z</time>
      </trkpt>
      <trkpt lat="45.08357" lon="5.08665">
        <ele>18.8</ele>
        <time>2022-01-29T13:59:14Z</time>
      </trkpt>
      <trkpt lat="45.08333" lon="5.08671">
        <ele>17.8</ele>
        <time>2022-01-29T13:59:18Z</time>
      </trkpt>
      <trkpt lat="45.08307" lon="5.0868">
        <ele>17.4</ele>
        <time>2022-01-29T13:59:22Z</time>
      </trkpt>
      <trkpt lat="45.08282" lon="5.08688">
        <ele>17.2</ele>
        <time>2022-01-29T13:59:26Z</time>
      </trkpt>
      <trkpt lat="45.08258" lon="5.08693">
        <ele>16</ele>
        <time>2022-01-29T13:59:30Z</time>
      </trkpt>
      <trkpt lat="45.08235" lon="5.08701">
        <ele>15.6</ele>
        <time>2022-01-29T13:59:34Z</time>
      </trkpt>
      <trkpt lat="45.08211" lon="5.08698">
        <ele>15.2</ele>
        <time>2022-01-29T13:59:38Z</time>
      </trkpt>
      <trkpt lat="45.08187" lon="5.08702">
        <ele>15</ele>
        <time>2022-01-29T13:59:42Z</time>
      </trkpt>
      <trkpt lat="45.08163" lon="5.08706">
        <ele>14.2</ele>
        <time>2022-01-29T13:59:46Z</time>
      </trkpt>
      <trkpt lat="45.08143" lon="5.08697">
        <ele>14.2</ele>
        <time>2022-01-29T13:59:50Z</time>
      </trkpt>
      <trkpt lat="45.08125" lon="5.08682">
        <ele>13.8</ele>
        <time>2022-01-29T13:59:54Z</time>
      </trkpt>
      <trkpt lat="45.08107" lon="5.08666">
        <ele>13.2</ele>
        <time>2022-01-29T13:59:58Z</time>
      </trkpt>
      <trkpt lat="45.0809" lon="5.08648">
        <ele>12.8</ele>
        <time>2022-01-29T14:00:02Z</time>
      </trkpt>
      <trkpt lat="45.08072" lon="5.08631">
        <ele>12.4</ele>
        <time>2022-01-29T14:00:06Z</time>
      </trkpt>
      <trkpt lat="45.08054" lon="5.08614">
        <ele>12.2</ele>
        <time>2022-01-29T14:00:10Z</time>
      </trkpt>
      <trkpt lat="45.08038" lon="5.08598">
        <ele>12.2</ele>
        <time>2022-01-29T14:00:14Z</time>
      </trkpt>
      <trkpt lat="45.08022" lon="5.08581">
        <ele>12</ele>
        <time>2022-01-29T14:00:18Z</time>
      </trkpt>
      <trkpt lat="45.0801" lon="5.08566">
        <ele>11.8</ele>
        <time>2022-01-29T14:00:22Z</time>
      </trkpt>
      <trkpt lat="45.08006" lon="5.08546">
        <ele>11.4</ele>
        <time>2022-01-29T14:00:26Z</time>
      </trkpt>
      <trkpt lat="45.0802" lon="5.0853">
        <ele>11.2</ele>
        <time>2022-01-29T14:00:30Z</time>
      </trkpt>
      <trkpt lat="45.08038" lon="5.08525">
        <ele>11.6</ele>
        <time>2022-01-29T14:00:34Z</time>
      </trkpt>
      <trkpt lat="45.08055" lon="5.08518">
        <ele>11.8</ele>
        <time>2022-01-29T14:00:38Z</time>
      </trkpt>
      <trkpt lat="45.0807" lon="5.08512">
        <ele>11.2</ele>
        <time>2022-01-29T14:00:42Z</time>
      </trkpt>
      <trkpt lat="45.08083" lon="5.08506">
        <ele>11</ele>
        <time>2022-01-29T14:00:46Z</time>
      </trkpt>
      <trkpt lat="45.08091" lon="5.08518">
        <ele>11.8</ele>
        <time>2022-01-29T14:00:50Z</time>
      </trkpt>
      <trkpt lat="45.08098" lon="5.08532">
        <ele>11.8</ele>
        <time>2022-01-29T14:00:54Z</time>
      </trkpt>
    </trkseg>
  </trk>
</gpx>